<?xml version='1.0' encoding='UTF-8'?><gpx version="1.1" creator="JPX - https://github.com/jenetics/jpx" xmlns="http://www.topografix.com/GPX/1/1"><trk><trkseg><trkpt lat="43.35669641817364" lon="5.46284843934273"><ele>196.0</ele><time>2026-05-02T05:15:35Z</time></trkpt><trkpt lat="43.356610889416444" lon="5.462812771413425"><ele>196.0</ele><time>2026-05-02T05:15:39Z</time></trkpt><trkpt lat="43.3565341952267" lon="5.462795163693866"><ele>196.0</ele><time>2026-05-02T05:15:41Z</time></trkpt><trkpt lat="43.35645780616424" lon="5.462847032181227"><ele>196.0</ele><time>2026-05-02T05:15:43Z</time></trkpt><trkpt lat="43.35638452173359" lon="5.462955224322605"><ele>196.0</ele><time>2026-05-02T05:15:44.999Z</time></trkpt><trkpt lat="43.356306531972365" lon="5.463064540117261"><ele>193.33333333333331</ele><time>2026-05-02T05:15:46.999Z</time></trkpt><trkpt lat="43.35626866815514" lon="5.463140487624327"><ele>190.66666666666666</ele><time>2026-05-02T05:15:47.999Z</time></trkpt><trkpt lat="43.35623879689576" lon="5.463239195159828"><ele>188.0</ele><time>2026-05-02T05:15:48.999Z</time></trkpt><trkpt lat="43.356206693445806" lon="5.463349192302127"><ele>185.33333333333331</ele><time>2026-05-02T05:15:49.999Z</time></trkpt><trkpt lat="43.3561826303009" lon="5.4634649146845575"><ele>182.66666666666666</ele><time>2026-05-02T05:15:50.999Z</time></trkpt><trkpt lat="43.356169385806645" lon="5.463584291505648"><ele>180.0</ele><time>2026-05-02T05:15:51.999Z</time></trkpt><trkpt lat="43.356148912440005" lon="5.463701752110507"><ele>178.4</ele><time>2026-05-02T05:15:52.999Z</time></trkpt><trkpt lat="43.3561318708344" lon="5.463814633011183"><ele>176.8</ele><time>2026-05-02T05:15:53.999Z</time></trkpt><trkpt lat="43.35613404101832" lon="5.463929386579516"><ele>175.2</ele><time>2026-05-02T05:15:54.999Z</time></trkpt><trkpt lat="43.356160828246644" lon="5.464044213828028"><ele>173.6</ele><time>2026-05-02T05:15:55.999Z</time></trkpt><trkpt lat="43.35622207413218" lon="5.464149669715394"><ele>172.0</ele><time>2026-05-02T05:15:56.999Z</time></trkpt><trkpt lat="43.35629563665967" lon="5.464244892762949"><ele>172.0</ele><time>2026-05-02T05:15:57.999Z</time></trkpt><trkpt lat="43.35636054327394" lon="5.4643390488226755"><ele>172.0</ele><time>2026-05-02T05:15:58.999Z</time></trkpt><trkpt lat="43.356414111296345" lon="5.464432672826036"><ele>172.0</ele><time>2026-05-02T05:15:59.999Z</time></trkpt><trkpt lat="43.356460490677335" lon="5.464505408475948"><ele>172.0</ele><time>2026-05-02T05:16:00.999Z</time></trkpt><trkpt lat="43.3565026191617" lon="5.4646585552307485"><ele>172.0</ele><time>2026-05-02T05:16:02.999Z</time></trkpt><trkpt lat="43.35647500360912" lon="5.464743985390799"><ele>172.0</ele><time>2026-05-02T05:16:03.999Z</time></trkpt><trkpt lat="43.35640211767958" lon="5.464800487711204"><ele>171.0</ele><time>2026-05-02T05:16:04.999Z</time></trkpt><trkpt lat="43.35635109942586" lon="5.464884438450942"><ele>170.0</ele><time>2026-05-02T05:16:05.999Z</time></trkpt><trkpt lat="43.356294956300296" lon="5.464962872365993"><ele>169.0</ele><time>2026-05-02T05:16:06.999Z</time></trkpt><trkpt lat="43.35624487464942" lon="5.465035263773177"><ele>168.0</ele><time>2026-05-02T05:16:07.999Z</time></trkpt><trkpt lat="43.356214419534105" lon="5.465114672326793"><ele>167.0</ele><time>2026-05-02T05:16:08.999Z</time></trkpt><trkpt lat="43.356184014646615" lon="5.46520098793998"><ele>166.0</ele><time>2026-05-02T05:16:09.999Z</time></trkpt><trkpt lat="43.356229227831165" lon="5.465315969439454"><ele>166.0</ele><time>2026-05-02T05:16:10.999Z</time></trkpt><trkpt lat="43.356273654407865" lon="5.465408970932128"><ele>166.0</ele><time>2026-05-02T05:16:11.999Z</time></trkpt><trkpt lat="43.356312629219346" lon="5.465490210998785"><ele>166.0</ele><time>2026-05-02T05:16:12.999Z</time></trkpt><trkpt lat="43.356347445040264" lon="5.465571950408621"><ele>166.0</ele><time>2026-05-02T05:16:13.999Z</time></trkpt><trkpt lat="43.3563841714253" lon="5.465653084737779"><ele>166.0</ele><time>2026-05-02T05:16:14.999Z</time></trkpt><trkpt lat="43.35641730090915" lon="5.4657338145745955"><ele>166.0</ele><time>2026-05-02T05:16:15.999Z</time></trkpt><trkpt lat="43.35645087607796" lon="5.465816212283978"><ele>166.0</ele><time>2026-05-02T05:16:16.999Z</time></trkpt><trkpt lat="43.356486494377876" lon="5.465897039371556"><ele>165.5</ele><time>2026-05-02T05:16:17.999Z</time></trkpt><trkpt lat="43.356522001282556" lon="5.465974405599158"><ele>165.0</ele><time>2026-05-02T05:16:18.999Z</time></trkpt><trkpt lat="43.356552164437836" lon="5.4660506827352515"><ele>164.5</ele><time>2026-05-02T05:16:19.999Z</time></trkpt><trkpt lat="43.35655788514917" lon="5.4662144944014415"><ele>164.0</ele><time>2026-05-02T05:16:21.999Z</time></trkpt><trkpt lat="43.35652046373155" lon="5.4662913566703875"><ele>163.5</ele><time>2026-05-02T05:16:22.999Z</time></trkpt><trkpt lat="43.35648122329053" lon="5.466449899083343"><ele>163.0</ele><time>2026-05-02T05:16:24.999Z</time></trkpt><trkpt lat="43.356461036680805" lon="5.46655528384816"><ele>162.0</ele><time>2026-05-02T05:16:26.999Z</time></trkpt><trkpt lat="43.35635070379027" lon="5.466615776873439"><ele>161.0</ele><time>2026-05-02T05:16:35.999Z</time></trkpt><trkpt lat="43.35624621249064" lon="5.466616347867051"><ele>160.0</ele><time>2026-05-02T05:16:37.999Z</time></trkpt><trkpt lat="43.35612440761851" lon="5.466610242589033"><ele>159.0</ele><time>2026-05-02T05:16:39.999Z</time></trkpt><trkpt lat="43.356060646798326" lon="5.466591298939815"><ele>158.0</ele><time>2026-05-02T05:16:40.999Z</time></trkpt><trkpt lat="43.355995331478546" lon="5.466571276458889"><ele>158.00000000000003</ele><time>2026-05-02T05:16:41.999Z</time></trkpt><trkpt lat="43.35592741480767" lon="5.46655267517963"><ele>158.0</ele><time>2026-05-02T05:16:42.999Z</time></trkpt><trkpt lat="43.3558574140055" lon="5.466535164126858"><ele>158.0</ele><time>2026-05-02T05:16:43.999Z</time></trkpt><trkpt lat="43.3557906119806" lon="5.466516200463877"><ele>158.0</ele><time>2026-05-02T05:16:44.999Z</time></trkpt><trkpt lat="43.35571921302787" lon="5.466498623121431"><ele>158.0</ele><time>2026-05-02T05:16:45.999Z</time></trkpt><trkpt lat="43.35564738111062" lon="5.466481017025553"><ele>158.00000000000003</ele><time>2026-05-02T05:16:46.999Z</time></trkpt><trkpt lat="43.355571246239464" lon="5.4664672004726595"><ele>158.0</ele><time>2026-05-02T05:16:47.999Z</time></trkpt><trkpt lat="43.35550201412117" lon="5.466447337567273"><ele>157.42857142857144</ele><time>2026-05-02T05:16:48.999Z</time></trkpt><trkpt lat="43.35542957356992" lon="5.4664256328249845"><ele>156.85714285714286</ele><time>2026-05-02T05:16:49.999Z</time></trkpt><trkpt lat="43.35535800555019" lon="5.466405953044602"><ele>156.28571428571428</ele><time>2026-05-02T05:16:51Z</time></trkpt><trkpt lat="43.35528875992797" lon="5.466382477203413"><ele>155.71428571428572</ele><time>2026-05-02T05:16:52Z</time></trkpt><trkpt lat="43.35522307743349" lon="5.466363943945215"><ele>155.14285714285714</ele><time>2026-05-02T05:16:53Z</time></trkpt><trkpt lat="43.355156307645984" lon="5.466347435308369"><ele>154.57142857142858</ele><time>2026-05-02T05:16:54Z</time></trkpt><trkpt lat="43.355090235823646" lon="5.466329160906198"><ele>154.0</ele><time>2026-05-02T05:16:55Z</time></trkpt><trkpt lat="43.35502808823183" lon="5.466309587295608"><ele>154.0</ele><time>2026-05-02T05:16:56Z</time></trkpt><trkpt lat="43.354966962356386" lon="5.4662880604298"><ele>154.0</ele><time>2026-05-02T05:16:57Z</time></trkpt><trkpt lat="43.35485605635826" lon="5.466240693551353"><ele>154.0</ele><time>2026-05-02T05:16:59Z</time></trkpt><trkpt lat="43.35477038809053" lon="5.4661769432362926"><ele>154.0</ele><time>2026-05-02T05:17:01Z</time></trkpt><trkpt lat="43.35468171264155" lon="5.466189005109213"><ele>154.0</ele><time>2026-05-02T05:17:03Z</time></trkpt><trkpt lat="43.35458926635506" lon="5.466249215315453"><ele>154.0</ele><time>2026-05-02T05:17:05Z</time></trkpt><trkpt lat="43.3544853263612" lon="5.4662764807923825"><ele>154.0</ele><time>2026-05-02T05:17:07Z</time></trkpt><trkpt lat="43.35436776058035" lon="5.4662926225097"><ele>154.0</ele><time>2026-05-02T05:17:09Z</time></trkpt><trkpt lat="43.35430513113207" lon="5.466309540152282"><ele>154.0</ele><time>2026-05-02T05:17:10Z</time></trkpt><trkpt lat="43.354183951474454" lon="5.4663579258146235"><ele>154.0</ele><time>2026-05-02T05:17:12Z</time></trkpt><trkpt lat="43.354063065705915" lon="5.46642576272539"><ele>154.0</ele><time>2026-05-02T05:17:14Z</time></trkpt><trkpt lat="43.35400176702404" lon="5.466452462402855"><ele>154.0</ele><time>2026-05-02T05:17:15Z</time></trkpt><trkpt lat="43.35393881895326" lon="5.4664808050224964"><ele>154.0</ele><time>2026-05-02T05:17:16Z</time></trkpt><trkpt lat="43.35381664039987" lon="5.466536071286621"><ele>154.0</ele><time>2026-05-02T05:17:18Z</time></trkpt><trkpt lat="43.353753610693325" lon="5.466563505497624"><ele>154.0</ele><time>2026-05-02T05:17:19Z</time></trkpt><trkpt lat="43.35368957738665" lon="5.466593032748708"><ele>154.0</ele><time>2026-05-02T05:17:20Z</time></trkpt><trkpt lat="43.35362914135273" lon="5.466631100819547"><ele>153.57142857142858</ele><time>2026-05-02T05:17:21Z</time></trkpt><trkpt lat="43.35356554168465" lon="5.46666994741796"><ele>153.14285714285714</ele><time>2026-05-02T05:17:22Z</time></trkpt><trkpt lat="43.35350249766225" lon="5.466705974357538"><ele>152.71428571428572</ele><time>2026-05-02T05:17:23Z</time></trkpt><trkpt lat="43.35344218329081" lon="5.466752157774681"><ele>152.28571428571428</ele><time>2026-05-02T05:17:24Z</time></trkpt><trkpt lat="43.35337769284038" lon="5.466796891742958"><ele>151.85714285714286</ele><time>2026-05-02T05:17:25Z</time></trkpt><trkpt lat="43.35331319048837" lon="5.466832374932294"><ele>151.42857142857144</ele><time>2026-05-02T05:17:26Z</time></trkpt><trkpt lat="43.35324786287745" lon="5.466870202100905"><ele>151.0</ele><time>2026-05-02T05:17:27Z</time></trkpt><trkpt lat="43.35318369006466" lon="5.466909483555689"><ele>151.00000000000003</ele><time>2026-05-02T05:17:28Z</time></trkpt><trkpt lat="43.35311764265751" lon="5.466952778426065"><ele>151.0</ele><time>2026-05-02T05:17:29Z</time></trkpt><trkpt lat="43.353050667237795" lon="5.466995719457395"><ele>151.0</ele><time>2026-05-02T05:17:30Z</time></trkpt><trkpt lat="43.35298885719566" lon="5.467041315180365"><ele>151.0</ele><time>2026-05-02T05:17:31Z</time></trkpt><trkpt lat="43.352919111307656" lon="5.467085608709363"><ele>151.0</ele><time>2026-05-02T05:17:32Z</time></trkpt><trkpt lat="43.35285033559992" lon="5.467132228596117"><ele>151.00000000000003</ele><time>2026-05-02T05:17:33Z</time></trkpt><trkpt lat="43.352781431865836" lon="5.467177598852002"><ele>151.0</ele><time>2026-05-02T05:17:33.999Z</time></trkpt><trkpt lat="43.35271287587796" lon="5.467225741556318"><ele>150.33333333333334</ele><time>2026-05-02T05:17:34.999Z</time></trkpt><trkpt lat="43.352645925409895" lon="5.467275756569479"><ele>149.66666666666669</ele><time>2026-05-02T05:17:35.999Z</time></trkpt><trkpt lat="43.35257939214741" lon="5.467327213410291"><ele>149.0</ele><time>2026-05-02T05:17:36.999Z</time></trkpt><trkpt lat="43.35251221031146" lon="5.467379167467262"><ele>148.33333333333334</ele><time>2026-05-02T05:17:37.999Z</time></trkpt><trkpt lat="43.35244379373787" lon="5.4674264092042275"><ele>147.66666666666666</ele><time>2026-05-02T05:17:38.999Z</time></trkpt><trkpt lat="43.35237825648847" lon="5.467476017672443"><ele>147.0</ele><time>2026-05-02T05:17:39.999Z</time></trkpt><trkpt lat="43.35231345142583" lon="5.467531372820221"><ele>147.0</ele><time>2026-05-02T05:17:40.999Z</time></trkpt><trkpt lat="43.35225387465886" lon="5.467588909211658"><ele>147.0</ele><time>2026-05-02T05:17:41.999Z</time></trkpt><trkpt lat="43.352196481947225" lon="5.467646622179477"><ele>147.0</ele><time>2026-05-02T05:17:42.999Z</time></trkpt><trkpt lat="43.35213882703645" lon="5.467709827287212"><ele>147.0</ele><time>2026-05-02T05:17:43.999Z</time></trkpt><trkpt lat="43.352077845165375" lon="5.4677690994048485"><ele>147.0</ele><time>2026-05-02T05:17:44.999Z</time></trkpt><trkpt lat="43.35201904409289" lon="5.467829822100038"><ele>147.0</ele><time>2026-05-02T05:17:45.999Z</time></trkpt><trkpt lat="43.35195882096197" lon="5.467890448360314"><ele>147.0</ele><time>2026-05-02T05:17:46.999Z</time></trkpt><trkpt lat="43.35190056652427" lon="5.467948753975538"><ele>146.16666666666666</ele><time>2026-05-02T05:17:47.999Z</time></trkpt><trkpt lat="43.351836243823946" lon="5.4679970091148515"><ele>145.33333333333334</ele><time>2026-05-02T05:17:48.999Z</time></trkpt><trkpt lat="43.351763408830614" lon="5.4680438812832906"><ele>144.5</ele><time>2026-05-02T05:17:49.999Z</time></trkpt><trkpt lat="43.351681962559326" lon="5.46808567687879"><ele>143.66666666666669</ele><time>2026-05-02T05:17:50.999Z</time></trkpt><trkpt lat="43.35159309243713" lon="5.468123747403677"><ele>142.83333333333334</ele><time>2026-05-02T05:17:51.999Z</time></trkpt><trkpt lat="43.351499271162524" lon="5.468147856897598"><ele>142.0</ele><time>2026-05-02T05:17:52.999Z</time></trkpt><trkpt lat="43.35140650442291" lon="5.468154924800828"><ele>141.4</ele><time>2026-05-02T05:17:53.999Z</time></trkpt><trkpt lat="43.351307631208414" lon="5.468157038680471"><ele>140.79999999999998</ele><time>2026-05-02T05:17:54.999Z</time></trkpt><trkpt lat="43.35121161298444" lon="5.4681615141170425"><ele>140.2</ele><time>2026-05-02T05:17:55.999Z</time></trkpt><trkpt lat="43.35111156839662" lon="5.46816605050083"><ele>139.6</ele><time>2026-05-02T05:17:56.999Z</time></trkpt><trkpt lat="43.35101420660902" lon="5.468178539610636"><ele>139.0</ele><time>2026-05-02T05:17:57.999Z</time></trkpt><trkpt lat="43.35091817285171" lon="5.468186497936244"><ele>139.0</ele><time>2026-05-02T05:17:58.999Z</time></trkpt><trkpt lat="43.35082503130548" lon="5.468196342250404"><ele>139.0</ele><time>2026-05-02T05:17:59.999Z</time></trkpt><trkpt lat="43.350736513985275" lon="5.4682127249717505"><ele>139.0</ele><time>2026-05-02T05:18:00.999Z</time></trkpt><trkpt lat="43.35064610051833" lon="5.468231829699204"><ele>139.0</ele><time>2026-05-02T05:18:01.999Z</time></trkpt><trkpt lat="43.35055937010247" lon="5.46825160915141"><ele>139.0</ele><time>2026-05-02T05:18:02.999Z</time></trkpt><trkpt lat="43.35047345495542" lon="5.468274050855447"><ele>139.0</ele><time>2026-05-02T05:18:03.999Z</time></trkpt><trkpt lat="43.35039107383422" lon="5.468301740842685"><ele>139.0</ele><time>2026-05-02T05:18:04.999Z</time></trkpt><trkpt lat="43.35030859696305" lon="5.468330079588122"><ele>139.0</ele><time>2026-05-02T05:18:05.999Z</time></trkpt><trkpt lat="43.35022976297983" lon="5.4683584567530765"><ele>139.0</ele><time>2026-05-02T05:18:06.999Z</time></trkpt><trkpt lat="43.35015043869649" lon="5.468383500003178"><ele>139.0</ele><time>2026-05-02T05:18:07.999Z</time></trkpt><trkpt lat="43.35007275341469" lon="5.468415873064445"><ele>139.0</ele><time>2026-05-02T05:18:08.999Z</time></trkpt><trkpt lat="43.349997098696775" lon="5.468452995112104"><ele>139.0</ele><time>2026-05-02T05:18:09.999Z</time></trkpt><trkpt lat="43.349923200802" lon="5.468483842122425"><ele>139.0</ele><time>2026-05-02T05:18:10.999Z</time></trkpt><trkpt lat="43.34984797259297" lon="5.468512727397595"><ele>139.0</ele><time>2026-05-02T05:18:11.999Z</time></trkpt><trkpt lat="43.349775526310495" lon="5.468540774720472"><ele>139.0</ele><time>2026-05-02T05:18:12.999Z</time></trkpt><trkpt lat="43.34970416431015" lon="5.468572814022859"><ele>139.0</ele><time>2026-05-02T05:18:13.999Z</time></trkpt><trkpt lat="43.34963388153727" lon="5.468600609640289"><ele>139.0</ele><time>2026-05-02T05:18:14.999Z</time></trkpt><trkpt lat="43.349564605790604" lon="5.468627637907491"><ele>138.5</ele><time>2026-05-02T05:18:15.999Z</time></trkpt><trkpt lat="43.34949604546517" lon="5.468657484363078"><ele>138.0</ele><time>2026-05-02T05:18:16.999Z</time></trkpt><trkpt lat="43.34942756670206" lon="5.468686100468191"><ele>137.5</ele><time>2026-05-02T05:18:17.999Z</time></trkpt><trkpt lat="43.34936557819703" lon="5.468708666444878"><ele>137.0</ele><time>2026-05-02T05:18:18.999Z</time></trkpt><trkpt lat="43.34927388121506" lon="5.468711458852302"><ele>136.5</ele><time>2026-05-02T05:18:20.999Z</time></trkpt><trkpt lat="43.34920461648452" lon="5.468669144570999"><ele>136.0</ele><time>2026-05-02T05:18:22.999Z</time></trkpt><trkpt lat="43.34913826618225" lon="5.468522120171188"><ele>136.0</ele><time>2026-05-02T05:18:24.999Z</time></trkpt><trkpt lat="43.3490979957851" lon="5.468354138781671"><ele>136.0</ele><time>2026-05-02T05:18:26.999Z</time></trkpt><trkpt lat="43.349076582383155" lon="5.4682715848826735"><ele>136.0</ele><time>2026-05-02T05:18:27.999Z</time></trkpt><trkpt lat="43.349053292275016" lon="5.468185133071488"><ele>136.0</ele><time>2026-05-02T05:18:28.999Z</time></trkpt><trkpt lat="43.34902796042683" lon="5.468102649376235"><ele>136.0</ele><time>2026-05-02T05:18:29.999Z</time></trkpt><trkpt lat="43.349017642915236" lon="5.4680069362007195"><ele>136.0</ele><time>2026-05-02T05:18:30.999Z</time></trkpt><trkpt lat="43.348996555985494" lon="5.467924086732992"><ele>136.0</ele><time>2026-05-02T05:18:31.999Z</time></trkpt><trkpt lat="43.34896996620803" lon="5.467819618277183"><ele>136.0</ele><time>2026-05-02T05:18:33.999Z</time></trkpt><trkpt lat="43.348810165969326" lon="5.4679062448575"><ele>136.0</ele><time>2026-05-02T05:18:34.999Z</time></trkpt><trkpt lat="43.348756441696295" lon="5.467964519038065"><ele>136.0</ele><time>2026-05-02T05:18:35.999Z</time></trkpt><trkpt lat="43.348701384021595" lon="5.468010488291928"><ele>136.0</ele><time>2026-05-02T05:18:36.999Z</time></trkpt><trkpt lat="43.34863645944883" lon="5.468003054282154"><ele>135.4</ele><time>2026-05-02T05:18:37.999Z</time></trkpt><trkpt lat="43.34857299392394" lon="5.4679977821385535"><ele>134.8</ele><time>2026-05-02T05:18:38.999Z</time></trkpt><trkpt lat="43.3485035920251" lon="5.468008865180417"><ele>134.20000000000002</ele><time>2026-05-02T05:18:39.999Z</time></trkpt><trkpt lat="43.34837850730828" lon="5.46800847881839"><ele>133.6</ele><time>2026-05-02T05:18:41.999Z</time></trkpt><trkpt lat="43.34825727804744" lon="5.468003884645247"><ele>133.0</ele><time>2026-05-02T05:18:43.999Z</time></trkpt><trkpt lat="43.348134630828625" lon="5.468005088309255"><ele>133.5</ele><time>2026-05-02T05:18:45.999Z</time></trkpt><trkpt lat="43.348015595637435" lon="5.468009801281193"><ele>134.0</ele><time>2026-05-02T05:18:47.999Z</time></trkpt><trkpt lat="43.34789794364831" lon="5.4680152563947795"><ele>134.5</ele><time>2026-05-02T05:18:49.999Z</time></trkpt><trkpt lat="43.347777288807016" lon="5.468022724953682"><ele>135.0</ele><time>2026-05-02T05:18:51.999Z</time></trkpt><trkpt lat="43.34765882722121" lon="5.468009561669925"><ele>135.0</ele><time>2026-05-02T05:18:53.999Z</time></trkpt><trkpt lat="43.347547188445446" lon="5.467965548245679"><ele>135.0</ele><time>2026-05-02T05:18:55.999Z</time></trkpt><trkpt lat="43.34744122037179" lon="5.4680206164826455"><ele>135.0</ele><time>2026-05-02T05:18:58Z</time></trkpt><trkpt lat="43.34735748939206" lon="5.468100371517929"><ele>135.0</ele><time>2026-05-02T05:19:00Z</time></trkpt><trkpt lat="43.34727988439303" lon="5.468170484699612"><ele>135.0</ele><time>2026-05-02T05:19:02Z</time></trkpt><trkpt lat="43.347193461637545" lon="5.468235671483985"><ele>135.0</ele><time>2026-05-02T05:19:04Z</time></trkpt><trkpt lat="43.3471115769067" lon="5.468336564505317"><ele>135.0</ele><time>2026-05-02T05:19:06Z</time></trkpt><trkpt lat="43.34704886559161" lon="5.468458530933168"><ele>135.0</ele><time>2026-05-02T05:19:08Z</time></trkpt><trkpt lat="43.346982561776194" lon="5.468571379937558"><ele>135.0</ele><time>2026-05-02T05:19:10Z</time></trkpt><trkpt lat="43.34691261359161" lon="5.468705072705307"><ele>135.0</ele><time>2026-05-02T05:19:12Z</time></trkpt><trkpt lat="43.34687461741791" lon="5.468774569858933"><ele>135.16666666666666</ele><time>2026-05-02T05:19:13Z</time></trkpt><trkpt lat="43.34681426653063" lon="5.468827746954466"><ele>135.33333333333334</ele><time>2026-05-02T05:19:14Z</time></trkpt><trkpt lat="43.34675986820245" lon="5.4688907792420745"><ele>135.5</ele><time>2026-05-02T05:19:15Z</time></trkpt><trkpt lat="43.34670678732814" lon="5.468950648253449"><ele>135.66666666666669</ele><time>2026-05-02T05:19:16Z</time></trkpt><trkpt lat="43.34665442381918" lon="5.469009707905385"><ele>135.83333333333334</ele><time>2026-05-02T05:19:17Z</time></trkpt><trkpt lat="43.34660570479688" lon="5.4690646585618685"><ele>136.0</ele><time>2026-05-02T05:19:18Z</time></trkpt><trkpt lat="43.346522029397384" lon="5.469188677385999"><ele>136.0</ele><time>2026-05-02T05:19:20Z</time></trkpt><trkpt lat="43.346433108459436" lon="5.4692919564848"><ele>136.0</ele><time>2026-05-02T05:19:22Z</time></trkpt><trkpt lat="43.34634913963808" lon="5.4693933255041305"><ele>136.0</ele><time>2026-05-02T05:19:24Z</time></trkpt><trkpt lat="43.34627589540885" lon="5.46949406879624"><ele>136.0</ele><time>2026-05-02T05:19:26Z</time></trkpt><trkpt lat="43.346191459001886" lon="5.469561963695178"><ele>136.0</ele><time>2026-05-02T05:19:28Z</time></trkpt><trkpt lat="43.34610502296591" lon="5.4696240299605865"><ele>136.6</ele><time>2026-05-02T05:19:30Z</time></trkpt><trkpt lat="43.34602343885013" lon="5.46969330054868"><ele>137.2</ele><time>2026-05-02T05:19:32Z</time></trkpt><trkpt lat="43.34593388891825" lon="5.4697403804243"><ele>137.8</ele><time>2026-05-02T05:19:34Z</time></trkpt><trkpt lat="43.3458452768759" lon="5.4697947928954225"><ele>138.4</ele><time>2026-05-02T05:19:36Z</time></trkpt><trkpt lat="43.345755690660006" lon="5.469849103152091"><ele>139.0</ele><time>2026-05-02T05:19:38Z</time></trkpt><trkpt lat="43.345663701518845" lon="5.46990555895985"><ele>139.0</ele><time>2026-05-02T05:19:40Z</time></trkpt><trkpt lat="43.34557413452171" lon="5.469970678731088"><ele>139.0</ele><time>2026-05-02T05:19:42Z</time></trkpt><trkpt lat="43.34548550052103" lon="5.470040100557635"><ele>139.0</ele><time>2026-05-02T05:19:44Z</time></trkpt><trkpt lat="43.34539230323996" lon="5.470084016388003"><ele>139.0</ele><time>2026-05-02T05:19:46Z</time></trkpt><trkpt lat="43.34530554734328" lon="5.470145247439474"><ele>139.0</ele><time>2026-05-02T05:19:48Z</time></trkpt><trkpt lat="43.345215741171785" lon="5.470201972711227"><ele>139.0</ele><time>2026-05-02T05:19:49.999Z</time></trkpt><trkpt lat="43.345127522065795" lon="5.470257741931108"><ele>139.0</ele><time>2026-05-02T05:19:51.999Z</time></trkpt><trkpt lat="43.34503660634225" lon="5.470313689899941"><ele>139.0</ele><time>2026-05-02T05:19:53.999Z</time></trkpt><trkpt lat="43.34494649167093" lon="5.470368516395606"><ele>139.0</ele><time>2026-05-02T05:19:55.999Z</time></trkpt><trkpt lat="43.34486320990304" lon="5.470420440267104"><ele>139.0</ele><time>2026-05-02T05:19:57.999Z</time></trkpt><trkpt lat="43.34478219808447" lon="5.470468448678143"><ele>140.5</ele><time>2026-05-02T05:19:59.999Z</time></trkpt><trkpt lat="43.34470555407006" lon="5.47051213489621"><ele>142.0</ele><time>2026-05-02T05:20:01.999Z</time></trkpt><trkpt lat="43.34462223505289" lon="5.470555643943472"><ele>143.5</ele><time>2026-05-02T05:20:03.999Z</time></trkpt><trkpt lat="43.34453345981067" lon="5.470603925209609"><ele>145.0</ele><time>2026-05-02T05:20:05.999Z</time></trkpt><trkpt lat="43.34445217025485" lon="5.470648653737466"><ele>146.5</ele><time>2026-05-02T05:20:07.999Z</time></trkpt><trkpt lat="43.34437072360215" lon="5.470696468195612"><ele>148.0</ele><time>2026-05-02T05:20:09.999Z</time></trkpt><trkpt lat="43.34428969828217" lon="5.470746525025183"><ele>148.0</ele><time>2026-05-02T05:20:11.999Z</time></trkpt><trkpt lat="43.344211031329124" lon="5.470798764775138"><ele>148.0</ele><time>2026-05-02T05:20:13.999Z</time></trkpt><trkpt lat="43.34412623820371" lon="5.470861873569826"><ele>148.0</ele><time>2026-05-02T05:20:15.999Z</time></trkpt><trkpt lat="43.344055063183816" lon="5.470942109421857"><ele>148.0</ele><time>2026-05-02T05:20:17.999Z</time></trkpt><trkpt lat="43.343978078021394" lon="5.470998342581212"><ele>148.0</ele><time>2026-05-02T05:20:19.999Z</time></trkpt><trkpt lat="43.34390000028281" lon="5.4710506389655"><ele>148.0</ele><time>2026-05-02T05:20:21.999Z</time></trkpt><trkpt lat="43.343816194147685" lon="5.471091954937481"><ele>148.0</ele><time>2026-05-02T05:20:23.999Z</time></trkpt><trkpt lat="43.3437404046156" lon="5.471148593007236"><ele>148.0</ele><time>2026-05-02T05:20:25.999Z</time></trkpt><trkpt lat="43.34367124610409" lon="5.471216373724565"><ele>148.0</ele><time>2026-05-02T05:20:27.999Z</time></trkpt><trkpt lat="43.343612575452894" lon="5.471305578806577"><ele>148.0</ele><time>2026-05-02T05:20:29.999Z</time></trkpt><trkpt lat="43.343558500992245" lon="5.471398573763171"><ele>148.0</ele><time>2026-05-02T05:20:31.999Z</time></trkpt><trkpt lat="43.34350792204517" lon="5.47149055975457"><ele>149.6</ele><time>2026-05-02T05:20:33.999Z</time></trkpt><trkpt lat="43.34346729152238" lon="5.471600239871273"><ele>151.20000000000002</ele><time>2026-05-02T05:20:35.999Z</time></trkpt><trkpt lat="43.34340962144079" lon="5.471694450390085"><ele>152.8</ele><time>2026-05-02T05:20:37.999Z</time></trkpt><trkpt lat="43.34337410697182" lon="5.471813756149851"><ele>154.4</ele><time>2026-05-02T05:20:39.999Z</time></trkpt><trkpt lat="43.34333138578737" lon="5.471930575106645"><ele>156.0</ele><time>2026-05-02T05:20:41.999Z</time></trkpt><trkpt lat="43.34326940273568" lon="5.472037680201377"><ele>156.0</ele><time>2026-05-02T05:20:43.999Z</time></trkpt><trkpt lat="43.343224703365244" lon="5.472164524435773"><ele>156.0</ele><time>2026-05-02T05:20:45.999Z</time></trkpt><trkpt lat="43.343151431668666" lon="5.472268348529892"><ele>156.0</ele><time>2026-05-02T05:20:47.999Z</time></trkpt><trkpt lat="43.34305433890032" lon="5.472339786569902"><ele>156.0</ele><time>2026-05-02T05:20:49.999Z</time></trkpt><trkpt lat="43.342977185999004" lon="5.472441505412589"><ele>156.0</ele><time>2026-05-02T05:20:51.999Z</time></trkpt><trkpt lat="43.34287641699145" lon="5.472492721129272"><ele>156.0</ele><time>2026-05-02T05:20:53.999Z</time></trkpt><trkpt lat="43.342790273834616" lon="5.472574961634457"><ele>156.0</ele><time>2026-05-02T05:20:55.999Z</time></trkpt><trkpt lat="43.34269521614333" lon="5.472637155002478"><ele>156.0</ele><time>2026-05-02T05:20:57.999Z</time></trkpt><trkpt lat="43.3426010939368" lon="5.472695272827834"><ele>156.0</ele><time>2026-05-02T05:20:59.999Z</time></trkpt><trkpt lat="43.34250666479825" lon="5.472737969719646"><ele>156.0</ele><time>2026-05-02T05:21:01.999Z</time></trkpt><trkpt lat="43.342416976106165" lon="5.4727945685925246"><ele>156.0</ele><time>2026-05-02T05:21:04Z</time></trkpt><trkpt lat="43.34232573426755" lon="5.472841251239635"><ele>156.0</ele><time>2026-05-02T05:21:06Z</time></trkpt><trkpt lat="43.34223009716887" lon="5.4728791725561505"><ele>156.0</ele><time>2026-05-02T05:21:08Z</time></trkpt><trkpt lat="43.34213236803142" lon="5.472928496711677"><ele>156.0</ele><time>2026-05-02T05:21:10Z</time></trkpt><trkpt lat="43.342031482514095" lon="5.472963899049948"><ele>156.0</ele><time>2026-05-02T05:21:12Z</time></trkpt><trkpt lat="43.3419262931149" lon="5.4729682478222434"><ele>157.4</ele><time>2026-05-02T05:21:14Z</time></trkpt><trkpt lat="43.34182513154085" lon="5.473004550246408"><ele>158.8</ele><time>2026-05-02T05:21:16Z</time></trkpt><trkpt lat="43.341718083904816" lon="5.4730220153844495"><ele>160.20000000000002</ele><time>2026-05-02T05:21:18Z</time></trkpt><trkpt lat="43.341617402392195" lon="5.473024030675741"><ele>161.6</ele><time>2026-05-02T05:21:20Z</time></trkpt><trkpt lat="43.34152602999518" lon="5.473069713740525"><ele>163.0</ele><time>2026-05-02T05:21:22Z</time></trkpt><trkpt lat="43.341443618862726" lon="5.473109659284908"><ele>163.0</ele><time>2026-05-02T05:21:24Z</time></trkpt><trkpt lat="43.341372421357136" lon="5.473233366388379"><ele>163.0</ele><time>2026-05-02T05:21:26Z</time></trkpt><trkpt lat="43.34133638459736" lon="5.473349826632572"><ele>163.0</ele><time>2026-05-02T05:21:28Z</time></trkpt><trkpt lat="43.34129201467533" lon="5.473457463548858"><ele>163.0</ele><time>2026-05-02T05:21:30Z</time></trkpt><trkpt lat="43.34124493151631" lon="5.473560073151137"><ele>163.0</ele><time>2026-05-02T05:21:32Z</time></trkpt><trkpt lat="43.34119227550857" lon="5.473649976349875"><ele>163.0</ele><time>2026-05-02T05:21:34Z</time></trkpt><trkpt lat="43.34113723405205" lon="5.473743103322422"><ele>163.0</ele><time>2026-05-02T05:21:36Z</time></trkpt><trkpt lat="43.34108058917776" lon="5.473831218302377"><ele>163.0</ele><time>2026-05-02T05:21:38Z</time></trkpt><trkpt lat="43.34102206354527" lon="5.473920541762624"><ele>163.0</ele><time>2026-05-02T05:21:40Z</time></trkpt><trkpt lat="43.34096199153018" lon="5.474014587021913"><ele>163.0</ele><time>2026-05-02T05:21:42Z</time></trkpt><trkpt lat="43.34090897038819" lon="5.474112730970357"><ele>163.0</ele><time>2026-05-02T05:21:44Z</time></trkpt><trkpt lat="43.34084204506732" lon="5.474194829173139"><ele>164.0</ele><time>2026-05-02T05:21:46Z</time></trkpt><trkpt lat="43.340806935242576" lon="5.474310748441867"><ele>165.0</ele><time>2026-05-02T05:21:48Z</time></trkpt><trkpt lat="43.34076126398693" lon="5.474411780277932"><ele>166.0</ele><time>2026-05-02T05:21:50Z</time></trkpt><trkpt lat="43.34070837458761" lon="5.474519321348489"><ele>167.0</ele><time>2026-05-02T05:21:52Z</time></trkpt><trkpt lat="43.3406435078964" lon="5.474622341814045"><ele>168.0</ele><time>2026-05-02T05:21:54Z</time></trkpt><trkpt lat="43.34059066438374" lon="5.474725242509455"><ele>167.8</ele><time>2026-05-02T05:21:56Z</time></trkpt><trkpt lat="43.340534807340156" lon="5.474826489398645"><ele>167.60000000000002</ele><time>2026-05-02T05:21:58Z</time></trkpt><trkpt lat="43.34047099570658" lon="5.474920461709261"><ele>167.39999999999998</ele><time>2026-05-02T05:22:00Z</time></trkpt><trkpt lat="43.34039801402446" lon="5.475001447608162"><ele>167.2</ele><time>2026-05-02T05:22:02Z</time></trkpt><trkpt lat="43.340327656710656" lon="5.475090387132929"><ele>167.0</ele><time>2026-05-02T05:22:03.999Z</time></trkpt><trkpt lat="43.34026116885899" lon="5.475177193371222"><ele>167.0</ele><time>2026-05-02T05:22:05.999Z</time></trkpt><trkpt lat="43.340190756844834" lon="5.4752647472221705"><ele>167.0</ele><time>2026-05-02T05:22:07.999Z</time></trkpt><trkpt lat="43.34012175352856" lon="5.475350150665798"><ele>167.0</ele><time>2026-05-02T05:22:09.999Z</time></trkpt><trkpt lat="43.34004800208873" lon="5.475437053081124"><ele>167.0</ele><time>2026-05-02T05:22:11.999Z</time></trkpt><trkpt lat="43.33998924243738" lon="5.475529503816792"><ele>167.0</ele><time>2026-05-02T05:22:13.999Z</time></trkpt><trkpt lat="43.33992177818483" lon="5.47560363560747"><ele>167.66666666666666</ele><time>2026-05-02T05:22:15.999Z</time></trkpt><trkpt lat="43.3399398207109" lon="5.475702011365135"><ele>168.33333333333331</ele><time>2026-05-02T05:22:16.999Z</time></trkpt><trkpt lat="43.339925447962095" lon="5.475820367581217"><ele>169.0</ele><time>2026-05-02T05:22:18.999Z</time></trkpt><trkpt lat="43.339907248577376" lon="5.475931587612406"><ele>169.66666666666666</ele><time>2026-05-02T05:22:20.999Z</time></trkpt><trkpt lat="43.3398912516629" lon="5.476033262295161"><ele>170.33333333333334</ele><time>2026-05-02T05:22:22.999Z</time></trkpt><trkpt lat="43.339879202984946" lon="5.476143787644082"><ele>171.0</ele><time>2026-05-02T05:22:24.999Z</time></trkpt><trkpt lat="43.339856913571886" lon="5.476250554254912"><ele>171.8</ele><time>2026-05-02T05:22:26.999Z</time></trkpt><trkpt lat="43.33983100800613" lon="5.476349476213262"><ele>172.60000000000002</ele><time>2026-05-02T05:22:28.999Z</time></trkpt><trkpt lat="43.33980561667361" lon="5.4764515722215945"><ele>173.4</ele><time>2026-05-02T05:22:30.999Z</time></trkpt><trkpt lat="43.33977402469669" lon="5.476537276432097"><ele>174.2</ele><time>2026-05-02T05:22:32.999Z</time></trkpt><trkpt lat="43.33971036972532" lon="5.476616870571052"><ele>175.0</ele><time>2026-05-02T05:22:35.999Z</time></trkpt><trkpt lat="43.339530092058354" lon="5.476601071272034"><ele>175.0</ele><time>2026-05-02T05:22:38.999Z</time></trkpt><trkpt lat="43.33944299013274" lon="5.476615108467832"><ele>175.0</ele><time>2026-05-02T05:22:40.999Z</time></trkpt><trkpt lat="43.339357584094444" lon="5.47663052320464"><ele>175.0</ele><time>2026-05-02T05:22:42.999Z</time></trkpt><trkpt lat="43.33927059373462" lon="5.47664310569946"><ele>175.0</ele><time>2026-05-02T05:22:44.999Z</time></trkpt><trkpt lat="43.33918241468096" lon="5.476659623041421"><ele>175.0</ele><time>2026-05-02T05:22:46.999Z</time></trkpt><trkpt lat="43.33909023543831" lon="5.476686287766365"><ele>175.0</ele><time>2026-05-02T05:22:48.999Z</time></trkpt><trkpt lat="43.33900053444757" lon="5.47670204433386"><ele>175.0</ele><time>2026-05-02T05:22:50.999Z</time></trkpt><trkpt lat="43.33890713782599" lon="5.476702390890783"><ele>175.0</ele><time>2026-05-02T05:22:52.999Z</time></trkpt><trkpt lat="43.33881525584419" lon="5.476701238175891"><ele>175.0</ele><time>2026-05-02T05:22:54.999Z</time></trkpt><trkpt lat="43.33871927502046" lon="5.4767125579735"><ele>175.0</ele><time>2026-05-02T05:22:56.999Z</time></trkpt><trkpt lat="43.33862115440103" lon="5.476724404928574"><ele>175.0</ele><time>2026-05-02T05:22:58.999Z</time></trkpt><trkpt lat="43.338521392716906" lon="5.476738636116709"><ele>174.83333333333334</ele><time>2026-05-02T05:23:00.999Z</time></trkpt><trkpt lat="43.33841737157606" lon="5.476749774492285"><ele>174.66666666666669</ele><time>2026-05-02T05:23:02.999Z</time></trkpt><trkpt lat="43.33833245971411" lon="5.476743164080336"><ele>174.5</ele><time>2026-05-02T05:23:04.999Z</time></trkpt><trkpt lat="43.338247167612316" lon="5.476755282618018"><ele>174.33333333333334</ele><time>2026-05-02T05:23:10Z</time></trkpt><trkpt lat="43.338206493846705" lon="5.47686300292839"><ele>174.16666666666666</ele><time>2026-05-02T05:23:12Z</time></trkpt><trkpt lat="43.338195100415525" lon="5.476978450773541"><ele>174.0</ele><time>2026-05-02T05:23:14Z</time></trkpt><trkpt lat="43.3381827689531" lon="5.477091127333655"><ele>175.0</ele><time>2026-05-02T05:23:16Z</time></trkpt><trkpt lat="43.33817690870644" lon="5.477210947523106"><ele>176.0</ele><time>2026-05-02T05:23:18Z</time></trkpt><trkpt lat="43.338173920729744" lon="5.4773311241249205"><ele>177.0</ele><time>2026-05-02T05:23:20Z</time></trkpt><trkpt lat="43.33817074661714" lon="5.4774537716196905"><ele>178.0</ele><time>2026-05-02T05:23:22Z</time></trkpt><trkpt lat="43.33816719581002" lon="5.477584185034814"><ele>179.0</ele><time>2026-05-02T05:23:24Z</time></trkpt><trkpt lat="43.338164306577056" lon="5.477708623755632"><ele>179.0</ele><time>2026-05-02T05:23:26Z</time></trkpt><trkpt lat="43.33816164099236" lon="5.477890319872778"><ele>179.0</ele><time>2026-05-02T05:23:29Z</time></trkpt><trkpt lat="43.33816000083386" lon="5.478008739090056"><ele>179.0</ele><time>2026-05-02T05:23:31Z</time></trkpt><trkpt lat="43.33816346037086" lon="5.478127576773598"><ele>179.0</ele><time>2026-05-02T05:23:33Z</time></trkpt><trkpt lat="43.33817069178222" lon="5.478246740422406"><ele>179.0</ele><time>2026-05-02T05:23:35Z</time></trkpt><trkpt lat="43.33818258454904" lon="5.478372324781819"><ele>179.33333333333331</ele><time>2026-05-02T05:23:37Z</time></trkpt><trkpt lat="43.338196681880206" lon="5.478489211761239"><ele>179.66666666666666</ele><time>2026-05-02T05:23:39Z</time></trkpt><trkpt lat="43.33821316745925" lon="5.47860325440045"><ele>180.0</ele><time>2026-05-02T05:23:41Z</time></trkpt><trkpt lat="43.33822529792606" lon="5.4787208168934445"><ele>180.33333333333334</ele><time>2026-05-02T05:23:43Z</time></trkpt><trkpt lat="43.338241681571894" lon="5.478835304859184"><ele>180.66666666666669</ele><time>2026-05-02T05:23:45Z</time></trkpt><trkpt lat="43.33826416193032" lon="5.4789485906902415"><ele>181.0</ele><time>2026-05-02T05:23:47Z</time></trkpt><trkpt lat="43.33829057532198" lon="5.479057540531307"><ele>181.66666666666669</ele><time>2026-05-02T05:23:49Z</time></trkpt><trkpt lat="43.33832644914977" lon="5.479162093145122"><ele>182.33333333333334</ele><time>2026-05-02T05:23:51Z</time></trkpt><trkpt lat="43.33836327068765" lon="5.479264042405828"><ele>183.0</ele><time>2026-05-02T05:23:53Z</time></trkpt><trkpt lat="43.33840003828037" lon="5.479364882126999"><ele>183.66666666666666</ele><time>2026-05-02T05:23:55Z</time></trkpt><trkpt lat="43.338436302518204" lon="5.479465646676005"><ele>184.33333333333331</ele><time>2026-05-02T05:23:57Z</time></trkpt><trkpt lat="43.338481258842386" lon="5.479568230351427"><ele>185.0</ele><time>2026-05-02T05:23:59Z</time></trkpt><trkpt lat="43.33851577413497" lon="5.479682840093803"><ele>185.8</ele><time>2026-05-02T05:24:01Z</time></trkpt><trkpt lat="43.33849881354897" lon="5.479799965684266"><ele>186.6</ele><time>2026-05-02T05:24:03Z</time></trkpt><trkpt lat="43.33843609328245" lon="5.4798949333684925"><ele>187.39999999999998</ele><time>2026-05-02T05:24:05Z</time></trkpt><trkpt lat="43.33841412522484" lon="5.480022753789858"><ele>188.2</ele><time>2026-05-02T05:24:07Z</time></trkpt><trkpt lat="43.33846991379771" lon="5.480136235838154"><ele>189.0</ele><time>2026-05-02T05:24:09Z</time></trkpt><trkpt lat="43.338548750230075" lon="5.480187815193071"><ele>189.0</ele><time>2026-05-02T05:24:10.999Z</time></trkpt><trkpt lat="43.33862599340315" lon="5.4801993653910825"><ele>189.0</ele><time>2026-05-02T05:24:12.999Z</time></trkpt><trkpt lat="43.338699795222695" lon="5.480137337235545"><ele>189.0</ele><time>2026-05-02T05:24:15.999Z</time></trkpt><trkpt lat="43.33875915000408" lon="5.48026021239352"><ele>189.0</ele><time>2026-05-02T05:24:16.999Z</time></trkpt><trkpt lat="43.33880338651096" lon="5.480338652025116"><ele>189.0</ele><time>2026-05-02T05:24:18.999Z</time></trkpt><trkpt lat="43.33884412991546" lon="5.480437553081898"><ele>189.0</ele><time>2026-05-02T05:24:20.999Z</time></trkpt><trkpt lat="43.33888155270339" lon="5.480531386235707"><ele>190.33333333333334</ele><time>2026-05-02T05:24:22.999Z</time></trkpt><trkpt lat="43.33892317956672" lon="5.48062247185879"><ele>191.66666666666669</ele><time>2026-05-02T05:24:24.999Z</time></trkpt><trkpt lat="43.33896598946742" lon="5.4807095821731755"><ele>193.0</ele><time>2026-05-02T05:24:26.999Z</time></trkpt><trkpt lat="43.33900660549626" lon="5.480797608888314"><ele>194.33333333333334</ele><time>2026-05-02T05:24:28.999Z</time></trkpt><trkpt lat="43.339048772982025" lon="5.480880692386044"><ele>195.66666666666669</ele><time>2026-05-02T05:24:30.999Z</time></trkpt><trkpt lat="43.339096745532736" lon="5.480963855528696"><ele>197.0</ele><time>2026-05-02T05:24:32.999Z</time></trkpt><trkpt lat="43.339142529035506" lon="5.481051109133572"><ele>197.00000000000003</ele><time>2026-05-02T05:24:34.999Z</time></trkpt><trkpt lat="43.339188642252225" lon="5.48113810371211"><ele>197.0</ele><time>2026-05-02T05:24:36.999Z</time></trkpt><trkpt lat="43.33923476729871" lon="5.48122979428687"><ele>197.0</ele><time>2026-05-02T05:24:38.999Z</time></trkpt><trkpt lat="43.33928048699789" lon="5.481314807523125"><ele>197.0</ele><time>2026-05-02T05:24:40.999Z</time></trkpt><trkpt lat="43.33932712685032" lon="5.481402068802594"><ele>197.00000000000003</ele><time>2026-05-02T05:24:42.999Z</time></trkpt><trkpt lat="43.33937344688663" lon="5.481486783290219"><ele>197.0</ele><time>2026-05-02T05:24:44.999Z</time></trkpt><trkpt lat="43.33942305896244" lon="5.481574834608917"><ele>197.33333333333334</ele><time>2026-05-02T05:24:46.999Z</time></trkpt><trkpt lat="43.33947346474349" lon="5.481659601563853"><ele>197.66666666666669</ele><time>2026-05-02T05:24:48.999Z</time></trkpt><trkpt lat="43.339518228136534" lon="5.4817482630936"><ele>198.0</ele><time>2026-05-02T05:24:50.999Z</time></trkpt><trkpt lat="43.339562853664326" lon="5.481840102439247"><ele>198.33333333333331</ele><time>2026-05-02T05:24:52.999Z</time></trkpt><trkpt lat="43.33960408869035" lon="5.481929002972318"><ele>198.66666666666666</ele><time>2026-05-02T05:24:54.999Z</time></trkpt><trkpt lat="43.33963620370272" lon="5.482026002253846"><ele>199.0</ele><time>2026-05-02T05:24:56.999Z</time></trkpt><trkpt lat="43.33966553581902" lon="5.48212376889824"><ele>199.49999999999997</ele><time>2026-05-02T05:24:58.999Z</time></trkpt><trkpt lat="43.339695923412" lon="5.482218453430709"><ele>200.0</ele><time>2026-05-02T05:25:00.999Z</time></trkpt><trkpt lat="43.33972352206951" lon="5.482315545006691"><ele>200.5</ele><time>2026-05-02T05:25:02.999Z</time></trkpt><trkpt lat="43.339746342930916" lon="5.482415769487181"><ele>201.0</ele><time>2026-05-02T05:25:04.999Z</time></trkpt><trkpt lat="43.33975354741364" lon="5.482522118330803"><ele>201.49999999999997</ele><time>2026-05-02T05:25:06.999Z</time></trkpt><trkpt lat="43.33975370529661" lon="5.482627646789838"><ele>202.0</ele><time>2026-05-02T05:25:08.999Z</time></trkpt><trkpt lat="43.339752081663974" lon="5.482730823359477"><ele>201.99999999999997</ele><time>2026-05-02T05:25:10.999Z</time></trkpt><trkpt lat="43.3397462447225" lon="5.482832928602648"><ele>202.0</ele><time>2026-05-02T05:25:12.999Z</time></trkpt><trkpt lat="43.339737632460576" lon="5.482937857569284"><ele>202.0</ele><time>2026-05-02T05:25:15Z</time></trkpt><trkpt lat="43.33972221863168" lon="5.4830378595738205"><ele>202.0</ele><time>2026-05-02T05:25:17Z</time></trkpt><trkpt lat="43.33970474615611" lon="5.483141881280816"><ele>201.99999999999997</ele><time>2026-05-02T05:25:19Z</time></trkpt><trkpt lat="43.339690216276445" lon="5.4832441985033435"><ele>202.0</ele><time>2026-05-02T05:25:21Z</time></trkpt><trkpt lat="43.33967532653894" lon="5.483348811710058"><ele>202.49999999999997</ele><time>2026-05-02T05:25:23Z</time></trkpt><trkpt lat="43.33965779113449" lon="5.483453614361953"><ele>203.0</ele><time>2026-05-02T05:25:25Z</time></trkpt><trkpt lat="43.339640629177275" lon="5.483557590921295"><ele>203.5</ele><time>2026-05-02T05:25:27Z</time></trkpt><trkpt lat="43.339625402634226" lon="5.483659682949517"><ele>204.0</ele><time>2026-05-02T05:25:29Z</time></trkpt><trkpt lat="43.339608203688144" lon="5.483761358945178"><ele>204.49999999999997</ele><time>2026-05-02T05:25:31Z</time></trkpt><trkpt lat="43.339590467918775" lon="5.4838651450058755"><ele>205.0</ele><time>2026-05-02T05:25:33Z</time></trkpt><trkpt lat="43.339555449514" lon="5.483959594410726"><ele>205.33333333333331</ele><time>2026-05-02T05:25:35Z</time></trkpt><trkpt lat="43.339495773028474" lon="5.484025653241542"><ele>205.66666666666666</ele><time>2026-05-02T05:25:37Z</time></trkpt><trkpt lat="43.339439365156416" lon="5.484086373510964"><ele>206.0</ele><time>2026-05-02T05:25:39Z</time></trkpt><trkpt lat="43.3393787200326" lon="5.484146576685562"><ele>206.33333333333331</ele><time>2026-05-02T05:25:41Z</time></trkpt><trkpt lat="43.33932571805699" lon="5.484222417003056"><ele>206.66666666666666</ele><time>2026-05-02T05:25:43Z</time></trkpt><trkpt lat="43.33930420310694" lon="5.484323961516673"><ele>207.0</ele><time>2026-05-02T05:25:45Z</time></trkpt><trkpt lat="43.33926813182822" lon="5.484417360623136"><ele>207.0</ele><time>2026-05-02T05:25:47Z</time></trkpt><trkpt lat="43.339254261746426" lon="5.4845236312953"><ele>207.0</ele><time>2026-05-02T05:25:49Z</time></trkpt><trkpt lat="43.33922666771107" lon="5.484625085796662"><ele>207.0</ele><time>2026-05-02T05:25:51Z</time></trkpt><trkpt lat="43.33917740050847" lon="5.484705860948065"><ele>207.0</ele><time>2026-05-02T05:25:53Z</time></trkpt><trkpt lat="43.33911301170095" lon="5.484765281632926"><ele>207.0</ele><time>2026-05-02T05:25:55Z</time></trkpt><trkpt lat="43.339045913727915" lon="5.48481811017735"><ele>207.0</ele><time>2026-05-02T05:25:57Z</time></trkpt><trkpt lat="43.33896978487738" lon="5.484849558372994"><ele>208.14285714285717</ele><time>2026-05-02T05:25:59Z</time></trkpt><trkpt lat="43.338892767526836" lon="5.4848406736683435"><ele>209.28571428571428</ele><time>2026-05-02T05:26:01Z</time></trkpt><trkpt lat="43.33882152607706" lon="5.484804492596355"><ele>210.42857142857144</ele><time>2026-05-02T05:26:03Z</time></trkpt><trkpt lat="43.33876803505397" lon="5.484733249504143"><ele>211.57142857142858</ele><time>2026-05-02T05:26:05Z</time></trkpt><trkpt lat="43.33872257971961" lon="5.484657894634447"><ele>212.71428571428572</ele><time>2026-05-02T05:26:07Z</time></trkpt><trkpt lat="43.33868696713729" lon="5.48457116835614"><ele>213.85714285714286</ele><time>2026-05-02T05:26:09Z</time></trkpt><trkpt lat="43.33865405916029" lon="5.484483444682283"><ele>215.0</ele><time>2026-05-02T05:26:11Z</time></trkpt><trkpt lat="43.33862204556561" lon="5.484389576734763"><ele>216.00000000000003</ele><time>2026-05-02T05:26:12.999Z</time></trkpt><trkpt lat="43.338586255367986" lon="5.484291910495902"><ele>217.0</ele><time>2026-05-02T05:26:14.999Z</time></trkpt><trkpt lat="43.338544141291365" lon="5.484199652791836"><ele>218.0</ele><time>2026-05-02T05:26:16.999Z</time></trkpt><trkpt lat="43.33849164914196" lon="5.484120062227151"><ele>219.0</ele><time>2026-05-02T05:26:18.999Z</time></trkpt><trkpt lat="43.33843456132268" lon="5.484042312170012"><ele>220.00000000000003</ele><time>2026-05-02T05:26:20.999Z</time></trkpt><trkpt lat="43.338371069130254" lon="5.483979620592523"><ele>221.0</ele><time>2026-05-02T05:26:22.999Z</time></trkpt><trkpt lat="43.33830460913995" lon="5.483923636796633"><ele>221.00000000000003</ele><time>2026-05-02T05:26:24.999Z</time></trkpt><trkpt lat="43.338239480839654" lon="5.483869320680422"><ele>221.0</ele><time>2026-05-02T05:26:26.999Z</time></trkpt><trkpt lat="43.3381768270584" lon="5.483810649860127"><ele>221.0</ele><time>2026-05-02T05:26:28.999Z</time></trkpt><trkpt lat="43.3381140444081" lon="5.483750401839517"><ele>221.0</ele><time>2026-05-02T05:26:30.999Z</time></trkpt><trkpt lat="43.338049980685106" lon="5.4836931379438045"><ele>221.00000000000003</ele><time>2026-05-02T05:26:32.999Z</time></trkpt><trkpt lat="43.337986845581405" lon="5.4836366887619"><ele>221.0</ele><time>2026-05-02T05:26:34.999Z</time></trkpt><trkpt lat="43.33791769033229" lon="5.4835893740354615"><ele>220.83333333333334</ele><time>2026-05-02T05:26:36.999Z</time></trkpt><trkpt lat="43.33784626436846" lon="5.483551779066391"><ele>220.66666666666669</ele><time>2026-05-02T05:26:38.999Z</time></trkpt><trkpt lat="43.33777105907925" lon="5.483524760676967"><ele>220.5</ele><time>2026-05-02T05:26:40.999Z</time></trkpt><trkpt lat="43.337694574806" lon="5.483508132573924"><ele>220.33333333333331</ele><time>2026-05-02T05:26:42.999Z</time></trkpt><trkpt lat="43.337615958158835" lon="5.483499090977885"><ele>220.16666666666666</ele><time>2026-05-02T05:26:44.999Z</time></trkpt><trkpt lat="43.337539716411406" lon="5.483494519874789"><ele>220.0</ele><time>2026-05-02T05:26:46.999Z</time></trkpt><trkpt lat="43.337463970808635" lon="5.4834889058402645"><ele>219.99999999999997</ele><time>2026-05-02T05:26:48.999Z</time></trkpt><trkpt lat="43.33739014341039" lon="5.483487547787331"><ele>220.0</ele><time>2026-05-02T05:26:50.999Z</time></trkpt><trkpt lat="43.33732151391839" lon="5.483447815832725"><ele>220.0</ele><time>2026-05-02T05:26:52.999Z</time></trkpt><trkpt lat="43.337262828745196" lon="5.4834057043974544"><ele>220.0</ele><time>2026-05-02T05:26:54.999Z</time></trkpt><trkpt lat="43.33719947735392" lon="5.483476180456532"><ele>220.0</ele><time>2026-05-02T05:26:55.999Z</time></trkpt><trkpt lat="43.33712850206139" lon="5.483450462463533"><ele>219.99999999999997</ele><time>2026-05-02T05:26:57.999Z</time></trkpt><trkpt lat="43.33705589046178" lon="5.483442760940118"><ele>220.0</ele><time>2026-05-02T05:26:59.999Z</time></trkpt><trkpt lat="43.33699918787908" lon="5.483383467914799"><ele>221.83333333333331</ele><time>2026-05-02T05:27:01.999Z</time></trkpt><trkpt lat="43.33695489138884" lon="5.483301811442521"><ele>223.66666666666666</ele><time>2026-05-02T05:27:03.999Z</time></trkpt><trkpt lat="43.33691319699672" lon="5.483211502354492"><ele>225.5</ele><time>2026-05-02T05:27:05.999Z</time></trkpt><trkpt lat="43.336875989875246" lon="5.483116549302858"><ele>227.33333333333331</ele><time>2026-05-02T05:27:07.999Z</time></trkpt><trkpt lat="43.33684184707238" lon="5.483023832429571"><ele>229.16666666666666</ele><time>2026-05-02T05:27:09.999Z</time></trkpt><trkpt lat="43.33677137250709" lon="5.482963185700937"><ele>231.0</ele><time>2026-05-02T05:27:11.999Z</time></trkpt><trkpt lat="43.336733411908234" lon="5.483032644186555"><ele>231.0</ele><time>2026-05-02T05:27:12.999Z</time></trkpt><trkpt lat="43.336753478673145" lon="5.483158604735859"><ele>231.0</ele><time>2026-05-02T05:27:14.999Z</time></trkpt><trkpt lat="43.33679846660011" lon="5.483234467026027"><ele>231.0</ele><time>2026-05-02T05:27:16.999Z</time></trkpt><trkpt lat="43.33683948780011" lon="5.483309078725672"><ele>231.0</ele><time>2026-05-02T05:27:18.999Z</time></trkpt><trkpt lat="43.336882858571606" lon="5.483385624122439"><ele>231.0</ele><time>2026-05-02T05:27:21Z</time></trkpt><trkpt lat="43.33692331535984" lon="5.483464990223529"><ele>231.0</ele><time>2026-05-02T05:27:23Z</time></trkpt><trkpt lat="43.336964941058994" lon="5.483545656011662"><ele>231.0</ele><time>2026-05-02T05:27:25Z</time></trkpt><trkpt lat="43.33700941385322" lon="5.483615934739656"><ele>231.0</ele><time>2026-05-02T05:27:27Z</time></trkpt><trkpt lat="43.33707098073697" lon="5.4836659077749665"><ele>231.0</ele><time>2026-05-02T05:27:29Z</time></trkpt><trkpt lat="43.337137603821496" lon="5.483707147723603"><ele>231.0</ele><time>2026-05-02T05:27:31Z</time></trkpt><trkpt lat="43.337206983840446" lon="5.483728004261244"><ele>231.0</ele><time>2026-05-02T05:27:33Z</time></trkpt><trkpt lat="43.337275738167406" lon="5.483729006291244"><ele>231.0</ele><time>2026-05-02T05:27:35Z</time></trkpt><trkpt lat="43.33719323636239" lon="5.483780471039856"><ele>231.0</ele><time>2026-05-02T05:27:39Z</time></trkpt><trkpt lat="43.33710080967423" lon="5.483745657323167"><ele>231.0</ele><time>2026-05-02T05:27:42Z</time></trkpt><trkpt lat="43.33703622369544" lon="5.483747375246062"><ele>231.0</ele><time>2026-05-02T05:27:44Z</time></trkpt><trkpt lat="43.33697414197841" lon="5.483804903467685"><ele>231.0</ele><time>2026-05-02T05:27:46Z</time></trkpt><trkpt lat="43.33701676798843" lon="5.4839451239545784"><ele>231.0</ele><time>2026-05-02T05:27:48Z</time></trkpt><trkpt lat="43.3371080099669" lon="5.483983298904276"><ele>231.0</ele><time>2026-05-02T05:27:51Z</time></trkpt><trkpt lat="43.33718452999058" lon="5.484021250909742"><ele>231.0</ele><time>2026-05-02T05:27:54Z</time></trkpt><trkpt lat="43.33725216178396" lon="5.484077789156922"><ele>231.5</ele><time>2026-05-02T05:27:57Z</time></trkpt><trkpt lat="43.33731728821054" lon="5.484144132349632"><ele>232.0</ele><time>2026-05-02T05:28:00Z</time></trkpt><trkpt lat="43.337378558820006" lon="5.484206314395906"><ele>232.5</ele><time>2026-05-02T05:28:03Z</time></trkpt><trkpt lat="43.33742977254" lon="5.484282372059064"><ele>233.0</ele><time>2026-05-02T05:28:06Z</time></trkpt><trkpt lat="43.33748930012742" lon="5.484359959565731"><ele>233.5</ele><time>2026-05-02T05:28:09Z</time></trkpt><trkpt lat="43.337553331056206" lon="5.484433625613459"><ele>234.0</ele><time>2026-05-02T05:28:11.999Z</time></trkpt><trkpt lat="43.33760834317674" lon="5.484519547495559"><ele>236.83333333333334</ele><time>2026-05-02T05:28:14.999Z</time></trkpt><trkpt lat="43.33765696924882" lon="5.484608113933528"><ele>239.66666666666669</ele><time>2026-05-02T05:28:17.999Z</time></trkpt><trkpt lat="43.33771024471773" lon="5.484696334146489"><ele>242.5</ele><time>2026-05-02T05:28:20.999Z</time></trkpt><trkpt lat="43.33774695619556" lon="5.484797830615728"><ele>245.33333333333334</ele><time>2026-05-02T05:28:23.999Z</time></trkpt><trkpt lat="43.337767646750244" lon="5.48491360604077"><ele>248.16666666666669</ele><time>2026-05-02T05:28:26.999Z</time></trkpt><trkpt lat="43.337784839393024" lon="5.4850304808336325"><ele>251.0</ele><time>2026-05-02T05:28:29.999Z</time></trkpt><trkpt lat="43.33779894991983" lon="5.485150951260966"><ele>251.00000000000003</ele><time>2026-05-02T05:28:32.999Z</time></trkpt><trkpt lat="43.33781086260199" lon="5.4852662070211125"><ele>251.0</ele><time>2026-05-02T05:28:35.999Z</time></trkpt><trkpt lat="43.337826319525924" lon="5.485380633438362"><ele>251.0</ele><time>2026-05-02T05:28:38.999Z</time></trkpt><trkpt lat="43.33784753171527" lon="5.485501853056643"><ele>251.0</ele><time>2026-05-02T05:28:41.999Z</time></trkpt><trkpt lat="43.33787784860333" lon="5.4856272993722195"><ele>251.00000000000003</ele><time>2026-05-02T05:28:44.999Z</time></trkpt><trkpt lat="43.33789524267795" lon="5.48572121710795"><ele>251.0</ele><time>2026-05-02T05:28:46.999Z</time></trkpt><trkpt lat="43.33791501282689" lon="5.48581060782721"><ele>250.4285714285714</ele><time>2026-05-02T05:28:48.999Z</time></trkpt><trkpt lat="43.33793565237368" lon="5.4859014442932965"><ele>249.85714285714283</ele><time>2026-05-02T05:28:50.999Z</time></trkpt><trkpt lat="43.33795704690178" lon="5.485994302349124"><ele>249.28571428571428</ele><time>2026-05-02T05:28:52.999Z</time></trkpt><trkpt lat="43.337978520769695" lon="5.486084775630295"><ele>248.7142857142857</ele><time>2026-05-02T05:28:54.999Z</time></trkpt><trkpt lat="43.33800888082389" lon="5.486175331322795"><ele>248.1428571428571</ele><time>2026-05-02T05:28:56.999Z</time></trkpt><trkpt lat="43.33803471923434" lon="5.4862764005840665"><ele>247.57142857142858</ele><time>2026-05-02T05:28:58.999Z</time></trkpt><trkpt lat="43.33807490998764" lon="5.486381266705991"><ele>247.0</ele><time>2026-05-02T05:29:00.999Z</time></trkpt><trkpt lat="43.33812246873328" lon="5.486491373916647"><ele>247.0</ele><time>2026-05-02T05:29:02.999Z</time></trkpt><trkpt lat="43.33817179513042" lon="5.4866089118760675"><ele>247.0</ele><time>2026-05-02T05:29:04.999Z</time></trkpt><trkpt lat="43.33822622148912" lon="5.4867174922225"><ele>247.0</ele><time>2026-05-02T05:29:06.999Z</time></trkpt><trkpt lat="43.3382860374274" lon="5.486819522075106"><ele>247.0</ele><time>2026-05-02T05:29:08.999Z</time></trkpt><trkpt lat="43.33834979430834" lon="5.486917239848475"><ele>247.0</ele><time>2026-05-02T05:29:10.999Z</time></trkpt><trkpt lat="43.33843021979235" lon="5.486992455969578"><ele>246.99999999999997</ele><time>2026-05-02T05:29:12.999Z</time></trkpt><trkpt lat="43.33851633027383" lon="5.487054750162156"><ele>247.0</ele><time>2026-05-02T05:29:14.999Z</time></trkpt><trkpt lat="43.338600700213235" lon="5.487112638498541"><ele>247.0</ele><time>2026-05-02T05:29:16.999Z</time></trkpt><trkpt lat="43.33868737056786" lon="5.487159007494378"><ele>247.0</ele><time>2026-05-02T05:29:18.998Z</time></trkpt><trkpt lat="43.33876845207761" lon="5.487188230322003"><ele>246.99999999999997</ele><time>2026-05-02T05:29:20.998Z</time></trkpt><trkpt lat="43.33884305430052" lon="5.487220351427968"><ele>247.0</ele><time>2026-05-02T05:29:22.998Z</time></trkpt><trkpt lat="43.33891105849298" lon="5.48728016077874"><ele>246.66666666666666</ele><time>2026-05-02T05:29:25Z</time></trkpt><trkpt lat="43.33895317595192" lon="5.487365789189764"><ele>246.33333333333331</ele><time>2026-05-02T05:29:27Z</time></trkpt><trkpt lat="43.33897878191062" lon="5.487473533165031"><ele>246.0</ele><time>2026-05-02T05:29:29Z</time></trkpt><trkpt lat="43.338991091950824" lon="5.487586205839629"><ele>245.66666666666669</ele><time>2026-05-02T05:29:31Z</time></trkpt><trkpt lat="43.33896983013181" lon="5.487699943265664"><ele>245.33333333333334</ele><time>2026-05-02T05:29:33Z</time></trkpt><trkpt lat="43.33893313748471" lon="5.487817930109501"><ele>245.0</ele><time>2026-05-02T05:29:35Z</time></trkpt><trkpt lat="43.338938917559005" lon="5.487967638958543"><ele>245.8</ele><time>2026-05-02T05:29:37Z</time></trkpt><trkpt lat="43.339004013735895" lon="5.48810562556953"><ele>246.6</ele><time>2026-05-02T05:29:39Z</time></trkpt><trkpt lat="43.3390829677352" lon="5.488212023154744"><ele>247.39999999999998</ele><time>2026-05-02T05:29:41Z</time></trkpt><trkpt lat="43.339132234071144" lon="5.488342946162553"><ele>248.2</ele><time>2026-05-02T05:29:43Z</time></trkpt><trkpt lat="43.3391392458753" lon="5.48849154866111"><ele>249.0</ele><time>2026-05-02T05:29:45Z</time></trkpt><trkpt lat="43.33914313763943" lon="5.488649916497522"><ele>252.5</ele><time>2026-05-02T05:29:47Z</time></trkpt><trkpt lat="43.33921826692532" lon="5.4888463440672925"><ele>256.0</ele><time>2026-05-02T05:29:50Z</time></trkpt><trkpt lat="43.33932362264529" lon="5.488891305396886"><ele>259.5</ele><time>2026-05-02T05:29:52Z</time></trkpt><trkpt lat="43.339426749354985" lon="5.488895097689012"><ele>263.0</ele><time>2026-05-02T05:29:54Z</time></trkpt><trkpt lat="43.33951430614807" lon="5.488917600382163"><ele>263.0</ele><time>2026-05-02T05:29:56Z</time></trkpt><trkpt lat="43.339573845358146" lon="5.4890073653531335"><ele>263.0</ele><time>2026-05-02T05:29:58Z</time></trkpt><trkpt lat="43.33959438191132" lon="5.489136752639298"><ele>263.0</ele><time>2026-05-02T05:30:00Z</time></trkpt><trkpt lat="43.3395760271174" lon="5.489268115146275"><ele>263.0</ele><time>2026-05-02T05:30:02Z</time></trkpt><trkpt lat="43.33958845932758" lon="5.489391812786331"><ele>263.0</ele><time>2026-05-02T05:30:04Z</time></trkpt><trkpt lat="43.339579644442125" lon="5.489516078090328"><ele>264.83333333333337</ele><time>2026-05-02T05:30:06Z</time></trkpt><trkpt lat="43.33957888053093" lon="5.48963741712143"><ele>266.6666666666667</ele><time>2026-05-02T05:30:07.999Z</time></trkpt><trkpt lat="43.339560177312485" lon="5.489757745038909"><ele>268.5</ele><time>2026-05-02T05:30:09.999Z</time></trkpt><trkpt lat="43.33955630977769" lon="5.489879937675306"><ele>270.3333333333333</ele><time>2026-05-02T05:30:11.999Z</time></trkpt><trkpt lat="43.339541312369846" lon="5.489985049470332"><ele>272.16666666666663</ele><time>2026-05-02T05:30:13.999Z</time></trkpt><trkpt lat="43.339513986428976" lon="5.490090744583012"><ele>274.0</ele><time>2026-05-02T05:30:15.999Z</time></trkpt><trkpt lat="43.3395798841302" lon="5.490157334420661"><ele>274.0</ele><time>2026-05-02T05:30:16.999Z</time></trkpt><trkpt lat="43.339586343667705" lon="5.490275480317096"><ele>274.0</ele><time>2026-05-02T05:30:18.999Z</time></trkpt><trkpt lat="43.339541634136054" lon="5.490381626276788"><ele>274.0</ele><time>2026-05-02T05:30:20.999Z</time></trkpt><trkpt lat="43.33952613762452" lon="5.490486925291073"><ele>274.0</ele><time>2026-05-02T05:30:22.999Z</time></trkpt><trkpt lat="43.339515370373306" lon="5.490601024214377"><ele>274.0</ele><time>2026-05-02T05:30:24.999Z</time></trkpt><trkpt lat="43.339517022524795" lon="5.49071752326598"><ele>274.0</ele><time>2026-05-02T05:30:26.999Z</time></trkpt><trkpt lat="43.339567246902725" lon="5.490821719959485"><ele>275.5</ele><time>2026-05-02T05:30:28.999Z</time></trkpt><trkpt lat="43.33958745590871" lon="5.490928816898747"><ele>277.0</ele><time>2026-05-02T05:30:30.999Z</time></trkpt><trkpt lat="43.33963752109333" lon="5.491022311958506"><ele>278.5</ele><time>2026-05-02T05:30:32.999Z</time></trkpt><trkpt lat="43.33966300370804" lon="5.491130405567241"><ele>280.0</ele><time>2026-05-02T05:30:34.999Z</time></trkpt><trkpt lat="43.33969273024264" lon="5.491226569883219"><ele>281.5</ele><time>2026-05-02T05:30:36.999Z</time></trkpt><trkpt lat="43.339707091309144" lon="5.491326157602287"><ele>283.0</ele><time>2026-05-02T05:30:38.999Z</time></trkpt><trkpt lat="43.33970070889978" lon="5.49141731196085"><ele>284.2857142857143</ele><time>2026-05-02T05:30:40.999Z</time></trkpt><trkpt lat="43.339689004125944" lon="5.491504515504188"><ele>285.5714285714286</ele><time>2026-05-02T05:30:42.999Z</time></trkpt><trkpt lat="43.339675586006216" lon="5.491600872447191"><ele>286.8571428571429</ele><time>2026-05-02T05:30:44.999Z</time></trkpt><trkpt lat="43.33966254746328" lon="5.491694506847879"><ele>288.14285714285717</ele><time>2026-05-02T05:30:46.999Z</time></trkpt><trkpt lat="43.33965246483071" lon="5.491788999769341"><ele>289.42857142857144</ele><time>2026-05-02T05:30:48.999Z</time></trkpt><trkpt lat="43.33964637523264" lon="5.491882061931865"><ele>290.7142857142857</ele><time>2026-05-02T05:30:50.999Z</time></trkpt><trkpt lat="43.33964437791846" lon="5.491976729825397"><ele>292.0</ele><time>2026-05-02T05:30:52.999Z</time></trkpt><trkpt lat="43.33964191082887" lon="5.492074659066849"><ele>292.5</ele><time>2026-05-02T05:30:54.999Z</time></trkpt><trkpt lat="43.339635367363705" lon="5.492170597749526"><ele>293.0</ele><time>2026-05-02T05:30:56.999Z</time></trkpt><trkpt lat="43.33962915846913" lon="5.492267642617885"><ele>293.5</ele><time>2026-05-02T05:30:58.999Z</time></trkpt><trkpt lat="43.339620538586004" lon="5.492355288459291"><ele>294.0</ele><time>2026-05-02T05:31:00.999Z</time></trkpt><trkpt lat="43.339606870290574" lon="5.4924761544031435"><ele>294.5</ele><time>2026-05-02T05:31:03.999Z</time></trkpt><trkpt lat="43.33958938055032" lon="5.492590500724651"><ele>295.0</ele><time>2026-05-02T05:31:06.999Z</time></trkpt><trkpt lat="43.33956607162016" lon="5.492709850235584"><ele>295.0</ele><time>2026-05-02T05:31:09.999Z</time></trkpt><trkpt lat="43.33953452171456" lon="5.49282938223214"><ele>295.0</ele><time>2026-05-02T05:31:12.999Z</time></trkpt><trkpt lat="43.3394970939945" lon="5.492942408217814"><ele>295.0</ele><time>2026-05-02T05:31:15.998Z</time></trkpt><trkpt lat="43.339451575041025" lon="5.493057186109456"><ele>295.0</ele><time>2026-05-02T05:31:18.998Z</time></trkpt><trkpt lat="43.339433052383875" lon="5.493143477116768"><ele>295.0</ele><time>2026-05-02T05:31:20.998Z</time></trkpt><trkpt lat="43.33937723004634" lon="5.4932454430844295"><ele>295.0</ele><time>2026-05-02T05:31:23.998Z</time></trkpt><trkpt lat="43.33933276668931" lon="5.49330965686349"><ele>294.66666666666663</ele><time>2026-05-02T05:31:25.998Z</time></trkpt><trkpt lat="43.33926269866902" lon="5.493392797304332"><ele>294.3333333333333</ele><time>2026-05-02T05:31:28.998Z</time></trkpt><trkpt lat="43.33921426844227" lon="5.4934507668469985"><ele>294.0</ele><time>2026-05-02T05:31:31Z</time></trkpt><trkpt lat="43.33915713047755" lon="5.493501048955732"><ele>293.6666666666667</ele><time>2026-05-02T05:31:33Z</time></trkpt><trkpt lat="43.33913612303753" lon="5.493592793373389"><ele>293.33333333333337</ele><time>2026-05-02T05:31:35Z</time></trkpt><trkpt lat="43.33912895239172" lon="5.49372504347013"><ele>293.0</ele><time>2026-05-02T05:31:38Z</time></trkpt><trkpt lat="43.33912209040269" lon="5.493813342710941"><ele>293.83333333333337</ele><time>2026-05-02T05:31:40Z</time></trkpt><trkpt lat="43.33913313944558" lon="5.493937097253908"><ele>294.6666666666667</ele><time>2026-05-02T05:31:43Z</time></trkpt><trkpt lat="43.33912084539834" lon="5.494057996690841"><ele>295.5</ele><time>2026-05-02T05:31:46Z</time></trkpt><trkpt lat="43.33910427703951" lon="5.4941676145051614"><ele>296.3333333333333</ele><time>2026-05-02T05:31:49Z</time></trkpt><trkpt lat="43.33907593992493" lon="5.494266864575921"><ele>297.16666666666663</ele><time>2026-05-02T05:31:52Z</time></trkpt><trkpt lat="43.33901920755835" lon="5.494343577561524"><ele>298.0</ele><time>2026-05-02T05:31:55Z</time></trkpt><trkpt lat="43.338949992443396" lon="5.49440227170956"><ele>298.0</ele><time>2026-05-02T05:31:58Z</time></trkpt><trkpt lat="43.33888471684061" lon="5.494470971729624"><ele>298.0</ele><time>2026-05-02T05:32:01Z</time></trkpt><trkpt lat="43.33883112555285" lon="5.494551182335867"><ele>298.0</ele><time>2026-05-02T05:32:04Z</time></trkpt><trkpt lat="43.3387738851164" lon="5.494635573263827"><ele>298.0</ele><time>2026-05-02T05:32:07Z</time></trkpt><trkpt lat="43.33871904759084" lon="5.494711062492029"><ele>298.0</ele><time>2026-05-02T05:32:09.999Z</time></trkpt><trkpt lat="43.338672219662335" lon="5.494784078512168"><ele>298.0</ele><time>2026-05-02T05:32:12.999Z</time></trkpt><trkpt lat="43.338609357037136" lon="5.494863563847377"><ele>300.8333333333333</ele><time>2026-05-02T05:32:15.999Z</time></trkpt><trkpt lat="43.33854826992666" lon="5.494943154189432"><ele>303.66666666666663</ele><time>2026-05-02T05:32:18.999Z</time></trkpt><trkpt lat="43.338486990271534" lon="5.495024926651958"><ele>306.5</ele><time>2026-05-02T05:32:21.999Z</time></trkpt><trkpt lat="43.33842559216035" lon="5.495104453019853"><ele>309.3333333333333</ele><time>2026-05-02T05:32:24.999Z</time></trkpt><trkpt lat="43.33837578664582" lon="5.495179231547152"><ele>312.1666666666667</ele><time>2026-05-02T05:32:27.999Z</time></trkpt><trkpt lat="43.338315426794814" lon="5.495252597340072"><ele>315.0</ele><time>2026-05-02T05:32:30.999Z</time></trkpt><trkpt lat="43.33825417008844" lon="5.495329639192402"><ele>315.0</ele><time>2026-05-02T05:32:33.999Z</time></trkpt><trkpt lat="43.33819369485586" lon="5.495405367840818"><ele>315.0</ele><time>2026-05-02T05:32:36.999Z</time></trkpt><trkpt lat="43.33812888541352" lon="5.4954851741620026"><ele>315.0</ele><time>2026-05-02T05:32:39.999Z</time></trkpt><trkpt lat="43.33806198219285" lon="5.495561119803867"><ele>315.0</ele><time>2026-05-02T05:32:42.999Z</time></trkpt><trkpt lat="43.337999917313795" lon="5.495629997224087"><ele>315.0</ele><time>2026-05-02T05:32:45.999Z</time></trkpt><trkpt lat="43.3379440650268" lon="5.495690387725251"><ele>315.0</ele><time>2026-05-02T05:32:48.999Z</time></trkpt><trkpt lat="43.337884620874775" lon="5.495756844027868"><ele>317.8333333333333</ele><time>2026-05-02T05:32:51.999Z</time></trkpt><trkpt lat="43.33783452392181" lon="5.495810339564507"><ele>320.6666666666667</ele><time>2026-05-02T05:32:53.999Z</time></trkpt><trkpt lat="43.337763443987605" lon="5.495881426188332"><ele>323.5</ele><time>2026-05-02T05:32:56.999Z</time></trkpt><trkpt lat="43.33770862569596" lon="5.495950395120678"><ele>326.33333333333337</ele><time>2026-05-02T05:32:59.999Z</time></trkpt><trkpt lat="43.337650566107335" lon="5.496037783385998"><ele>329.1666666666667</ele><time>2026-05-02T05:33:02.999Z</time></trkpt><trkpt lat="43.33761103873781" lon="5.496137273051625"><ele>332.0</ele><time>2026-05-02T05:33:05.999Z</time></trkpt><trkpt lat="43.33757172746156" lon="5.496229333922957"><ele>332.2857142857143</ele><time>2026-05-02T05:33:08.999Z</time></trkpt><trkpt lat="43.337540620128735" lon="5.496324829525196"><ele>332.5714285714286</ele><time>2026-05-02T05:33:11.999Z</time></trkpt><trkpt lat="43.33752713966182" lon="5.496424249758211"><ele>332.8571428571429</ele><time>2026-05-02T05:33:14.999Z</time></trkpt><trkpt lat="43.33752802054757" lon="5.496521986412555"><ele>333.1428571428571</ele><time>2026-05-02T05:33:17.998Z</time></trkpt><trkpt lat="43.33753645596841" lon="5.4966270246981495"><ele>333.42857142857144</ele><time>2026-05-02T05:33:20.998Z</time></trkpt><trkpt lat="43.33753715088869" lon="5.4967295446348645"><ele>333.7142857142857</ele><time>2026-05-02T05:33:23.998Z</time></trkpt><trkpt lat="43.33754533290795" lon="5.496832606289686"><ele>334.0</ele><time>2026-05-02T05:33:26.998Z</time></trkpt><trkpt lat="43.33755091045642" lon="5.496934018378872"><ele>334.0</ele><time>2026-05-02T05:33:29.998Z</time></trkpt><trkpt lat="43.33756082750111" lon="5.497044488091374"><ele>334.0</ele><time>2026-05-02T05:33:32.998Z</time></trkpt><trkpt lat="43.337575554881866" lon="5.497150352767433"><ele>334.0</ele><time>2026-05-02T05:33:35.998Z</time></trkpt><trkpt lat="43.33757846889735" lon="5.497261265241096"><ele>334.0</ele><time>2026-05-02T05:33:39Z</time></trkpt><trkpt lat="43.337592215382" lon="5.497371755403124"><ele>334.0</ele><time>2026-05-02T05:33:42Z</time></trkpt><trkpt lat="43.33760839270477" lon="5.497477252982436"><ele>334.0</ele><time>2026-05-02T05:33:45Z</time></trkpt><trkpt lat="43.33762563328528" lon="5.49758212700638"><ele>334.8333333333333</ele><time>2026-05-02T05:33:48Z</time></trkpt><trkpt lat="43.33764028891187" lon="5.4976884169696865"><ele>335.66666666666663</ele><time>2026-05-02T05:33:51Z</time></trkpt><trkpt lat="43.337650432192156" lon="5.497795333752176"><ele>336.5</ele><time>2026-05-02T05:33:54Z</time></trkpt><trkpt lat="43.33768090913884" lon="5.497901502155604"><ele>337.3333333333333</ele><time>2026-05-02T05:33:57Z</time></trkpt><trkpt lat="43.33770936944771" lon="5.498007502156686"><ele>338.1666666666667</ele><time>2026-05-02T05:34:00Z</time></trkpt><trkpt lat="43.33774813289622" lon="5.498107539838158"><ele>339.0</ele><time>2026-05-02T05:34:03Z</time></trkpt><trkpt lat="43.33778731018277" lon="5.498203008797052"><ele>339.0</ele><time>2026-05-02T05:34:06Z</time></trkpt><trkpt lat="43.33779838927609" lon="5.498310987532543"><ele>339.0</ele><time>2026-05-02T05:34:09Z</time></trkpt><trkpt lat="43.337777872074454" lon="5.498420782650156"><ele>339.0</ele><time>2026-05-02T05:34:12Z</time></trkpt><trkpt lat="43.33775359331677" lon="5.498501199842501"><ele>339.0</ele><time>2026-05-02T05:34:13.999Z</time></trkpt><trkpt lat="43.33773160289696" lon="5.4985865975543975"><ele>339.0</ele><time>2026-05-02T05:34:15.999Z</time></trkpt><trkpt lat="43.33771111587468" lon="5.4986774575322555"><ele>339.0</ele><time>2026-05-02T05:34:17.999Z</time></trkpt><trkpt lat="43.33768191019381" lon="5.498773010747459"><ele>339.0</ele><time>2026-05-02T05:34:19.999Z</time></trkpt><trkpt lat="43.33769121316886" lon="5.498881332512807"><ele>338.85714285714283</ele><time>2026-05-02T05:34:21.999Z</time></trkpt><trkpt lat="43.33769702174179" lon="5.498982719897778"><ele>338.7142857142857</ele><time>2026-05-02T05:34:23.999Z</time></trkpt><trkpt lat="43.3377128299662" lon="5.4990786767769295"><ele>338.57142857142856</ele><time>2026-05-02T05:34:25.999Z</time></trkpt><trkpt lat="43.337737778218546" lon="5.499167763998994"><ele>338.42857142857144</ele><time>2026-05-02T05:34:27.999Z</time></trkpt><trkpt lat="43.33777166663365" lon="5.499245150390282"><ele>338.2857142857143</ele><time>2026-05-02T05:34:29.999Z</time></trkpt><trkpt lat="43.337820281135244" lon="5.499338809526673"><ele>338.14285714285717</ele><time>2026-05-02T05:34:32.999Z</time></trkpt><trkpt lat="43.337840990292165" lon="5.49943277612511"><ele>338.0</ele><time>2026-05-02T05:34:35.999Z</time></trkpt><trkpt lat="43.33788759354151" lon="5.499529566657826"><ele>336.57142857142856</ele><time>2026-05-02T05:34:39.999Z</time></trkpt><trkpt lat="43.337936169698665" lon="5.4996036620378135"><ele>335.1428571428571</ele><time>2026-05-02T05:34:42.999Z</time></trkpt><trkpt lat="43.33798499669701" lon="5.499675999025702"><ele>333.71428571428567</ele><time>2026-05-02T05:34:45.999Z</time></trkpt><trkpt lat="43.3380441985764" lon="5.499747023423373"><ele>332.2857142857143</ele><time>2026-05-02T05:34:48.999Z</time></trkpt><trkpt lat="43.338096676589345" lon="5.499820661688223"><ele>330.85714285714283</ele><time>2026-05-02T05:34:51.999Z</time></trkpt><trkpt lat="43.338144670941105" lon="5.499904707140589"><ele>329.4285714285714</ele><time>2026-05-02T05:34:54.999Z</time></trkpt><trkpt lat="43.3381953280908" lon="5.4999657382912"><ele>328.0</ele><time>2026-05-02T05:34:57.999Z</time></trkpt><trkpt lat="43.33824949733422" lon="5.5000283619881865"><ele>330.0</ele><time>2026-05-02T05:35:00.999Z</time></trkpt><trkpt lat="43.338304262402104" lon="5.500100657511248"><ele>332.0</ele><time>2026-05-02T05:35:03.999Z</time></trkpt><trkpt lat="43.338359240963264" lon="5.500168797295523"><ele>334.0</ele><time>2026-05-02T05:35:06.999Z</time></trkpt><trkpt lat="43.33842325394788" lon="5.500225887286154"><ele>336.0</ele><time>2026-05-02T05:35:09.999Z</time></trkpt><trkpt lat="43.33847867719338" lon="5.50028764042163"><ele>338.0</ele><time>2026-05-02T05:35:12.999Z</time></trkpt><trkpt lat="43.33853974827897" lon="5.500346310614842"><ele>340.0</ele><time>2026-05-02T05:35:15.999Z</time></trkpt><trkpt lat="43.33860669410454" lon="5.500420413502506"><ele>340.0</ele><time>2026-05-02T05:35:19.998Z</time></trkpt><trkpt lat="43.338671051783734" lon="5.50047014940569"><ele>340.0</ele><time>2026-05-02T05:35:22.998Z</time></trkpt><trkpt lat="43.338736462262446" lon="5.500519447646475"><ele>340.0</ele><time>2026-05-02T05:35:25.998Z</time></trkpt><trkpt lat="43.33880823177799" lon="5.5005645700387085"><ele>340.0</ele><time>2026-05-02T05:35:28.998Z</time></trkpt><trkpt lat="43.338865742238305" lon="5.500632507152234"><ele>340.0</ele><time>2026-05-02T05:35:31.998Z</time></trkpt><trkpt lat="43.33891837313832" lon="5.500697314175081"><ele>340.0</ele><time>2026-05-02T05:35:34.998Z</time></trkpt><trkpt lat="43.33897590038901" lon="5.500785449842296"><ele>343.0</ele><time>2026-05-02T05:35:37.998Z</time></trkpt><trkpt lat="43.33901434705577" lon="5.500854398542465"><ele>346.0</ele><time>2026-05-02T05:35:39.998Z</time></trkpt><trkpt lat="43.3390662954133" lon="5.500951345657489"><ele>349.0</ele><time>2026-05-02T05:35:43Z</time></trkpt><trkpt lat="43.339118741909786" lon="5.501053112354056"><ele>352.0</ele><time>2026-05-02T05:35:46Z</time></trkpt><trkpt lat="43.339171303099086" lon="5.501159911291502"><ele>355.0</ele><time>2026-05-02T05:35:49Z</time></trkpt><trkpt lat="43.33923119721306" lon="5.50127037754905"><ele>358.0</ele><time>2026-05-02T05:35:52Z</time></trkpt><trkpt lat="43.33928397457548" lon="5.501319642737575"><ele>358.0</ele><time>2026-05-02T05:35:54Z</time></trkpt><trkpt lat="43.339327426860244" lon="5.501383586201672"><ele>358.0</ele><time>2026-05-02T05:35:56Z</time></trkpt><trkpt lat="43.33938661301994" lon="5.501481736353276"><ele>358.0</ele><time>2026-05-02T05:35:59Z</time></trkpt><trkpt lat="43.339457807803605" lon="5.50155032631273"><ele>358.0</ele><time>2026-05-02T05:36:02Z</time></trkpt><trkpt lat="43.33953654770976" lon="5.5016148728373055"><ele>358.0</ele><time>2026-05-02T05:36:05Z</time></trkpt><trkpt lat="43.339617435432714" lon="5.501669035536393"><ele>358.0</ele><time>2026-05-02T05:36:08Z</time></trkpt><trkpt lat="43.33970307662712" lon="5.501714182716862"><ele>360.8333333333333</ele><time>2026-05-02T05:36:11Z</time></trkpt><trkpt lat="43.33978409488557" lon="5.501747339436571"><ele>363.66666666666663</ele><time>2026-05-02T05:36:13.999Z</time></trkpt><trkpt lat="43.33986125592621" lon="5.5017879491076975"><ele>366.5</ele><time>2026-05-02T05:36:16.999Z</time></trkpt><trkpt lat="43.339923398005745" lon="5.501866848573988"><ele>369.3333333333333</ele><time>2026-05-02T05:36:19.999Z</time></trkpt><trkpt lat="43.339986155586445" lon="5.5019426753157745"><ele>372.1666666666667</ele><time>2026-05-02T05:36:22.999Z</time></trkpt><trkpt lat="43.34003849877818" lon="5.502031896636162"><ele>375.0</ele><time>2026-05-02T05:36:25.999Z</time></trkpt><trkpt lat="43.340081399492014" lon="5.502130788749511"><ele>375.0</ele><time>2026-05-02T05:36:28.999Z</time></trkpt><trkpt lat="43.34013731240228" lon="5.502217775549272"><ele>375.0</ele><time>2026-05-02T05:36:31.999Z</time></trkpt><trkpt lat="43.34019350979031" lon="5.502317620194072"><ele>375.0</ele><time>2026-05-02T05:36:34.999Z</time></trkpt><trkpt lat="43.34023302882822" lon="5.502399195732666"><ele>375.0</ele><time>2026-05-02T05:36:36.999Z</time></trkpt><trkpt lat="43.340278083987194" lon="5.50247695683184"><ele>375.0</ele><time>2026-05-02T05:36:38.999Z</time></trkpt><trkpt lat="43.34028711592303" lon="5.502589791940403"><ele>375.0</ele><time>2026-05-02T05:36:40.999Z</time></trkpt><trkpt lat="43.340295549733455" lon="5.502694647814364"><ele>375.0</ele><time>2026-05-02T05:36:42.999Z</time></trkpt><trkpt lat="43.34030074660522" lon="5.502798839871137"><ele>375.0</ele><time>2026-05-02T05:36:44.999Z</time></trkpt><trkpt lat="43.340310220792574" lon="5.502891496782933"><ele>375.0</ele><time>2026-05-02T05:36:46.999Z</time></trkpt><trkpt lat="43.34033706970716" lon="5.502997841979051"><ele>375.0</ele><time>2026-05-02T05:36:48.999Z</time></trkpt><trkpt lat="43.340380351676" lon="5.5030831001178155"><ele>375.0</ele><time>2026-05-02T05:36:50.999Z</time></trkpt><trkpt lat="43.34040714273658" lon="5.503189864129766"><ele>375.0</ele><time>2026-05-02T05:36:53.999Z</time></trkpt><trkpt lat="43.340436941856964" lon="5.503280955969498"><ele>375.0</ele><time>2026-05-02T05:36:56.999Z</time></trkpt><trkpt lat="43.34045711731624" lon="5.503413749192768"><ele>375.0</ele><time>2026-05-02T05:36:59.999Z</time></trkpt><trkpt lat="43.34045696046697" lon="5.503536451683186"><ele>375.0</ele><time>2026-05-02T05:37:02.999Z</time></trkpt><trkpt lat="43.3404564714666" lon="5.503668977459654"><ele>375.0</ele><time>2026-05-02T05:37:05.999Z</time></trkpt><trkpt lat="43.34043463723013" lon="5.503759324840472"><ele>375.0</ele><time>2026-05-02T05:37:07.999Z</time></trkpt><trkpt lat="43.3404128467565" lon="5.503849209467894"><ele>375.0</ele><time>2026-05-02T05:37:09.999Z</time></trkpt><trkpt lat="43.340384247542325" lon="5.503931902935424"><ele>376.6</ele><time>2026-05-02T05:37:11.999Z</time></trkpt><trkpt lat="43.340349976790975" lon="5.504021662053212"><ele>378.2</ele><time>2026-05-02T05:37:13.999Z</time></trkpt><trkpt lat="43.34030948079656" lon="5.504118480806405"><ele>379.79999999999995</ele><time>2026-05-02T05:37:15.999Z</time></trkpt><trkpt lat="43.34026614372261" lon="5.5042152020298865"><ele>381.4</ele><time>2026-05-02T05:37:17.999Z</time></trkpt><trkpt lat="43.34020687976677" lon="5.504323951074971"><ele>383.0</ele><time>2026-05-02T05:37:19.998Z</time></trkpt><trkpt lat="43.34013116752645" lon="5.504443568209997"><ele>383.0</ele><time>2026-05-02T05:37:21.998Z</time></trkpt><trkpt lat="43.340084759067146" lon="5.504521847977772"><ele>383.0</ele><time>2026-05-02T05:37:22.998Z</time></trkpt><trkpt lat="43.34004234734767" lon="5.504616862690873"><ele>383.0</ele><time>2026-05-02T05:37:23.998Z</time></trkpt><trkpt lat="43.34001146723799" lon="5.504719256083363"><ele>383.0</ele><time>2026-05-02T05:37:24.998Z</time></trkpt><trkpt lat="43.34003863885606" lon="5.50483747423566"><ele>383.0</ele><time>2026-05-02T05:37:25.998Z</time></trkpt><trkpt lat="43.340053917424406" lon="5.504937102645742"><ele>383.0</ele><time>2026-05-02T05:37:26.998Z</time></trkpt><trkpt lat="43.340081637707264" lon="5.505024936712271"><ele>383.4</ele><time>2026-05-02T05:37:27.998Z</time></trkpt><trkpt lat="43.34011024243031" lon="5.5051055429299405"><ele>383.79999999999995</ele><time>2026-05-02T05:37:28.998Z</time></trkpt><trkpt lat="43.34013060461294" lon="5.5051938869896535"><ele>384.2</ele><time>2026-05-02T05:37:29.998Z</time></trkpt><trkpt lat="43.34016402519804" lon="5.5053602826063495"><ele>384.6</ele><time>2026-05-02T05:37:31.998Z</time></trkpt><trkpt lat="43.34018014902476" lon="5.505448759270638"><ele>385.0</ele><time>2026-05-02T05:37:32.998Z</time></trkpt><trkpt lat="43.34020914421753" lon="5.505617616539531"><ele>385.7142857142857</ele><time>2026-05-02T05:37:34.998Z</time></trkpt><trkpt lat="43.34022930373695" lon="5.505704278680061"><ele>386.42857142857144</ele><time>2026-05-02T05:37:35.998Z</time></trkpt><trkpt lat="43.34023452493912" lon="5.505797899304976"><ele>387.1428571428571</ele><time>2026-05-02T05:37:36.998Z</time></trkpt><trkpt lat="43.34025787717801" lon="5.5058842985103995"><ele>387.8571428571429</ele><time>2026-05-02T05:37:37.998Z</time></trkpt><trkpt lat="43.340288725773995" lon="5.505972109051573"><ele>388.57142857142856</ele><time>2026-05-02T05:37:38.998Z</time></trkpt><trkpt lat="43.34033741976691" lon="5.5060364561535735"><ele>389.2857142857143</ele><time>2026-05-02T05:37:39.998Z</time></trkpt><trkpt lat="43.3403672712134" lon="5.5061138752771415"><ele>390.0</ele><time>2026-05-02T05:37:40.998Z</time></trkpt><trkpt lat="43.340421983840365" lon="5.506251793537544"><ele>390.1666666666667</ele><time>2026-05-02T05:37:42.998Z</time></trkpt><trkpt lat="43.34046978916617" lon="5.506378579852236"><ele>390.33333333333337</ele><time>2026-05-02T05:37:44.998Z</time></trkpt><trkpt lat="43.34049680092562" lon="5.506501327105761"><ele>390.5</ele><time>2026-05-02T05:37:46.998Z</time></trkpt><trkpt lat="43.340512976251304" lon="5.506605731957769"><ele>390.6666666666667</ele><time>2026-05-02T05:37:49Z</time></trkpt><trkpt lat="43.34049789671495" lon="5.506703402975983"><ele>390.83333333333337</ele><time>2026-05-02T05:37:51Z</time></trkpt><trkpt lat="43.340492756931326" lon="5.5068053148473775"><ele>391.0</ele><time>2026-05-02T05:37:53Z</time></trkpt><trkpt lat="43.34047899335161" lon="5.506920480343062"><ele>391.0</ele><time>2026-05-02T05:37:55Z</time></trkpt><trkpt lat="43.34044778723742" lon="5.507036210773947"><ele>391.0</ele><time>2026-05-02T05:37:57Z</time></trkpt><trkpt lat="43.34040623488606" lon="5.507151808928782"><ele>391.0</ele><time>2026-05-02T05:37:59Z</time></trkpt><trkpt lat="43.340345360385506" lon="5.507256025381187"><ele>391.0</ele><time>2026-05-02T05:38:01Z</time></trkpt><trkpt lat="43.34025727595012" lon="5.507384477689575"><ele>391.0</ele><time>2026-05-02T05:38:03Z</time></trkpt><trkpt lat="43.34021520016618" lon="5.507460674053175"><ele>389.6666666666667</ele><time>2026-05-02T05:38:04Z</time></trkpt><trkpt lat="43.34021993334781" lon="5.507574189391903"><ele>388.33333333333337</ele><time>2026-05-02T05:38:05Z</time></trkpt><trkpt lat="43.34021036756152" lon="5.507709338357195"><ele>387.0</ele><time>2026-05-02T05:38:07Z</time></trkpt><trkpt lat="43.34020005104772" lon="5.5078159212782"><ele>385.6666666666667</ele><time>2026-05-02T05:38:09Z</time></trkpt><trkpt lat="43.34018398795016" lon="5.507920743699093"><ele>384.33333333333337</ele><time>2026-05-02T05:38:11Z</time></trkpt><trkpt lat="43.34017065335286" lon="5.5080227513093885"><ele>383.0</ele><time>2026-05-02T05:38:13Z</time></trkpt><trkpt lat="43.34014108310611" lon="5.508134194880263"><ele>383.1666666666667</ele><time>2026-05-02T05:38:15Z</time></trkpt><trkpt lat="43.34010038691326" lon="5.508229114924295"><ele>383.33333333333337</ele><time>2026-05-02T05:38:16.999Z</time></trkpt><trkpt lat="43.34004023568223" lon="5.508320903942388"><ele>383.5</ele><time>2026-05-02T05:38:18.999Z</time></trkpt><trkpt lat="43.34001352861217" lon="5.508447558916221"><ele>383.6666666666667</ele><time>2026-05-02T05:38:20.999Z</time></trkpt><trkpt lat="43.33998132979958" lon="5.508553427683759"><ele>383.8333333333333</ele><time>2026-05-02T05:38:22.999Z</time></trkpt><trkpt lat="43.33995714776672" lon="5.508664528848094"><ele>384.0</ele><time>2026-05-02T05:38:24.999Z</time></trkpt><trkpt lat="43.339926145033" lon="5.508783035838761"><ele>384.0</ele><time>2026-05-02T05:38:26.999Z</time></trkpt><trkpt lat="43.33991223909391" lon="5.508898616377055"><ele>384.0</ele><time>2026-05-02T05:38:28.999Z</time></trkpt><trkpt lat="43.339933681277515" lon="5.509008250699112"><ele>384.0</ele><time>2026-05-02T05:38:30.999Z</time></trkpt><trkpt lat="43.339989605013706" lon="5.509088189995678"><ele>384.0</ele><time>2026-05-02T05:38:32.999Z</time></trkpt><trkpt lat="43.34006271285051" lon="5.509117434391502"><ele>384.0</ele><time>2026-05-02T05:38:34.999Z</time></trkpt><trkpt lat="43.34013353696003" lon="5.509095643653329"><ele>384.0</ele><time>2026-05-02T05:38:36.999Z</time></trkpt><trkpt lat="43.34020407810633" lon="5.509094781540245"><ele>383.99999999999994</ele><time>2026-05-02T05:38:38.999Z</time></trkpt><trkpt lat="43.34027447661152" lon="5.509088117997938"><ele>384.0</ele><time>2026-05-02T05:38:40.999Z</time></trkpt><trkpt lat="43.3403420670838" lon="5.509069806104763"><ele>384.0</ele><time>2026-05-02T05:38:42.999Z</time></trkpt><trkpt lat="43.340405830733765" lon="5.509068014226934"><ele>384.0</ele><time>2026-05-02T05:38:44.999Z</time></trkpt><trkpt lat="43.340500869490704" lon="5.509034180393851"><ele>384.0</ele><time>2026-05-02T05:38:47.999Z</time></trkpt><trkpt lat="43.34056901739754" lon="5.508990131052524"><ele>383.99999999999994</ele><time>2026-05-02T05:38:49.999Z</time></trkpt><trkpt lat="43.340628660184805" lon="5.5089517533118055"><ele>384.0</ele><time>2026-05-02T05:38:51.999Z</time></trkpt><trkpt lat="43.34069442429281" lon="5.508914120228942"><ele>385.1428571428571</ele><time>2026-05-02T05:38:53.999Z</time></trkpt><trkpt lat="43.34075829843212" lon="5.508883805967188"><ele>386.2857142857143</ele><time>2026-05-02T05:38:55.999Z</time></trkpt><trkpt lat="43.34082744589386" lon="5.5088590365386345"><ele>387.42857142857144</ele><time>2026-05-02T05:38:57.999Z</time></trkpt><trkpt lat="43.34089073353815" lon="5.508841901487795"><ele>388.57142857142856</ele><time>2026-05-02T05:38:59.999Z</time></trkpt><trkpt lat="43.34095926326723" lon="5.508825750726958"><ele>389.7142857142857</ele><time>2026-05-02T05:39:01.999Z</time></trkpt><trkpt lat="43.34103123423396" lon="5.508791921141316"><ele>390.85714285714283</ele><time>2026-05-02T05:39:03.999Z</time></trkpt><trkpt lat="43.34110146166493" lon="5.508807102890948"><ele>392.0</ele><time>2026-05-02T05:39:05.999Z</time></trkpt><trkpt lat="43.34116740236592" lon="5.508800801552208"><ele>391.99999999999994</ele><time>2026-05-02T05:39:07.999Z</time></trkpt><trkpt lat="43.34124033455512" lon="5.5087853723618485"><ele>392.0</ele><time>2026-05-02T05:39:09.999Z</time></trkpt><trkpt lat="43.341307610064824" lon="5.508754229042246"><ele>392.0</ele><time>2026-05-02T05:39:11.999Z</time></trkpt><trkpt lat="43.341360820779386" lon="5.508682957795141"><ele>392.0</ele><time>2026-05-02T05:39:13.999Z</time></trkpt><trkpt lat="43.34142694057868" lon="5.508618742858415"><ele>391.99999999999994</ele><time>2026-05-02T05:39:15.999Z</time></trkpt><trkpt lat="43.341491779444745" lon="5.508558344007758"><ele>392.0</ele><time>2026-05-02T05:39:17.999Z</time></trkpt><trkpt lat="43.341545549219404" lon="5.50849363670836"><ele>391.57142857142856</ele><time>2026-05-02T05:39:19.999Z</time></trkpt><trkpt lat="43.34160247654713" lon="5.508429785438621"><ele>391.1428571428571</ele><time>2026-05-02T05:39:21.999Z</time></trkpt><trkpt lat="43.34166430741911" lon="5.508374321480683"><ele>390.7142857142857</ele><time>2026-05-02T05:39:23.998Z</time></trkpt><trkpt lat="43.341731899628016" lon="5.508326223037243"><ele>390.2857142857143</ele><time>2026-05-02T05:39:25.998Z</time></trkpt><trkpt lat="43.341790942770196" lon="5.508280831527578"><ele>389.85714285714283</ele><time>2026-05-02T05:39:27.998Z</time></trkpt><trkpt lat="43.34185624835189" lon="5.508238638521945"><ele>389.42857142857144</ele><time>2026-05-02T05:39:29.998Z</time></trkpt><trkpt lat="43.341929482306035" lon="5.50822157717864"><ele>389.0</ele><time>2026-05-02T05:39:31.998Z</time></trkpt><trkpt lat="43.34199648397587" lon="5.508182719116126"><ele>389.0</ele><time>2026-05-02T05:39:33.998Z</time></trkpt><trkpt lat="43.34206357089187" lon="5.50816752929975"><ele>389.0</ele><time>2026-05-02T05:39:35.998Z</time></trkpt><trkpt lat="43.34213331967337" lon="5.508154159201321"><ele>389.0</ele><time>2026-05-02T05:39:37.998Z</time></trkpt><trkpt lat="43.34219940932064" lon="5.508129912309845"><ele>389.0</ele><time>2026-05-02T05:39:39.998Z</time></trkpt><trkpt lat="43.34227956241083" lon="5.508088918181318"><ele>389.0</ele><time>2026-05-02T05:39:41.998Z</time></trkpt><trkpt lat="43.34234944936254" lon="5.5080683918514355"><ele>389.0</ele><time>2026-05-02T05:39:43.998Z</time></trkpt><trkpt lat="43.34241585279779" lon="5.508031083183257"><ele>389.0</ele><time>2026-05-02T05:39:45.998Z</time></trkpt><trkpt lat="43.342487342864914" lon="5.507997977150466"><ele>389.14285714285717</ele><time>2026-05-02T05:39:47.998Z</time></trkpt><trkpt lat="43.34255532358353" lon="5.507974380995982"><ele>389.2857142857143</ele><time>2026-05-02T05:39:49.998Z</time></trkpt><trkpt lat="43.34262188509778" lon="5.507948770368994"><ele>389.42857142857144</ele><time>2026-05-02T05:39:51.998Z</time></trkpt><trkpt lat="43.34271767728331" lon="5.507911735324852"><ele>389.57142857142856</ele><time>2026-05-02T05:39:55Z</time></trkpt><trkpt lat="43.34278501066464" lon="5.507895666186762"><ele>389.71428571428567</ele><time>2026-05-02T05:39:57Z</time></trkpt><trkpt lat="43.34284456963324" lon="5.507864554782615"><ele>389.85714285714283</ele><time>2026-05-02T05:39:59Z</time></trkpt><trkpt lat="43.34290906461003" lon="5.507826323483322"><ele>390.0</ele><time>2026-05-02T05:40:01Z</time></trkpt><trkpt lat="43.34298026267624" lon="5.507794671104944"><ele>392.1428571428571</ele><time>2026-05-02T05:40:03Z</time></trkpt><trkpt lat="43.34304801929707" lon="5.507768578713426"><ele>394.2857142857143</ele><time>2026-05-02T05:40:05Z</time></trkpt><trkpt lat="43.343118243997196" lon="5.5077443994881925"><ele>396.42857142857144</ele><time>2026-05-02T05:40:07Z</time></trkpt><trkpt lat="43.34318721378948" lon="5.507728795213502"><ele>398.57142857142856</ele><time>2026-05-02T05:40:09Z</time></trkpt><trkpt lat="43.34325233686907" lon="5.507708691868955"><ele>400.7142857142857</ele><time>2026-05-02T05:40:11Z</time></trkpt><trkpt lat="43.34331738545893" lon="5.507677227128029"><ele>402.85714285714283</ele><time>2026-05-02T05:40:13Z</time></trkpt><trkpt lat="43.34338038720261" lon="5.507650490226317"><ele>405.0</ele><time>2026-05-02T05:40:15Z</time></trkpt><trkpt lat="43.343443518056596" lon="5.507623328085004"><ele>404.99999999999994</ele><time>2026-05-02T05:40:17Z</time></trkpt><trkpt lat="43.34352328185813" lon="5.5075773618780355"><ele>405.0</ele><time>2026-05-02T05:40:19.999Z</time></trkpt><trkpt lat="43.343588914255534" lon="5.5075369709270925"><ele>405.0</ele><time>2026-05-02T05:40:21.999Z</time></trkpt><trkpt lat="43.343650493861155" lon="5.5074978669780545"><ele>405.0</ele><time>2026-05-02T05:40:23.999Z</time></trkpt><trkpt lat="43.343716448481985" lon="5.507455896038101"><ele>405.0</ele><time>2026-05-02T05:40:25.999Z</time></trkpt><trkpt lat="43.34378545119142" lon="5.507422384560382"><ele>404.99999999999994</ele><time>2026-05-02T05:40:27.999Z</time></trkpt><trkpt lat="43.34385566489334" lon="5.50741782577325"><ele>405.0</ele><time>2026-05-02T05:40:29.999Z</time></trkpt><trkpt lat="43.343949211681384" lon="5.50743576560749"><ele>405.0</ele><time>2026-05-02T05:40:32.999Z</time></trkpt><trkpt lat="43.34399482764715" lon="5.5074981239461875"><ele>405.0</ele><time>2026-05-02T05:40:34.999Z</time></trkpt><trkpt lat="43.34400274805202" lon="5.5075877894162275"><ele>405.0</ele><time>2026-05-02T05:40:36.999Z</time></trkpt><trkpt lat="43.34395804365648" lon="5.507706057535201"><ele>405.0</ele><time>2026-05-02T05:40:39.999Z</time></trkpt><trkpt lat="43.343927976211965" lon="5.507796434105175"><ele>405.0</ele><time>2026-05-02T05:40:41.999Z</time></trkpt><trkpt lat="43.34387415163067" lon="5.507900776372408"><ele>405.0</ele><time>2026-05-02T05:40:44.999Z</time></trkpt><trkpt lat="43.343815535788025" lon="5.508002310561508"><ele>406.2857142857143</ele><time>2026-05-02T05:40:47.999Z</time></trkpt><trkpt lat="43.34377138655196" lon="5.508078301957137"><ele>407.57142857142856</ele><time>2026-05-02T05:40:49.999Z</time></trkpt><trkpt lat="43.34372561255679" lon="5.50815708996104"><ele>408.8571428571429</ele><time>2026-05-02T05:40:51.999Z</time></trkpt><trkpt lat="43.34368047577468" lon="5.508234133509777"><ele>410.1428571428571</ele><time>2026-05-02T05:40:53.999Z</time></trkpt><trkpt lat="43.34363362949016" lon="5.5083121474201"><ele>411.42857142857144</ele><time>2026-05-02T05:40:55.999Z</time></trkpt><trkpt lat="43.343588494187166" lon="5.5083867018272255"><ele>412.7142857142857</ele><time>2026-05-02T05:40:57.999Z</time></trkpt><trkpt lat="43.34354161780596" lon="5.508462298697873"><ele>414.0</ele><time>2026-05-02T05:40:59.999Z</time></trkpt><trkpt lat="43.343494754948914" lon="5.5085361779236015"><ele>414.00000000000006</ele><time>2026-05-02T05:41:01.999Z</time></trkpt><trkpt lat="43.34344717381858" lon="5.508611189498951"><ele>414.0</ele><time>2026-05-02T05:41:03.999Z</time></trkpt><trkpt lat="43.34339903773941" lon="5.508687985176027"><ele>414.0</ele><time>2026-05-02T05:41:05.999Z</time></trkpt><trkpt lat="43.34335122077396" lon="5.508765475283545"><ele>414.0</ele><time>2026-05-02T05:41:07.999Z</time></trkpt><trkpt lat="43.34330483462796" lon="5.508845042352105"><ele>414.0</ele><time>2026-05-02T05:41:09.999Z</time></trkpt><trkpt lat="43.34325945542787" lon="5.5089191971319025"><ele>414.00000000000006</ele><time>2026-05-02T05:41:11.999Z</time></trkpt><trkpt lat="43.343210476052974" lon="5.50898489641221"><ele>414.0</ele><time>2026-05-02T05:41:13.999Z</time></trkpt><trkpt lat="43.343157680283994" lon="5.509055156782483"><ele>413.5714285714286</ele><time>2026-05-02T05:41:15.999Z</time></trkpt><trkpt lat="43.34310503492033" lon="5.509131199804134"><ele>413.14285714285717</ele><time>2026-05-02T05:41:17.999Z</time></trkpt><trkpt lat="43.34305426910225" lon="5.50921134990951"><ele>412.7142857142857</ele><time>2026-05-02T05:41:19.999Z</time></trkpt><trkpt lat="43.34300807757182" lon="5.50928611197272"><ele>412.28571428571433</ele><time>2026-05-02T05:41:21.999Z</time></trkpt><trkpt lat="43.342963020479836" lon="5.50935949149331"><ele>411.85714285714283</ele><time>2026-05-02T05:41:23.999Z</time></trkpt><trkpt lat="43.34292130526462" lon="5.509427428490742"><ele>411.42857142857144</ele><time>2026-05-02T05:41:25.999Z</time></trkpt><trkpt lat="43.342877230408604" lon="5.50949831117616"><ele>411.0</ele><time>2026-05-02T05:41:27.998Z</time></trkpt><trkpt lat="43.34283195605623" lon="5.509569540067683"><ele>413.8333333333333</ele><time>2026-05-02T05:41:29.998Z</time></trkpt><trkpt lat="43.342785184919556" lon="5.509641126932382"><ele>416.66666666666663</ele><time>2026-05-02T05:41:31.998Z</time></trkpt><trkpt lat="43.34273612511072" lon="5.509712432963192"><ele>419.5</ele><time>2026-05-02T05:41:33.998Z</time></trkpt><trkpt lat="43.34268509664372" lon="5.509785553369549"><ele>422.3333333333333</ele><time>2026-05-02T05:41:35.998Z</time></trkpt><trkpt lat="43.3426381039925" lon="5.509864092864959"><ele>425.16666666666663</ele><time>2026-05-02T05:41:37.998Z</time></trkpt><trkpt lat="43.34259384476052" lon="5.509942121723403"><ele>428.0</ele><time>2026-05-02T05:41:39.998Z</time></trkpt><trkpt lat="43.342540072253804" lon="5.5100489198042775"><ele>428.00000000000006</ele><time>2026-05-02T05:41:42.998Z</time></trkpt><trkpt lat="43.342499669640056" lon="5.510137759167891"><ele>428.0</ele><time>2026-05-02T05:41:44.998Z</time></trkpt><trkpt lat="43.34246705248274" lon="5.510214917288756"><ele>428.0</ele><time>2026-05-02T05:41:46.998Z</time></trkpt><trkpt lat="43.342435618381394" lon="5.510291742901048"><ele>428.0</ele><time>2026-05-02T05:41:48.998Z</time></trkpt><trkpt lat="43.342403276160184" lon="5.5103748420565"><ele>428.0</ele><time>2026-05-02T05:41:50.998Z</time></trkpt><trkpt lat="43.34237208521796" lon="5.510458633436097"><ele>428.00000000000006</ele><time>2026-05-02T05:41:52.998Z</time></trkpt><trkpt lat="43.34234152613328" lon="5.510543878966527"><ele>428.0</ele><time>2026-05-02T05:41:54.998Z</time></trkpt><trkpt lat="43.3423127055701" lon="5.5106255717886565"><ele>427.99999999999994</ele><time>2026-05-02T05:41:56.998Z</time></trkpt><trkpt lat="43.34228312519447" lon="5.510709418282448"><ele>428.0</ele><time>2026-05-02T05:41:58.998Z</time></trkpt><trkpt lat="43.34225260959738" lon="5.51079591579043"><ele>428.0</ele><time>2026-05-02T05:42:01Z</time></trkpt><trkpt lat="43.34221699909233" lon="5.5108900521069515"><ele>428.0</ele><time>2026-05-02T05:42:03Z</time></trkpt><trkpt lat="43.342174177091024" lon="5.510991459458972"><ele>427.99999999999994</ele><time>2026-05-02T05:42:05Z</time></trkpt><trkpt lat="43.34213571093996" lon="5.511103805046916"><ele>428.0</ele><time>2026-05-02T05:42:07Z</time></trkpt><trkpt lat="43.34208539001425" lon="5.511198702225848"><ele>432.99999999999994</ele><time>2026-05-02T05:42:09Z</time></trkpt><trkpt lat="43.342048517044574" lon="5.511293162541464"><ele>438.0</ele><time>2026-05-02T05:42:11Z</time></trkpt><trkpt lat="43.34203527926183" lon="5.511404678172996"><ele>443.0</ele><time>2026-05-02T05:42:13Z</time></trkpt><trkpt lat="43.342042181919076" lon="5.511511284276787"><ele>448.0</ele><time>2026-05-02T05:42:15Z</time></trkpt><trkpt lat="43.34206195260991" lon="5.511604863904092"><ele>452.99999999999994</ele><time>2026-05-02T05:42:17Z</time></trkpt><trkpt lat="43.3420617180701" lon="5.511699987758981"><ele>458.0</ele><time>2026-05-02T05:42:19Z</time></trkpt><trkpt lat="43.342068375172786" lon="5.511798269367742"><ele>457.99999999999994</ele><time>2026-05-02T05:42:21Z</time></trkpt><trkpt lat="43.34207187727365" lon="5.511894825653648"><ele>458.0</ele><time>2026-05-02T05:42:23Z</time></trkpt><trkpt lat="43.342081902654705" lon="5.511982513630505"><ele>458.0</ele><time>2026-05-02T05:42:24.999Z</time></trkpt><trkpt lat="43.34208608466426" lon="5.512110955900535"><ele>458.0</ele><time>2026-05-02T05:42:27.999Z</time></trkpt><trkpt lat="43.34208548578628" lon="5.512203886362875"><ele>457.99999999999994</ele><time>2026-05-02T05:42:29.999Z</time></trkpt><trkpt lat="43.34206156768271" lon="5.512329284044305"><ele>458.0</ele><time>2026-05-02T05:42:32.999Z</time></trkpt><trkpt lat="43.342051235271626" lon="5.512445656210998"><ele>458.57142857142856</ele><time>2026-05-02T05:42:35.999Z</time></trkpt><trkpt lat="43.34203979258651" lon="5.512540993924202"><ele>459.14285714285717</ele><time>2026-05-02T05:42:37.999Z</time></trkpt><trkpt lat="43.34202843020197" lon="5.512630968972905"><ele>459.7142857142857</ele><time>2026-05-02T05:42:39.999Z</time></trkpt><trkpt lat="43.34201658058018" lon="5.5127245561236204"><ele>460.2857142857143</ele><time>2026-05-02T05:42:41.999Z</time></trkpt><trkpt lat="43.34201723296694" lon="5.51281532996391"><ele>460.8571428571429</ele><time>2026-05-02T05:42:43.999Z</time></trkpt><trkpt lat="43.34200267243599" lon="5.512903838517931"><ele>461.42857142857144</ele><time>2026-05-02T05:42:45.999Z</time></trkpt><trkpt lat="43.34198626774091" lon="5.512989484888613"><ele>462.0</ele><time>2026-05-02T05:42:47.999Z</time></trkpt><trkpt lat="43.341971673647045" lon="5.513075650334646"><ele>462.0</ele><time>2026-05-02T05:42:49.999Z</time></trkpt><trkpt lat="43.34194404314214" lon="5.513204551160504"><ele>462.0</ele><time>2026-05-02T05:42:52.999Z</time></trkpt><trkpt lat="43.341931227107786" lon="5.513307833528442"><ele>462.0</ele><time>2026-05-02T05:42:54.999Z</time></trkpt><trkpt lat="43.34191569097505" lon="5.513392647965912"><ele>462.0</ele><time>2026-05-02T05:42:56.999Z</time></trkpt><trkpt lat="43.341903914930384" lon="5.513479665751523"><ele>462.0</ele><time>2026-05-02T05:42:58.999Z</time></trkpt><trkpt lat="43.341894016531896" lon="5.5135689728140935"><ele>462.0</ele><time>2026-05-02T05:43:00.999Z</time></trkpt><trkpt lat="43.34188268949891" lon="5.513694668400979"><ele>462.6666666666667</ele><time>2026-05-02T05:43:03.999Z</time></trkpt><trkpt lat="43.34188807135715" lon="5.51382078015044"><ele>463.33333333333337</ele><time>2026-05-02T05:43:06.999Z</time></trkpt><trkpt lat="43.34190511189494" lon="5.51394661499526"><ele>464.0</ele><time>2026-05-02T05:43:09.999Z</time></trkpt><trkpt lat="43.3419272187788" lon="5.514070337282083"><ele>464.6666666666667</ele><time>2026-05-02T05:43:12.999Z</time></trkpt><trkpt lat="43.34195922277361" lon="5.5141844196378855"><ele>465.33333333333337</ele><time>2026-05-02T05:43:15.999Z</time></trkpt><trkpt lat="43.3419821239828" lon="5.514268820825042"><ele>466.0</ele><time>2026-05-02T05:43:17.999Z</time></trkpt><trkpt lat="43.34199970571625" lon="5.514352681160724"><ele>466.00000000000006</ele><time>2026-05-02T05:43:19.999Z</time></trkpt><trkpt lat="43.342032598917214" lon="5.5144656514572725"><ele>466.0</ele><time>2026-05-02T05:43:22.999Z</time></trkpt><trkpt lat="43.34207119037767" lon="5.514578440901257"><ele>466.0</ele><time>2026-05-02T05:43:25.999Z</time></trkpt><trkpt lat="43.34210121747086" lon="5.514684862075318"><ele>466.0</ele><time>2026-05-02T05:43:28.999Z</time></trkpt><trkpt lat="43.34213694874555" lon="5.5148009980621975"><ele>466.00000000000006</ele><time>2026-05-02T05:43:31.999Z</time></trkpt><trkpt lat="43.342162889284225" lon="5.514906609989398"><ele>466.0</ele><time>2026-05-02T05:43:34.998Z</time></trkpt><trkpt lat="43.3421832771532" lon="5.5149937056970195"><ele>465.50000000000006</ele><time>2026-05-02T05:43:36.998Z</time></trkpt><trkpt lat="43.34220817573818" lon="5.515111908802474"><ele>465.0</ele><time>2026-05-02T05:43:39.998Z</time></trkpt><trkpt lat="43.3422399742783" lon="5.515226657833185"><ele>464.5</ele><time>2026-05-02T05:43:42.998Z</time></trkpt><trkpt lat="43.34228182359615" lon="5.515337928838503"><ele>464.0</ele><time>2026-05-02T05:43:45.998Z</time></trkpt><trkpt lat="43.34229932054477" lon="5.515423170624495"><ele>463.50000000000006</ele><time>2026-05-02T05:43:47.998Z</time></trkpt><trkpt lat="43.342342225886014" lon="5.515505961099214"><ele>463.0</ele><time>2026-05-02T05:43:50.998Z</time></trkpt><trkpt lat="43.3423916779361" lon="5.515591590387259"><ele>463.00000000000006</ele><time>2026-05-02T05:43:53.998Z</time></trkpt><trkpt lat="43.34243440983716" lon="5.515677765695209"><ele>463.0</ele><time>2026-05-02T05:43:56.998Z</time></trkpt><trkpt lat="43.34248396699178" lon="5.515777076997241"><ele>463.0</ele><time>2026-05-02T05:43:59.998Z</time></trkpt><trkpt lat="43.34252819449913" lon="5.515866461726512"><ele>463.0</ele><time>2026-05-02T05:44:02.998Z</time></trkpt><trkpt lat="43.34256996357014" lon="5.515955478104368"><ele>463.00000000000006</ele><time>2026-05-02T05:44:06Z</time></trkpt><trkpt lat="43.34261093382785" lon="5.516052764314943"><ele>463.0</ele><time>2026-05-02T05:44:09Z</time></trkpt><trkpt lat="43.342651867052766" lon="5.516155785140034"><ele>466.1666666666667</ele><time>2026-05-02T05:44:12Z</time></trkpt><trkpt lat="43.34269725811206" lon="5.516243620274211"><ele>469.33333333333337</ele><time>2026-05-02T05:44:15Z</time></trkpt><trkpt lat="43.34272382388493" lon="5.5163533203360755"><ele>472.5</ele><time>2026-05-02T05:44:18Z</time></trkpt><trkpt lat="43.34275739852212" lon="5.516466169916429"><ele>475.66666666666663</ele><time>2026-05-02T05:44:21Z</time></trkpt><trkpt lat="43.34279442768084" lon="5.5165748461045805"><ele>478.8333333333333</ele><time>2026-05-02T05:44:24Z</time></trkpt><trkpt lat="43.342847701737135" lon="5.516667414590928"><ele>482.0</ele><time>2026-05-02T05:44:27Z</time></trkpt><trkpt lat="43.34289677646813" lon="5.516730189621454"><ele>481.99999999999994</ele><time>2026-05-02T05:44:28.999Z</time></trkpt><trkpt lat="43.34295599916415" lon="5.516814661162977"><ele>482.0</ele><time>2026-05-02T05:44:31.999Z</time></trkpt><trkpt lat="43.34301894060392" lon="5.516910228254768"><ele>482.0</ele><time>2026-05-02T05:44:34.999Z</time></trkpt><trkpt lat="43.34307484034556" lon="5.517000111985954"><ele>482.0</ele><time>2026-05-02T05:44:37.999Z</time></trkpt><trkpt lat="43.343131219280934" lon="5.517083260720961"><ele>481.99999999999994</ele><time>2026-05-02T05:44:40.999Z</time></trkpt><trkpt lat="43.34318475486597" lon="5.51715366027982"><ele>482.0</ele><time>2026-05-02T05:44:43.999Z</time></trkpt><trkpt lat="43.343221639835235" lon="5.51722785240121"><ele>481.8333333333333</ele><time>2026-05-02T05:44:45.999Z</time></trkpt><trkpt lat="43.34328805762943" lon="5.517291985651804"><ele>481.66666666666663</ele><time>2026-05-02T05:44:48.999Z</time></trkpt><trkpt lat="43.343352423625014" lon="5.517373240092911"><ele>481.5</ele><time>2026-05-02T05:44:51.999Z</time></trkpt><trkpt lat="43.34339829813944" lon="5.517459379951861"><ele>481.33333333333337</ele><time>2026-05-02T05:44:54.999Z</time></trkpt><trkpt lat="43.343456338124305" lon="5.517502116745115"><ele>481.1666666666667</ele><time>2026-05-02T05:44:56.999Z</time></trkpt><trkpt lat="43.34349655865823" lon="5.517575786238443"><ele>481.0</ele><time>2026-05-02T05:44:58.999Z</time></trkpt><trkpt lat="43.34355061722036" lon="5.517665287572221"><ele>481.00000000000006</ele><time>2026-05-02T05:45:01.999Z</time></trkpt><trkpt lat="43.34358907044677" lon="5.51777159463056"><ele>481.0</ele><time>2026-05-02T05:45:04.999Z</time></trkpt><trkpt lat="43.34361576742633" lon="5.517869641041836"><ele>481.0</ele><time>2026-05-02T05:45:07.999Z</time></trkpt><trkpt lat="43.34366017287656" lon="5.517976864779077"><ele>481.0</ele><time>2026-05-02T05:45:10.999Z</time></trkpt><trkpt lat="43.343693042745926" lon="5.518064091397855"><ele>481.00000000000006</ele><time>2026-05-02T05:45:13.999Z</time></trkpt><trkpt lat="43.34372057509347" lon="5.51818477854542"><ele>481.0</ele><time>2026-05-02T05:45:16.999Z</time></trkpt><trkpt lat="43.34374774787726" lon="5.51826564229824"><ele>482.83333333333337</ele><time>2026-05-02T05:45:18.999Z</time></trkpt><trkpt lat="43.34378458447531" lon="5.5183752646825"><ele>484.6666666666667</ele><time>2026-05-02T05:45:21.999Z</time></trkpt><trkpt lat="43.34381708975643" lon="5.518478272171998"><ele>486.5</ele><time>2026-05-02T05:45:24.999Z</time></trkpt><trkpt lat="43.34384479591346" lon="5.518577211556392"><ele>488.33333333333337</ele><time>2026-05-02T05:45:27.999Z</time></trkpt><trkpt lat="43.343873067876174" lon="5.518690901205897"><ele>490.1666666666667</ele><time>2026-05-02T05:45:30.999Z</time></trkpt><trkpt lat="43.343897833622904" lon="5.518793072825379"><ele>492.0</ele><time>2026-05-02T05:45:33.999Z</time></trkpt><trkpt lat="43.34392323324079" lon="5.518909734607456"><ele>492.3333333333333</ele><time>2026-05-02T05:45:36.998Z</time></trkpt><trkpt lat="43.34394906541783" lon="5.5190294029258204"><ele>492.66666666666663</ele><time>2026-05-02T05:45:39.998Z</time></trkpt><trkpt lat="43.343969928522604" lon="5.519143364719917"><ele>493.0</ele><time>2026-05-02T05:45:42.998Z</time></trkpt><trkpt lat="43.34398691543189" lon="5.5192531918470085"><ele>493.3333333333333</ele><time>2026-05-02T05:45:45.998Z</time></trkpt><trkpt lat="43.344004274369325" lon="5.519365424213504"><ele>493.66666666666663</ele><time>2026-05-02T05:45:48.998Z</time></trkpt><trkpt lat="43.344024690521366" lon="5.519484301546846"><ele>494.0</ele><time>2026-05-02T05:45:51.998Z</time></trkpt><trkpt lat="43.344049369042715" lon="5.519600405897118"><ele>495.49999999999994</ele><time>2026-05-02T05:45:54.998Z</time></trkpt><trkpt lat="43.34407810994094" lon="5.519724924822596"><ele>497.0</ele><time>2026-05-02T05:45:57.998Z</time></trkpt><trkpt lat="43.344111934240146" lon="5.519846436464203"><ele>498.5</ele><time>2026-05-02T05:46:00.998Z</time></trkpt><trkpt lat="43.34416436061464" lon="5.519946462521647"><ele>500.0</ele><time>2026-05-02T05:46:03.998Z</time></trkpt><trkpt lat="43.34419121458583" lon="5.52002842304767"><ele>501.49999999999994</ele><time>2026-05-02T05:46:05.998Z</time></trkpt><trkpt lat="43.34423416764983" lon="5.520138476043951"><ele>503.0</ele><time>2026-05-02T05:46:08.998Z</time></trkpt><trkpt lat="43.344293138044925" lon="5.52023142188116"><ele>502.99999999999994</ele><time>2026-05-02T05:46:12Z</time></trkpt><trkpt lat="43.34433925062484" lon="5.520330684898173"><ele>503.0</ele><time>2026-05-02T05:46:15Z</time></trkpt><trkpt lat="43.34438838969968" lon="5.520437802341353"><ele>503.0</ele><time>2026-05-02T05:46:18Z</time></trkpt><trkpt lat="43.344435198459784" lon="5.5205485536426195"><ele>503.0</ele><time>2026-05-02T05:46:21Z</time></trkpt><trkpt lat="43.34447699536803" lon="5.520654002867752"><ele>502.99999999999994</ele><time>2026-05-02T05:46:24Z</time></trkpt><trkpt lat="43.34452434020506" lon="5.520758264647811"><ele>503.0</ele><time>2026-05-02T05:46:27Z</time></trkpt><trkpt lat="43.34455539133088" lon="5.520833671029149"><ele>503.8333333333333</ele><time>2026-05-02T05:46:29Z</time></trkpt><trkpt lat="43.34460061531431" lon="5.520930396305982"><ele>504.66666666666663</ele><time>2026-05-02T05:46:31.999Z</time></trkpt><trkpt lat="43.344647456912014" lon="5.521029307928282"><ele>505.5</ele><time>2026-05-02T05:46:34.999Z</time></trkpt><trkpt lat="43.34469751539757" lon="5.5211326423309295"><ele>506.33333333333337</ele><time>2026-05-02T05:46:37.999Z</time></trkpt><trkpt lat="43.34474599135894" lon="5.521229339012333"><ele>507.1666666666667</ele><time>2026-05-02T05:46:40.999Z</time></trkpt><trkpt lat="43.344802173759355" lon="5.521334285354166"><ele>508.0</ele><time>2026-05-02T05:46:43.999Z</time></trkpt><trkpt lat="43.34485235614115" lon="5.521434915494683"><ele>509.1666666666667</ele><time>2026-05-02T05:46:46.999Z</time></trkpt><trkpt lat="43.34490657598747" lon="5.521532875302968"><ele>510.33333333333337</ele><time>2026-05-02T05:46:49.999Z</time></trkpt><trkpt lat="43.344958573795275" lon="5.521635062206985"><ele>511.5</ele><time>2026-05-02T05:46:52.999Z</time></trkpt><trkpt lat="43.34499693636257" lon="5.521707124797316"><ele>512.6666666666666</ele><time>2026-05-02T05:46:54.999Z</time></trkpt><trkpt lat="43.34504011026869" lon="5.5218151247729255"><ele>513.8333333333333</ele><time>2026-05-02T05:46:57.999Z</time></trkpt><trkpt lat="43.345099245953946" lon="5.521909277341525"><ele>515.0</ele><time>2026-05-02T05:47:00.999Z</time></trkpt><trkpt lat="43.34514851707803" lon="5.522011704990906"><ele>515.6666666666666</ele><time>2026-05-02T05:47:03.999Z</time></trkpt><trkpt lat="43.345177231695374" lon="5.5220914497009765"><ele>516.3333333333333</ele><time>2026-05-02T05:47:05.999Z</time></trkpt><trkpt lat="43.34521617720802" lon="5.522201038210776"><ele>517.0</ele><time>2026-05-02T05:47:08.999Z</time></trkpt><trkpt lat="43.34524135551812" lon="5.522322564579998"><ele>517.6666666666666</ele><time>2026-05-02T05:47:11.999Z</time></trkpt><trkpt lat="43.345291255562096" lon="5.522426810347371"><ele>518.3333333333334</ele><time>2026-05-02T05:47:14.999Z</time></trkpt><trkpt lat="43.34532195573017" lon="5.522541325955457"><ele>519.0</ele><time>2026-05-02T05:47:17.999Z</time></trkpt><trkpt lat="43.34535103973852" lon="5.522619200888808"><ele>519.0</ele><time>2026-05-02T05:47:19.999Z</time></trkpt><trkpt lat="43.3453750418083" lon="5.522702506750668"><ele>519.0</ele><time>2026-05-02T05:47:21.999Z</time></trkpt><trkpt lat="43.34540283350415" lon="5.522781907814827"><ele>519.0</ele><time>2026-05-02T05:47:23.999Z</time></trkpt><trkpt lat="43.34544160282564" lon="5.522902351545723"><ele>519.0</ele><time>2026-05-02T05:47:26.999Z</time></trkpt><trkpt lat="43.34547137976739" lon="5.523020847234484"><ele>519.0</ele><time>2026-05-02T05:47:29.999Z</time></trkpt><trkpt lat="43.345491132967176" lon="5.523104067912565"><ele>519.0</ele><time>2026-05-02T05:47:31.999Z</time></trkpt><trkpt lat="43.34550460958831" lon="5.52319653243922"><ele>519.0</ele><time>2026-05-02T05:47:33.999Z</time></trkpt><trkpt lat="43.345513046537775" lon="5.523288601195769"><ele>519.8571428571429</ele><time>2026-05-02T05:47:35.999Z</time></trkpt><trkpt lat="43.34551221267756" lon="5.523388323114641"><ele>520.7142857142857</ele><time>2026-05-02T05:47:37.999Z</time></trkpt><trkpt lat="43.34550245209773" lon="5.523485836972728"><ele>521.5714285714286</ele><time>2026-05-02T05:47:39.998Z</time></trkpt><trkpt lat="43.34549303634975" lon="5.5235832728045535"><ele>522.4285714285714</ele><time>2026-05-02T05:47:41.998Z</time></trkpt><trkpt lat="43.34548230464252" lon="5.52368744680588"><ele>523.2857142857142</ele><time>2026-05-02T05:47:43.998Z</time></trkpt><trkpt lat="43.345474855097706" lon="5.523786914196304"><ele>524.1428571428571</ele><time>2026-05-02T05:47:45.998Z</time></trkpt><trkpt lat="43.34546672399477" lon="5.523887760982358"><ele>525.0</ele><time>2026-05-02T05:47:47.998Z</time></trkpt><trkpt lat="43.345457307403066" lon="5.523986897062037"><ele>525.8571428571429</ele><time>2026-05-02T05:47:49.998Z</time></trkpt><trkpt lat="43.34544467258315" lon="5.524083129041119"><ele>526.7142857142858</ele><time>2026-05-02T05:47:51.998Z</time></trkpt><trkpt lat="43.3454339463799" lon="5.524181100705443"><ele>527.5714285714286</ele><time>2026-05-02T05:47:53.998Z</time></trkpt><trkpt lat="43.34541961147541" lon="5.524279909097694"><ele>528.4285714285714</ele><time>2026-05-02T05:47:55.998Z</time></trkpt><trkpt lat="43.34540838185173" lon="5.5243715528700355"><ele>529.2857142857143</ele><time>2026-05-02T05:47:57.998Z</time></trkpt><trkpt lat="43.34539162813873" lon="5.524471946463849"><ele>530.1428571428571</ele><time>2026-05-02T05:47:59.998Z</time></trkpt><trkpt lat="43.34536998324946" lon="5.524574469177084"><ele>531.0</ele><time>2026-05-02T05:48:01.998Z</time></trkpt><trkpt lat="43.34533983259515" lon="5.524676485747844"><ele>531.5</ele><time>2026-05-02T05:48:03.998Z</time></trkpt><trkpt lat="43.345313200987036" lon="5.524773579556108"><ele>532.0</ele><time>2026-05-02T05:48:05.998Z</time></trkpt><trkpt lat="43.34528716712833" lon="5.524877339454321"><ele>532.5</ele><time>2026-05-02T05:48:07.998Z</time></trkpt><trkpt lat="43.345245972048474" lon="5.524977549029617"><ele>533.0</ele><time>2026-05-02T05:48:09.998Z</time></trkpt><trkpt lat="43.345216448778864" lon="5.525081681335028"><ele>533.5</ele><time>2026-05-02T05:48:11.998Z</time></trkpt><trkpt lat="43.345191248147486" lon="5.5251845657014105"><ele>534.0</ele><time>2026-05-02T05:48:13.998Z</time></trkpt><trkpt lat="43.345178202089706" lon="5.525290750755214"><ele>534.1666666666666</ele><time>2026-05-02T05:48:15.998Z</time></trkpt><trkpt lat="43.34517137793683" lon="5.525398805667439"><ele>534.3333333333334</ele><time>2026-05-02T05:48:18Z</time></trkpt><trkpt lat="43.3451888531686" lon="5.52552446756753"><ele>534.5</ele><time>2026-05-02T05:48:20Z</time></trkpt><trkpt lat="43.345217483169854" lon="5.525615142574804"><ele>534.6666666666667</ele><time>2026-05-02T05:48:21.999Z</time></trkpt><trkpt lat="43.3452518484536" lon="5.525688422445193"><ele>534.8333333333334</ele><time>2026-05-02T05:48:23.999Z</time></trkpt><trkpt lat="43.345319054709165" lon="5.525786157036085"><ele>535.0</ele><time>2026-05-02T05:48:26.999Z</time></trkpt><trkpt lat="43.345370282015935" lon="5.525840342383706"><ele>535.0</ele><time>2026-05-02T05:48:28.999Z</time></trkpt><trkpt lat="43.34544491628718" lon="5.525925515216649"><ele>535.0</ele><time>2026-05-02T05:48:31.999Z</time></trkpt><trkpt lat="43.34550336135523" lon="5.5259646165299054"><ele>535.0</ele><time>2026-05-02T05:48:33.999Z</time></trkpt><trkpt lat="43.34555074110695" lon="5.526032330659723"><ele>535.0</ele><time>2026-05-02T05:48:35.999Z</time></trkpt><trkpt lat="43.34562189083878" lon="5.5261080796419035"><ele>535.0</ele><time>2026-05-02T05:48:38.999Z</time></trkpt><trkpt lat="43.345701394035544" lon="5.526190146435166"><ele>535.0</ele><time>2026-05-02T05:48:41.999Z</time></trkpt><trkpt lat="43.345766916127396" lon="5.526281336525774"><ele>535.3333333333334</ele><time>2026-05-02T05:48:44.999Z</time></trkpt><trkpt lat="43.3458246703672" lon="5.526377809453273"><ele>535.6666666666667</ele><time>2026-05-02T05:48:47.999Z</time></trkpt><trkpt lat="43.34588625571978" lon="5.526476683531495"><ele>536.0</ele><time>2026-05-02T05:48:50.999Z</time></trkpt><trkpt lat="43.34592605522665" lon="5.526550201867097"><ele>536.3333333333334</ele><time>2026-05-02T05:48:52.999Z</time></trkpt><trkpt lat="43.345971190188656" lon="5.526616726294849"><ele>536.6666666666666</ele><time>2026-05-02T05:48:54.999Z</time></trkpt><trkpt lat="43.3460288840494" lon="5.526726276673991"><ele>537.0</ele><time>2026-05-02T05:48:57.999Z</time></trkpt><trkpt lat="43.34606500539363" lon="5.526808564910872"><ele>537.0</ele><time>2026-05-02T05:48:59.999Z</time></trkpt><trkpt lat="43.34609438364644" lon="5.526894610450547"><ele>537.0</ele><time>2026-05-02T05:49:01.999Z</time></trkpt><trkpt lat="43.34612054197414" lon="5.526974160522675"><ele>537.0</ele><time>2026-05-02T05:49:03.999Z</time></trkpt><trkpt lat="43.34615045065294" lon="5.52706035266333"><ele>537.0</ele><time>2026-05-02T05:49:05.999Z</time></trkpt><trkpt lat="43.346191209995865" lon="5.5271730542280775"><ele>537.0</ele><time>2026-05-02T05:49:08.999Z</time></trkpt><trkpt lat="43.34622101995363" lon="5.527252423858164"><ele>537.0</ele><time>2026-05-02T05:49:10.999Z</time></trkpt><trkpt lat="43.346265591475074" lon="5.527366955057224"><ele>538.1666666666666</ele><time>2026-05-02T05:49:13.999Z</time></trkpt><trkpt lat="43.346313294489775" lon="5.5274838216014635"><ele>539.3333333333334</ele><time>2026-05-02T05:49:16.999Z</time></trkpt><trkpt lat="43.34633320477914" lon="5.527569574264573"><ele>540.5</ele><time>2026-05-02T05:49:18.999Z</time></trkpt><trkpt lat="43.34636346799811" lon="5.527645678633689"><ele>541.6666666666667</ele><time>2026-05-02T05:49:20.999Z</time></trkpt><trkpt lat="43.34641293429618" lon="5.527757316850452"><ele>542.8333333333334</ele><time>2026-05-02T05:49:23.999Z</time></trkpt><trkpt lat="43.346474576032534" lon="5.527860669677084"><ele>544.0</ele><time>2026-05-02T05:49:26.999Z</time></trkpt><trkpt lat="43.34653976268358" lon="5.527920878596768"><ele>545.3333333333334</ele><time>2026-05-02T05:49:28.999Z</time></trkpt><trkpt lat="43.34661187458474" lon="5.527959046652699"><ele>546.6666666666667</ele><time>2026-05-02T05:49:30.999Z</time></trkpt><trkpt lat="43.34667716944535" lon="5.527976538748563"><ele>548.0</ele><time>2026-05-02T05:49:32.999Z</time></trkpt><trkpt lat="43.346767945037975" lon="5.528003537132001"><ele>549.3333333333334</ele><time>2026-05-02T05:49:35.999Z</time></trkpt><trkpt lat="43.3468491193266" lon="5.5280436463220175"><ele>550.6666666666666</ele><time>2026-05-02T05:49:38.999Z</time></trkpt><trkpt lat="43.3469290401624" lon="5.5280876472536145"><ele>552.0</ele><time>2026-05-02T05:49:41.999Z</time></trkpt><trkpt lat="43.34699077376692" lon="5.528144097833334"><ele>552.0</ele><time>2026-05-02T05:49:44.999Z</time></trkpt><trkpt lat="43.34705528160224" lon="5.528222603165964"><ele>552.0</ele><time>2026-05-02T05:49:47.998Z</time></trkpt><trkpt lat="43.34711754900637" lon="5.5283052880334616"><ele>552.0</ele><time>2026-05-02T05:49:50.998Z</time></trkpt><trkpt lat="43.34719154535961" lon="5.528377702844955"><ele>552.0</ele><time>2026-05-02T05:49:53.998Z</time></trkpt><trkpt lat="43.34724584046074" lon="5.528476696655306"><ele>552.0</ele><time>2026-05-02T05:49:56.998Z</time></trkpt><trkpt lat="43.34730621295291" lon="5.5285588351242145"><ele>552.0</ele><time>2026-05-02T05:49:59.998Z</time></trkpt><trkpt lat="43.34736730287709" lon="5.5286453484774185"><ele>552.8333333333334</ele><time>2026-05-02T05:50:02.998Z</time></trkpt><trkpt lat="43.34742184027188" lon="5.528724888512539"><ele>553.6666666666666</ele><time>2026-05-02T05:50:05.998Z</time></trkpt><trkpt lat="43.34747737447901" lon="5.528806126305428"><ele>554.5</ele><time>2026-05-02T05:50:08.998Z</time></trkpt><trkpt lat="43.34753019872635" lon="5.5288844360544305"><ele>555.3333333333333</ele><time>2026-05-02T05:50:11.998Z</time></trkpt><trkpt lat="43.347580894465466" lon="5.528960126924121"><ele>556.1666666666666</ele><time>2026-05-02T05:50:14.998Z</time></trkpt><trkpt lat="43.3476502960251" lon="5.529030081292395"><ele>557.0</ele><time>2026-05-02T05:50:17.998Z</time></trkpt><trkpt lat="43.34769919225224" lon="5.529107207683656"><ele>558.5</ele><time>2026-05-02T05:50:20.998Z</time></trkpt><trkpt lat="43.347741729073235" lon="5.529199903175962"><ele>560.0</ele><time>2026-05-02T05:50:24Z</time></trkpt><trkpt lat="43.34778977719032" lon="5.529271075046831"><ele>561.5</ele><time>2026-05-02T05:50:27Z</time></trkpt><trkpt lat="43.347843018782" lon="5.529352091447237"><ele>563.0</ele><time>2026-05-02T05:50:30Z</time></trkpt><trkpt lat="43.347890057053284" lon="5.529427799628087"><ele>564.5</ele><time>2026-05-02T05:50:33Z</time></trkpt><trkpt lat="43.34793592075121" lon="5.529515242392561"><ele>566.0</ele><time>2026-05-02T05:50:36Z</time></trkpt><trkpt lat="43.34797477071951" lon="5.529610102363556"><ele>568.0</ele><time>2026-05-02T05:50:39Z</time></trkpt><trkpt lat="43.34802322979181" lon="5.529702473844712"><ele>570.0</ele><time>2026-05-02T05:50:42Z</time></trkpt><trkpt lat="43.34805237054045" lon="5.529806589244663"><ele>572.0</ele><time>2026-05-02T05:50:44.999Z</time></trkpt><trkpt lat="43.34809168830933" lon="5.529911219072167"><ele>574.0</ele><time>2026-05-02T05:50:47.999Z</time></trkpt><trkpt lat="43.34812627792911" lon="5.530018100377857"><ele>576.0</ele><time>2026-05-02T05:50:50.999Z</time></trkpt><trkpt lat="43.348143495319164" lon="5.530129544884369"><ele>578.0</ele><time>2026-05-02T05:50:53.999Z</time></trkpt><trkpt lat="43.34819318548346" lon="5.530225945660625"><ele>578.0</ele><time>2026-05-02T05:50:56.999Z</time></trkpt><trkpt lat="43.348231137360145" lon="5.5303313005940655"><ele>578.0</ele><time>2026-05-02T05:50:59.999Z</time></trkpt><trkpt lat="43.34827002281537" lon="5.5304321904746425"><ele>578.0</ele><time>2026-05-02T05:51:02.999Z</time></trkpt><trkpt lat="43.348309369368" lon="5.530535512962283"><ele>578.0</ele><time>2026-05-02T05:51:05.999Z</time></trkpt><trkpt lat="43.34834502418033" lon="5.5306396030567155"><ele>578.0</ele><time>2026-05-02T05:51:08.999Z</time></trkpt><trkpt lat="43.34836421936118" lon="5.530742848801525"><ele>578.0</ele><time>2026-05-02T05:51:11.999Z</time></trkpt><trkpt lat="43.34840538773655" lon="5.530836167070083"><ele>579.0</ele><time>2026-05-02T05:51:14.999Z</time></trkpt><trkpt lat="43.34842530774568" lon="5.530943767064654"><ele>580.0</ele><time>2026-05-02T05:51:17.999Z</time></trkpt><trkpt lat="43.34840043456484" lon="5.531054341096331"><ele>581.0</ele><time>2026-05-02T05:51:20.999Z</time></trkpt><trkpt lat="43.34836670195257" lon="5.531147351589823"><ele>582.0</ele><time>2026-05-02T05:51:23.999Z</time></trkpt><trkpt lat="43.348326637137106" lon="5.531245302528554"><ele>583.0</ele><time>2026-05-02T05:51:26.999Z</time></trkpt><trkpt lat="43.34828212890313" lon="5.531348098876419"><ele>584.0</ele><time>2026-05-02T05:51:29.999Z</time></trkpt><trkpt lat="43.348234605093054" lon="5.531444035071293"><ele>584.6666666666666</ele><time>2026-05-02T05:51:32.999Z</time></trkpt><trkpt lat="43.348186297150576" lon="5.531531970686401"><ele>585.3333333333333</ele><time>2026-05-02T05:51:35.999Z</time></trkpt><trkpt lat="43.34813069796472" lon="5.531628101238099"><ele>586.0</ele><time>2026-05-02T05:51:38.999Z</time></trkpt><trkpt lat="43.348073159484024" lon="5.53172434852076"><ele>586.6666666666666</ele><time>2026-05-02T05:51:41.999Z</time></trkpt><trkpt lat="43.34803771452254" lon="5.531801888332054"><ele>587.3333333333334</ele><time>2026-05-02T05:51:43.999Z</time></trkpt><trkpt lat="43.34798190454271" lon="5.531899202264545"><ele>588.0</ele><time>2026-05-02T05:51:46.999Z</time></trkpt><trkpt lat="43.34792999887054" lon="5.531948983203805"><ele>589.8333333333334</ele><time>2026-05-02T05:51:48.999Z</time></trkpt><trkpt lat="43.34789746762511" lon="5.53202419840787"><ele>591.6666666666666</ele><time>2026-05-02T05:51:50.999Z</time></trkpt><trkpt lat="43.34783593848678" lon="5.532103658547857"><ele>593.5</ele><time>2026-05-02T05:51:53.998Z</time></trkpt><trkpt lat="43.34777903443856" lon="5.532147235924297"><ele>595.3333333333333</ele><time>2026-05-02T05:51:55.998Z</time></trkpt><trkpt lat="43.34771011001546" lon="5.532224783578436"><ele>597.1666666666666</ele><time>2026-05-02T05:51:58.998Z</time></trkpt><trkpt lat="43.34764163766726" lon="5.532293306036121"><ele>599.0</ele><time>2026-05-02T05:52:01.998Z</time></trkpt><trkpt lat="43.34758805789363" lon="5.532354506685223"><ele>599.0</ele><time>2026-05-02T05:52:04.998Z</time></trkpt><trkpt lat="43.34752231482109" lon="5.532407523856448"><ele>599.0</ele><time>2026-05-02T05:52:06.998Z</time></trkpt><trkpt lat="43.34746795896544" lon="5.532455148048063"><ele>599.0</ele><time>2026-05-02T05:52:08.998Z</time></trkpt><trkpt lat="43.34740484540079" lon="5.532483803245561"><ele>599.0</ele><time>2026-05-02T05:52:10.998Z</time></trkpt><trkpt lat="43.34734659264789" lon="5.532517891571363"><ele>599.0</ele><time>2026-05-02T05:52:12.998Z</time></trkpt><trkpt lat="43.347259481412685" lon="5.532543046232719"><ele>599.0</ele><time>2026-05-02T05:52:15.998Z</time></trkpt><trkpt lat="43.347192789222575" lon="5.532600153933"><ele>599.0</ele><time>2026-05-02T05:52:18.998Z</time></trkpt><trkpt lat="43.347125966774385" lon="5.532638658366006"><ele>603.0</ele><time>2026-05-02T05:52:20.998Z</time></trkpt><trkpt lat="43.34704937333133" lon="5.532686722814142"><ele>607.0</ele><time>2026-05-02T05:52:23.998Z</time></trkpt><trkpt lat="43.34697111882642" lon="5.532726084182408"><ele>611.0</ele><time>2026-05-02T05:52:26.998Z</time></trkpt><trkpt lat="43.346892905735594" lon="5.53277361754408"><ele>615.0</ele><time>2026-05-02T05:52:30Z</time></trkpt><trkpt lat="43.34680815535204" lon="5.53278353919041"><ele>619.0</ele><time>2026-05-02T05:52:33Z</time></trkpt><trkpt lat="43.346729959613356" lon="5.532809512707755"><ele>623.0</ele><time>2026-05-02T05:52:36Z</time></trkpt><trkpt lat="43.34667136379867" lon="5.532843790451891"><ele>623.0</ele><time>2026-05-02T05:52:38Z</time></trkpt><trkpt lat="43.34658986506557" lon="5.532847291597796"><ele>623.0</ele><time>2026-05-02T05:52:41Z</time></trkpt><trkpt lat="43.346504801869806" lon="5.532858924225589"><ele>623.0</ele><time>2026-05-02T05:52:45Z</time></trkpt><trkpt lat="43.34644066453627" lon="5.532870618822469"><ele>623.0</ele><time>2026-05-02T05:52:47Z</time></trkpt><trkpt lat="43.34651373602705" lon="5.532857639142326"><ele>623.0</ele><time>2026-05-02T05:53:09.999Z</time></trkpt><trkpt lat="43.34658526129489" lon="5.532847350872368"><ele>623.0</ele><time>2026-05-02T05:53:11.999Z</time></trkpt><trkpt lat="43.34669031038523" lon="5.532824172305248"><ele>623.0</ele><time>2026-05-02T05:53:13.999Z</time></trkpt><trkpt lat="43.34678594427942" lon="5.532792187674502"><ele>623.0</ele><time>2026-05-02T05:53:15.999Z</time></trkpt><trkpt lat="43.346862209875056" lon="5.532765152134723"><ele>623.0</ele><time>2026-05-02T05:53:18.999Z</time></trkpt><trkpt lat="43.3469399603052" lon="5.532735595498856"><ele>623.0</ele><time>2026-05-02T05:53:20.999Z</time></trkpt><trkpt lat="43.34702215502199" lon="5.532707437723597"><ele>623.0</ele><time>2026-05-02T05:53:22.999Z</time></trkpt><trkpt lat="43.347120662319675" lon="5.532635911441826"><ele>619.0</ele><time>2026-05-02T05:53:24.999Z</time></trkpt><trkpt lat="43.347216946885425" lon="5.532558675927697"><ele>615.0</ele><time>2026-05-02T05:53:26.999Z</time></trkpt><trkpt lat="43.347283337155" lon="5.532522172370024"><ele>611.0</ele><time>2026-05-02T05:53:27.999Z</time></trkpt><trkpt lat="43.34736396829663" lon="5.532502220810917"><ele>607.0</ele><time>2026-05-02T05:53:28.999Z</time></trkpt><trkpt lat="43.34743009495373" lon="5.532455840865605"><ele>603.0</ele><time>2026-05-02T05:53:29.999Z</time></trkpt><trkpt lat="43.34750157591132" lon="5.532415728754303"><ele>599.0</ele><time>2026-05-02T05:53:30.999Z</time></trkpt><trkpt lat="43.34757800819937" lon="5.532402569879783"><ele>599.0</ele><time>2026-05-02T05:53:31.999Z</time></trkpt><trkpt lat="43.34763828537463" lon="5.532336978082514"><ele>599.0</ele><time>2026-05-02T05:53:32.999Z</time></trkpt><trkpt lat="43.34773434205152" lon="5.5322210285289675"><ele>599.0</ele><time>2026-05-02T05:53:34.999Z</time></trkpt><trkpt lat="43.34779087373331" lon="5.532167758551405"><ele>599.0</ele><time>2026-05-02T05:53:35.999Z</time></trkpt><trkpt lat="43.347846417490146" lon="5.532099687829626"><ele>599.0</ele><time>2026-05-02T05:53:36.999Z</time></trkpt><trkpt lat="43.34789374186336" lon="5.532032497525301"><ele>599.0</ele><time>2026-05-02T05:53:37.999Z</time></trkpt><trkpt lat="43.347940118595176" lon="5.531959450768426"><ele>600.8333333333333</ele><time>2026-05-02T05:53:38.999Z</time></trkpt><trkpt lat="43.348018933202994" lon="5.53184230774181"><ele>602.6666666666666</ele><time>2026-05-02T05:53:40.999Z</time></trkpt><trkpt lat="43.348086839822074" lon="5.531759924755581"><ele>604.5</ele><time>2026-05-02T05:53:42.999Z</time></trkpt><trkpt lat="43.3481354522315" lon="5.531695281552188"><ele>606.3333333333334</ele><time>2026-05-02T05:53:44.999Z</time></trkpt><trkpt lat="43.34817217671183" lon="5.531767119530838"><ele>608.1666666666667</ele><time>2026-05-02T05:53:48.999Z</time></trkpt><trkpt lat="43.348217064837655" lon="5.531828721183497"><ele>610.0</ele><time>2026-05-02T05:53:52.999Z</time></trkpt><trkpt lat="43.348311506059865" lon="5.5318266263596945"><ele>606.8571428571429</ele><time>2026-05-02T05:53:55.998Z</time></trkpt><trkpt lat="43.34839753479537" lon="5.531854370502355"><ele>603.7142857142857</ele><time>2026-05-02T05:53:57.998Z</time></trkpt><trkpt lat="43.34844145089371" lon="5.531923135874198"><ele>600.5714285714286</ele><time>2026-05-02T05:54:00.998Z</time></trkpt><trkpt lat="43.34841131575725" lon="5.53201855845361"><ele>597.4285714285714</ele><time>2026-05-02T05:54:03.998Z</time></trkpt><trkpt lat="43.34839529965303" lon="5.532104767353258"><ele>594.2857142857142</ele><time>2026-05-02T05:54:05.998Z</time></trkpt><trkpt lat="43.34838315417341" lon="5.53219402831247"><ele>591.1428571428571</ele><time>2026-05-02T05:54:07.998Z</time></trkpt><trkpt lat="43.34834839916518" lon="5.532278549662514"><ele>588.0</ele><time>2026-05-02T05:54:09.998Z</time></trkpt><trkpt lat="43.348300687780785" lon="5.53234685516336"><ele>587.5</ele><time>2026-05-02T05:54:11.998Z</time></trkpt><trkpt lat="43.34825679384487" lon="5.532422379237605"><ele>587.0</ele><time>2026-05-02T05:54:13.998Z</time></trkpt><trkpt lat="43.348231800950344" lon="5.532503158547292"><ele>586.5</ele><time>2026-05-02T05:54:15.998Z</time></trkpt><trkpt lat="43.34822331990428" lon="5.532616818643249"><ele>586.0</ele><time>2026-05-02T05:54:18.998Z</time></trkpt><trkpt lat="43.3481988086157" lon="5.532719926077812"><ele>585.5</ele><time>2026-05-02T05:54:21.998Z</time></trkpt><trkpt lat="43.34812918710867" lon="5.532774228546686"><ele>585.0</ele><time>2026-05-02T05:54:23.998Z</time></trkpt><trkpt lat="43.348047780306935" lon="5.532839431674532"><ele>585.0</ele><time>2026-05-02T05:54:25.998Z</time></trkpt><trkpt lat="43.34799844417578" lon="5.532930549038827"><ele>585.0</ele><time>2026-05-02T05:54:27.998Z</time></trkpt><trkpt lat="43.34793754979437" lon="5.533028689013923"><ele>585.0</ele><time>2026-05-02T05:54:29.998Z</time></trkpt><trkpt lat="43.34786011440536" lon="5.533114287593926"><ele>585.0</ele><time>2026-05-02T05:54:31.998Z</time></trkpt><trkpt lat="43.34777045228157" lon="5.5331687838354116"><ele>585.0</ele><time>2026-05-02T05:54:33.998Z</time></trkpt><trkpt lat="43.347705389606" lon="5.533254872047224"><ele>585.0</ele><time>2026-05-02T05:54:36Z</time></trkpt><trkpt lat="43.347626791360604" lon="5.533336481736896"><ele>585.0</ele><time>2026-05-02T05:54:38Z</time></trkpt><trkpt lat="43.34754964923139" lon="5.533413940137018"><ele>585.0</ele><time>2026-05-02T05:54:40Z</time></trkpt><trkpt lat="43.34749759808546" lon="5.533466286172565"><ele>585.0</ele><time>2026-05-02T05:54:42Z</time></trkpt><trkpt lat="43.34746736862081" lon="5.533561546102734"><ele>585.0</ele><time>2026-05-02T05:54:44Z</time></trkpt><trkpt lat="43.34744506971936" lon="5.533670059580423"><ele>585.0</ele><time>2026-05-02T05:54:46Z</time></trkpt><trkpt lat="43.3474390439715" lon="5.533767586741452"><ele>584.8333333333334</ele><time>2026-05-02T05:54:48Z</time></trkpt><trkpt lat="43.347492037396556" lon="5.533847598750892"><ele>584.6666666666666</ele><time>2026-05-02T05:54:50Z</time></trkpt><trkpt lat="43.347556363450224" lon="5.533923800805828"><ele>584.5</ele><time>2026-05-02T05:54:52Z</time></trkpt><trkpt lat="43.34759332953542" lon="5.53401252739014"><ele>584.3333333333333</ele><time>2026-05-02T05:54:53.999Z</time></trkpt><trkpt lat="43.34763218222065" lon="5.534109081378593"><ele>584.1666666666666</ele><time>2026-05-02T05:54:55.999Z</time></trkpt><trkpt lat="43.34768047616088" lon="5.5341877817338325"><ele>584.0</ele><time>2026-05-02T05:54:57.999Z</time></trkpt><trkpt lat="43.347728226322346" lon="5.534263161744016"><ele>584.0</ele><time>2026-05-02T05:54:59.999Z</time></trkpt><trkpt lat="43.34779197284221" lon="5.534368694677652"><ele>584.0</ele><time>2026-05-02T05:55:02.999Z</time></trkpt><trkpt lat="43.347816110009745" lon="5.534456384497617"><ele>584.0</ele><time>2026-05-02T05:55:04.999Z</time></trkpt><trkpt lat="43.347819698896146" lon="5.534549927199931"><ele>584.0</ele><time>2026-05-02T05:55:06.999Z</time></trkpt><trkpt lat="43.34780598398443" lon="5.534642156953434"><ele>584.0</ele><time>2026-05-02T05:55:08.999Z</time></trkpt><trkpt lat="43.34780036319926" lon="5.5347536595047995"><ele>584.0</ele><time>2026-05-02T05:55:10.999Z</time></trkpt><trkpt lat="43.34782578552704" lon="5.534845263818607"><ele>585.7142857142857</ele><time>2026-05-02T05:55:12.999Z</time></trkpt><trkpt lat="43.34783033930991" lon="5.534949508971599"><ele>587.4285714285714</ele><time>2026-05-02T05:55:14.999Z</time></trkpt><trkpt lat="43.347825479294244" lon="5.535049080180854"><ele>589.1428571428571</ele><time>2026-05-02T05:55:16.999Z</time></trkpt><trkpt lat="43.34782823866336" lon="5.535144442591683"><ele>590.8571428571429</ele><time>2026-05-02T05:55:18.999Z</time></trkpt><trkpt lat="43.34784000346722" lon="5.5352301652261735"><ele>592.5714285714286</ele><time>2026-05-02T05:55:20.999Z</time></trkpt><trkpt lat="43.34785355158223" lon="5.535328656083379"><ele>594.2857142857142</ele><time>2026-05-02T05:55:22.999Z</time></trkpt><trkpt lat="43.34787173007544" lon="5.53541513971056"><ele>596.0</ele><time>2026-05-02T05:55:24.999Z</time></trkpt><trkpt lat="43.347900644838184" lon="5.535536513257781"><ele>597.6666666666666</ele><time>2026-05-02T05:55:27.999Z</time></trkpt><trkpt lat="43.34793790387897" lon="5.535654452145836"><ele>599.3333333333333</ele><time>2026-05-02T05:55:30.999Z</time></trkpt><trkpt lat="43.347979228421174" lon="5.535731840435077"><ele>601.0</ele><time>2026-05-02T05:55:32.999Z</time></trkpt><trkpt lat="43.34801629777118" lon="5.535820319926635"><ele>602.6666666666666</ele><time>2026-05-02T05:55:34.999Z</time></trkpt><trkpt lat="43.34803086877498" lon="5.535914419297451"><ele>604.3333333333334</ele><time>2026-05-02T05:55:36.999Z</time></trkpt><trkpt lat="43.34803041507498" lon="5.536028388058757"><ele>606.0</ele><time>2026-05-02T05:55:38.999Z</time></trkpt><trkpt lat="43.348012341806985" lon="5.536124759433273"><ele>605.8333333333334</ele><time>2026-05-02T05:55:40.999Z</time></trkpt><trkpt lat="43.348020471877824" lon="5.536221337547921"><ele>605.6666666666666</ele><time>2026-05-02T05:55:42.999Z</time></trkpt><trkpt lat="43.348030722052506" lon="5.536317361987268"><ele>605.5</ele><time>2026-05-02T05:55:44.999Z</time></trkpt><trkpt lat="43.348039298241204" lon="5.536414262200335"><ele>605.3333333333333</ele><time>2026-05-02T05:55:47Z</time></trkpt><trkpt lat="43.34801822600039" lon="5.53652076885476"><ele>605.1666666666666</ele><time>2026-05-02T05:55:49Z</time></trkpt><trkpt lat="43.34799751134786" lon="5.536642642684037"><ele>605.0</ele><time>2026-05-02T05:55:51Z</time></trkpt><trkpt lat="43.34800280872186" lon="5.536767554592684"><ele>605.0</ele><time>2026-05-02T05:55:53Z</time></trkpt><trkpt lat="43.34802418846368" lon="5.53688635729347"><ele>605.0</ele><time>2026-05-02T05:55:55Z</time></trkpt><trkpt lat="43.34806563510703" lon="5.536990394463101"><ele>605.0</ele><time>2026-05-02T05:55:57Z</time></trkpt><trkpt lat="43.34807677221312" lon="5.53709444937454"><ele>605.0</ele><time>2026-05-02T05:55:58.999Z</time></trkpt><trkpt lat="43.34804730422729" lon="5.537208703905687"><ele>605.0</ele><time>2026-05-02T05:56:00.999Z</time></trkpt><trkpt lat="43.34800787978888" lon="5.537316301893299"><ele>605.0</ele><time>2026-05-02T05:56:02.999Z</time></trkpt><trkpt lat="43.347958369400885" lon="5.537451494655127"><ele>605.1666666666666</ele><time>2026-05-02T05:56:05.999Z</time></trkpt><trkpt lat="43.34792510125456" lon="5.537554149789141"><ele>605.3333333333333</ele><time>2026-05-02T05:56:07.999Z</time></trkpt><trkpt lat="43.347917880175224" lon="5.537662953181301"><ele>605.5</ele><time>2026-05-02T05:56:09.999Z</time></trkpt><trkpt lat="43.34790171976906" lon="5.537751353237918"><ele>605.6666666666666</ele><time>2026-05-02T05:56:11.999Z</time></trkpt><trkpt lat="43.34790032864385" lon="5.537856083968759"><ele>605.8333333333334</ele><time>2026-05-02T05:56:13.999Z</time></trkpt><trkpt lat="43.34792106726896" lon="5.537959951809899"><ele>606.0</ele><time>2026-05-02T05:56:15.999Z</time></trkpt><trkpt lat="43.347948757949574" lon="5.538071733465226"><ele>606.0</ele><time>2026-05-02T05:56:17.999Z</time></trkpt><trkpt lat="43.34795596760677" lon="5.538188717005695"><ele>606.0</ele><time>2026-05-02T05:56:19.999Z</time></trkpt><trkpt lat="43.34795029588043" lon="5.538297910390873"><ele>606.0</ele><time>2026-05-02T05:56:21.999Z</time></trkpt><trkpt lat="43.34795994579654" lon="5.538403103325159"><ele>606.0</ele><time>2026-05-02T05:56:23.999Z</time></trkpt><trkpt lat="43.347960599954725" lon="5.5385091054754705"><ele>606.0</ele><time>2026-05-02T05:56:25.999Z</time></trkpt><trkpt lat="43.34796507485542" lon="5.538620637055946"><ele>606.0</ele><time>2026-05-02T05:56:27.999Z</time></trkpt><trkpt lat="43.3479844972693" lon="5.5387237533054074"><ele>607.1428571428571</ele><time>2026-05-02T05:56:29.999Z</time></trkpt><trkpt lat="43.34797525049503" lon="5.538818090966337"><ele>608.2857142857142</ele><time>2026-05-02T05:56:31.999Z</time></trkpt><trkpt lat="43.34796221038448" lon="5.53890606156112"><ele>609.4285714285713</ele><time>2026-05-02T05:56:33.999Z</time></trkpt><trkpt lat="43.34792170550637" lon="5.538990638984303"><ele>610.5714285714286</ele><time>2026-05-02T05:56:35.999Z</time></trkpt><trkpt lat="43.347875606742036" lon="5.5390680451643055"><ele>611.7142857142857</ele><time>2026-05-02T05:56:37.999Z</time></trkpt><trkpt lat="43.34789475827151" lon="5.539185116211883"><ele>612.8571428571428</ele><time>2026-05-02T05:56:41.001Z</time></trkpt><trkpt lat="43.34793724966862" lon="5.5392512871658655"><ele>614.0</ele><time>2026-05-02T05:56:43.001Z</time></trkpt><trkpt lat="43.3479880967799" lon="5.539306037822917"><ele>613.9999999999999</ele><time>2026-05-02T05:56:45.001Z</time></trkpt><trkpt lat="43.34799068913012" lon="5.539400349254876"><ele>614.0</ele><time>2026-05-02T05:57:07Z</time></trkpt><trkpt lat="43.34795576108444" lon="5.539326503947751"><ele>614.0</ele><time>2026-05-02T05:57:12Z</time></trkpt><trkpt lat="43.347929923167534" lon="5.5392409864418655"><ele>614.0</ele><time>2026-05-02T05:57:14Z</time></trkpt><trkpt lat="43.34790111470943" lon="5.539161639937787"><ele>614.0</ele><time>2026-05-02T05:57:16Z</time></trkpt><trkpt lat="43.347863414413794" lon="5.539068682458914"><ele>613.9999999999999</ele><time>2026-05-02T05:57:19Z</time></trkpt><trkpt lat="43.34780270629245" lon="5.538988545132157"><ele>614.0</ele><time>2026-05-02T05:57:21Z</time></trkpt><trkpt lat="43.347750738002" lon="5.538919562871197"><ele>613.9999999999999</ele><time>2026-05-02T05:57:24Z</time></trkpt><trkpt lat="43.34769827486008" lon="5.538866622886747"><ele>614.0</ele><time>2026-05-02T05:57:28Z</time></trkpt><trkpt lat="43.34775364644003" lon="5.5389149438208225"><ele>614.0</ele><time>2026-05-02T05:58:04.999Z</time></trkpt><trkpt lat="43.34780498323392" lon="5.538965991703362"><ele>614.0</ele><time>2026-05-02T05:58:06.999Z</time></trkpt><trkpt lat="43.347850520523814" lon="5.539043476365332"><ele>614.0</ele><time>2026-05-02T05:58:09.999Z</time></trkpt><trkpt lat="43.34792714225676" lon="5.53897197182628"><ele>613.9999999999999</ele><time>2026-05-02T05:58:13.999Z</time></trkpt><trkpt lat="43.347970473894215" lon="5.53889134085321"><ele>614.0</ele><time>2026-05-02T05:58:15.999Z</time></trkpt><trkpt lat="43.347987778878576" lon="5.538800769513574"><ele>612.4</ele><time>2026-05-02T05:58:17.999Z</time></trkpt><trkpt lat="43.34799152674389" lon="5.538693203675563"><ele>610.8</ele><time>2026-05-02T05:58:19.999Z</time></trkpt><trkpt lat="43.34797239839664" lon="5.538562617554646"><ele>609.2</ele><time>2026-05-02T05:58:22.999Z</time></trkpt><trkpt lat="43.347970065283974" lon="5.538447180682922"><ele>607.6</ele><time>2026-05-02T05:58:24.999Z</time></trkpt><trkpt lat="43.34796290379825" lon="5.538313445840591"><ele>606.0</ele><time>2026-05-02T05:58:26.999Z</time></trkpt><trkpt lat="43.34795256174709" lon="5.5381775843474275"><ele>606.0</ele><time>2026-05-02T05:58:28.999Z</time></trkpt><trkpt lat="43.34795998157015" lon="5.538038303753717"><ele>606.0</ele><time>2026-05-02T05:58:30.999Z</time></trkpt><trkpt lat="43.34792643998823" lon="5.5379147547475025"><ele>606.0</ele><time>2026-05-02T05:58:32.999Z</time></trkpt><trkpt lat="43.34791175622464" lon="5.537783605242634"><ele>606.0</ele><time>2026-05-02T05:58:34.999Z</time></trkpt><trkpt lat="43.347923997523" lon="5.537683293292957"><ele>606.0</ele><time>2026-05-02T05:58:36.999Z</time></trkpt><trkpt lat="43.347940497936946" lon="5.537574148210248"><ele>606.0</ele><time>2026-05-02T05:58:38.999Z</time></trkpt><trkpt lat="43.34795985531065" lon="5.537464003738746"><ele>605.8571428571429</ele><time>2026-05-02T05:58:40.999Z</time></trkpt><trkpt lat="43.34799397990136" lon="5.537357942704528"><ele>605.7142857142857</ele><time>2026-05-02T05:58:42.999Z</time></trkpt><trkpt lat="43.34802056177072" lon="5.537273135408886"><ele>605.5714285714286</ele><time>2026-05-02T05:58:44.999Z</time></trkpt><trkpt lat="43.34805233534603" lon="5.537163666848543"><ele>605.4285714285714</ele><time>2026-05-02T05:58:48.001Z</time></trkpt><trkpt lat="43.348074070197136" lon="5.537069418677897"><ele>605.2857142857143</ele><time>2026-05-02T05:58:50Z</time></trkpt><trkpt lat="43.34809034889148" lon="5.53697513798571"><ele>605.1428571428571</ele><time>2026-05-02T05:58:52Z</time></trkpt><trkpt lat="43.34806415366751" lon="5.53689238940362"><ele>605.0</ele><time>2026-05-02T05:58:54Z</time></trkpt><trkpt lat="43.348034221039924" lon="5.536805662563559"><ele>605.0</ele><time>2026-05-02T05:58:56Z</time></trkpt><trkpt lat="43.34802612396873" lon="5.536706505206412"><ele>605.0</ele><time>2026-05-02T05:58:58Z</time></trkpt><trkpt lat="43.34802719771279" lon="5.536597863784979"><ele>605.0</ele><time>2026-05-02T05:59:00Z</time></trkpt><trkpt lat="43.34803135458322" lon="5.536475588553583"><ele>605.0</ele><time>2026-05-02T05:59:02Z</time></trkpt><trkpt lat="43.348062999397335" lon="5.536367773923768"><ele>605.0</ele><time>2026-05-02T05:59:04Z</time></trkpt><trkpt lat="43.348065725152296" lon="5.5362483429368305"><ele>605.0</ele><time>2026-05-02T05:59:06Z</time></trkpt><trkpt lat="43.34804814267196" lon="5.536137852487158"><ele>605.1666666666666</ele><time>2026-05-02T05:59:08Z</time></trkpt><trkpt lat="43.348041816859705" lon="5.536036926076806"><ele>605.3333333333333</ele><time>2026-05-02T05:59:10Z</time></trkpt><trkpt lat="43.348051252826245" lon="5.535937935715669"><ele>605.5</ele><time>2026-05-02T05:59:12Z</time></trkpt><trkpt lat="43.34804031009468" lon="5.535826325733902"><ele>605.6666666666666</ele><time>2026-05-02T05:59:14Z</time></trkpt><trkpt lat="43.34800438978795" lon="5.535712236750446"><ele>605.8333333333334</ele><time>2026-05-02T05:59:16Z</time></trkpt><trkpt lat="43.347951763968005" lon="5.535620926329218"><ele>606.0</ele><time>2026-05-02T05:59:18Z</time></trkpt><trkpt lat="43.347917863383294" lon="5.535520631593098"><ele>606.0</ele><time>2026-05-02T05:59:20Z</time></trkpt><trkpt lat="43.347887112185525" lon="5.535421250746254"><ele>606.0</ele><time>2026-05-02T05:59:22Z</time></trkpt><trkpt lat="43.3478651736073" lon="5.535284658444344"><ele>606.0</ele><time>2026-05-02T05:59:24Z</time></trkpt><trkpt lat="43.347842504268215" lon="5.535125835274928"><ele>606.0</ele><time>2026-05-02T05:59:26Z</time></trkpt><trkpt lat="43.347829233321974" lon="5.534986537032294"><ele>606.0</ele><time>2026-05-02T05:59:28Z</time></trkpt><trkpt lat="43.347843997959025" lon="5.534849255352502"><ele>604.0</ele><time>2026-05-02T05:59:30Z</time></trkpt><trkpt lat="43.34782460391846" lon="5.534708880965823"><ele>602.0</ele><time>2026-05-02T05:59:32Z</time></trkpt><trkpt lat="43.34779989292431" lon="5.534564821634581"><ele>600.0</ele><time>2026-05-02T05:59:34Z</time></trkpt><trkpt lat="43.347826367355566" lon="5.53443382178655"><ele>598.0</ele><time>2026-05-02T05:59:36Z</time></trkpt><trkpt lat="43.347791977414914" lon="5.534305372505193"><ele>596.0</ele><time>2026-05-02T05:59:38Z</time></trkpt><trkpt lat="43.347752176610996" lon="5.534237268306747"><ele>593.8</ele><time>2026-05-02T05:59:39Z</time></trkpt><trkpt lat="43.34767560696002" lon="5.534161636195885"><ele>591.6</ele><time>2026-05-02T05:59:41Z</time></trkpt><trkpt lat="43.34761354158254" lon="5.534028206909145"><ele>589.4</ele><time>2026-05-02T05:59:43Z</time></trkpt><trkpt lat="43.347561354948404" lon="5.5338869448919565"><ele>587.2</ele><time>2026-05-02T05:59:45Z</time></trkpt><trkpt lat="43.347486452778845" lon="5.533783670622919"><ele>585.0</ele><time>2026-05-02T05:59:47Z</time></trkpt><trkpt lat="43.347439641346206" lon="5.53370468059081"><ele>585.0</ele><time>2026-05-02T05:59:49Z</time></trkpt><trkpt lat="43.347467251929224" lon="5.53361385853741"><ele>585.0</ele><time>2026-05-02T05:59:51Z</time></trkpt><trkpt lat="43.34749741998587" lon="5.533485950677277"><ele>585.0</ele><time>2026-05-02T05:59:55Z</time></trkpt><trkpt lat="43.34755977032358" lon="5.533382895524641"><ele>585.0</ele><time>2026-05-02T05:59:57Z</time></trkpt><trkpt lat="43.347641421839974" lon="5.533317162328404"><ele>585.0</ele><time>2026-05-02T05:59:59Z</time></trkpt><trkpt lat="43.34771575409086" lon="5.533254648906031"><ele>585.0</ele><time>2026-05-02T06:00:01Z</time></trkpt><trkpt lat="43.34777795430977" lon="5.533171422766702"><ele>585.0</ele><time>2026-05-02T06:00:03Z</time></trkpt><trkpt lat="43.34785091861753" lon="5.533100476091356"><ele>585.0</ele><time>2026-05-02T06:00:04.999Z</time></trkpt><trkpt lat="43.34791829141509" lon="5.533045683711697"><ele>585.0</ele><time>2026-05-02T06:00:06.999Z</time></trkpt><trkpt lat="43.34797784090519" lon="5.532958774549508"><ele>585.0</ele><time>2026-05-02T06:00:08.999Z</time></trkpt><trkpt lat="43.34802556858019" lon="5.532857950837678"><ele>585.0</ele><time>2026-05-02T06:00:10.999Z</time></trkpt><trkpt lat="43.348084750380586" lon="5.532805641873204"><ele>585.0</ele><time>2026-05-02T06:00:12.999Z</time></trkpt><trkpt lat="43.34815161157374" lon="5.5327553304739645"><ele>585.0</ele><time>2026-05-02T06:00:14.999Z</time></trkpt><trkpt lat="43.3482117113877" lon="5.532691327391473"><ele>585.0</ele><time>2026-05-02T06:00:16.999Z</time></trkpt><trkpt lat="43.34825103479916" lon="5.5326195361316275"><ele>585.0</ele><time>2026-05-02T06:00:18.999Z</time></trkpt><trkpt lat="43.34824088084202" lon="5.532493556384649"><ele>585.0</ele><time>2026-05-02T06:00:21.999Z</time></trkpt><trkpt lat="43.34826669536045" lon="5.5324125677681755"><ele>585.0</ele><time>2026-05-02T06:00:23.999Z</time></trkpt><trkpt lat="43.34830865190447" lon="5.53233296733943"><ele>585.0</ele><time>2026-05-02T06:00:25.999Z</time></trkpt><trkpt lat="43.34835565460688" lon="5.532266176476935"><ele>585.0</ele><time>2026-05-02T06:00:28.999Z</time></trkpt><trkpt lat="43.348399327529016" lon="5.532199565609566"><ele>585.0</ele><time>2026-05-02T06:00:43.999Z</time></trkpt><trkpt lat="43.34842813857813" lon="5.532074389606474"><ele>585.0</ele><time>2026-05-02T06:00:47.999Z</time></trkpt><trkpt lat="43.34842685521782" lon="5.531984505935418"><ele>585.0</ele><time>2026-05-02T06:00:49.999Z</time></trkpt><trkpt lat="43.34844972390304" lon="5.531888803368934"><ele>585.0</ele><time>2026-05-02T06:00:51.999Z</time></trkpt><trkpt lat="43.348411957625395" lon="5.5318048031264375"><ele>585.0</ele><time>2026-05-02T06:00:56Z</time></trkpt><trkpt lat="43.348329551918255" lon="5.531805698955861"><ele>585.0</ele><time>2026-05-02T06:00:59Z</time></trkpt><trkpt lat="43.34825902038869" lon="5.5318012626499256"><ele>585.5</ele><time>2026-05-02T06:01:02Z</time></trkpt><trkpt lat="43.34818410760016" lon="5.5317917724057235"><ele>586.0</ele><time>2026-05-02T06:01:05Z</time></trkpt><trkpt lat="43.34811313396141" lon="5.531778074725641"><ele>586.5</ele><time>2026-05-02T06:01:08Z</time></trkpt><trkpt lat="43.34804290407996" lon="5.5318504310321535"><ele>587.0</ele><time>2026-05-02T06:01:11Z</time></trkpt><trkpt lat="43.34799762325649" lon="5.531929927112273"><ele>587.5</ele><time>2026-05-02T06:01:13Z</time></trkpt><trkpt lat="43.34794816560854" lon="5.532000127422282"><ele>588.0</ele><time>2026-05-02T06:01:15Z</time></trkpt><trkpt lat="43.347900080138714" lon="5.53207110520566"><ele>589.8333333333334</ele><time>2026-05-02T06:01:17Z</time></trkpt><trkpt lat="43.3478470376999" lon="5.5321404150061015"><ele>591.6666666666666</ele><time>2026-05-02T06:01:19Z</time></trkpt><trkpt lat="43.34778814456984" lon="5.532208622381021"><ele>593.5</ele><time>2026-05-02T06:01:21Z</time></trkpt><trkpt lat="43.34770212388485" lon="5.532233146342983"><ele>595.3333333333333</ele><time>2026-05-02T06:01:23Z</time></trkpt><trkpt lat="43.347646712919506" lon="5.532288507356549"><ele>597.1666666666666</ele><time>2026-05-02T06:01:25Z</time></trkpt><trkpt lat="43.347592270473164" lon="5.532359272233507"><ele>599.0</ele><time>2026-05-02T06:01:27Z</time></trkpt><trkpt lat="43.34752307637426" lon="5.5324195256842055"><ele>599.0</ele><time>2026-05-02T06:01:29Z</time></trkpt><trkpt lat="43.34745416812541" lon="5.5324634145776805"><ele>599.0</ele><time>2026-05-02T06:01:31Z</time></trkpt><trkpt lat="43.34738600776291" lon="5.532491698949488"><ele>599.0</ele><time>2026-05-02T06:01:33Z</time></trkpt><trkpt lat="43.34731929756094" lon="5.532537853786155"><ele>599.0</ele><time>2026-05-02T06:01:35Z</time></trkpt><trkpt lat="43.347252280425195" lon="5.532569629819499"><ele>599.0</ele><time>2026-05-02T06:01:37Z</time></trkpt><trkpt lat="43.347189465612786" lon="5.532603590872701"><ele>599.0</ele><time>2026-05-02T06:01:39Z</time></trkpt><trkpt lat="43.347101083983766" lon="5.532657721594754"><ele>603.0</ele><time>2026-05-02T06:01:42Z</time></trkpt><trkpt lat="43.347042011140495" lon="5.532698531608625"><ele>607.0</ele><time>2026-05-02T06:01:44Z</time></trkpt><trkpt lat="43.34697776974344" lon="5.532731022946006"><ele>611.0</ele><time>2026-05-02T06:01:46Z</time></trkpt><trkpt lat="43.346918184393544" lon="5.5327631961548605"><ele>615.0</ele><time>2026-05-02T06:01:48Z</time></trkpt><trkpt lat="43.346829282166574" lon="5.532776458301431"><ele>619.0</ele><time>2026-05-02T06:01:51Z</time></trkpt><trkpt lat="43.34674333396195" lon="5.532805589350873"><ele>623.0</ele><time>2026-05-02T06:01:54Z</time></trkpt><trkpt lat="43.346655960469505" lon="5.5328324133015485"><ele>623.0</ele><time>2026-05-02T06:01:57Z</time></trkpt><trkpt lat="43.346566231245255" lon="5.532850088167028"><ele>623.0</ele><time>2026-05-02T06:02:00Z</time></trkpt><trkpt lat="43.346475343780895" lon="5.532863161505572"><ele>623.0</ele><time>2026-05-02T06:02:03Z</time></trkpt><trkpt lat="43.346412142557774" lon="5.532877491477117"><ele>623.0</ele><time>2026-05-02T06:02:05Z</time></trkpt><trkpt lat="43.34634272434623" lon="5.532931956719042"><ele>623.0</ele><time>2026-05-02T06:02:06.999Z</time></trkpt><trkpt lat="43.34631744417369" lon="5.533045379665578"><ele>623.0</ele><time>2026-05-02T06:02:08.999Z</time></trkpt><trkpt lat="43.346354744848846" lon="5.533144021772791"><ele>624.1428571428571</ele><time>2026-05-02T06:02:10.999Z</time></trkpt><trkpt lat="43.34636684050028" lon="5.533229922149261"><ele>625.2857142857142</ele><time>2026-05-02T06:02:12.999Z</time></trkpt><trkpt lat="43.3463856764161" lon="5.533318556935869"><ele>626.4285714285714</ele><time>2026-05-02T06:02:14.999Z</time></trkpt><trkpt lat="43.34639400168315" lon="5.533412095328029"><ele>627.5714285714286</ele><time>2026-05-02T06:02:16.999Z</time></trkpt><trkpt lat="43.34634794535475" lon="5.533487195618153"><ele>628.7142857142857</ele><time>2026-05-02T06:02:18.999Z</time></trkpt><trkpt lat="43.346277581011805" lon="5.533564457391535"><ele>629.8571428571429</ele><time>2026-05-02T06:02:21.999Z</time></trkpt><trkpt lat="43.34620760902305" lon="5.533630605302163"><ele>631.0</ele><time>2026-05-02T06:02:24.999Z</time></trkpt><trkpt lat="43.34613662138229" lon="5.533711619207158"><ele>629.8571428571429</ele><time>2026-05-02T06:02:27.999Z</time></trkpt><trkpt lat="43.34608937322246" lon="5.5337965590148475"><ele>628.7142857142857</ele><time>2026-05-02T06:02:29.999Z</time></trkpt><trkpt lat="43.346064743186304" lon="5.533889330612351"><ele>627.5714285714286</ele><time>2026-05-02T06:02:31.999Z</time></trkpt><trkpt lat="43.346043459685546" lon="5.533973565872949"><ele>626.4285714285714</ele><time>2026-05-02T06:02:33.999Z</time></trkpt><trkpt lat="43.34604971438493" lon="5.5340686234210805"><ele>625.2857142857142</ele><time>2026-05-02T06:02:35.999Z</time></trkpt><trkpt lat="43.34604979976391" lon="5.534161236807754"><ele>624.1428571428571</ele><time>2026-05-02T06:02:37.999Z</time></trkpt><trkpt lat="43.346076975251904" lon="5.534285103009195"><ele>623.0</ele><time>2026-05-02T06:02:40.999Z</time></trkpt><trkpt lat="43.34610066874537" lon="5.5343836554972565"><ele>623.0</ele><time>2026-05-02T06:02:43.999Z</time></trkpt><trkpt lat="43.346125458504545" lon="5.534470653393292"><ele>623.0</ele><time>2026-05-02T06:02:45.999Z</time></trkpt><trkpt lat="43.34614174145821" lon="5.534565291607195"><ele>623.0</ele><time>2026-05-02T06:02:47.999Z</time></trkpt><trkpt lat="43.34615876710165" lon="5.5346582373202935"><ele>623.0</ele><time>2026-05-02T06:02:49.999Z</time></trkpt><trkpt lat="43.34617581190169" lon="5.534750609375249"><ele>623.0</ele><time>2026-05-02T06:02:51.999Z</time></trkpt><trkpt lat="43.346191494030506" lon="5.534843152326771"><ele>623.0</ele><time>2026-05-02T06:02:53.999Z</time></trkpt><trkpt lat="43.346183449893566" lon="5.534944084336292"><ele>623.0</ele><time>2026-05-02T06:02:55.999Z</time></trkpt><trkpt lat="43.34618069361837" lon="5.535039187279359"><ele>622.8571428571429</ele><time>2026-05-02T06:02:57.999Z</time></trkpt><trkpt lat="43.34617686195394" lon="5.535138315500166"><ele>622.7142857142858</ele><time>2026-05-02T06:03:00Z</time></trkpt><trkpt lat="43.34617278268484" lon="5.535239908715695"><ele>622.5714285714286</ele><time>2026-05-02T06:03:02Z</time></trkpt><trkpt lat="43.346168934187" lon="5.535335754681704"><ele>622.4285714285714</ele><time>2026-05-02T06:03:04Z</time></trkpt><trkpt lat="43.34616496923883" lon="5.535425438909419"><ele>622.2857142857143</ele><time>2026-05-02T06:03:06Z</time></trkpt><trkpt lat="43.34617688112539" lon="5.53552169596985"><ele>622.1428571428571</ele><time>2026-05-02T06:03:08Z</time></trkpt><trkpt lat="43.34616814755721" lon="5.535616087358854"><ele>622.0</ele><time>2026-05-02T06:03:10Z</time></trkpt><trkpt lat="43.346161200399656" lon="5.535704991381342"><ele>622.0</ele><time>2026-05-02T06:03:12Z</time></trkpt><trkpt lat="43.34614642963299" lon="5.535803635042857"><ele>622.0</ele><time>2026-05-02T06:03:14Z</time></trkpt><trkpt lat="43.34615279641197" lon="5.535909223787293"><ele>622.0</ele><time>2026-05-02T06:03:16Z</time></trkpt><trkpt lat="43.34615251888108" lon="5.536003589775195"><ele>622.0</ele><time>2026-05-02T06:03:18Z</time></trkpt><trkpt lat="43.34614373620271" lon="5.5361032350693415"><ele>622.0</ele><time>2026-05-02T06:03:20Z</time></trkpt><trkpt lat="43.346129288632895" lon="5.5361914387974"><ele>622.0</ele><time>2026-05-02T06:03:22Z</time></trkpt><trkpt lat="43.34613774701713" lon="5.536284726772004"><ele>622.0</ele><time>2026-05-02T06:03:24Z</time></trkpt><trkpt lat="43.34613305466406" lon="5.536380320033386"><ele>622.1428571428571</ele><time>2026-05-02T06:03:26Z</time></trkpt><trkpt lat="43.346120264549754" lon="5.5364759553276786"><ele>622.2857142857143</ele><time>2026-05-02T06:03:28Z</time></trkpt><trkpt lat="43.34613824677958" lon="5.53656544809521"><ele>622.4285714285714</ele><time>2026-05-02T06:03:30Z</time></trkpt><trkpt lat="43.34612626292475" lon="5.53665523804462"><ele>622.5714285714286</ele><time>2026-05-02T06:03:32Z</time></trkpt><trkpt lat="43.346149888221326" lon="5.536756505930812"><ele>622.7142857142858</ele><time>2026-05-02T06:03:34Z</time></trkpt><trkpt lat="43.34615947876584" lon="5.536860149279974"><ele>622.8571428571429</ele><time>2026-05-02T06:03:36Z</time></trkpt><trkpt lat="43.34616828337861" lon="5.536960815754069"><ele>623.0</ele><time>2026-05-02T06:03:38Z</time></trkpt><trkpt lat="43.34617759216883" lon="5.53706096695183"><ele>623.1666666666666</ele><time>2026-05-02T06:03:40Z</time></trkpt><trkpt lat="43.34619141299419" lon="5.537168634117647"><ele>623.3333333333333</ele><time>2026-05-02T06:03:42Z</time></trkpt><trkpt lat="43.34620305455424" lon="5.53727710941515"><ele>623.5</ele><time>2026-05-02T06:03:44Z</time></trkpt><trkpt lat="43.34622129676812" lon="5.537378367374631"><ele>623.6666666666666</ele><time>2026-05-02T06:03:46Z</time></trkpt><trkpt lat="43.346235106892195" lon="5.537481367041656"><ele>623.8333333333334</ele><time>2026-05-02T06:03:48Z</time></trkpt><trkpt lat="43.34625714275717" lon="5.5375880570373415"><ele>624.0</ele><time>2026-05-02T06:03:50Z</time></trkpt><trkpt lat="43.34627240233614" lon="5.537687386990747"><ele>624.0</ele><time>2026-05-02T06:03:52Z</time></trkpt><trkpt lat="43.346291865138525" lon="5.537800559228729"><ele>624.0</ele><time>2026-05-02T06:03:54Z</time></trkpt><trkpt lat="43.34631147271385" lon="5.537903301461543"><ele>624.0</ele><time>2026-05-02T06:03:56Z</time></trkpt><trkpt lat="43.34631686404361" lon="5.538016172982206"><ele>624.0</ele><time>2026-05-02T06:03:58Z</time></trkpt><trkpt lat="43.346313754767664" lon="5.538129716838353"><ele>624.0</ele><time>2026-05-02T06:04:00Z</time></trkpt><trkpt lat="43.346287460496235" lon="5.538232683653932"><ele>624.0</ele><time>2026-05-02T06:04:02Z</time></trkpt><trkpt lat="43.34627359440814" lon="5.538345167949149"><ele>625.0</ele><time>2026-05-02T06:04:04Z</time></trkpt><trkpt lat="43.3462555062233" lon="5.53845148827002"><ele>626.0</ele><time>2026-05-02T06:04:06Z</time></trkpt><trkpt lat="43.346234949671086" lon="5.538554291575596"><ele>627.0</ele><time>2026-05-02T06:04:08Z</time></trkpt><trkpt lat="43.34616364124762" lon="5.538627981666036"><ele>628.0</ele><time>2026-05-02T06:04:09.999Z</time></trkpt><trkpt lat="43.34609837026094" lon="5.538692353070527"><ele>629.0</ele><time>2026-05-02T06:04:11.999Z</time></trkpt><trkpt lat="43.34603525055854" lon="5.538755073813344"><ele>630.0</ele><time>2026-05-02T06:04:13.999Z</time></trkpt><trkpt lat="43.345964563643804" lon="5.538821519163896"><ele>630.1666666666666</ele><time>2026-05-02T06:04:15.999Z</time></trkpt><trkpt lat="43.34590332150519" lon="5.538868825580421"><ele>630.3333333333334</ele><time>2026-05-02T06:04:17.999Z</time></trkpt><trkpt lat="43.34583891732318" lon="5.538914205356904"><ele>630.5</ele><time>2026-05-02T06:04:19.999Z</time></trkpt><trkpt lat="43.3457610157795" lon="5.5389468285001655"><ele>630.6666666666667</ele><time>2026-05-02T06:04:21.999Z</time></trkpt><trkpt lat="43.345678066776635" lon="5.5389705130075315"><ele>630.8333333333334</ele><time>2026-05-02T06:04:23.999Z</time></trkpt><trkpt lat="43.34560047902228" lon="5.538991353681197"><ele>631.0</ele><time>2026-05-02T06:04:25.999Z</time></trkpt><trkpt lat="43.345525135345824" lon="5.539039414545807"><ele>631.0</ele><time>2026-05-02T06:04:27.999Z</time></trkpt><trkpt lat="43.345485987138964" lon="5.539144863460772"><ele>631.0</ele><time>2026-05-02T06:04:29.999Z</time></trkpt><trkpt lat="43.34553857914738" lon="5.539278708989204"><ele>631.0</ele><time>2026-05-02T06:04:31.999Z</time></trkpt><trkpt lat="43.345570626869126" lon="5.539386080903847"><ele>631.0</ele><time>2026-05-02T06:04:33.999Z</time></trkpt><trkpt lat="43.34560787852202" lon="5.539474392037553"><ele>631.0</ele><time>2026-05-02T06:04:35.999Z</time></trkpt><trkpt lat="43.345645062578484" lon="5.539570417946019"><ele>631.0</ele><time>2026-05-02T06:04:37.999Z</time></trkpt><trkpt lat="43.34567834169561" lon="5.539672411880478"><ele>633.8333333333334</ele><time>2026-05-02T06:04:39.999Z</time></trkpt><trkpt lat="43.345711953386065" lon="5.539782913393177"><ele>636.6666666666667</ele><time>2026-05-02T06:04:41.999Z</time></trkpt><trkpt lat="43.34575581052913" lon="5.539880949471005"><ele>639.5</ele><time>2026-05-02T06:04:43.999Z</time></trkpt><trkpt lat="43.345768199020114" lon="5.539993327548132"><ele>642.3333333333334</ele><time>2026-05-02T06:04:45.999Z</time></trkpt><trkpt lat="43.34578864064873" lon="5.540096741325354"><ele>645.1666666666666</ele><time>2026-05-02T06:04:47.999Z</time></trkpt><trkpt lat="43.34580993214735" lon="5.54020884261595"><ele>648.0</ele><time>2026-05-02T06:04:49.999Z</time></trkpt><trkpt lat="43.34583284434035" lon="5.540307808471621"><ele>647.1666666666666</ele><time>2026-05-02T06:04:51.999Z</time></trkpt><trkpt lat="43.34585901425067" lon="5.540408518853991"><ele>646.3333333333334</ele><time>2026-05-02T06:04:53.999Z</time></trkpt><trkpt lat="43.34590894452043" lon="5.540481880781861"><ele>645.5</ele><time>2026-05-02T06:04:55.999Z</time></trkpt><trkpt lat="43.34595191281531" lon="5.5405824173512785"><ele>644.6666666666667</ele><time>2026-05-02T06:04:57.999Z</time></trkpt><trkpt lat="43.34600970544244" lon="5.540654937712063"><ele>643.8333333333334</ele><time>2026-05-02T06:04:59.999Z</time></trkpt><trkpt lat="43.3460759934084" lon="5.540727882626465"><ele>643.0</ele><time>2026-05-02T06:05:01.999Z</time></trkpt><trkpt lat="43.346138983998785" lon="5.540817186114441"><ele>643.0</ele><time>2026-05-02T06:05:03.999Z</time></trkpt><trkpt lat="43.346207629242095" lon="5.540905520698175"><ele>643.0</ele><time>2026-05-02T06:05:06Z</time></trkpt><trkpt lat="43.34626074405118" lon="5.541012213590278"><ele>643.0</ele><time>2026-05-02T06:05:08Z</time></trkpt><trkpt lat="43.34631730903523" lon="5.541109036747631"><ele>643.0</ele><time>2026-05-02T06:05:10Z</time></trkpt><trkpt lat="43.34638258593987" lon="5.541213632774415"><ele>643.0</ele><time>2026-05-02T06:05:12Z</time></trkpt><trkpt lat="43.3464159566318" lon="5.541320581363215"><ele>644.8333333333334</ele><time>2026-05-02T06:05:14Z</time></trkpt><trkpt lat="43.346460074878934" lon="5.541434331828509"><ele>646.6666666666667</ele><time>2026-05-02T06:05:16Z</time></trkpt><trkpt lat="43.34650803026114" lon="5.5415261473222905"><ele>648.5</ele><time>2026-05-02T06:05:18Z</time></trkpt><trkpt lat="43.34654910938779" lon="5.541626841730449"><ele>650.3333333333334</ele><time>2026-05-02T06:05:20Z</time></trkpt><trkpt lat="43.34658852951053" lon="5.541723964676955"><ele>652.1666666666666</ele><time>2026-05-02T06:05:22Z</time></trkpt><trkpt lat="43.34662722794813" lon="5.541818585789927"><ele>654.0</ele><time>2026-05-02T06:05:24Z</time></trkpt><trkpt lat="43.346668337732055" lon="5.541906436909734"><ele>654.0</ele><time>2026-05-02T06:05:26Z</time></trkpt><trkpt lat="43.34670873084616" lon="5.542007831585652"><ele>654.0</ele><time>2026-05-02T06:05:28Z</time></trkpt><trkpt lat="43.3467438572994" lon="5.542107615370152"><ele>654.0</ele><time>2026-05-02T06:05:30Z</time></trkpt><trkpt lat="43.346766474262445" lon="5.542217850365679"><ele>654.0</ele><time>2026-05-02T06:05:32Z</time></trkpt><trkpt lat="43.34679802576089" lon="5.542312920934255"><ele>654.0</ele><time>2026-05-02T06:05:34Z</time></trkpt><trkpt lat="43.346830704334074" lon="5.542417053122741"><ele>654.0</ele><time>2026-05-02T06:05:36Z</time></trkpt><trkpt lat="43.346858159028194" lon="5.5425208780422865"><ele>654.6666666666666</ele><time>2026-05-02T06:05:38Z</time></trkpt><trkpt lat="43.34688407295828" lon="5.542618662930799"><ele>655.3333333333334</ele><time>2026-05-02T06:05:40Z</time></trkpt><trkpt lat="43.34691290818542" lon="5.542720859943177"><ele>656.0</ele><time>2026-05-02T06:05:42Z</time></trkpt><trkpt lat="43.34694217830688" lon="5.542816784431894"><ele>656.6666666666667</ele><time>2026-05-02T06:05:44Z</time></trkpt><trkpt lat="43.34698148711565" lon="5.542907264185349"><ele>657.3333333333334</ele><time>2026-05-02T06:05:46Z</time></trkpt><trkpt lat="43.34699738887544" lon="5.543011168939105"><ele>658.0</ele><time>2026-05-02T06:05:48Z</time></trkpt><trkpt lat="43.347026965612955" lon="5.543094341954034"><ele>659.5</ele><time>2026-05-02T06:05:50Z</time></trkpt><trkpt lat="43.347021098795054" lon="5.543193374773065"><ele>661.0</ele><time>2026-05-02T06:05:52Z</time></trkpt><trkpt lat="43.34696573653438" lon="5.543262346779987"><ele>662.5</ele><time>2026-05-02T06:05:54Z</time></trkpt><trkpt lat="43.34686692786309" lon="5.543274502397114"><ele>664.0</ele><time>2026-05-02T06:05:57Z</time></trkpt><trkpt lat="43.34679243816137" lon="5.543318548337657"><ele>665.5</ele><time>2026-05-02T06:05:59Z</time></trkpt><trkpt lat="43.34672772680614" lon="5.54336859210396"><ele>667.0</ele><time>2026-05-02T06:06:01Z</time></trkpt><trkpt lat="43.346661411342374" lon="5.543439299552785"><ele>667.0</ele><time>2026-05-02T06:06:03Z</time></trkpt><trkpt lat="43.346608476468106" lon="5.54353783279057"><ele>667.0</ele><time>2026-05-02T06:06:05Z</time></trkpt><trkpt lat="43.34657114026429" lon="5.543622337251366"><ele>667.0</ele><time>2026-05-02T06:06:07Z</time></trkpt><trkpt lat="43.34653639430227" lon="5.543715496236395"><ele>667.0</ele><time>2026-05-02T06:06:09Z</time></trkpt><trkpt lat="43.34651003582607" lon="5.543809266752441"><ele>667.0</ele><time>2026-05-02T06:06:11Z</time></trkpt><trkpt lat="43.346494391800334" lon="5.543924941316409"><ele>667.0</ele><time>2026-05-02T06:06:13Z</time></trkpt><trkpt lat="43.34645997774823" lon="5.544013729512005"><ele>666.2857142857143</ele><time>2026-05-02T06:06:15Z</time></trkpt><trkpt lat="43.34644106448022" lon="5.544106067999701"><ele>665.5714285714286</ele><time>2026-05-02T06:06:16.999Z</time></trkpt><trkpt lat="43.34642275065186" lon="5.54419548004468"><ele>664.8571428571429</ele><time>2026-05-02T06:06:18.999Z</time></trkpt><trkpt lat="43.346413236383526" lon="5.544295962128578"><ele>664.1428571428571</ele><time>2026-05-02T06:06:20.999Z</time></trkpt><trkpt lat="43.34639694860189" lon="5.544388167192604"><ele>663.4285714285714</ele><time>2026-05-02T06:06:22.999Z</time></trkpt><trkpt lat="43.346375941757394" lon="5.544485311430572"><ele>662.7142857142858</ele><time>2026-05-02T06:06:24.999Z</time></trkpt><trkpt lat="43.346340293330655" lon="5.544569359293374"><ele>662.0</ele><time>2026-05-02T06:06:26.999Z</time></trkpt><trkpt lat="43.34631395293771" lon="5.544661199817924"><ele>664.1666666666666</ele><time>2026-05-02T06:06:28.999Z</time></trkpt><trkpt lat="43.346279462096106" lon="5.544748801386522"><ele>666.3333333333333</ele><time>2026-05-02T06:06:30.999Z</time></trkpt><trkpt lat="43.346241216117484" lon="5.5448325955046025"><ele>668.5</ele><time>2026-05-02T06:06:32.999Z</time></trkpt><trkpt lat="43.34621005370937" lon="5.544924125416464"><ele>670.6666666666666</ele><time>2026-05-02T06:06:34.999Z</time></trkpt><trkpt lat="43.3461456733981" lon="5.544997078970111"><ele>672.8333333333334</ele><time>2026-05-02T06:06:36.999Z</time></trkpt><trkpt lat="43.346091960384896" lon="5.545082631818187"><ele>675.0</ele><time>2026-05-02T06:06:38.999Z</time></trkpt><trkpt lat="43.34605247948809" lon="5.545178797961505"><ele>675.0</ele><time>2026-05-02T06:06:40.999Z</time></trkpt><trkpt lat="43.34598682485158" lon="5.54523970796569"><ele>675.0</ele><time>2026-05-02T06:06:42.999Z</time></trkpt><trkpt lat="43.34594265424458" lon="5.545331646461064"><ele>675.0</ele><time>2026-05-02T06:06:44.999Z</time></trkpt><trkpt lat="43.34587270668945" lon="5.545385603533635"><ele>675.0</ele><time>2026-05-02T06:06:46.999Z</time></trkpt><trkpt lat="43.34582208357376" lon="5.5454418002225285"><ele>675.0</ele><time>2026-05-02T06:06:48.999Z</time></trkpt><trkpt lat="43.34575589874884" lon="5.545515296830345"><ele>675.0</ele><time>2026-05-02T06:06:50.999Z</time></trkpt><trkpt lat="43.34570285903914" lon="5.545596185516226"><ele>677.2</ele><time>2026-05-02T06:06:52.999Z</time></trkpt><trkpt lat="43.345643458388516" lon="5.545640427842999"><ele>679.4</ele><time>2026-05-02T06:06:54.999Z</time></trkpt><trkpt lat="43.345588984756475" lon="5.545702087780741"><ele>681.5999999999999</ele><time>2026-05-02T06:06:56.999Z</time></trkpt><trkpt lat="43.34551953955371" lon="5.54579992407903"><ele>683.8</ele><time>2026-05-02T06:06:59.999Z</time></trkpt><trkpt lat="43.34548843591951" lon="5.54587611509523"><ele>686.0</ele><time>2026-05-02T06:07:01.999Z</time></trkpt><trkpt lat="43.345509983149654" lon="5.546145490272225"><ele>686.0</ele><time>2026-05-02T06:07:03.999Z</time></trkpt><trkpt lat="43.34563087937346" lon="5.546185660817398"><ele>686.0</ele><time>2026-05-02T06:07:05.999Z</time></trkpt><trkpt lat="43.34569294814589" lon="5.546219188300464"><ele>686.0</ele><time>2026-05-02T06:07:08.999Z</time></trkpt><trkpt lat="43.34575287558932" lon="5.546163851831601"><ele>686.0</ele><time>2026-05-02T06:07:11Z</time></trkpt><trkpt lat="43.34591364882195" lon="5.545782275609402"><ele>686.0</ele><time>2026-05-02T06:07:14Z</time></trkpt><trkpt lat="43.345970961640944" lon="5.545734198676376"><ele>686.0</ele><time>2026-05-02T06:07:16Z</time></trkpt><trkpt lat="43.34602359979254" lon="5.545685865250965"><ele>686.0</ele><time>2026-05-02T06:07:18Z</time></trkpt><trkpt lat="43.346081368202434" lon="5.54563015491036"><ele>686.0</ele><time>2026-05-02T06:07:20Z</time></trkpt><trkpt lat="43.346145041855934" lon="5.545585575105244"><ele>686.0</ele><time>2026-05-02T06:07:22Z</time></trkpt><trkpt lat="43.346053200183604" lon="5.545676608687926"><ele>686.0</ele><time>2026-05-02T06:07:47Z</time></trkpt><trkpt lat="43.34598542460049" lon="5.545739753869503"><ele>686.0</ele><time>2026-05-02T06:07:50Z</time></trkpt><trkpt lat="43.345922518228065" lon="5.545796990714971"><ele>686.0</ele><time>2026-05-02T06:07:52Z</time></trkpt><trkpt lat="43.34585309466335" lon="5.545859596701339"><ele>686.0</ele><time>2026-05-02T06:07:54Z</time></trkpt><trkpt lat="43.345790924948915" lon="5.54589344971819"><ele>686.0</ele><time>2026-05-02T06:07:56Z</time></trkpt><trkpt lat="43.345724106194915" lon="5.545931601982978"><ele>686.0</ele><time>2026-05-02T06:07:58Z</time></trkpt><trkpt lat="43.345653933481515" lon="5.545975191468983"><ele>686.0</ele><time>2026-05-02T06:08:00Z</time></trkpt><trkpt lat="43.345564773864346" lon="5.546012582549782"><ele>686.0</ele><time>2026-05-02T06:08:02Z</time></trkpt><trkpt lat="43.345508791133796" lon="5.546074257753558"><ele>686.0</ele><time>2026-05-02T06:08:04Z</time></trkpt><trkpt lat="43.345430553910525" lon="5.546105947383418"><ele>686.0</ele><time>2026-05-02T06:08:06Z</time></trkpt><trkpt lat="43.34555537782932" lon="5.546192673969161"><ele>686.0</ele><time>2026-05-02T06:08:07Z</time></trkpt><trkpt lat="43.3456248425727" lon="5.546305544128278"><ele>686.0</ele><time>2026-05-02T06:08:09Z</time></trkpt><trkpt lat="43.345666914296" lon="5.546371877141801"><ele>685.2857142857143</ele><time>2026-05-02T06:08:10Z</time></trkpt><trkpt lat="43.34571226687727" lon="5.546435554188404"><ele>684.5714285714286</ele><time>2026-05-02T06:08:11Z</time></trkpt><trkpt lat="43.3457563756214" lon="5.54650469649705"><ele>683.8571428571429</ele><time>2026-05-02T06:08:12Z</time></trkpt><trkpt lat="43.345806117008955" lon="5.546584430277067"><ele>683.1428571428571</ele><time>2026-05-02T06:08:13Z</time></trkpt><trkpt lat="43.345859552393435" lon="5.546660778891159"><ele>682.4285714285714</ele><time>2026-05-02T06:08:14Z</time></trkpt><trkpt lat="43.345914313433816" lon="5.546732205594199"><ele>681.7142857142858</ele><time>2026-05-02T06:08:15Z</time></trkpt><trkpt lat="43.345964607530384" lon="5.546801064832891"><ele>681.0</ele><time>2026-05-02T06:08:16Z</time></trkpt><trkpt lat="43.34601815417506" lon="5.546861775127064"><ele>681.0</ele><time>2026-05-02T06:08:17Z</time></trkpt><trkpt lat="43.3460804329706" lon="5.54692462932169"><ele>681.0</ele><time>2026-05-02T06:08:18Z</time></trkpt><trkpt lat="43.34613819868574" lon="5.546991132266798"><ele>681.0</ele><time>2026-05-02T06:08:18.999Z</time></trkpt><trkpt lat="43.34619747000619" lon="5.5470613321158595"><ele>681.0</ele><time>2026-05-02T06:08:19.999Z</time></trkpt><trkpt lat="43.346252846257414" lon="5.5471349424270775"><ele>681.0</ele><time>2026-05-02T06:08:20.999Z</time></trkpt><trkpt lat="43.346289413767614" lon="5.547226628481107"><ele>681.0</ele><time>2026-05-02T06:08:21.999Z</time></trkpt><trkpt lat="43.346337438665" lon="5.54731616581933"><ele>680.0</ele><time>2026-05-02T06:08:22.999Z</time></trkpt><trkpt lat="43.34638111137368" lon="5.547405047155302"><ele>679.0</ele><time>2026-05-02T06:08:23.999Z</time></trkpt><trkpt lat="43.34643716906985" lon="5.547487351071421"><ele>678.0</ele><time>2026-05-02T06:08:24.999Z</time></trkpt><trkpt lat="43.346476632437906" lon="5.547589563391719"><ele>677.0</ele><time>2026-05-02T06:08:25.999Z</time></trkpt><trkpt lat="43.346526446327886" lon="5.547685479695654"><ele>676.0</ele><time>2026-05-02T06:08:26.999Z</time></trkpt><trkpt lat="43.346581319696504" lon="5.547774351315776"><ele>675.0</ele><time>2026-05-02T06:08:27.999Z</time></trkpt><trkpt lat="43.346635288882375" lon="5.547852839527779"><ele>674.1666666666666</ele><time>2026-05-02T06:08:28.999Z</time></trkpt><trkpt lat="43.34669626724701" lon="5.54792028926472"><ele>673.3333333333334</ele><time>2026-05-02T06:08:29.999Z</time></trkpt><trkpt lat="43.34675746600997" lon="5.54797183118912"><ele>672.5</ele><time>2026-05-02T06:08:30.999Z</time></trkpt><trkpt lat="43.34682019532085" lon="5.548016448938411"><ele>671.6666666666667</ele><time>2026-05-02T06:08:31.999Z</time></trkpt><trkpt lat="43.346930219679365" lon="5.54809069055589"><ele>670.8333333333334</ele><time>2026-05-02T06:08:33.999Z</time></trkpt><trkpt lat="43.34697987502729" lon="5.548149856240792"><ele>670.0</ele><time>2026-05-02T06:08:34.999Z</time></trkpt><trkpt lat="43.34703501522364" lon="5.548194068883625"><ele>670.0</ele><time>2026-05-02T06:08:35.999Z</time></trkpt><trkpt lat="43.3471470213992" lon="5.548266522126598"><ele>670.0</ele><time>2026-05-02T06:08:37.999Z</time></trkpt><trkpt lat="43.3472496007192" lon="5.548358978004379"><ele>670.0</ele><time>2026-05-02T06:08:39.999Z</time></trkpt><trkpt lat="43.34735807702956" lon="5.548434317130532"><ele>670.0</ele><time>2026-05-02T06:08:41.999Z</time></trkpt><trkpt lat="43.34747621056331" lon="5.548454774880966"><ele>669.8333333333334</ele><time>2026-05-02T06:08:43.999Z</time></trkpt><trkpt lat="43.347543722386945" lon="5.548418169654918"><ele>669.6666666666667</ele><time>2026-05-02T06:08:44.999Z</time></trkpt><trkpt lat="43.34761317860061" lon="5.548371682631414"><ele>669.5</ele><time>2026-05-02T06:08:45.999Z</time></trkpt><trkpt lat="43.34767041347764" lon="5.548299553653969"><ele>669.3333333333334</ele><time>2026-05-02T06:08:46.999Z</time></trkpt><trkpt lat="43.34772430567148" lon="5.548224879332652"><ele>669.1666666666666</ele><time>2026-05-02T06:08:47.999Z</time></trkpt><trkpt lat="43.34777260361355" lon="5.548144458313287"><ele>669.0</ele><time>2026-05-02T06:08:48.999Z</time></trkpt><trkpt lat="43.34781505210727" lon="5.548059749302864"><ele>669.0</ele><time>2026-05-02T06:08:49.999Z</time></trkpt><trkpt lat="43.34786094359012" lon="5.547975868677577"><ele>669.0</ele><time>2026-05-02T06:08:50.999Z</time></trkpt><trkpt lat="43.34790524151031" lon="5.5478833326906125"><ele>669.0</ele><time>2026-05-02T06:08:51.999Z</time></trkpt><trkpt lat="43.3479564974247" lon="5.547793180789041"><ele>669.0</ele><time>2026-05-02T06:08:52.999Z</time></trkpt><trkpt lat="43.347995024576065" lon="5.547688929147052"><ele>669.0</ele><time>2026-05-02T06:08:53.999Z</time></trkpt><trkpt lat="43.34803711176248" lon="5.547589840298583"><ele>669.0</ele><time>2026-05-02T06:08:54.999Z</time></trkpt><trkpt lat="43.348077473428944" lon="5.5474883837037865"><ele>668.0</ele><time>2026-05-02T06:08:55.999Z</time></trkpt><trkpt lat="43.34813375170021" lon="5.547398031403415"><ele>667.0</ele><time>2026-05-02T06:08:56.999Z</time></trkpt><trkpt lat="43.34817515739012" lon="5.5473000147230795"><ele>666.0</ele><time>2026-05-02T06:08:57.999Z</time></trkpt><trkpt lat="43.34822009511116" lon="5.547197349435722"><ele>665.0</ele><time>2026-05-02T06:08:58.999Z</time></trkpt><trkpt lat="43.34824831102445" lon="5.547088961933638"><ele>664.0</ele><time>2026-05-02T06:08:59.999Z</time></trkpt><trkpt lat="43.34829593963688" lon="5.5469984267636425"><ele>663.0</ele><time>2026-05-02T06:09:00.999Z</time></trkpt><trkpt lat="43.348334168577715" lon="5.5469052559335905"><ele>662.6666666666666</ele><time>2026-05-02T06:09:01.999Z</time></trkpt><trkpt lat="43.34840072864159" lon="5.546843990232786"><ele>662.3333333333334</ele><time>2026-05-02T06:09:02.999Z</time></trkpt><trkpt lat="43.348452801713165" lon="5.546772798290457"><ele>662.0</ele><time>2026-05-02T06:09:03.999Z</time></trkpt><trkpt lat="43.3485218614753" lon="5.546740580961494"><ele>661.6666666666667</ele><time>2026-05-02T06:09:04.999Z</time></trkpt><trkpt lat="43.34859693807984" lon="5.54674991891612"><ele>661.3333333333334</ele><time>2026-05-02T06:09:05.999Z</time></trkpt><trkpt lat="43.34866081597172" lon="5.5467511549845385"><ele>661.0</ele><time>2026-05-02T06:09:06.999Z</time></trkpt><trkpt lat="43.348761042741955" lon="5.546799920299008"><ele>661.0</ele><time>2026-05-02T06:09:08.999Z</time></trkpt><trkpt lat="43.34887113840889" lon="5.546815776198007"><ele>661.0</ele><time>2026-05-02T06:09:10.999Z</time></trkpt><trkpt lat="43.3489581370047" lon="5.546823194683046"><ele>661.0</ele><time>2026-05-02T06:09:12.999Z</time></trkpt><trkpt lat="43.34904094133609" lon="5.546826866564249"><ele>661.0</ele><time>2026-05-02T06:09:14.999Z</time></trkpt><trkpt lat="43.349132195409844" lon="5.546817667832944"><ele>661.0</ele><time>2026-05-02T06:09:17Z</time></trkpt><trkpt lat="43.34922482299019" lon="5.54678914534411"><ele>660.8</ele><time>2026-05-02T06:09:19Z</time></trkpt><trkpt lat="43.34930977160073" lon="5.546735365555174"><ele>660.5999999999999</ele><time>2026-05-02T06:09:21Z</time></trkpt><trkpt lat="43.34939445663656" lon="5.546677301470694"><ele>660.4</ele><time>2026-05-02T06:09:24Z</time></trkpt><trkpt lat="43.34947737024362" lon="5.546617974681379"><ele>660.2</ele><time>2026-05-02T06:09:26Z</time></trkpt><trkpt lat="43.349576171174775" lon="5.546580496945423"><ele>660.0</ele><time>2026-05-02T06:09:28Z</time></trkpt><trkpt lat="43.349671262503996" lon="5.546502323842978"><ele>660.25</ele><time>2026-05-02T06:09:30Z</time></trkpt><trkpt lat="43.34975943535494" lon="5.546404727199138"><ele>660.5</ele><time>2026-05-02T06:09:32Z</time></trkpt><trkpt lat="43.34984614306971" lon="5.546296213220205"><ele>660.75</ele><time>2026-05-02T06:09:34Z</time></trkpt><trkpt lat="43.349927845838046" lon="5.546179674777416"><ele>661.0</ele><time>2026-05-02T06:09:36Z</time></trkpt><trkpt lat="43.34999737875803" lon="5.5460451847648295"><ele>661.0</ele><time>2026-05-02T06:09:38Z</time></trkpt><trkpt lat="43.34999330692076" lon="5.545955665979492"><ele>661.0</ele><time>2026-05-02T06:09:39Z</time></trkpt><trkpt lat="43.350035419901545" lon="5.545833980668163"><ele>661.0</ele><time>2026-05-02T06:09:41Z</time></trkpt><trkpt lat="43.350127595549935" lon="5.545739230443346"><ele>661.0</ele><time>2026-05-02T06:09:43Z</time></trkpt><trkpt lat="43.350191052612374" lon="5.54575827068106"><ele>661.0</ele><time>2026-05-02T06:09:44Z</time></trkpt><trkpt lat="43.35022907156516" lon="5.545835958446662"><ele>661.0</ele><time>2026-05-02T06:09:45Z</time></trkpt><trkpt lat="43.35032337601275" lon="5.545903675528601"><ele>661.0</ele><time>2026-05-02T06:09:47Z</time></trkpt><trkpt lat="43.35041283917066" lon="5.545967826071964"><ele>661.0</ele><time>2026-05-02T06:09:49Z</time></trkpt><trkpt lat="43.35050664451741" lon="5.546015980878669"><ele>661.0</ele><time>2026-05-02T06:09:51Z</time></trkpt><trkpt lat="43.350605080578646" lon="5.546072443277544"><ele>661.0</ele><time>2026-05-02T06:09:53Z</time></trkpt><trkpt lat="43.35070842518292" lon="5.5460843617425315"><ele>661.0</ele><time>2026-05-02T06:09:55Z</time></trkpt><trkpt lat="43.35082142829753" lon="5.546074954923895"><ele>659.5</ele><time>2026-05-02T06:09:57Z</time></trkpt><trkpt lat="43.350933429900856" lon="5.546016861967831"><ele>658.0</ele><time>2026-05-02T06:09:59Z</time></trkpt><trkpt lat="43.35103774106901" lon="5.54596200100302"><ele>656.5</ele><time>2026-05-02T06:10:01Z</time></trkpt><trkpt lat="43.35114020625617" lon="5.5459009765954175"><ele>655.0</ele><time>2026-05-02T06:10:03Z</time></trkpt><trkpt lat="43.351244829320336" lon="5.545834018198551"><ele>655.0</ele><time>2026-05-02T06:10:05Z</time></trkpt><trkpt lat="43.35135333377311" lon="5.545781205342673"><ele>655.0</ele><time>2026-05-02T06:10:07Z</time></trkpt><trkpt lat="43.35145321115949" lon="5.545693952746706"><ele>655.0</ele><time>2026-05-02T06:10:09Z</time></trkpt><trkpt lat="43.35155790721797" lon="5.54561650566091"><ele>655.0</ele><time>2026-05-02T06:10:11Z</time></trkpt><trkpt lat="43.35166319361044" lon="5.5455459091816355"><ele>654.5</ele><time>2026-05-02T06:10:13Z</time></trkpt><trkpt lat="43.35176537230753" lon="5.545473406038973"><ele>654.0</ele><time>2026-05-02T06:10:15Z</time></trkpt><trkpt lat="43.35187089330382" lon="5.545449500783502"><ele>653.5</ele><time>2026-05-02T06:10:17Z</time></trkpt><trkpt lat="43.35194701625695" lon="5.54544941600135"><ele>653.0</ele><time>2026-05-02T06:10:19Z</time></trkpt><trkpt lat="43.35201160824117" lon="5.545498802368473"><ele>652.5</ele><time>2026-05-02T06:10:22Z</time></trkpt><trkpt lat="43.352060242730964" lon="5.545568061074972"><ele>652.0</ele><time>2026-05-02T06:10:23.999Z</time></trkpt><trkpt lat="43.35207232952516" lon="5.54565716503294"><ele>652.0</ele><time>2026-05-02T06:10:25.999Z</time></trkpt><trkpt lat="43.3521118629934" lon="5.545776089156067"><ele>652.0</ele><time>2026-05-02T06:10:27.999Z</time></trkpt><trkpt lat="43.35217689860236" lon="5.545906228189646"><ele>652.0</ele><time>2026-05-02T06:10:29.999Z</time></trkpt><trkpt lat="43.35223335815982" lon="5.546046930308031"><ele>652.0</ele><time>2026-05-02T06:10:31.999Z</time></trkpt><trkpt lat="43.35229174042521" lon="5.54618979444846"><ele>652.0</ele><time>2026-05-02T06:10:33.999Z</time></trkpt><trkpt lat="43.35234805811097" lon="5.546325682708137"><ele>650.6</ele><time>2026-05-02T06:10:35.999Z</time></trkpt><trkpt lat="43.352404701186174" lon="5.546461639353877"><ele>649.2</ele><time>2026-05-02T06:10:37.999Z</time></trkpt><trkpt lat="43.3524598692673" lon="5.5466025774015755"><ele>647.8</ele><time>2026-05-02T06:10:39.999Z</time></trkpt><trkpt lat="43.352513340776774" lon="5.546727572379512"><ele>646.4</ele><time>2026-05-02T06:10:41.999Z</time></trkpt><trkpt lat="43.352565242560104" lon="5.54685221899721"><ele>645.0</ele><time>2026-05-02T06:10:43.999Z</time></trkpt><trkpt lat="43.35262197775928" lon="5.5469752590877714"><ele>645.0</ele><time>2026-05-02T06:10:45.999Z</time></trkpt><trkpt lat="43.35267825433158" lon="5.547094320696893"><ele>645.0</ele><time>2026-05-02T06:10:47.999Z</time></trkpt><trkpt lat="43.352731784024094" lon="5.547213778239523"><ele>645.0</ele><time>2026-05-02T06:10:49.999Z</time></trkpt><trkpt lat="43.35278440297946" lon="5.547328439504965"><ele>645.0</ele><time>2026-05-02T06:10:51.999Z</time></trkpt><trkpt lat="43.35282517597888" lon="5.547459504975626"><ele>645.0</ele><time>2026-05-02T06:10:53.999Z</time></trkpt><trkpt lat="43.35286698213284" lon="5.547570939160648"><ele>645.0</ele><time>2026-05-02T06:10:55.999Z</time></trkpt><trkpt lat="43.3528805895868" lon="5.547693455240081"><ele>645.0</ele><time>2026-05-02T06:10:57.999Z</time></trkpt><trkpt lat="43.35292581995402" lon="5.547803840409405"><ele>645.0</ele><time>2026-05-02T06:10:59.999Z</time></trkpt><trkpt lat="43.352961307926044" lon="5.547956743063367"><ele>645.0</ele><time>2026-05-02T06:11:01.999Z</time></trkpt><trkpt lat="43.353014924771465" lon="5.548106792576268"><ele>645.0</ele><time>2026-05-02T06:11:03.999Z</time></trkpt><trkpt lat="43.35306990504649" lon="5.548269622223818"><ele>644.2857142857143</ele><time>2026-05-02T06:11:05.999Z</time></trkpt><trkpt lat="43.35309661384696" lon="5.548348686875496"><ele>643.5714285714286</ele><time>2026-05-02T06:11:06.999Z</time></trkpt><trkpt lat="43.35312124586615" lon="5.548432161602731"><ele>642.8571428571429</ele><time>2026-05-02T06:11:07.999Z</time></trkpt><trkpt lat="43.353140162862225" lon="5.548526277589159"><ele>642.1428571428571</ele><time>2026-05-02T06:11:08.999Z</time></trkpt><trkpt lat="43.35314908918002" lon="5.548624754246625"><ele>641.4285714285714</ele><time>2026-05-02T06:11:09.999Z</time></trkpt><trkpt lat="43.35315532338446" lon="5.548729418194565"><ele>640.7142857142857</ele><time>2026-05-02T06:11:10.999Z</time></trkpt><trkpt lat="43.35315970012621" lon="5.548821368865011"><ele>640.0</ele><time>2026-05-02T06:11:11.999Z</time></trkpt><trkpt lat="43.35316422637183" lon="5.5489298439868495"><ele>640.0</ele><time>2026-05-02T06:11:12.999Z</time></trkpt><trkpt lat="43.35317913804546" lon="5.549032784468573"><ele>640.0</ele><time>2026-05-02T06:11:13.999Z</time></trkpt><trkpt lat="43.35317858764996" lon="5.549140392136355"><ele>640.0</ele><time>2026-05-02T06:11:14.999Z</time></trkpt><trkpt lat="43.353188837367554" lon="5.549256955550109"><ele>640.0</ele><time>2026-05-02T06:11:15.999Z</time></trkpt><trkpt lat="43.353193085297605" lon="5.549376145376984"><ele>640.0</ele><time>2026-05-02T06:11:16.999Z</time></trkpt><trkpt lat="43.35320860508922" lon="5.54948828039706"><ele>640.0</ele><time>2026-05-02T06:11:17.999Z</time></trkpt><trkpt lat="43.353231328893685" lon="5.549608444914665"><ele>639.4285714285714</ele><time>2026-05-02T06:11:18.999Z</time></trkpt><trkpt lat="43.35324372119915" lon="5.549736399643621"><ele>638.8571428571429</ele><time>2026-05-02T06:11:19.999Z</time></trkpt><trkpt lat="43.35326429643603" lon="5.549839012105348"><ele>638.2857142857142</ele><time>2026-05-02T06:11:20.999Z</time></trkpt><trkpt lat="43.35329122436923" lon="5.549922387253082"><ele>637.7142857142858</ele><time>2026-05-02T06:11:22Z</time></trkpt><trkpt lat="43.353279269044386" lon="5.55001355137274"><ele>637.1428571428572</ele><time>2026-05-02T06:11:23Z</time></trkpt><trkpt lat="43.35323987855976" lon="5.550094287887495"><ele>636.5714285714286</ele><time>2026-05-02T06:11:24Z</time></trkpt><trkpt lat="43.35323590415101" lon="5.550188642614236"><ele>636.0</ele><time>2026-05-02T06:11:25Z</time></trkpt><trkpt lat="43.35323532041643" lon="5.550279471347878"><ele>636.0</ele><time>2026-05-02T06:11:26Z</time></trkpt><trkpt lat="43.35323564110909" lon="5.5503704661656466"><ele>636.0</ele><time>2026-05-02T06:11:27Z</time></trkpt><trkpt lat="43.35323696510446" lon="5.550543644880889"><ele>636.0</ele><time>2026-05-02T06:11:29Z</time></trkpt><trkpt lat="43.353245787668435" lon="5.550631301548231"><ele>636.0</ele><time>2026-05-02T06:11:30Z</time></trkpt><trkpt lat="43.353196766029626" lon="5.550701047727099"><ele>636.0</ele><time>2026-05-02T06:11:31Z</time></trkpt><trkpt lat="43.35318397329584" lon="5.5507879280103145"><ele>636.0</ele><time>2026-05-02T06:11:32Z</time></trkpt><trkpt lat="43.35317426852857" lon="5.550958282539283"><ele>635.5714285714286</ele><time>2026-05-02T06:11:34Z</time></trkpt><trkpt lat="43.353147147604936" lon="5.551048262228331"><ele>635.1428571428572</ele><time>2026-05-02T06:11:35Z</time></trkpt><trkpt lat="43.35313906515503" lon="5.551139419446693"><ele>634.7142857142858</ele><time>2026-05-02T06:11:36Z</time></trkpt><trkpt lat="43.35313366889342" lon="5.551235893472508"><ele>634.2857142857142</ele><time>2026-05-02T06:11:37Z</time></trkpt><trkpt lat="43.35313645552021" lon="5.551323653994728"><ele>633.8571428571429</ele><time>2026-05-02T06:11:38Z</time></trkpt><trkpt lat="43.35314820885922" lon="5.551411026175638"><ele>633.4285714285714</ele><time>2026-05-02T06:11:39Z</time></trkpt><trkpt lat="43.353167461077646" lon="5.551498830152462"><ele>633.0</ele><time>2026-05-02T06:11:40Z</time></trkpt><trkpt lat="43.35319047759042" lon="5.55158006934854"><ele>632.1999999999999</ele><time>2026-05-02T06:11:41Z</time></trkpt><trkpt lat="43.35322211325477" lon="5.5516592338647595"><ele>631.4</ele><time>2026-05-02T06:11:42Z</time></trkpt><trkpt lat="43.35327760199176" lon="5.551793480352952"><ele>630.5999999999999</ele><time>2026-05-02T06:11:44Z</time></trkpt><trkpt lat="43.35334551616024" lon="5.551914183468303"><ele>629.8</ele><time>2026-05-02T06:11:46Z</time></trkpt><trkpt lat="43.353437614070586" lon="5.551992852914646"><ele>629.0</ele><time>2026-05-02T06:11:48Z</time></trkpt><trkpt lat="43.35350627457252" lon="5.552076240576259"><ele>626.75</ele><time>2026-05-02T06:11:50Z</time></trkpt><trkpt lat="43.35359605205232" lon="5.552138511810469"><ele>624.5</ele><time>2026-05-02T06:11:52Z</time></trkpt><trkpt lat="43.35369160115194" lon="5.552232769013146"><ele>622.25</ele><time>2026-05-02T06:11:54Z</time></trkpt><trkpt lat="43.35377910687655" lon="5.552328588996275"><ele>620.0</ele><time>2026-05-02T06:11:56Z</time></trkpt><trkpt lat="43.35386943044476" lon="5.552442291069645"><ele>620.7142857142858</ele><time>2026-05-02T06:11:58Z</time></trkpt><trkpt lat="43.35391887435816" lon="5.552497148069231"><ele>621.4285714285714</ele><time>2026-05-02T06:11:59Z</time></trkpt><trkpt lat="43.353964727776635" lon="5.552559690432117"><ele>622.1428571428571</ele><time>2026-05-02T06:12:00Z</time></trkpt><trkpt lat="43.35402221436205" lon="5.552615500058467"><ele>622.8571428571429</ele><time>2026-05-02T06:12:01Z</time></trkpt><trkpt lat="43.35407962372439" lon="5.552655633404729"><ele>623.5714285714286</ele><time>2026-05-02T06:12:02Z</time></trkpt><trkpt lat="43.35415013696869" lon="5.552674325108552"><ele>624.2857142857143</ele><time>2026-05-02T06:12:03Z</time></trkpt><trkpt lat="43.35422523445065" lon="5.552677402139966"><ele>625.0</ele><time>2026-05-02T06:12:04Z</time></trkpt><trkpt lat="43.35430393676269" lon="5.552692418469689"><ele>625.0</ele><time>2026-05-02T06:12:05Z</time></trkpt><trkpt lat="43.35438117010439" lon="5.5527001028690375"><ele>625.0</ele><time>2026-05-02T06:12:06Z</time></trkpt><trkpt lat="43.35446302229139" lon="5.552723119819281"><ele>625.0</ele><time>2026-05-02T06:12:07Z</time></trkpt><trkpt lat="43.35454747102483" lon="5.5527331331289025"><ele>625.0</ele><time>2026-05-02T06:12:08Z</time></trkpt><trkpt lat="43.354628587513815" lon="5.5527828187466834"><ele>625.0</ele><time>2026-05-02T06:12:09Z</time></trkpt><trkpt lat="43.35470359071212" lon="5.552838176296155"><ele>625.0</ele><time>2026-05-02T06:12:10Z</time></trkpt><trkpt lat="43.35477627563171" lon="5.552898111648224"><ele>623.0</ele><time>2026-05-02T06:12:11Z</time></trkpt><trkpt lat="43.35484538166534" lon="5.5529838025874465"><ele>621.0</ele><time>2026-05-02T06:12:12Z</time></trkpt><trkpt lat="43.35490291251395" lon="5.553065790606203"><ele>619.0</ele><time>2026-05-02T06:12:13Z</time></trkpt><trkpt lat="43.35495636946765" lon="5.553139899177258"><ele>617.0</ele><time>2026-05-02T06:12:14Z</time></trkpt><trkpt lat="43.35500716720166" lon="5.553238167674824"><ele>615.0</ele><time>2026-05-02T06:12:15Z</time></trkpt><trkpt lat="43.355060660390976" lon="5.553303656734111"><ele>613.0</ele><time>2026-05-02T06:12:16Z</time></trkpt><trkpt lat="43.3550902899066" lon="5.553408524643681"><ele>613.0</ele><time>2026-05-02T06:12:17Z</time></trkpt><trkpt lat="43.355108511147755" lon="5.553521764927489"><ele>613.0</ele><time>2026-05-02T06:12:18Z</time></trkpt><trkpt lat="43.355128540827565" lon="5.553621683752109"><ele>613.0</ele><time>2026-05-02T06:12:19Z</time></trkpt><trkpt lat="43.355160975735735" lon="5.553765183975075"><ele>613.0</ele><time>2026-05-02T06:12:21Z</time></trkpt><trkpt lat="43.355192617027974" lon="5.5539012789937665"><ele>613.0</ele><time>2026-05-02T06:12:23Z</time></trkpt><trkpt lat="43.355254419219605" lon="5.55403979526365"><ele>613.8</ele><time>2026-05-02T06:12:24.999Z</time></trkpt><trkpt lat="43.35533044753064" lon="5.5541291417661345"><ele>614.5999999999999</ele><time>2026-05-02T06:12:26.999Z</time></trkpt><trkpt lat="43.3554113519072" lon="5.554194528582837"><ele>615.4000000000001</ele><time>2026-05-02T06:12:28.999Z</time></trkpt><trkpt lat="43.355493226304816" lon="5.554260306317641"><ele>616.2</ele><time>2026-05-02T06:12:30.999Z</time></trkpt><trkpt lat="43.355574302977274" lon="5.554333318988367"><ele>617.0</ele><time>2026-05-02T06:12:32.999Z</time></trkpt><trkpt lat="43.35564378226142" lon="5.55443390358151"><ele>617.3333333333333</ele><time>2026-05-02T06:12:34.999Z</time></trkpt><trkpt lat="43.35570207071998" lon="5.55454263441499"><ele>617.6666666666666</ele><time>2026-05-02T06:12:36.999Z</time></trkpt><trkpt lat="43.35574134074582" lon="5.554646977134107"><ele>618.0</ele><time>2026-05-02T06:12:38.999Z</time></trkpt><trkpt lat="43.355762091295645" lon="5.554764992399742"><ele>618.3333333333334</ele><time>2026-05-02T06:12:40.999Z</time></trkpt><trkpt lat="43.35578816449941" lon="5.554873094599653"><ele>618.6666666666667</ele><time>2026-05-02T06:12:42.999Z</time></trkpt><trkpt lat="43.35581580975203" lon="5.554997013800736"><ele>619.0</ele><time>2026-05-02T06:12:44.999Z</time></trkpt><trkpt lat="43.35583832089764" lon="5.555101095934972"><ele>619.0</ele><time>2026-05-02T06:12:46.999Z</time></trkpt><trkpt lat="43.35586223006741" lon="5.55521274314422"><ele>619.0</ele><time>2026-05-02T06:12:48.999Z</time></trkpt><trkpt lat="43.35588373774315" lon="5.555310507574227"><ele>619.0</ele><time>2026-05-02T06:12:50.999Z</time></trkpt><trkpt lat="43.355916435925536" lon="5.5554238846346795"><ele>619.0</ele><time>2026-05-02T06:12:52.999Z</time></trkpt><trkpt lat="43.355945134583926" lon="5.5555346312787455"><ele>619.0</ele><time>2026-05-02T06:12:54.999Z</time></trkpt><trkpt lat="43.35594873733177" lon="5.555632022676514"><ele>619.0</ele><time>2026-05-02T06:12:56.999Z</time></trkpt><trkpt lat="43.35596512914128" lon="5.55575602142871"><ele>618.4</ele><time>2026-05-02T06:12:59.999Z</time></trkpt><trkpt lat="43.35597399112909" lon="5.555848092869878"><ele>617.8</ele><time>2026-05-02T06:13:01.999Z</time></trkpt><trkpt lat="43.3559772550836" lon="5.555954446945045"><ele>617.2</ele><time>2026-05-02T06:13:03.999Z</time></trkpt><trkpt lat="43.355961186894056" lon="5.556074193650055"><ele>616.6</ele><time>2026-05-02T06:13:05.999Z</time></trkpt><trkpt lat="43.35591738285521" lon="5.556230156169903"><ele>616.0</ele><time>2026-05-02T06:13:07.999Z</time></trkpt><trkpt lat="43.35586491249725" lon="5.556358185754312"><ele>615.0</ele><time>2026-05-02T06:13:09.999Z</time></trkpt><trkpt lat="43.35579123052328" lon="5.556506032170652"><ele>614.0</ele><time>2026-05-02T06:13:11.999Z</time></trkpt><trkpt lat="43.355746828962396" lon="5.556578401053449"><ele>613.0</ele><time>2026-05-02T06:13:12.999Z</time></trkpt><trkpt lat="43.35569577828294" lon="5.556653324503815"><ele>612.0</ele><time>2026-05-02T06:13:13.999Z</time></trkpt><trkpt lat="43.35564284958378" lon="5.556722264893237"><ele>611.0</ele><time>2026-05-02T06:13:14.999Z</time></trkpt><trkpt lat="43.355592215216824" lon="5.556783785205163"><ele>610.0</ele><time>2026-05-02T06:13:15.999Z</time></trkpt><trkpt lat="43.355502626190194" lon="5.556877162847305"><ele>607.4</ele><time>2026-05-02T06:13:17.999Z</time></trkpt><trkpt lat="43.35538373273514" lon="5.556843352595058"><ele>604.8</ele><time>2026-05-02T06:13:19.999Z</time></trkpt><trkpt lat="43.35527054918018" lon="5.556877475042848"><ele>602.2</ele><time>2026-05-02T06:13:21.999Z</time></trkpt><trkpt lat="43.35520152257882" lon="5.556996317605051"><ele>599.6</ele><time>2026-05-02T06:13:23.999Z</time></trkpt><trkpt lat="43.35523355322144" lon="5.557107928571501"><ele>597.0</ele><time>2026-05-02T06:13:24.999Z</time></trkpt><trkpt lat="43.3552925130608" lon="5.557227844660765"><ele>596.8000000000001</ele><time>2026-05-02T06:13:26.999Z</time></trkpt><trkpt lat="43.35534351442443" lon="5.557319782580973"><ele>596.6</ele><time>2026-05-02T06:13:29Z</time></trkpt><trkpt lat="43.35530237667959" lon="5.557428368044247"><ele>596.4000000000001</ele><time>2026-05-02T06:13:31Z</time></trkpt><trkpt lat="43.35523592029962" lon="5.557388234544925"><ele>596.2</ele><time>2026-05-02T06:13:32Z</time></trkpt><trkpt lat="43.35514871834699" lon="5.557420839981846"><ele>596.0</ele><time>2026-05-02T06:13:34Z</time></trkpt><trkpt lat="43.35506894440846" lon="5.5575426657661895"><ele>596.0</ele><time>2026-05-02T06:13:36Z</time></trkpt><trkpt lat="43.35509760100516" lon="5.557671835606512"><ele>596.0</ele><time>2026-05-02T06:13:37Z</time></trkpt><trkpt lat="43.35511953550705" lon="5.557762174963672"><ele>596.0</ele><time>2026-05-02T06:13:38Z</time></trkpt><trkpt lat="43.355152484360154" lon="5.557837619910939"><ele>596.0</ele><time>2026-05-02T06:13:39Z</time></trkpt><trkpt lat="43.35517789825439" lon="5.557917432947208"><ele>596.0</ele><time>2026-05-02T06:13:40Z</time></trkpt><trkpt lat="43.35519006364131" lon="5.558086355482792"><ele>596.0</ele><time>2026-05-02T06:13:42Z</time></trkpt><trkpt lat="43.355179593692924" lon="5.558250115048221"><ele>594.6</ele><time>2026-05-02T06:13:44Z</time></trkpt><trkpt lat="43.35515761083495" lon="5.558334376633086"><ele>593.2</ele><time>2026-05-02T06:13:45Z</time></trkpt><trkpt lat="43.35510528133819" lon="5.558393892688207"><ele>591.8</ele><time>2026-05-02T06:13:46Z</time></trkpt><trkpt lat="43.35503627599249" lon="5.558538544264921"><ele>590.4</ele><time>2026-05-02T06:13:48Z</time></trkpt><trkpt lat="43.3549830604466" lon="5.558590705485162"><ele>589.0</ele><time>2026-05-02T06:13:49Z</time></trkpt><trkpt lat="43.35489631969193" lon="5.558726005277189"><ele>588.1666666666667</ele><time>2026-05-02T06:13:51Z</time></trkpt><trkpt lat="43.35484861013101" lon="5.558800423244252"><ele>587.3333333333334</ele><time>2026-05-02T06:13:52Z</time></trkpt><trkpt lat="43.35480755569463" lon="5.558896177166917"><ele>586.5</ele><time>2026-05-02T06:13:53Z</time></trkpt><trkpt lat="43.354751197009804" lon="5.558975936746303"><ele>585.6666666666666</ele><time>2026-05-02T06:13:54Z</time></trkpt><trkpt lat="43.35470099306149" lon="5.559068933292954"><ele>584.8333333333333</ele><time>2026-05-02T06:13:55Z</time></trkpt><trkpt lat="43.35464445969278" lon="5.5591496476979385"><ele>584.0</ele><time>2026-05-02T06:13:56Z</time></trkpt><trkpt lat="43.35458608623791" lon="5.559226725714978"><ele>583.7142857142857</ele><time>2026-05-02T06:13:57Z</time></trkpt><trkpt lat="43.354528004713345" lon="5.559282235533423"><ele>583.4285714285714</ele><time>2026-05-02T06:13:58Z</time></trkpt><trkpt lat="43.35446103347701" lon="5.5593460055786075"><ele>583.1428571428571</ele><time>2026-05-02T06:13:59Z</time></trkpt><trkpt lat="43.35440351490396" lon="5.559410277229412"><ele>582.8571428571429</ele><time>2026-05-02T06:14:00Z</time></trkpt><trkpt lat="43.35437099533845" lon="5.559496397783888"><ele>582.5714285714286</ele><time>2026-05-02T06:14:01Z</time></trkpt><trkpt lat="43.354353402353205" lon="5.559594448366681"><ele>582.2857142857142</ele><time>2026-05-02T06:14:02Z</time></trkpt><trkpt lat="43.35435218016801" lon="5.559692392962345"><ele>582.0</ele><time>2026-05-02T06:14:03Z</time></trkpt><trkpt lat="43.35436375934598" lon="5.559779692631354"><ele>582.0</ele><time>2026-05-02T06:14:04Z</time></trkpt><trkpt lat="43.354382934522384" lon="5.559866827694414"><ele>582.0</ele><time>2026-05-02T06:14:05Z</time></trkpt><trkpt lat="43.35442201554032" lon="5.560017462964192"><ele>582.0</ele><time>2026-05-02T06:14:07Z</time></trkpt><trkpt lat="43.354434319328014" lon="5.560184746171413"><ele>582.0</ele><time>2026-05-02T06:14:09Z</time></trkpt><trkpt lat="43.35441238832663" lon="5.56027396954333"><ele>582.0</ele><time>2026-05-02T06:14:10Z</time></trkpt><trkpt lat="43.35440453161425" lon="5.560440180822465"><ele>582.1666666666666</ele><time>2026-05-02T06:14:12Z</time></trkpt><trkpt lat="43.35438024094957" lon="5.560533166868019"><ele>582.3333333333334</ele><time>2026-05-02T06:14:14Z</time></trkpt><trkpt lat="43.35434992508131" lon="5.560643607281118"><ele>582.5</ele><time>2026-05-02T06:14:42.999Z</time></trkpt><trkpt lat="43.35433808396567" lon="5.560768985473225"><ele>582.6666666666667</ele><time>2026-05-02T06:14:45.999Z</time></trkpt><trkpt lat="43.35430051410468" lon="5.560895307220078"><ele>582.8333333333334</ele><time>2026-05-02T06:14:47.999Z</time></trkpt><trkpt lat="43.354293349800365" lon="5.561030791938945"><ele>583.0</ele><time>2026-05-02T06:14:49.999Z</time></trkpt><trkpt lat="43.354329901321734" lon="5.561161707234677"><ele>584.4</ele><time>2026-05-02T06:14:51.999Z</time></trkpt><trkpt lat="43.35437436663671" lon="5.561282591383176"><ele>585.8</ele><time>2026-05-02T06:14:53.999Z</time></trkpt><trkpt lat="43.35441988504292" lon="5.561398185361236"><ele>587.2</ele><time>2026-05-02T06:14:55.999Z</time></trkpt><trkpt lat="43.35447041904766" lon="5.561507356578143"><ele>588.6</ele><time>2026-05-02T06:14:57.999Z</time></trkpt><trkpt lat="43.35452995408276" lon="5.561609873626394"><ele>590.0</ele><time>2026-05-02T06:14:59.999Z</time></trkpt><trkpt lat="43.3545951294567" lon="5.561701245641623"><ele>590.0</ele><time>2026-05-02T06:15:01.999Z</time></trkpt><trkpt lat="43.354659048675195" lon="5.561804904427214"><ele>590.0</ele><time>2026-05-02T06:15:03.999Z</time></trkpt><trkpt lat="43.35470155271078" lon="5.561940665150665"><ele>590.0</ele><time>2026-05-02T06:15:05.999Z</time></trkpt><trkpt lat="43.354726517468826" lon="5.562095307054348"><ele>590.0</ele><time>2026-05-02T06:15:07.999Z</time></trkpt><trkpt lat="43.35473838100425" lon="5.562256526521212"><ele>590.0</ele><time>2026-05-02T06:15:09.999Z</time></trkpt><trkpt lat="43.35474536395138" lon="5.562345984739375"><ele>590.6666666666666</ele><time>2026-05-02T06:15:10.999Z</time></trkpt><trkpt lat="43.35472465528669" lon="5.562519074214027"><ele>591.3333333333333</ele><time>2026-05-02T06:15:12.999Z</time></trkpt><trkpt lat="43.354719634648" lon="5.562605700623778"><ele>592.0</ele><time>2026-05-02T06:15:13.999Z</time></trkpt><trkpt lat="43.35471466319764" lon="5.562692998357499"><ele>592.6666666666666</ele><time>2026-05-02T06:15:14.999Z</time></trkpt><trkpt lat="43.354725409059164" lon="5.562786013850021"><ele>593.3333333333334</ele><time>2026-05-02T06:15:15.999Z</time></trkpt><trkpt lat="43.35471893083554" lon="5.562890446726011"><ele>594.0</ele><time>2026-05-02T06:15:16.999Z</time></trkpt><trkpt lat="43.35469289449296" lon="5.5629858566740715"><ele>594.0</ele><time>2026-05-02T06:15:17.999Z</time></trkpt><trkpt lat="43.354680390690966" lon="5.563072154732813"><ele>594.0</ele><time>2026-05-02T06:15:18.999Z</time></trkpt><trkpt lat="43.35466259543518" lon="5.563163848800087"><ele>594.0</ele><time>2026-05-02T06:15:19.999Z</time></trkpt><trkpt lat="43.35461815443293" lon="5.563311881108194"><ele>594.0</ele><time>2026-05-02T06:15:21.999Z</time></trkpt><trkpt lat="43.35458268589929" lon="5.563453863284834"><ele>594.0</ele><time>2026-05-02T06:15:23.999Z</time></trkpt><trkpt lat="43.35458243931773" lon="5.563594060311844"><ele>590.5</ele><time>2026-05-02T06:15:25.999Z</time></trkpt><trkpt lat="43.354707913916656" lon="5.5636649334158665"><ele>587.0</ele><time>2026-05-02T06:15:27.999Z</time></trkpt><trkpt lat="43.354783185791966" lon="5.563610575525393"><ele>583.5</ele><time>2026-05-02T06:15:28.999Z</time></trkpt><trkpt lat="43.354850184550166" lon="5.563573616245577"><ele>580.0</ele><time>2026-05-02T06:15:29.999Z</time></trkpt><trkpt lat="43.354920243072975" lon="5.56353724352587"><ele>576.5</ele><time>2026-05-02T06:15:30.999Z</time></trkpt><trkpt lat="43.35499205951547" lon="5.563518930907942"><ele>573.0</ele><time>2026-05-02T06:15:31.999Z</time></trkpt><trkpt lat="43.35506602414469" lon="5.563513606800206"><ele>573.0</ele><time>2026-05-02T06:15:32.999Z</time></trkpt><trkpt lat="43.35513666711832" lon="5.563524256905882"><ele>573.0</ele><time>2026-05-02T06:15:34Z</time></trkpt><trkpt lat="43.355203983808174" lon="5.563542663329713"><ele>573.0</ele><time>2026-05-02T06:15:35Z</time></trkpt><trkpt lat="43.35526898722499" lon="5.563573598887909"><ele>573.0</ele><time>2026-05-02T06:15:36Z</time></trkpt><trkpt lat="43.35532768636109" lon="5.563609701503257"><ele>573.0</ele><time>2026-05-02T06:15:37Z</time></trkpt><trkpt lat="43.35543198909805" lon="5.563698987887841"><ele>573.0</ele><time>2026-05-02T06:15:39Z</time></trkpt><trkpt lat="43.35549746496422" lon="5.563726579202743"><ele>572.75</ele><time>2026-05-02T06:15:40Z</time></trkpt><trkpt lat="43.35559836640757" lon="5.563829950114329"><ele>572.5</ele><time>2026-05-02T06:15:42Z</time></trkpt><trkpt lat="43.355692464387545" lon="5.563924463096646"><ele>572.25</ele><time>2026-05-02T06:15:44Z</time></trkpt><trkpt lat="43.355789255827396" lon="5.564011674466804"><ele>572.0</ele><time>2026-05-02T06:15:46Z</time></trkpt><trkpt lat="43.35588248720069" lon="5.564100220940705"><ele>572.0</ele><time>2026-05-02T06:15:48Z</time></trkpt><trkpt lat="43.3559869963938" lon="5.5641704991931045"><ele>572.0</ele><time>2026-05-02T06:15:50Z</time></trkpt><trkpt lat="43.35608363949575" lon="5.564243648100009"><ele>572.0</ele><time>2026-05-02T06:15:52Z</time></trkpt><trkpt lat="43.35617238824386" lon="5.564340210039379"><ele>572.0</ele><time>2026-05-02T06:15:54Z</time></trkpt><trkpt lat="43.3562495579308" lon="5.564438561085651"><ele>572.0</ele><time>2026-05-02T06:15:56Z</time></trkpt><trkpt lat="43.35630699398832" lon="5.564541385509133"><ele>570.75</ele><time>2026-05-02T06:15:58Z</time></trkpt><trkpt lat="43.356375078088405" lon="5.564641027260565"><ele>569.5</ele><time>2026-05-02T06:16:00Z</time></trkpt><trkpt lat="43.356454511179756" lon="5.564748349176018"><ele>568.25</ele><time>2026-05-02T06:16:02Z</time></trkpt><trkpt lat="43.35646624978485" lon="5.564941965660349"><ele>567.0</ele><time>2026-05-02T06:16:05Z</time></trkpt><trkpt lat="43.35643029664508" lon="5.565104522956433"><ele>567.0</ele><time>2026-05-02T06:16:07Z</time></trkpt><trkpt lat="43.356423377855016" lon="5.5652603456222955"><ele>567.0</ele><time>2026-05-02T06:16:09Z</time></trkpt><trkpt lat="43.3564703233463" lon="5.565342574935208"><ele>567.0</ele><time>2026-05-02T06:16:10Z</time></trkpt><trkpt lat="43.35655390844501" lon="5.565345971121628"><ele>567.0</ele><time>2026-05-02T06:16:11Z</time></trkpt><trkpt lat="43.356646459864244" lon="5.5653986603717"><ele>567.0</ele><time>2026-05-02T06:16:13Z</time></trkpt><trkpt lat="43.356730289073624" lon="5.565472686305707"><ele>569.5</ele><time>2026-05-02T06:16:15Z</time></trkpt><trkpt lat="43.35678239787037" lon="5.565595254004681"><ele>572.0</ele><time>2026-05-02T06:16:17Z</time></trkpt><trkpt lat="43.35681414978258" lon="5.5657500586171125"><ele>574.5</ele><time>2026-05-02T06:16:19Z</time></trkpt><trkpt lat="43.356857851490325" lon="5.5658176402685635"><ele>577.0</ele><time>2026-05-02T06:16:20Z</time></trkpt><trkpt lat="43.356915881802415" lon="5.56586075178829"><ele>579.5</ele><time>2026-05-02T06:16:21Z</time></trkpt><trkpt lat="43.356982119134045" lon="5.5658559899039854"><ele>582.0</ele><time>2026-05-02T06:16:22Z</time></trkpt><trkpt lat="43.35709452365956" lon="5.565875300559221"><ele>582.0</ele><time>2026-05-02T06:16:24Z</time></trkpt><trkpt lat="43.35719449461697" lon="5.5658879511460935"><ele>582.0</ele><time>2026-05-02T06:16:26Z</time></trkpt><trkpt lat="43.35729396308215" lon="5.565877620618714"><ele>582.0</ele><time>2026-05-02T06:16:28Z</time></trkpt><trkpt lat="43.3573955010455" lon="5.5659061520726745"><ele>582.0</ele><time>2026-05-02T06:16:30Z</time></trkpt><trkpt lat="43.35749799765963" lon="5.565945360703964"><ele>582.0</ele><time>2026-05-02T06:16:32Z</time></trkpt><trkpt lat="43.35754282543956" lon="5.566014690365717"><ele>581.2</ele><time>2026-05-02T06:16:33Z</time></trkpt><trkpt lat="43.357620618844926" lon="5.566120423024443"><ele>580.4000000000001</ele><time>2026-05-02T06:16:35Z</time></trkpt><trkpt lat="43.35767616180015" lon="5.566236855119604"><ele>579.5999999999999</ele><time>2026-05-02T06:16:36.999Z</time></trkpt><trkpt lat="43.357721638108124" lon="5.566351069179146"><ele>578.8</ele><time>2026-05-02T06:16:38.999Z</time></trkpt><trkpt lat="43.35775712111768" lon="5.5664626653777125"><ele>578.0</ele><time>2026-05-02T06:16:40.999Z</time></trkpt><trkpt lat="43.35778099195775" lon="5.56658269044055"><ele>578.0</ele><time>2026-05-02T06:16:42.999Z</time></trkpt><trkpt lat="43.35779239267618" lon="5.566704326426333"><ele>578.0</ele><time>2026-05-02T06:16:44.999Z</time></trkpt><trkpt lat="43.357800003932745" lon="5.566834795750825"><ele>578.0</ele><time>2026-05-02T06:16:46.999Z</time></trkpt><trkpt lat="43.35780224978784" lon="5.566946176462054"><ele>578.0</ele><time>2026-05-02T06:16:48.999Z</time></trkpt><trkpt lat="43.357802249788264" lon="5.5670714847840115"><ele>578.0</ele><time>2026-05-02T06:16:50.999Z</time></trkpt><trkpt lat="43.357801954546744" lon="5.567190977813324"><ele>578.0</ele><time>2026-05-02T06:16:52.999Z</time></trkpt><trkpt lat="43.357801531283506" lon="5.567313597136468"><ele>579.3333333333333</ele><time>2026-05-02T06:16:54.999Z</time></trkpt><trkpt lat="43.35780424556436" lon="5.567440576672672"><ele>580.6666666666666</ele><time>2026-05-02T06:16:56.999Z</time></trkpt><trkpt lat="43.35782447633272" lon="5.567562711817132"><ele>582.0</ele><time>2026-05-02T06:16:58.999Z</time></trkpt><trkpt lat="43.357880936020905" lon="5.567648394313917"><ele>583.3333333333334</ele><time>2026-05-02T06:17:00.999Z</time></trkpt><trkpt lat="43.35791082430287" lon="5.567729642912695"><ele>584.6666666666667</ele><time>2026-05-02T06:17:02.999Z</time></trkpt><trkpt lat="43.35795021432986" lon="5.567818195891518"><ele>586.0</ele><time>2026-05-02T06:17:04.999Z</time></trkpt><trkpt lat="43.357989110832435" lon="5.567912762844175"><ele>583.0</ele><time>2026-05-02T06:17:06.999Z</time></trkpt><trkpt lat="43.358040595979936" lon="5.568021061279674"><ele>580.0</ele><time>2026-05-02T06:17:08.999Z</time></trkpt><trkpt lat="43.358075417023144" lon="5.568149739102684"><ele>577.0</ele><time>2026-05-02T06:17:10.999Z</time></trkpt><trkpt lat="43.35812431414713" lon="5.568274907878735"><ele>574.0</ele><time>2026-05-02T06:17:12.999Z</time></trkpt><trkpt lat="43.358196780277154" lon="5.568382805741357"><ele>571.0</ele><time>2026-05-02T06:17:14.999Z</time></trkpt><trkpt lat="43.358304840617826" lon="5.568436337659024"><ele>571.0</ele><time>2026-05-02T06:17:16.999Z</time></trkpt><trkpt lat="43.35839455236251" lon="5.568446745475372"><ele>571.0</ele><time>2026-05-02T06:17:18.999Z</time></trkpt><trkpt lat="43.358483711946995" lon="5.568465176037105"><ele>571.0</ele><time>2026-05-02T06:17:20.999Z</time></trkpt><trkpt lat="43.35857316792707" lon="5.568458947392448"><ele>571.0</ele><time>2026-05-02T06:17:22.999Z</time></trkpt><trkpt lat="43.35866239552547" lon="5.56848812029246"><ele>571.0</ele><time>2026-05-02T06:17:24.999Z</time></trkpt><trkpt lat="43.3587277956259" lon="5.568583950340042"><ele>571.0</ele><time>2026-05-02T06:17:26.999Z</time></trkpt><trkpt lat="43.358820683385716" lon="5.568672646578622"><ele>571.0</ele><time>2026-05-02T06:17:28.999Z</time></trkpt><trkpt lat="43.358918747960765" lon="5.568762677674815"><ele>571.0</ele><time>2026-05-02T06:17:30.999Z</time></trkpt><trkpt lat="43.35902719575386" lon="5.5688395945378755"><ele>571.0</ele><time>2026-05-02T06:17:32.999Z</time></trkpt><trkpt lat="43.35908846632959" lon="5.568886236903615"><ele>571.0</ele><time>2026-05-02T06:17:33.999Z</time></trkpt><trkpt lat="43.35914450634219" lon="5.568945181863334"><ele>570.4</ele><time>2026-05-02T06:17:34.999Z</time></trkpt><trkpt lat="43.35918793602333" lon="5.569010797139281"><ele>569.8</ele><time>2026-05-02T06:17:35.999Z</time></trkpt><trkpt lat="43.359202006953055" lon="5.569102011423172"><ele>569.1999999999999</ele><time>2026-05-02T06:17:36.999Z</time></trkpt><trkpt lat="43.35921769324936" lon="5.569262931705288"><ele>568.6</ele><time>2026-05-02T06:17:38.999Z</time></trkpt><trkpt lat="43.35918686349737" lon="5.5694181730316785"><ele>568.0</ele><time>2026-05-02T06:17:41Z</time></trkpt><trkpt lat="43.35914929190968" lon="5.569571339522495"><ele>568.0</ele><time>2026-05-02T06:17:43Z</time></trkpt><trkpt lat="43.35914030100746" lon="5.569671796866094"><ele>568.0</ele><time>2026-05-02T06:17:44Z</time></trkpt><trkpt lat="43.359161462540065" lon="5.569771434554534"><ele>568.0</ele><time>2026-05-02T06:17:45Z</time></trkpt><trkpt lat="43.35922773381313" lon="5.569835273380142"><ele>568.0</ele><time>2026-05-02T06:17:46Z</time></trkpt><trkpt lat="43.35931830852277" lon="5.569931905851541"><ele>568.0</ele><time>2026-05-02T06:17:48Z</time></trkpt><trkpt lat="43.35938673343357" lon="5.570033439409437"><ele>568.0</ele><time>2026-05-02T06:17:50Z</time></trkpt><trkpt lat="43.359439917119154" lon="5.570139369378143"><ele>568.0</ele><time>2026-05-02T06:17:52Z</time></trkpt><trkpt lat="43.3594919968996" lon="5.570257137444123"><ele>568.0</ele><time>2026-05-02T06:17:54Z</time></trkpt><trkpt lat="43.35952707370696" lon="5.570382707250325"><ele>568.0</ele><time>2026-05-02T06:17:56Z</time></trkpt><trkpt lat="43.35955237467765" lon="5.5705069248383685"><ele>568.0</ele><time>2026-05-02T06:17:58Z</time></trkpt><trkpt lat="43.35957243612569" lon="5.570633216685315"><ele>568.0</ele><time>2026-05-02T06:18:00Z</time></trkpt><trkpt lat="43.35958398158712" lon="5.570754644891353"><ele>570.1999999999999</ele><time>2026-05-02T06:18:02Z</time></trkpt><trkpt lat="43.35960614739138" lon="5.570872574300493"><ele>572.4</ele><time>2026-05-02T06:18:04Z</time></trkpt><trkpt lat="43.35962054446987" lon="5.570996302192375"><ele>574.5999999999999</ele><time>2026-05-02T06:18:06Z</time></trkpt><trkpt lat="43.359637758989" lon="5.57112360257496"><ele>576.8</ele><time>2026-05-02T06:18:08Z</time></trkpt><trkpt lat="43.359657769958574" lon="5.571250861090881"><ele>579.0</ele><time>2026-05-02T06:18:10Z</time></trkpt><trkpt lat="43.35969409036782" lon="5.571373711602738"><ele>575.6</ele><time>2026-05-02T06:18:12Z</time></trkpt><trkpt lat="43.35976018884483" lon="5.571495084518154"><ele>572.2</ele><time>2026-05-02T06:18:14Z</time></trkpt><trkpt lat="43.35983865997137" lon="5.571608384379208"><ele>568.8000000000001</ele><time>2026-05-02T06:18:16Z</time></trkpt><trkpt lat="43.3599245910322" lon="5.571696898566882"><ele>565.4</ele><time>2026-05-02T06:18:18Z</time></trkpt><trkpt lat="43.35999954823789" lon="5.571803705581658"><ele>562.0</ele><time>2026-05-02T06:18:20Z</time></trkpt><trkpt lat="43.360065834929316" lon="5.571898286307732"><ele>562.0</ele><time>2026-05-02T06:18:22Z</time></trkpt><trkpt lat="43.360128904847784" lon="5.5719822631863565"><ele>562.0</ele><time>2026-05-02T06:18:24Z</time></trkpt><trkpt lat="43.36017955916097" lon="5.572065142015172"><ele>562.0</ele><time>2026-05-02T06:18:26Z</time></trkpt><trkpt lat="43.360234219888376" lon="5.572149207398214"><ele>562.0</ele><time>2026-05-02T06:18:28Z</time></trkpt><trkpt lat="43.36028710743104" lon="5.572263835220966"><ele>562.0</ele><time>2026-05-02T06:18:30Z</time></trkpt><trkpt lat="43.36032958862156" lon="5.5723850845971885"><ele>562.0</ele><time>2026-05-02T06:18:32Z</time></trkpt><trkpt lat="43.360384228096386" lon="5.572545759631505"><ele>564.0</ele><time>2026-05-02T06:18:34Z</time></trkpt><trkpt lat="43.36041707445532" lon="5.572632407830794"><ele>566.0</ele><time>2026-05-02T06:18:35Z</time></trkpt><trkpt lat="43.36046473508875" lon="5.572719213502237"><ele>568.0</ele><time>2026-05-02T06:18:36Z</time></trkpt><trkpt lat="43.36051565358893" lon="5.572814586301974"><ele>570.0</ele><time>2026-05-02T06:18:37Z</time></trkpt><trkpt lat="43.36056643081423" lon="5.572908257600351"><ele>572.0</ele><time>2026-05-02T06:18:38Z</time></trkpt><trkpt lat="43.360619874499484" lon="5.573009248351395"><ele>574.0</ele><time>2026-05-02T06:18:38.999Z</time></trkpt><trkpt lat="43.3606628267178" lon="5.573113372364582"><ele>568.6</ele><time>2026-05-02T06:18:39.999Z</time></trkpt><trkpt lat="43.360710269932206" lon="5.573219289466428"><ele>563.2</ele><time>2026-05-02T06:18:40.999Z</time></trkpt><trkpt lat="43.36075586445552" lon="5.57332801210507"><ele>557.8000000000001</ele><time>2026-05-02T06:18:41.999Z</time></trkpt><trkpt lat="43.36080334414472" lon="5.573437389210826"><ele>552.4</ele><time>2026-05-02T06:18:42.999Z</time></trkpt><trkpt lat="43.360850543150875" lon="5.573543093917378"><ele>547.0</ele><time>2026-05-02T06:18:43.999Z</time></trkpt><trkpt lat="43.36089179311784" lon="5.573649838516067"><ele>548.1666666666667</ele><time>2026-05-02T06:18:44.999Z</time></trkpt><trkpt lat="43.36093021371002" lon="5.573758034897967"><ele>549.3333333333334</ele><time>2026-05-02T06:18:45.999Z</time></trkpt><trkpt lat="43.36095927856466" lon="5.573865022207742"><ele>550.5</ele><time>2026-05-02T06:18:46.999Z</time></trkpt><trkpt lat="43.360962488863386" lon="5.573978895658214"><ele>551.6666666666666</ele><time>2026-05-02T06:18:47.999Z</time></trkpt><trkpt lat="43.36097827832585" lon="5.574094585059619"><ele>552.8333333333333</ele><time>2026-05-02T06:18:48.999Z</time></trkpt><trkpt lat="43.3609720317508" lon="5.5741938235239425"><ele>554.0</ele><time>2026-05-02T06:18:49.999Z</time></trkpt><trkpt lat="43.36096605083981" lon="5.574296729598652"><ele>554.0</ele><time>2026-05-02T06:18:50.999Z</time></trkpt><trkpt lat="43.36095877179339" lon="5.574395152799115"><ele>554.0</ele><time>2026-05-02T06:18:51.999Z</time></trkpt><trkpt lat="43.36094770186196" lon="5.574486258342248"><ele>554.0</ele><time>2026-05-02T06:18:52.999Z</time></trkpt><trkpt lat="43.36093638324528" lon="5.574577164621345"><ele>554.0</ele><time>2026-05-02T06:18:53.999Z</time></trkpt><trkpt lat="43.36092571339117" lon="5.574662785628611"><ele>554.0</ele><time>2026-05-02T06:18:54.999Z</time></trkpt><trkpt lat="43.3609044547257" lon="5.574817011030729"><ele>554.0</ele><time>2026-05-02T06:18:56.999Z</time></trkpt><trkpt lat="43.36089061729169" lon="5.574984494579644"><ele>553.6</ele><time>2026-05-02T06:18:58.999Z</time></trkpt><trkpt lat="43.36089290695275" lon="5.575073768702839"><ele>553.2</ele><time>2026-05-02T06:18:59.999Z</time></trkpt><trkpt lat="43.36091241318128" lon="5.5752466109397405"><ele>552.8000000000001</ele><time>2026-05-02T06:19:01.999Z</time></trkpt><trkpt lat="43.36092602215585" lon="5.575334843414202"><ele>552.4</ele><time>2026-05-02T06:19:02.999Z</time></trkpt><trkpt lat="43.3609492343095" lon="5.575498472901494"><ele>552.0</ele><time>2026-05-02T06:19:04.999Z</time></trkpt><trkpt lat="43.360963294490105" lon="5.575673503234858"><ele>551.4</ele><time>2026-05-02T06:19:06.999Z</time></trkpt><trkpt lat="43.36097857809833" lon="5.575762690189452"><ele>550.8000000000001</ele><time>2026-05-02T06:19:07.999Z</time></trkpt><trkpt lat="43.36103232558203" lon="5.57591481186661"><ele>550.2</ele><time>2026-05-02T06:19:09.999Z</time></trkpt><trkpt lat="43.361071103105054" lon="5.576080053551653"><ele>549.6</ele><time>2026-05-02T06:19:11.999Z</time></trkpt><trkpt lat="43.36111022377972" lon="5.576236329074424"><ele>549.0</ele><time>2026-05-02T06:19:13.999Z</time></trkpt><trkpt lat="43.36115747444057" lon="5.576388447647531"><ele>548.5</ele><time>2026-05-02T06:19:15.999Z</time></trkpt><trkpt lat="43.36118368455218" lon="5.576471685148062"><ele>548.0</ele><time>2026-05-02T06:19:16.999Z</time></trkpt><trkpt lat="43.361210915468305" lon="5.576554888603776"><ele>547.5</ele><time>2026-05-02T06:19:17.999Z</time></trkpt><trkpt lat="43.361243262517576" lon="5.576637463999958"><ele>547.0</ele><time>2026-05-02T06:19:18.999Z</time></trkpt><trkpt lat="43.361289990805616" lon="5.576804936480289"><ele>546.5</ele><time>2026-05-02T06:19:20.999Z</time></trkpt><trkpt lat="43.36131536789608" lon="5.5769075013690195"><ele>546.0</ele><time>2026-05-02T06:19:21.999Z</time></trkpt><trkpt lat="43.36133102610337" lon="5.577008172145135"><ele>545.1428571428571</ele><time>2026-05-02T06:19:22.999Z</time></trkpt><trkpt lat="43.36134230550632" lon="5.577107117109957"><ele>544.2857142857142</ele><time>2026-05-02T06:19:23.999Z</time></trkpt><trkpt lat="43.361353181319075" lon="5.577192652417881"><ele>543.4285714285714</ele><time>2026-05-02T06:19:24.999Z</time></trkpt><trkpt lat="43.36136844156599" lon="5.577279309435318"><ele>542.5714285714286</ele><time>2026-05-02T06:19:25.999Z</time></trkpt><trkpt lat="43.36140705371777" lon="5.577398319533811"><ele>541.7142857142857</ele><time>2026-05-02T06:19:27.999Z</time></trkpt><trkpt lat="43.36147642578776" lon="5.577470307688799"><ele>540.8571428571429</ele><time>2026-05-02T06:19:29.999Z</time></trkpt><trkpt lat="43.361540670334314" lon="5.577476885744277"><ele>540.0</ele><time>2026-05-02T06:19:31.999Z</time></trkpt><trkpt lat="43.361598979060304" lon="5.577415656210104"><ele>539.1666666666666</ele><time>2026-05-02T06:19:33.999Z</time></trkpt><trkpt lat="43.36165832488575" lon="5.577284477732837"><ele>538.3333333333334</ele><time>2026-05-02T06:19:35.999Z</time></trkpt><trkpt lat="43.36169119427852" lon="5.577206005861261"><ele>537.5</ele><time>2026-05-02T06:19:36.999Z</time></trkpt><trkpt lat="43.36177710795534" lon="5.577082588836901"><ele>536.6666666666667</ele><time>2026-05-02T06:19:38.999Z</time></trkpt><trkpt lat="43.3618254614187" lon="5.577016339656767"><ele>535.8333333333334</ele><time>2026-05-02T06:19:39.999Z</time></trkpt><trkpt lat="43.36188589697269" lon="5.576950451539237"><ele>535.0</ele><time>2026-05-02T06:19:40.999Z</time></trkpt><trkpt lat="43.361950756323964" lon="5.576891491989976"><ele>535.0</ele><time>2026-05-02T06:19:41.999Z</time></trkpt><trkpt lat="43.36202112792271" lon="5.576833600798613"><ele>535.0</ele><time>2026-05-02T06:19:42.999Z</time></trkpt><trkpt lat="43.362088899949505" lon="5.5767833992680185"><ele>535.0</ele><time>2026-05-02T06:19:43.999Z</time></trkpt><trkpt lat="43.36215223382376" lon="5.57673653758414"><ele>535.0</ele><time>2026-05-02T06:19:44.999Z</time></trkpt><trkpt lat="43.36220969420048" lon="5.576693472886669"><ele>535.0</ele><time>2026-05-02T06:19:46Z</time></trkpt><trkpt lat="43.36227756044847" lon="5.576673017294459"><ele>535.0</ele><time>2026-05-02T06:19:47Z</time></trkpt><trkpt lat="43.36233147502225" lon="5.576624156321013"><ele>535.0</ele><time>2026-05-02T06:19:48Z</time></trkpt><trkpt lat="43.36243820323754" lon="5.576558051032579"><ele>531.6</ele><time>2026-05-02T06:19:50Z</time></trkpt><trkpt lat="43.36254631389487" lon="5.57653243909894"><ele>528.2</ele><time>2026-05-02T06:19:52Z</time></trkpt><trkpt lat="43.362665238825194" lon="5.576492532057621"><ele>524.8</ele><time>2026-05-02T06:19:54Z</time></trkpt><trkpt lat="43.36273315130012" lon="5.57647576210328"><ele>521.4</ele><time>2026-05-02T06:19:55Z</time></trkpt><trkpt lat="43.36283049877125" lon="5.576432045519653"><ele>518.0</ele><time>2026-05-02T06:19:57Z</time></trkpt><trkpt lat="43.362926331441756" lon="5.576437233546754"><ele>518.0</ele><time>2026-05-02T06:19:59Z</time></trkpt><trkpt lat="43.36299015864249" lon="5.576428948467939"><ele>518.0</ele><time>2026-05-02T06:20:00Z</time></trkpt><trkpt lat="43.363115152391394" lon="5.576468123013777"><ele>518.0</ele><time>2026-05-02T06:20:02Z</time></trkpt><trkpt lat="43.363181113430414" lon="5.576502590404073"><ele>518.0</ele><time>2026-05-02T06:20:03Z</time></trkpt><trkpt lat="43.36324176414022" lon="5.576550913645744"><ele>518.0</ele><time>2026-05-02T06:20:04Z</time></trkpt><trkpt lat="43.363305628538" lon="5.576604331171953"><ele>518.0</ele><time>2026-05-02T06:20:05Z</time></trkpt><trkpt lat="43.363357644524044" lon="5.5766536649530485"><ele>515.4</ele><time>2026-05-02T06:20:06Z</time></trkpt><trkpt lat="43.36340904009462" lon="5.57670781834307"><ele>512.8</ele><time>2026-05-02T06:20:07Z</time></trkpt><trkpt lat="43.363468665719694" lon="5.576745255636429"><ele>510.2</ele><time>2026-05-02T06:20:08Z</time></trkpt><trkpt lat="43.36357751112228" lon="5.576738861280372"><ele>507.6</ele><time>2026-05-02T06:20:10Z</time></trkpt><trkpt lat="43.36365460762216" lon="5.576633921096216"><ele>505.0</ele><time>2026-05-02T06:20:12Z</time></trkpt><trkpt lat="43.36370052692604" lon="5.576493020543335"><ele>505.0</ele><time>2026-05-02T06:20:14Z</time></trkpt><trkpt lat="43.3637352291111" lon="5.576345072042754"><ele>505.0</ele><time>2026-05-02T06:20:16Z</time></trkpt><trkpt lat="43.36379348894712" lon="5.576256435861502"><ele>505.0</ele><time>2026-05-02T06:20:18Z</time></trkpt><trkpt lat="43.36389691422991" lon="5.576348092056853"><ele>505.0</ele><time>2026-05-02T06:20:20Z</time></trkpt><trkpt lat="43.36396726934241" lon="5.576477084218375"><ele>505.0</ele><time>2026-05-02T06:20:22Z</time></trkpt><trkpt lat="43.36402979011174" lon="5.576622837430912"><ele>501.2</ele><time>2026-05-02T06:20:24Z</time></trkpt><trkpt lat="43.36405319066462" lon="5.5767048124922525"><ele>497.4</ele><time>2026-05-02T06:20:25Z</time></trkpt><trkpt lat="43.364088043590996" lon="5.576864107238568"><ele>493.6</ele><time>2026-05-02T06:20:27Z</time></trkpt><trkpt lat="43.36408282112615" lon="5.576956002182987"><ele>489.8</ele><time>2026-05-02T06:20:28Z</time></trkpt><trkpt lat="43.36410471619684" lon="5.577109425372857"><ele>486.0</ele><time>2026-05-02T06:20:30Z</time></trkpt><trkpt lat="43.36411907229465" lon="5.577261656620806"><ele>484.6</ele><time>2026-05-02T06:20:32Z</time></trkpt><trkpt lat="43.36411973126431" lon="5.577404650535042"><ele>483.20000000000005</ele><time>2026-05-02T06:20:34Z</time></trkpt><trkpt lat="43.3641926397186" lon="5.577470555224196"><ele>481.79999999999995</ele><time>2026-05-02T06:20:36Z</time></trkpt><trkpt lat="43.36429914949767" lon="5.577385408191659"><ele>480.4</ele><time>2026-05-02T06:20:38Z</time></trkpt><trkpt lat="43.364329035528776" lon="5.57729517061965"><ele>479.0</ele><time>2026-05-02T06:20:39Z</time></trkpt><trkpt lat="43.36434738783905" lon="5.5771296506500745"><ele>480.16666666666663</ele><time>2026-05-02T06:20:41Z</time></trkpt><trkpt lat="43.364395141085836" lon="5.576967602791552"><ele>481.3333333333333</ele><time>2026-05-02T06:20:43Z</time></trkpt><trkpt lat="43.364414706124876" lon="5.576867355013392"><ele>482.5</ele><time>2026-05-02T06:20:44Z</time></trkpt><trkpt lat="43.36441584134679" lon="5.576759299872721"><ele>483.66666666666663</ele><time>2026-05-02T06:20:45Z</time></trkpt><trkpt lat="43.36444439419509" lon="5.576650971647783"><ele>484.8333333333333</ele><time>2026-05-02T06:20:45.999Z</time></trkpt><trkpt lat="43.36445351053306" lon="5.57653929266069"><ele>486.0</ele><time>2026-05-02T06:20:46.999Z</time></trkpt><trkpt lat="43.36446153089324" lon="5.5764171588858975"><ele>486.0</ele><time>2026-05-02T06:20:47.999Z</time></trkpt><trkpt lat="43.36446833704575" lon="5.576278091787446"><ele>486.0</ele><time>2026-05-02T06:20:48.999Z</time></trkpt><trkpt lat="43.364473203412544" lon="5.576163421060416"><ele>486.0</ele><time>2026-05-02T06:20:49.999Z</time></trkpt><trkpt lat="43.36447310750079" lon="5.5760519320644155"><ele>486.0</ele><time>2026-05-02T06:20:50.999Z</time></trkpt><trkpt lat="43.36447606760288" lon="5.57595570312139"><ele>486.0</ele><time>2026-05-02T06:20:51.999Z</time></trkpt><trkpt lat="43.36446839607176" lon="5.575850791538516"><ele>486.0</ele><time>2026-05-02T06:20:52.999Z</time></trkpt><trkpt lat="43.36452675697603" lon="5.575769462142027"><ele>485.42857142857144</ele><time>2026-05-02T06:20:53.999Z</time></trkpt><trkpt lat="43.36458599955362" lon="5.575718468149792"><ele>484.8571428571429</ele><time>2026-05-02T06:20:54.999Z</time></trkpt><trkpt lat="43.36464225747677" lon="5.575646489026849"><ele>484.28571428571433</ele><time>2026-05-02T06:20:55.999Z</time></trkpt><trkpt lat="43.36468894507828" lon="5.575583721200785"><ele>483.7142857142857</ele><time>2026-05-02T06:20:56.999Z</time></trkpt><trkpt lat="43.36473889838759" lon="5.575509845237956"><ele>483.1428571428572</ele><time>2026-05-02T06:20:57.999Z</time></trkpt><trkpt lat="43.36478116745434" lon="5.57544257676544"><ele>482.5714285714286</ele><time>2026-05-02T06:20:58.999Z</time></trkpt><trkpt lat="43.364825162487236" lon="5.575372561468254"><ele>482.0</ele><time>2026-05-02T06:20:59.999Z</time></trkpt><trkpt lat="43.36492735887872" lon="5.575280490638805"><ele>477.16666666666663</ele><time>2026-05-02T06:21:01.999Z</time></trkpt><trkpt lat="43.36499115718045" lon="5.5752599088231785"><ele>472.3333333333333</ele><time>2026-05-02T06:21:02.999Z</time></trkpt><trkpt lat="43.36505383071657" lon="5.575234197509826"><ele>467.5</ele><time>2026-05-02T06:21:03.999Z</time></trkpt><trkpt lat="43.365123807332445" lon="5.575185175472332"><ele>462.66666666666663</ele><time>2026-05-02T06:21:04.999Z</time></trkpt><trkpt lat="43.36520926553927" lon="5.57514372520633"><ele>457.8333333333333</ele><time>2026-05-02T06:21:05.999Z</time></trkpt><trkpt lat="43.36530530541237" lon="5.575129302918903"><ele>453.0</ele><time>2026-05-02T06:21:06.999Z</time></trkpt><trkpt lat="43.36539930494945" lon="5.575097353034029"><ele>453.0</ele><time>2026-05-02T06:21:07.999Z</time></trkpt><trkpt lat="43.365494664068855" lon="5.575070237494385"><ele>453.0</ele><time>2026-05-02T06:21:08.999Z</time></trkpt><trkpt lat="43.36558556199776" lon="5.575041114412259"><ele>453.0</ele><time>2026-05-02T06:21:09.999Z</time></trkpt><trkpt lat="43.36566290593355" lon="5.574998468440273"><ele>453.0</ele><time>2026-05-02T06:21:10.999Z</time></trkpt><trkpt lat="43.36573593339803" lon="5.574951747269344"><ele>453.0</ele><time>2026-05-02T06:21:11.999Z</time></trkpt><trkpt lat="43.36580917326195" lon="5.57491108972353"><ele>453.0</ele><time>2026-05-02T06:21:12.999Z</time></trkpt><trkpt lat="43.36588027034779" lon="5.5748687147177005"><ele>451.8333333333333</ele><time>2026-05-02T06:21:13.999Z</time></trkpt><trkpt lat="43.36599598792183" lon="5.574807509789651"><ele>450.66666666666663</ele><time>2026-05-02T06:21:15.999Z</time></trkpt><trkpt lat="43.36605628489408" lon="5.574772902415759"><ele>449.5</ele><time>2026-05-02T06:21:16.999Z</time></trkpt><trkpt lat="43.366121451392296" lon="5.574750924343225"><ele>448.3333333333333</ele><time>2026-05-02T06:21:17.999Z</time></trkpt><trkpt lat="43.36619418609457" lon="5.574750071300066"><ele>447.16666666666663</ele><time>2026-05-02T06:21:18.999Z</time></trkpt><trkpt lat="43.36626251531872" lon="5.574788074364094"><ele>446.0</ele><time>2026-05-02T06:21:19.999Z</time></trkpt><trkpt lat="43.366322001883916" lon="5.5748494310057755"><ele>444.3333333333333</ele><time>2026-05-02T06:21:20.999Z</time></trkpt><trkpt lat="43.3663833485815" lon="5.5748910315622275"><ele>442.66666666666663</ele><time>2026-05-02T06:21:21.999Z</time></trkpt><trkpt lat="43.366453299932914" lon="5.574914590345378"><ele>441.0</ele><time>2026-05-02T06:21:22.999Z</time></trkpt><trkpt lat="43.366537929192994" lon="5.574970045025395"><ele>439.33333333333337</ele><time>2026-05-02T06:21:24.999Z</time></trkpt><trkpt lat="43.36660976612077" lon="5.57499563996679"><ele>437.6666666666667</ele><time>2026-05-02T06:21:26.999Z</time></trkpt><trkpt lat="43.36670566639103" lon="5.574989711111289"><ele>436.0</ele><time>2026-05-02T06:21:28.999Z</time></trkpt><trkpt lat="43.366798072456305" lon="5.5749633809839905"><ele>436.00000000000006</ele><time>2026-05-02T06:21:30.999Z</time></trkpt><trkpt lat="43.36686302696217" lon="5.5749091556494825"><ele>436.0</ele><time>2026-05-02T06:21:32.999Z</time></trkpt><trkpt lat="43.36691035766022" lon="5.574833483416886"><ele>436.0</ele><time>2026-05-02T06:21:34.999Z</time></trkpt><trkpt lat="43.366906188229365" lon="5.574714126523156"><ele>436.0</ele><time>2026-05-02T06:21:36.999Z</time></trkpt><trkpt lat="43.3668509668164" lon="5.574661182478885"><ele>436.00000000000006</ele><time>2026-05-02T06:21:37.999Z</time></trkpt><trkpt lat="43.36674351719865" lon="5.57469888883772"><ele>436.0</ele><time>2026-05-02T06:21:39.999Z</time></trkpt><trkpt lat="43.366662978193055" lon="5.574743187508343"><ele>436.00000000000006</ele><time>2026-05-02T06:21:41.999Z</time></trkpt><trkpt lat="43.36656877052051" lon="5.5747252294833505"><ele>436.0</ele><time>2026-05-02T06:21:43.999Z</time></trkpt><trkpt lat="43.36648214121969" lon="5.574715005731018"><ele>436.0</ele><time>2026-05-02T06:21:45.999Z</time></trkpt><trkpt lat="43.36639633113189" lon="5.5746003894061325"><ele>436.0</ele><time>2026-05-02T06:21:47.999Z</time></trkpt><trkpt lat="43.36635396403072" lon="5.574535029329315"><ele>436.00000000000006</ele><time>2026-05-02T06:21:48.999Z</time></trkpt><trkpt lat="43.3663371454404" lon="5.574448671194914"><ele>436.0</ele><time>2026-05-02T06:21:49.999Z</time></trkpt><trkpt lat="43.366296048704356" lon="5.574376349292192"><ele>434.83333333333337</ele><time>2026-05-02T06:21:50.999Z</time></trkpt><trkpt lat="43.36625537034275" lon="5.574305007526994"><ele>433.6666666666667</ele><time>2026-05-02T06:21:52Z</time></trkpt><trkpt lat="43.36621475603337" lon="5.574234099200599"><ele>432.5</ele><time>2026-05-02T06:21:53Z</time></trkpt><trkpt lat="43.36617328884201" lon="5.574161621544835"><ele>431.33333333333337</ele><time>2026-05-02T06:21:54Z</time></trkpt><trkpt lat="43.366123594550025" lon="5.574100959199642"><ele>430.1666666666667</ele><time>2026-05-02T06:21:55Z</time></trkpt><trkpt lat="43.36610379858585" lon="5.574008991091599"><ele>429.0</ele><time>2026-05-02T06:21:56Z</time></trkpt><trkpt lat="43.366014633807424" lon="5.57389388053394"><ele>429.0</ele><time>2026-05-02T06:21:58Z</time></trkpt><trkpt lat="43.3659281715169" lon="5.573892861924028"><ele>429.0</ele><time>2026-05-02T06:21:59Z</time></trkpt><trkpt lat="43.365846155613305" lon="5.573882711780125"><ele>429.0</ele><time>2026-05-02T06:22:00Z</time></trkpt><trkpt lat="43.36577896927364" lon="5.57386580927994"><ele>429.0</ele><time>2026-05-02T06:22:01Z</time></trkpt><trkpt lat="43.36570274615188" lon="5.573838103435791"><ele>429.0</ele><time>2026-05-02T06:22:02Z</time></trkpt><trkpt lat="43.36562773042659" lon="5.573808657182186"><ele>429.0</ele><time>2026-05-02T06:22:03Z</time></trkpt><trkpt lat="43.36555917961619" lon="5.573777687879794"><ele>429.5</ele><time>2026-05-02T06:22:04Z</time></trkpt><trkpt lat="43.36549568300938" lon="5.573744457748281"><ele>430.0</ele><time>2026-05-02T06:22:05Z</time></trkpt><trkpt lat="43.365436507242165" lon="5.5737106565744705"><ele>430.5</ele><time>2026-05-02T06:22:06Z</time></trkpt><trkpt lat="43.365370102427065" lon="5.573671956554585"><ele>431.0</ele><time>2026-05-02T06:22:07Z</time></trkpt><trkpt lat="43.36531059956993" lon="5.573637278895543"><ele>431.5</ele><time>2026-05-02T06:22:08Z</time></trkpt><trkpt lat="43.3652111714705" lon="5.5735749476673035"><ele>432.0</ele><time>2026-05-02T06:22:10Z</time></trkpt><trkpt lat="43.36515902242625" lon="5.573430739246806"><ele>430.20000000000005</ele><time>2026-05-02T06:22:12Z</time></trkpt><trkpt lat="43.36520460989911" lon="5.573320205505565"><ele>428.40000000000003</ele><time>2026-05-02T06:22:13Z</time></trkpt><trkpt lat="43.365264804842795" lon="5.57320046272905"><ele>426.6</ele><time>2026-05-02T06:22:15Z</time></trkpt><trkpt lat="43.36528619459582" lon="5.5731129116089955"><ele>424.79999999999995</ele><time>2026-05-02T06:22:16Z</time></trkpt><trkpt lat="43.36529620435005" lon="5.57302183392649"><ele>423.0</ele><time>2026-05-02T06:22:17Z</time></trkpt><trkpt lat="43.36529777857878" lon="5.572848652624333"><ele>422.2</ele><time>2026-05-02T06:22:19Z</time></trkpt><trkpt lat="43.365292166972395" lon="5.572682587672039"><ele>421.4</ele><time>2026-05-02T06:22:21Z</time></trkpt><trkpt lat="43.36524574724317" lon="5.572540990993171"><ele>420.59999999999997</ele><time>2026-05-02T06:22:23Z</time></trkpt><trkpt lat="43.36517878315656" lon="5.57242464549857"><ele>419.79999999999995</ele><time>2026-05-02T06:22:25Z</time></trkpt><trkpt lat="43.365125617127255" lon="5.572295685273732"><ele>419.0</ele><time>2026-05-02T06:22:27Z</time></trkpt><trkpt lat="43.365103629937295" lon="5.572180192069088"><ele>419.0</ele><time>2026-05-02T06:22:29Z</time></trkpt><trkpt lat="43.365142164290084" lon="5.572045394685828"><ele>419.0</ele><time>2026-05-02T06:22:31Z</time></trkpt><trkpt lat="43.36518546306681" lon="5.571910315514341"><ele>419.0</ele><time>2026-05-02T06:22:33Z</time></trkpt><trkpt lat="43.365142483787956" lon="5.571758719177317"><ele>419.0</ele><time>2026-05-02T06:22:35Z</time></trkpt><trkpt lat="43.36510631688117" lon="5.571608576790552"><ele>419.0</ele><time>2026-05-02T06:22:37Z</time></trkpt><trkpt lat="43.36506421476498" lon="5.571460324068396"><ele>418.4</ele><time>2026-05-02T06:22:39Z</time></trkpt><trkpt lat="43.365015387679314" lon="5.571309412106558"><ele>417.79999999999995</ele><time>2026-05-02T06:22:41Z</time></trkpt><trkpt lat="43.36496508895863" lon="5.571168729227175"><ele>417.20000000000005</ele><time>2026-05-02T06:22:43Z</time></trkpt><trkpt lat="43.36491932217434" lon="5.571044002143689"><ele>416.6</ele><time>2026-05-02T06:22:45Z</time></trkpt><trkpt lat="43.364872124102476" lon="5.570919798118903"><ele>416.0</ele><time>2026-05-02T06:22:47Z</time></trkpt><trkpt lat="43.36487029216216" lon="5.570767938819673"><ele>415.99999999999994</ele><time>2026-05-02T06:22:48.999Z</time></trkpt><trkpt lat="43.364899819269155" lon="5.570617398450559"><ele>416.0</ele><time>2026-05-02T06:22:50.999Z</time></trkpt><trkpt lat="43.36489933864149" lon="5.570488545586854"><ele>416.0</ele><time>2026-05-02T06:22:52.999Z</time></trkpt><trkpt lat="43.36485514811129" lon="5.570390260973701"><ele>416.0</ele><time>2026-05-02T06:22:54.999Z</time></trkpt><trkpt lat="43.364790968450585" lon="5.5703388323358904"><ele>415.99999999999994</ele><time>2026-05-02T06:22:56.999Z</time></trkpt><trkpt lat="43.3647189708521" lon="5.570313958701625"><ele>416.0</ele><time>2026-05-02T06:22:58.999Z</time></trkpt><trkpt lat="43.36464914438938" lon="5.570291339940457"><ele>417.4285714285714</ele><time>2026-05-02T06:23:00.999Z</time></trkpt><trkpt lat="43.3645726324804" lon="5.570265515051819"><ele>418.8571428571429</ele><time>2026-05-02T06:23:02.999Z</time></trkpt><trkpt lat="43.36449626917346" lon="5.570239739402718"><ele>420.2857142857143</ele><time>2026-05-02T06:23:05.999Z</time></trkpt><trkpt lat="43.36442990251737" lon="5.570227812564374"><ele>421.71428571428567</ele><time>2026-05-02T06:23:24.999Z</time></trkpt><trkpt lat="43.36448613022665" lon="5.570311679065158"><ele>423.1428571428571</ele><time>2026-05-02T06:23:28.999Z</time></trkpt><trkpt lat="43.36450213010442" lon="5.570227431959465"><ele>424.57142857142856</ele><time>2026-05-02T06:23:31.999Z</time></trkpt><trkpt lat="43.364460045856106" lon="5.570159722047958"><ele>426.0</ele><time>2026-05-02T06:23:33.999Z</time></trkpt><trkpt lat="43.36444152675643" lon="5.570054327156314"><ele>426.0</ele><time>2026-05-02T06:23:35.999Z</time></trkpt><trkpt lat="43.364414976816974" lon="5.569915964139572"><ele>426.0</ele><time>2026-05-02T06:23:38.999Z</time></trkpt><trkpt lat="43.36439481634724" lon="5.569801597644918"><ele>426.0</ele><time>2026-05-02T06:23:40.999Z</time></trkpt><trkpt lat="43.36437929481703" lon="5.569693146713977"><ele>426.0</ele><time>2026-05-02T06:23:42.999Z</time></trkpt><trkpt lat="43.36433501305898" lon="5.569597140798343"><ele>426.0</ele><time>2026-05-02T06:23:44.999Z</time></trkpt><trkpt lat="43.36431164143797" lon="5.569489989823989"><ele>426.0</ele><time>2026-05-02T06:23:46.999Z</time></trkpt><trkpt lat="43.364318380007475" lon="5.569397114313046"><ele>426.1666666666667</ele><time>2026-05-02T06:23:48.999Z</time></trkpt><trkpt lat="43.36433179454099" lon="5.569289519236953"><ele>426.33333333333337</ele><time>2026-05-02T06:23:51.999Z</time></trkpt><trkpt lat="43.36428604377872" lon="5.569200294490745"><ele>426.5</ele><time>2026-05-02T06:23:55.998Z</time></trkpt><trkpt lat="43.364226678816884" lon="5.56911166016846"><ele>426.6666666666667</ele><time>2026-05-02T06:23:59Z</time></trkpt><trkpt lat="43.36416882754479" lon="5.569033401381625"><ele>426.83333333333337</ele><time>2026-05-02T06:24:01Z</time></trkpt><trkpt lat="43.36412313639217" lon="5.568928671196728"><ele>427.0</ele><time>2026-05-02T06:24:03Z</time></trkpt><trkpt lat="43.364071250778174" lon="5.568838906376698"><ele>427.0</ele><time>2026-05-02T06:24:05Z</time></trkpt><trkpt lat="43.36401777241177" lon="5.568746386050095"><ele>427.00000000000006</ele><time>2026-05-02T06:24:07Z</time></trkpt><trkpt lat="43.36396603886092" lon="5.568656884258004"><ele>427.00000000000006</ele><time>2026-05-02T06:24:09Z</time></trkpt><trkpt lat="43.36391143133372" lon="5.568558148708391"><ele>427.0</ele><time>2026-05-02T06:24:11Z</time></trkpt><trkpt lat="43.36384285863078" lon="5.5684321846295335"><ele>427.0</ele><time>2026-05-02T06:24:13Z</time></trkpt><trkpt lat="43.36377743355125" lon="5.568314623470426"><ele>427.0</ele><time>2026-05-02T06:24:15Z</time></trkpt><trkpt lat="43.36370732117454" lon="5.568232085483527"><ele>427.00000000000006</ele><time>2026-05-02T06:24:17Z</time></trkpt><trkpt lat="43.36363305216883" lon="5.568106329740937"><ele>427.00000000000006</ele><time>2026-05-02T06:24:19Z</time></trkpt><trkpt lat="43.363585263236686" lon="5.567947165221486"><ele>427.0</ele><time>2026-05-02T06:24:21Z</time></trkpt><trkpt lat="43.36354023064599" lon="5.56788249229157"><ele>427.0</ele><time>2026-05-02T06:24:22Z</time></trkpt><trkpt lat="43.36348575942156" lon="5.567738918246762"><ele>425.40000000000003</ele><time>2026-05-02T06:24:24Z</time></trkpt><trkpt lat="43.36348493981208" lon="5.5675828289473825"><ele>423.80000000000007</ele><time>2026-05-02T06:24:26Z</time></trkpt><trkpt lat="43.363504122769676" lon="5.567451385699223"><ele>422.2</ele><time>2026-05-02T06:24:28Z</time></trkpt><trkpt lat="43.36356013179272" lon="5.567378886122511"><ele>420.6</ele><time>2026-05-02T06:24:30Z</time></trkpt><trkpt lat="43.3636436175093" lon="5.56748266902783"><ele>419.0</ele><time>2026-05-02T06:24:32Z</time></trkpt><trkpt lat="43.363672582983604" lon="5.567564522433801"><ele>419.0</ele><time>2026-05-02T06:24:33Z</time></trkpt><trkpt lat="43.36373169209675" lon="5.567660228477387"><ele>419.0</ele><time>2026-05-02T06:24:35Z</time></trkpt><trkpt lat="43.36379068338149" lon="5.567472343627297"><ele>419.0</ele><time>2026-05-02T06:24:39Z</time></trkpt><trkpt lat="43.36376726134358" lon="5.567329660688512"><ele>419.0</ele><time>2026-05-02T06:24:41Z</time></trkpt><trkpt lat="43.36372161933207" lon="5.567168836097852"><ele>418.99999999999994</ele><time>2026-05-02T06:24:43Z</time></trkpt><trkpt lat="43.36368369688175" lon="5.567090816474338"><ele>419.0</ele><time>2026-05-02T06:24:44Z</time></trkpt><trkpt lat="43.36364417404045" lon="5.567016946948304"><ele>419.0</ele><time>2026-05-02T06:24:45Z</time></trkpt><trkpt lat="43.36361247076424" lon="5.56693146497443"><ele>419.0</ele><time>2026-05-02T06:24:46Z</time></trkpt><trkpt lat="43.363591315318494" lon="5.566848003622999"><ele>418.99999999999994</ele><time>2026-05-02T06:24:47Z</time></trkpt><trkpt lat="43.36355477935371" lon="5.566685266748839"><ele>419.0</ele><time>2026-05-02T06:24:49Z</time></trkpt><trkpt lat="43.3635239871295" lon="5.566528703108475"><ele>418.0</ele><time>2026-05-02T06:24:51Z</time></trkpt><trkpt lat="43.36348455212571" lon="5.566379623719252"><ele>417.0</ele><time>2026-05-02T06:24:52.999Z</time></trkpt><trkpt lat="43.36343944132736" lon="5.566229011803192"><ele>416.0</ele><time>2026-05-02T06:24:54.999Z</time></trkpt><trkpt lat="43.363395428782326" lon="5.566073370785237"><ele>415.0</ele><time>2026-05-02T06:24:56.999Z</time></trkpt><trkpt lat="43.36336161174764" lon="5.5659127490251965"><ele>414.25</ele><time>2026-05-02T06:24:58.999Z</time></trkpt><trkpt lat="43.36333563110009" lon="5.565764424240285"><ele>413.5</ele><time>2026-05-02T06:25:00.999Z</time></trkpt><trkpt lat="43.36330533695297" lon="5.56561679845666"><ele>412.75</ele><time>2026-05-02T06:25:02.999Z</time></trkpt><trkpt lat="43.3632783725049" lon="5.565455101750143"><ele>412.0</ele><time>2026-05-02T06:25:04.999Z</time></trkpt><trkpt lat="43.36323432457485" lon="5.565309638797258"><ele>412.0</ele><time>2026-05-02T06:25:06.999Z</time></trkpt><trkpt lat="43.36316139871306" lon="5.565204686285473"><ele>412.0</ele><time>2026-05-02T06:25:08.999Z</time></trkpt><trkpt lat="43.36312084411256" lon="5.5650806377924615"><ele>412.0</ele><time>2026-05-02T06:25:10.999Z</time></trkpt><trkpt lat="43.36308754101047" lon="5.564948256646407"><ele>412.0</ele><time>2026-05-02T06:25:12.999Z</time></trkpt><trkpt lat="43.36305883012323" lon="5.564822188092885"><ele>412.0</ele><time>2026-05-02T06:25:14.999Z</time></trkpt><trkpt lat="43.36303982110727" lon="5.5646982541095396"><ele>415.6</ele><time>2026-05-02T06:25:16.999Z</time></trkpt><trkpt lat="43.36302575119324" lon="5.564564316054748"><ele>419.20000000000005</ele><time>2026-05-02T06:25:18.999Z</time></trkpt><trkpt lat="43.36300832602477" lon="5.5644254679856635"><ele>422.8</ele><time>2026-05-02T06:25:20.999Z</time></trkpt><trkpt lat="43.362979134398344" lon="5.564296858639081"><ele>426.4</ele><time>2026-05-02T06:25:22.999Z</time></trkpt><trkpt lat="43.362944752903616" lon="5.56415542802583"><ele>430.0</ele><time>2026-05-02T06:25:24.999Z</time></trkpt><trkpt lat="43.36291039327878" lon="5.564005138405617"><ele>430.0</ele><time>2026-05-02T06:25:26.999Z</time></trkpt><trkpt lat="43.36287936671799" lon="5.56384854556894"><ele>430.0</ele><time>2026-05-02T06:25:28.999Z</time></trkpt><trkpt lat="43.36284643549604" lon="5.5636949850486035"><ele>430.0</ele><time>2026-05-02T06:25:30.999Z</time></trkpt><trkpt lat="43.36282125163835" lon="5.563546320543248"><ele>430.0</ele><time>2026-05-02T06:25:32.999Z</time></trkpt><trkpt lat="43.36278154750702" lon="5.563403714327094"><ele>428.4</ele><time>2026-05-02T06:25:34.999Z</time></trkpt><trkpt lat="43.36270620419917" lon="5.563300372133907"><ele>426.8</ele><time>2026-05-02T06:25:36.999Z</time></trkpt><trkpt lat="43.36261999984498" lon="5.563212672038847"><ele>425.20000000000005</ele><time>2026-05-02T06:25:38.999Z</time></trkpt><trkpt lat="43.36253499131249" lon="5.563127863023148"><ele>423.6</ele><time>2026-05-02T06:25:40.999Z</time></trkpt><trkpt lat="43.36244273307898" lon="5.56305933483653"><ele>422.0</ele><time>2026-05-02T06:25:42.999Z</time></trkpt><trkpt lat="43.36235055658375" lon="5.563000824407572"><ele>422.0</ele><time>2026-05-02T06:25:44.999Z</time></trkpt><trkpt lat="43.362282643285816" lon="5.562917776014041"><ele>422.0</ele><time>2026-05-02T06:25:46.999Z</time></trkpt><trkpt lat="43.36232380272149" lon="5.5627687731235955"><ele>422.0</ele><time>2026-05-02T06:25:48.999Z</time></trkpt><trkpt lat="43.362381653655454" lon="5.562730382095483"><ele>422.0</ele><time>2026-05-02T06:25:49.999Z</time></trkpt><trkpt lat="43.36249622048587" lon="5.562684580450889"><ele>422.0</ele><time>2026-05-02T06:25:51.999Z</time></trkpt><trkpt lat="43.36259584994184" lon="5.562603769415854"><ele>422.0</ele><time>2026-05-02T06:25:53.999Z</time></trkpt><trkpt lat="43.362686737448705" lon="5.562504342036513"><ele>422.0</ele><time>2026-05-02T06:25:55.999Z</time></trkpt><trkpt lat="43.36272097543624" lon="5.562363985214015"><ele>422.0</ele><time>2026-05-02T06:25:57.999Z</time></trkpt><trkpt lat="43.36268921541132" lon="5.562227447442754"><ele>422.0</ele><time>2026-05-02T06:25:59.998Z</time></trkpt><trkpt lat="43.362663295667765" lon="5.562094674207651"><ele>422.0</ele><time>2026-05-02T06:26:01.998Z</time></trkpt><trkpt lat="43.362634019200634" lon="5.5619629947848335"><ele>424.40000000000003</ele><time>2026-05-02T06:26:04Z</time></trkpt><trkpt lat="43.36261034039831" lon="5.561834099005372"><ele>426.8</ele><time>2026-05-02T06:26:06Z</time></trkpt><trkpt lat="43.3625945187522" lon="5.561710557983786"><ele>429.2</ele><time>2026-05-02T06:26:08Z</time></trkpt><trkpt lat="43.36257628218867" lon="5.561587714582416"><ele>431.6</ele><time>2026-05-02T06:26:10Z</time></trkpt><trkpt lat="43.36255959251481" lon="5.561466693869228"><ele>434.0</ele><time>2026-05-02T06:26:12Z</time></trkpt><trkpt lat="43.362532401662534" lon="5.561354947002832"><ele>433.99999999999994</ele><time>2026-05-02T06:26:14Z</time></trkpt><trkpt lat="43.362499800455616" lon="5.561252932925495"><ele>434.0</ele><time>2026-05-02T06:26:16Z</time></trkpt><trkpt lat="43.36245148702388" lon="5.5611753530979655"><ele>434.0</ele><time>2026-05-02T06:26:18Z</time></trkpt><trkpt lat="43.3623867418661" lon="5.561122060292258"><ele>434.0</ele><time>2026-05-02T06:26:20Z</time></trkpt><trkpt lat="43.36234085154027" lon="5.561040733199746"><ele>433.99999999999994</ele><time>2026-05-02T06:26:22Z</time></trkpt><trkpt lat="43.36236972466791" lon="5.560949177620724"><ele>434.0</ele><time>2026-05-02T06:26:24Z</time></trkpt><trkpt lat="43.36244837121803" lon="5.5609346595916085"><ele>433.99999999999994</ele><time>2026-05-02T06:26:26Z</time></trkpt><trkpt lat="43.36252482942353" lon="5.561001594951064"><ele>434.0</ele><time>2026-05-02T06:26:28Z</time></trkpt><trkpt lat="43.3625865948099" lon="5.561093054976541"><ele>434.0</ele><time>2026-05-02T06:26:30Z</time></trkpt><trkpt lat="43.36264965248622" lon="5.561171066601407"><ele>434.0</ele><time>2026-05-02T06:26:32Z</time></trkpt><trkpt lat="43.362719289003415" lon="5.561226502425023"><ele>433.99999999999994</ele><time>2026-05-02T06:26:34Z</time></trkpt><trkpt lat="43.36280040150386" lon="5.5612523771160465"><ele>434.0</ele><time>2026-05-02T06:26:36Z</time></trkpt><trkpt lat="43.36287436626792" lon="5.561296402271048"><ele>433.99999999999994</ele><time>2026-05-02T06:26:38Z</time></trkpt><trkpt lat="43.362936206079524" lon="5.561356725174481"><ele>434.0</ele><time>2026-05-02T06:26:40Z</time></trkpt><trkpt lat="43.36299567860637" lon="5.561448729499915"><ele>434.0</ele><time>2026-05-02T06:26:43Z</time></trkpt><trkpt lat="43.36303613077212" lon="5.561529749047013"><ele>434.0</ele><time>2026-05-02T06:27:18.999Z</time></trkpt><trkpt lat="43.363080836809274" lon="5.561627915011251"><ele>433.99999999999994</ele><time>2026-05-02T06:27:21.999Z</time></trkpt><trkpt lat="43.3631261007813" lon="5.561724222119695"><ele>434.0</ele><time>2026-05-02T06:27:23.999Z</time></trkpt><trkpt lat="43.36317122466029" lon="5.561818685120514"><ele>435.66666666666663</ele><time>2026-05-02T06:27:25.999Z</time></trkpt><trkpt lat="43.36321858792913" lon="5.561911875719465"><ele>437.3333333333333</ele><time>2026-05-02T06:27:27.999Z</time></trkpt><trkpt lat="43.363279274250544" lon="5.561982454337753"><ele>439.0</ele><time>2026-05-02T06:27:29.999Z</time></trkpt><trkpt lat="43.36335402292141" lon="5.562017234934944"><ele>440.66666666666663</ele><time>2026-05-02T06:27:31.999Z</time></trkpt><trkpt lat="43.36342817400975" lon="5.561994000128925"><ele>442.3333333333333</ele><time>2026-05-02T06:27:33.999Z</time></trkpt><trkpt lat="43.363473762264086" lon="5.561907791679941"><ele>444.0</ele><time>2026-05-02T06:27:35.999Z</time></trkpt><trkpt lat="43.36346939305241" lon="5.561795887634261"><ele>444.0</ele><time>2026-05-02T06:27:37.999Z</time></trkpt><trkpt lat="43.363454816817004" lon="5.561693216998758"><ele>444.0</ele><time>2026-05-02T06:27:39.999Z</time></trkpt><trkpt lat="43.363445175814434" lon="5.561582008293254"><ele>444.0</ele><time>2026-05-02T06:27:41.999Z</time></trkpt><trkpt lat="43.36347611339498" lon="5.561480405891335"><ele>444.0</ele><time>2026-05-02T06:27:43.999Z</time></trkpt><trkpt lat="43.36354611317988" lon="5.5613967347372775"><ele>444.0</ele><time>2026-05-02T06:27:45.999Z</time></trkpt><trkpt lat="43.36367669137977" lon="5.561404346720454"><ele>444.0</ele><time>2026-05-02T06:27:47.999Z</time></trkpt><trkpt lat="43.36375158927099" lon="5.561415375400597"><ele>444.0</ele><time>2026-05-02T06:27:48.999Z</time></trkpt><trkpt lat="43.363831164545964" lon="5.561419073478508"><ele>444.0</ele><time>2026-05-02T06:27:49.999Z</time></trkpt><trkpt lat="43.363919101516395" lon="5.561421286010417"><ele>444.0</ele><time>2026-05-02T06:27:50.999Z</time></trkpt><trkpt lat="43.3640122287515" lon="5.561421857322785"><ele>444.0</ele><time>2026-05-02T06:27:51.999Z</time></trkpt><trkpt lat="43.364110707720414" lon="5.56144634985814"><ele>444.0</ele><time>2026-05-02T06:27:52.999Z</time></trkpt><trkpt lat="43.364211677541675" lon="5.561432907469893"><ele>443.4</ele><time>2026-05-02T06:27:53.999Z</time></trkpt><trkpt lat="43.36431128791925" lon="5.561434418472877"><ele>442.79999999999995</ele><time>2026-05-02T06:27:54.999Z</time></trkpt><trkpt lat="43.36441221342445" lon="5.561443021969464"><ele>442.20000000000005</ele><time>2026-05-02T06:27:55.999Z</time></trkpt><trkpt lat="43.36450924887397" lon="5.56145859280453"><ele>441.6</ele><time>2026-05-02T06:27:56.999Z</time></trkpt><trkpt lat="43.36460312550304" lon="5.56148725808608"><ele>441.0</ele><time>2026-05-02T06:27:57.999Z</time></trkpt><trkpt lat="43.36468917805222" lon="5.5615340456424125"><ele>439.6</ele><time>2026-05-02T06:27:58.999Z</time></trkpt><trkpt lat="43.36477129982494" lon="5.56158687128026"><ele>438.20000000000005</ele><time>2026-05-02T06:27:59.999Z</time></trkpt><trkpt lat="43.36486381207049" lon="5.5616223838524395"><ele>436.79999999999995</ele><time>2026-05-02T06:28:00.999Z</time></trkpt><trkpt lat="43.364965563965605" lon="5.561634244104144"><ele>435.4</ele><time>2026-05-02T06:28:01.998Z</time></trkpt><trkpt lat="43.36507074166276" lon="5.561624728725047"><ele>434.0</ele><time>2026-05-02T06:28:02.998Z</time></trkpt><trkpt lat="43.36517404789956" lon="5.561599617449157"><ele>434.0</ele><time>2026-05-02T06:28:03.998Z</time></trkpt><trkpt lat="43.365279894303235" lon="5.561575363545104"><ele>434.0</ele><time>2026-05-02T06:28:04.998Z</time></trkpt><trkpt lat="43.36538197095273" lon="5.561544602362862"><ele>434.0</ele><time>2026-05-02T06:28:05.998Z</time></trkpt><trkpt lat="43.365481120439625" lon="5.561498177005924"><ele>434.0</ele><time>2026-05-02T06:28:06.998Z</time></trkpt><trkpt lat="43.36557264629646" lon="5.561427009083324"><ele>434.0</ele><time>2026-05-02T06:28:07.998Z</time></trkpt><trkpt lat="43.36564933999852" lon="5.561316135908928"><ele>431.79999999999995</ele><time>2026-05-02T06:28:09Z</time></trkpt><trkpt lat="43.36570415433052" lon="5.561183835201847"><ele>429.59999999999997</ele><time>2026-05-02T06:28:10Z</time></trkpt><trkpt lat="43.36573851294445" lon="5.561040471696936"><ele>427.4</ele><time>2026-05-02T06:28:11Z</time></trkpt><trkpt lat="43.36574705623508" lon="5.560890169493011"><ele>425.2</ele><time>2026-05-02T06:28:12Z</time></trkpt><trkpt lat="43.365727280225286" lon="5.560742349260438"><ele>423.0</ele><time>2026-05-02T06:28:13Z</time></trkpt><trkpt lat="43.36569422042506" lon="5.560601009235488"><ele>423.0</ele><time>2026-05-02T06:28:14Z</time></trkpt><trkpt lat="43.365659128236935" lon="5.560467437965964"><ele>423.0</ele><time>2026-05-02T06:28:15Z</time></trkpt><trkpt lat="43.365621573165555" lon="5.560336827144182"><ele>423.0</ele><time>2026-05-02T06:28:16Z</time></trkpt><trkpt lat="43.36557470037117" lon="5.560216802866454"><ele>423.0</ele><time>2026-05-02T06:28:17Z</time></trkpt><trkpt lat="43.36551698644299" lon="5.5601076307758"><ele>423.0</ele><time>2026-05-02T06:28:18Z</time></trkpt><trkpt lat="43.36547000868368" lon="5.559992323495593"><ele>424.59999999999997</ele><time>2026-05-02T06:28:19Z</time></trkpt><trkpt lat="43.36542564856688" lon="5.559876699914932"><ele>426.2</ele><time>2026-05-02T06:28:20Z</time></trkpt><trkpt lat="43.36538386096866" lon="5.559758834327616"><ele>427.8</ele><time>2026-05-02T06:28:21Z</time></trkpt><trkpt lat="43.36534986272888" lon="5.559634094692264"><ele>429.4</ele><time>2026-05-02T06:28:22Z</time></trkpt><trkpt lat="43.36531679284638" lon="5.559512940558275"><ele>431.0</ele><time>2026-05-02T06:28:23Z</time></trkpt><trkpt lat="43.36528520938146" lon="5.559398797248097"><ele>430.99999999999994</ele><time>2026-05-02T06:28:24Z</time></trkpt><trkpt lat="43.365254279742935" lon="5.559284954261449"><ele>431.0</ele><time>2026-05-02T06:28:25Z</time></trkpt><trkpt lat="43.36522285146827" lon="5.5591750948833845"><ele>431.0</ele><time>2026-05-02T06:28:26Z</time></trkpt><trkpt lat="43.365182618576945" lon="5.5590672297211965"><ele>431.0</ele><time>2026-05-02T06:28:27Z</time></trkpt><trkpt lat="43.365134408966625" lon="5.558974199542431"><ele>430.99999999999994</ele><time>2026-05-02T06:28:28Z</time></trkpt><trkpt lat="43.365075253821125" lon="5.558894550930545"><ele>431.0</ele><time>2026-05-02T06:28:29Z</time></trkpt><trkpt lat="43.36501960628229" lon="5.558810776429203"><ele>430.99999999999994</ele><time>2026-05-02T06:28:30Z</time></trkpt><trkpt lat="43.36496934590537" lon="5.558721414209416"><ele>431.0</ele><time>2026-05-02T06:28:31Z</time></trkpt><trkpt lat="43.364926296938364" lon="5.5586351787256945"><ele>431.0</ele><time>2026-05-02T06:28:32Z</time></trkpt><trkpt lat="43.364883166235" lon="5.558549078446475"><ele>431.0</ele><time>2026-05-02T06:28:33Z</time></trkpt><trkpt lat="43.36482003456146" lon="5.558485296115522"><ele>430.99999999999994</ele><time>2026-05-02T06:28:34Z</time></trkpt><trkpt lat="43.364785767749716" lon="5.558391739907209"><ele>431.0</ele><time>2026-05-02T06:28:35Z</time></trkpt><trkpt lat="43.364756963092724" lon="5.558302340816528"><ele>429.99999999999994</ele><time>2026-05-02T06:28:36Z</time></trkpt><trkpt lat="43.364783984399125" lon="5.558199292512605"><ele>429.0</ele><time>2026-05-02T06:28:37Z</time></trkpt><trkpt lat="43.36482790271989" lon="5.558124263293343"><ele>428.0</ele><time>2026-05-02T06:28:38Z</time></trkpt><trkpt lat="43.364881859615174" lon="5.558073330188929"><ele>427.0</ele><time>2026-05-02T06:28:39Z</time></trkpt><trkpt lat="43.36494501379829" lon="5.558062259847155"><ele>425.99999999999994</ele><time>2026-05-02T06:28:40Z</time></trkpt><trkpt lat="43.3650503235636" lon="5.55802104997761"><ele>425.0</ele><time>2026-05-02T06:28:42Z</time></trkpt><trkpt lat="43.36514734415678" lon="5.55797760047037"><ele>425.0</ele><time>2026-05-02T06:28:44Z</time></trkpt><trkpt lat="43.36525360267656" lon="5.557905253716341"><ele>425.0</ele><time>2026-05-02T06:28:46Z</time></trkpt><trkpt lat="43.36535997776192" lon="5.557852744770546"><ele>425.0</ele><time>2026-05-02T06:28:48Z</time></trkpt><trkpt lat="43.36545668787261" lon="5.557793922558226"><ele>425.0</ele><time>2026-05-02T06:28:50Z</time></trkpt><trkpt lat="43.365520533048546" lon="5.557682912863319"><ele>425.0</ele><time>2026-05-02T06:28:52Z</time></trkpt><trkpt lat="43.36557046427314" lon="5.557569391529506"><ele>425.4</ele><time>2026-05-02T06:28:54Z</time></trkpt><trkpt lat="43.36562344548418" lon="5.557446665851482"><ele>425.8</ele><time>2026-05-02T06:28:56Z</time></trkpt><trkpt lat="43.3656809849657" lon="5.557329982070975"><ele>426.20000000000005</ele><time>2026-05-02T06:28:57.999Z</time></trkpt><trkpt lat="43.36573117940351" lon="5.557214093863609"><ele>426.6</ele><time>2026-05-02T06:28:59.999Z</time></trkpt><trkpt lat="43.36579398940263" lon="5.5571122737395156"><ele>427.0</ele><time>2026-05-02T06:29:01.999Z</time></trkpt><trkpt lat="43.365879573369014" lon="5.557041616931216"><ele>427.40000000000003</ele><time>2026-05-02T06:29:03.999Z</time></trkpt><trkpt lat="43.36596757091935" lon="5.5569688010975415"><ele>427.80000000000007</ele><time>2026-05-02T06:29:05.999Z</time></trkpt><trkpt lat="43.36605900318211" lon="5.556897034475622"><ele>428.2</ele><time>2026-05-02T06:29:07.999Z</time></trkpt><trkpt lat="43.366152132517634" lon="5.5568292647576945"><ele>428.6</ele><time>2026-05-02T06:29:09.999Z</time></trkpt><trkpt lat="43.366241084129264" lon="5.556767122172169"><ele>429.0</ele><time>2026-05-02T06:29:11.999Z</time></trkpt><trkpt lat="43.36633404568405" lon="5.556725259179123"><ele>429.2</ele><time>2026-05-02T06:29:13.999Z</time></trkpt><trkpt lat="43.36642302959313" lon="5.556722509708861"><ele>429.4</ele><time>2026-05-02T06:29:15.999Z</time></trkpt><trkpt lat="43.36649712914477" lon="5.556799921532489"><ele>429.6</ele><time>2026-05-02T06:29:17.999Z</time></trkpt><trkpt lat="43.36655590094965" lon="5.556910077552334"><ele>429.8</ele><time>2026-05-02T06:29:19.999Z</time></trkpt><trkpt lat="43.36661522544178" lon="5.557022533504575"><ele>430.0</ele><time>2026-05-02T06:29:21.999Z</time></trkpt><trkpt lat="43.36667510975956" lon="5.557133271271644"><ele>429.0</ele><time>2026-05-02T06:29:23.999Z</time></trkpt><trkpt lat="43.36673754815977" lon="5.557245159611281"><ele>428.0</ele><time>2026-05-02T06:29:25.999Z</time></trkpt><trkpt lat="43.36679980240761" lon="5.557355047253317"><ele>427.0</ele><time>2026-05-02T06:29:27.999Z</time></trkpt><trkpt lat="43.36686502418619" lon="5.557463861073644"><ele>426.0</ele><time>2026-05-02T06:29:29.999Z</time></trkpt><trkpt lat="43.366929030743904" lon="5.557573300094253"><ele>425.0</ele><time>2026-05-02T06:29:31.999Z</time></trkpt><trkpt lat="43.3669970179954" lon="5.557678328998523"><ele>425.0</ele><time>2026-05-02T06:29:33.999Z</time></trkpt><trkpt lat="43.36707049945719" lon="5.5577820446428765"><ele>425.0</ele><time>2026-05-02T06:29:35.999Z</time></trkpt><trkpt lat="43.36715450567823" lon="5.557877882925059"><ele>425.0</ele><time>2026-05-02T06:29:37.999Z</time></trkpt><trkpt lat="43.367241243705195" lon="5.557968801788239"><ele>425.0</ele><time>2026-05-02T06:29:39.999Z</time></trkpt><trkpt lat="43.367325402150485" lon="5.558048102569124"><ele>425.0</ele><time>2026-05-02T06:29:41.999Z</time></trkpt><trkpt lat="43.36740532410677" lon="5.558135555474198"><ele>425.0</ele><time>2026-05-02T06:29:43.999Z</time></trkpt><trkpt lat="43.36749269057455" lon="5.558214180229328"><ele>425.0</ele><time>2026-05-02T06:29:45.999Z</time></trkpt><trkpt lat="43.36758386453378" lon="5.558301447850154"><ele>425.0</ele><time>2026-05-02T06:29:47.999Z</time></trkpt><trkpt lat="43.36768101255571" lon="5.558381920804771"><ele>425.0</ele><time>2026-05-02T06:29:49.999Z</time></trkpt><trkpt lat="43.36778629144722" lon="5.558449335621167"><ele>425.0</ele><time>2026-05-02T06:29:51.999Z</time></trkpt><trkpt lat="43.36789448196034" lon="5.558500746400681"><ele>424.99999999999994</ele><time>2026-05-02T06:29:53.999Z</time></trkpt><trkpt lat="43.368005343452005" lon="5.558549274956629"><ele>425.0</ele><time>2026-05-02T06:29:55.999Z</time></trkpt><trkpt lat="43.368124766666014" lon="5.558593306010262"><ele>425.0</ele><time>2026-05-02T06:29:57.999Z</time></trkpt><trkpt lat="43.36818620649177" lon="5.558612312640258"><ele>425.0</ele><time>2026-05-02T06:29:58.999Z</time></trkpt><trkpt lat="43.36825250456746" lon="5.558626741897125"><ele>424.99999999999994</ele><time>2026-05-02T06:29:59.999Z</time></trkpt><trkpt lat="43.368320846431104" lon="5.558639945867689"><ele>425.0</ele><time>2026-05-02T06:30:00.999Z</time></trkpt><trkpt lat="43.36838802143692" lon="5.558650154160686"><ele>426.1428571428571</ele><time>2026-05-02T06:30:01.999Z</time></trkpt><trkpt lat="43.36845311163952" lon="5.558654633067576"><ele>427.2857142857143</ele><time>2026-05-02T06:30:02.999Z</time></trkpt><trkpt lat="43.368517497304616" lon="5.558656325154551"><ele>428.42857142857144</ele><time>2026-05-02T06:30:03.998Z</time></trkpt><trkpt lat="43.36858690614905" lon="5.558657692141572"><ele>429.57142857142856</ele><time>2026-05-02T06:30:04.998Z</time></trkpt><trkpt lat="43.36865494040527" lon="5.558664057701567"><ele>430.7142857142857</ele><time>2026-05-02T06:30:05.998Z</time></trkpt><trkpt lat="43.36872021656506" lon="5.558669608239043"><ele>431.85714285714283</ele><time>2026-05-02T06:30:06.998Z</time></trkpt><trkpt lat="43.36878464279825" lon="5.55867315852586"><ele>433.0</ele><time>2026-05-02T06:30:07.998Z</time></trkpt><trkpt lat="43.368848472876024" lon="5.55867687106426"><ele>433.4285714285714</ele><time>2026-05-02T06:30:08.998Z</time></trkpt><trkpt lat="43.36891295459106" lon="5.558683540039212"><ele>433.85714285714283</ele><time>2026-05-02T06:30:09.998Z</time></trkpt><trkpt lat="43.368980002906426" lon="5.558687098186158"><ele>434.2857142857143</ele><time>2026-05-02T06:30:10.998Z</time></trkpt><trkpt lat="43.36904369239421" lon="5.558687367372244"><ele>434.71428571428567</ele><time>2026-05-02T06:30:11.998Z</time></trkpt><trkpt lat="43.3691066112577" lon="5.558691247986778"><ele>435.14285714285717</ele><time>2026-05-02T06:30:12.998Z</time></trkpt><trkpt lat="43.36917218544056" lon="5.558696416159081"><ele>435.57142857142856</ele><time>2026-05-02T06:30:13.998Z</time></trkpt><trkpt lat="43.36923881626515" lon="5.558702135777719"><ele>436.0</ele><time>2026-05-02T06:30:15Z</time></trkpt><trkpt lat="43.36930271829432" lon="5.558700869449409"><ele>433.2857142857143</ele><time>2026-05-02T06:30:16Z</time></trkpt><trkpt lat="43.36942687588209" lon="5.558705024719164"><ele>430.57142857142856</ele><time>2026-05-02T06:30:18Z</time></trkpt><trkpt lat="43.369491814779025" lon="5.558715178504526"><ele>427.8571428571429</ele><time>2026-05-02T06:30:19Z</time></trkpt><trkpt lat="43.36955723497531" lon="5.55872172006225"><ele>425.1428571428571</ele><time>2026-05-02T06:30:20Z</time></trkpt><trkpt lat="43.36962161368376" lon="5.5587273714065395"><ele>422.4285714285714</ele><time>2026-05-02T06:30:21Z</time></trkpt><trkpt lat="43.369686431944686" lon="5.558733616914862"><ele>419.7142857142857</ele><time>2026-05-02T06:30:22Z</time></trkpt><trkpt lat="43.36974985379532" lon="5.558741510337297"><ele>417.0</ele><time>2026-05-02T06:30:23Z</time></trkpt><trkpt lat="43.36981299976602" lon="5.558747206997595"><ele>417.0</ele><time>2026-05-02T06:30:24Z</time></trkpt><trkpt lat="43.36993714851028" lon="5.558756463806112"><ele>417.0</ele><time>2026-05-02T06:30:26Z</time></trkpt><trkpt lat="43.3700548775558" lon="5.558772192924964"><ele>417.0</ele><time>2026-05-02T06:30:28Z</time></trkpt><trkpt lat="43.37017558454732" lon="5.558783371602093"><ele>417.0</ele><time>2026-05-02T06:30:30Z</time></trkpt><trkpt lat="43.3703008107248" lon="5.558789594100666"><ele>417.0</ele><time>2026-05-02T06:30:32Z</time></trkpt><trkpt lat="43.37041551750151" lon="5.558770355414089"><ele>417.0</ele><time>2026-05-02T06:30:34Z</time></trkpt><trkpt lat="43.37052169758159" lon="5.558714962179441"><ele>417.0</ele><time>2026-05-02T06:30:36Z</time></trkpt><trkpt lat="43.370614483478434" lon="5.558639396008119"><ele>417.0</ele><time>2026-05-02T06:30:38Z</time></trkpt><trkpt lat="43.370706088923136" lon="5.55856421616399"><ele>417.0</ele><time>2026-05-02T06:30:40Z</time></trkpt><trkpt lat="43.37080006208519" lon="5.558482948955788"><ele>418.75</ele><time>2026-05-02T06:30:42Z</time></trkpt><trkpt lat="43.370899418529014" lon="5.558403214499338"><ele>420.5</ele><time>2026-05-02T06:30:44Z</time></trkpt><trkpt lat="43.37100290447624" lon="5.558326641836299"><ele>422.25</ele><time>2026-05-02T06:30:46Z</time></trkpt><trkpt lat="43.37110190725312" lon="5.558244092050956"><ele>424.0</ele><time>2026-05-02T06:30:48Z</time></trkpt><trkpt lat="43.37120474491611" lon="5.558169656047979"><ele>424.0</ele><time>2026-05-02T06:30:50Z</time></trkpt><trkpt lat="43.37130516517112" lon="5.558088568449348"><ele>424.0</ele><time>2026-05-02T06:30:52Z</time></trkpt><trkpt lat="43.37141446147317" lon="5.558009592759091"><ele>424.0</ele><time>2026-05-02T06:30:54Z</time></trkpt><trkpt lat="43.37147130211044" lon="5.5579640002716095"><ele>424.0</ele><time>2026-05-02T06:30:55Z</time></trkpt><trkpt lat="43.371577666657" lon="5.557887815091991"><ele>424.0</ele><time>2026-05-02T06:30:57Z</time></trkpt><trkpt lat="43.37168766347125" lon="5.557806402435337"><ele>424.33333333333337</ele><time>2026-05-02T06:30:59Z</time></trkpt><trkpt lat="43.37174388390687" lon="5.55776389076965"><ele>424.6666666666667</ele><time>2026-05-02T06:31:00Z</time></trkpt><trkpt lat="43.37179994405783" lon="5.557722081860198"><ele>425.0</ele><time>2026-05-02T06:31:01Z</time></trkpt><trkpt lat="43.371857325091725" lon="5.557674948448068"><ele>425.33333333333337</ele><time>2026-05-02T06:31:01.999Z</time></trkpt><trkpt lat="43.37191610503841" lon="5.557622229704084"><ele>425.6666666666667</ele><time>2026-05-02T06:31:02.999Z</time></trkpt><trkpt lat="43.372009604964646" lon="5.5574819247301495"><ele>426.0</ele><time>2026-05-02T06:31:04.999Z</time></trkpt><trkpt lat="43.37203723700458" lon="5.55739465939886"><ele>425.99999999999994</ele><time>2026-05-02T06:31:05.999Z</time></trkpt><trkpt lat="43.372058047599225" lon="5.557305490249402"><ele>426.0</ele><time>2026-05-02T06:31:06.999Z</time></trkpt><trkpt lat="43.372077860495295" lon="5.557215749207464"><ele>426.0</ele><time>2026-05-02T06:31:07.999Z</time></trkpt><trkpt lat="43.37209582161271" lon="5.557129567105209"><ele>426.0</ele><time>2026-05-02T06:31:08.999Z</time></trkpt><trkpt lat="43.372113187253646" lon="5.557041883155414"><ele>426.0</ele><time>2026-05-02T06:31:09.999Z</time></trkpt><trkpt lat="43.372129458628045" lon="5.556952345497416"><ele>425.99999999999994</ele><time>2026-05-02T06:31:10.999Z</time></trkpt><trkpt lat="43.37214134208622" lon="5.556863948665086"><ele>426.0</ele><time>2026-05-02T06:31:11.999Z</time></trkpt><trkpt lat="43.372150526755895" lon="5.556776635128626"><ele>426.6666666666667</ele><time>2026-05-02T06:31:12.999Z</time></trkpt><trkpt lat="43.372157147384804" lon="5.556687989449941"><ele>427.33333333333337</ele><time>2026-05-02T06:31:13.999Z</time></trkpt><trkpt lat="43.372162761582935" lon="5.5565992828901205"><ele>428.0</ele><time>2026-05-02T06:31:14.999Z</time></trkpt><trkpt lat="43.37216670235068" lon="5.556510929040852"><ele>428.6666666666667</ele><time>2026-05-02T06:31:15.999Z</time></trkpt><trkpt lat="43.37217042561459" lon="5.556423138935104"><ele>429.33333333333337</ele><time>2026-05-02T06:31:16.999Z</time></trkpt><trkpt lat="43.37218077046732" lon="5.556255174866501"><ele>430.0</ele><time>2026-05-02T06:31:18.999Z</time></trkpt><trkpt lat="43.37218360064655" lon="5.556090499546221"><ele>430.00000000000006</ele><time>2026-05-02T06:31:20.999Z</time></trkpt><trkpt lat="43.37218406556973" lon="5.556002895127317"><ele>430.0</ele><time>2026-05-02T06:31:21.999Z</time></trkpt><trkpt lat="43.372180971229106" lon="5.555915873200749"><ele>430.0</ele><time>2026-05-02T06:31:22.999Z</time></trkpt><trkpt lat="43.372179987063696" lon="5.555743785988019"><ele>430.0</ele><time>2026-05-02T06:31:24.999Z</time></trkpt><trkpt lat="43.37218286979406" lon="5.5556518342291135"><ele>430.00000000000006</ele><time>2026-05-02T06:31:25.999Z</time></trkpt><trkpt lat="43.37218542333092" lon="5.5555580932718716"><ele>430.0</ele><time>2026-05-02T06:31:26.999Z</time></trkpt><trkpt lat="43.37218933557888" lon="5.555457643776571"><ele>429.33333333333337</ele><time>2026-05-02T06:31:27.999Z</time></trkpt><trkpt lat="43.37219599772302" lon="5.555351344302328"><ele>428.6666666666667</ele><time>2026-05-02T06:31:28.999Z</time></trkpt><trkpt lat="43.372195908577126" lon="5.555246453538868"><ele>428.0</ele><time>2026-05-02T06:31:29.999Z</time></trkpt><trkpt lat="43.37219241391538" lon="5.555136792595936"><ele>427.33333333333337</ele><time>2026-05-02T06:31:30.999Z</time></trkpt><trkpt lat="43.37218420607224" lon="5.5550247268543895"><ele>426.6666666666667</ele><time>2026-05-02T06:31:31.999Z</time></trkpt><trkpt lat="43.37216664175452" lon="5.554906057125879"><ele>426.0</ele><time>2026-05-02T06:31:32.999Z</time></trkpt><trkpt lat="43.3721429803798" lon="5.554788865920344"><ele>426.0</ele><time>2026-05-02T06:31:33.999Z</time></trkpt><trkpt lat="43.37211445912628" lon="5.5546666399376665"><ele>426.0</ele><time>2026-05-02T06:31:34.999Z</time></trkpt><trkpt lat="43.37208464331405" lon="5.554543743061398"><ele>426.0</ele><time>2026-05-02T06:31:35.999Z</time></trkpt><trkpt lat="43.372050963581906" lon="5.554423005970653"><ele>426.0</ele><time>2026-05-02T06:31:36.999Z</time></trkpt><trkpt lat="43.37201607301531" lon="5.5542983956332765"><ele>426.0</ele><time>2026-05-02T06:31:37.999Z</time></trkpt><trkpt lat="43.37198057740318" lon="5.554171480628133"><ele>423.8</ele><time>2026-05-02T06:31:38.999Z</time></trkpt><trkpt lat="43.3719413421617" lon="5.554041484815789"><ele>421.6</ele><time>2026-05-02T06:31:39.999Z</time></trkpt><trkpt lat="43.371898888623406" lon="5.553915089528848"><ele>419.4</ele><time>2026-05-02T06:31:40.999Z</time></trkpt><trkpt lat="43.37185775604088" lon="5.55378393598102"><ele>417.2</ele><time>2026-05-02T06:31:41.999Z</time></trkpt><trkpt lat="43.37181243540886" lon="5.553655106522018"><ele>415.0</ele><time>2026-05-02T06:31:42.999Z</time></trkpt><trkpt lat="43.37176220854919" lon="5.553529371245144"><ele>413.6</ele><time>2026-05-02T06:31:43.999Z</time></trkpt><trkpt lat="43.37170348569654" lon="5.553412839677423"><ele>412.2</ele><time>2026-05-02T06:31:44.999Z</time></trkpt><trkpt lat="43.37164873440149" lon="5.5532949738106"><ele>410.79999999999995</ele><time>2026-05-02T06:31:45.999Z</time></trkpt><trkpt lat="43.371595612995556" lon="5.5531902545607"><ele>409.4</ele><time>2026-05-02T06:31:46.999Z</time></trkpt><trkpt lat="43.37155692091559" lon="5.553105705096493"><ele>408.0</ele><time>2026-05-02T06:31:47.999Z</time></trkpt><trkpt lat="43.37150405465261" lon="5.553002961938901"><ele>408.0</ele><time>2026-05-02T06:31:49.999Z</time></trkpt><trkpt lat="43.37148664432983" lon="5.552904562250188"><ele>408.0</ele><time>2026-05-02T06:31:56.999Z</time></trkpt><trkpt lat="43.371421833071494" lon="5.552883535199886"><ele>408.0</ele><time>2026-05-02T06:32:00.999Z</time></trkpt><trkpt lat="43.37137387684438" lon="5.552798364600544"><ele>408.0</ele><time>2026-05-02T06:32:02.999Z</time></trkpt><trkpt lat="43.37129485136168" lon="5.552732348510205"><ele>408.0</ele><time>2026-05-02T06:32:04.999Z</time></trkpt><trkpt lat="43.37124830371233" lon="5.55263451691738"><ele>408.0</ele><time>2026-05-02T06:32:06.999Z</time></trkpt><trkpt lat="43.37121976450183" lon="5.552547580165197"><ele>408.0</ele><time>2026-05-02T06:32:08.998Z</time></trkpt><trkpt lat="43.37125463335193" lon="5.552655771216451"><ele>408.0</ele><time>2026-05-02T06:32:16.998Z</time></trkpt><trkpt lat="43.37130642007147" lon="5.552762474752257"><ele>408.0</ele><time>2026-05-02T06:32:18.998Z</time></trkpt><trkpt lat="43.371387816369506" lon="5.55283953473774"><ele>408.0</ele><time>2026-05-02T06:32:21Z</time></trkpt><trkpt lat="43.37146465661476" lon="5.552914216229124"><ele>408.0</ele><time>2026-05-02T06:32:23Z</time></trkpt><trkpt lat="43.37152271824174" lon="5.552984370718449"><ele>408.0</ele><time>2026-05-02T06:32:25Z</time></trkpt><trkpt lat="43.37165409743363" lon="5.552927796579978"><ele>408.0</ele><time>2026-05-02T06:32:26Z</time></trkpt><trkpt lat="43.37172294594155" lon="5.552921152978879"><ele>408.0</ele><time>2026-05-02T06:32:27Z</time></trkpt><trkpt lat="43.371833676367935" lon="5.552900167659981"><ele>408.0</ele><time>2026-05-02T06:32:29Z</time></trkpt><trkpt lat="43.37193120896373" lon="5.552868185591976"><ele>408.0</ele><time>2026-05-02T06:32:31Z</time></trkpt><trkpt lat="43.37202159834445" lon="5.5528361381025375"><ele>408.0</ele><time>2026-05-02T06:32:33Z</time></trkpt><trkpt lat="43.37210252317834" lon="5.552761432221202"><ele>408.59999999999997</ele><time>2026-05-02T06:32:35Z</time></trkpt><trkpt lat="43.372184509989935" lon="5.552686993597031"><ele>409.2</ele><time>2026-05-02T06:32:37Z</time></trkpt><trkpt lat="43.3722603600896" lon="5.552615272473565"><ele>409.8</ele><time>2026-05-02T06:32:39Z</time></trkpt><trkpt lat="43.37232327240061" lon="5.552533174079319"><ele>410.4</ele><time>2026-05-02T06:32:41Z</time></trkpt><trkpt lat="43.37239866219058" lon="5.552468467607123"><ele>411.0</ele><time>2026-05-02T06:32:43Z</time></trkpt><trkpt lat="43.372475202917045" lon="5.552403949517862"><ele>411.0</ele><time>2026-05-02T06:32:45Z</time></trkpt><trkpt lat="43.37253354409454" lon="5.552332750648831"><ele>411.0</ele><time>2026-05-02T06:32:47Z</time></trkpt><trkpt lat="43.37260391888552" lon="5.552264321768178"><ele>411.0</ele><time>2026-05-02T06:32:49Z</time></trkpt><trkpt lat="43.37268606998327" lon="5.552271009748573"><ele>411.0</ele><time>2026-05-02T06:32:51Z</time></trkpt><trkpt lat="43.372770064767366" lon="5.552302488336107"><ele>411.0</ele><time>2026-05-02T06:32:53Z</time></trkpt><trkpt lat="43.37285566837358" lon="5.552319292008836"><ele>411.0</ele><time>2026-05-02T06:32:55Z</time></trkpt><trkpt lat="43.37293647987213" lon="5.552301173797919"><ele>411.0</ele><time>2026-05-02T06:32:57Z</time></trkpt><trkpt lat="43.37301096982897" lon="5.552263624868946"><ele>411.0</ele><time>2026-05-02T06:32:59Z</time></trkpt><trkpt lat="43.37309768518226" lon="5.552234680431011"><ele>411.0</ele><time>2026-05-02T06:33:01Z</time></trkpt><trkpt lat="43.37316928179717" lon="5.552197730960834"><ele>411.0</ele><time>2026-05-02T06:33:03Z</time></trkpt><trkpt lat="43.37324863000564" lon="5.552154119760156"><ele>411.0</ele><time>2026-05-02T06:33:05Z</time></trkpt><trkpt lat="43.373325950564016" lon="5.552111647946783"><ele>411.0</ele><time>2026-05-02T06:33:06.999Z</time></trkpt><trkpt lat="43.37342355920129" lon="5.552062665931419"><ele>411.6</ele><time>2026-05-02T06:33:08.999Z</time></trkpt><trkpt lat="43.37349789782052" lon="5.552023842127198"><ele>412.20000000000005</ele><time>2026-05-02T06:33:10.999Z</time></trkpt><trkpt lat="43.373569600705494" lon="5.551993759099757"><ele>412.79999999999995</ele><time>2026-05-02T06:33:12.999Z</time></trkpt><trkpt lat="43.37366569548688" lon="5.551945598798751"><ele>413.4</ele><time>2026-05-02T06:33:14.999Z</time></trkpt><trkpt lat="43.37377729417105" lon="5.551897206473446"><ele>414.0</ele><time>2026-05-02T06:33:16.999Z</time></trkpt><trkpt lat="43.3738804370517" lon="5.551846768260755"><ele>414.2</ele><time>2026-05-02T06:33:18.999Z</time></trkpt><trkpt lat="43.373974810234095" lon="5.55181907583025"><ele>414.4</ele><time>2026-05-02T06:33:20.999Z</time></trkpt><trkpt lat="43.37408606734957" lon="5.5518166908901865"><ele>414.6</ele><time>2026-05-02T06:33:22.999Z</time></trkpt><trkpt lat="43.37419810625806" lon="5.5518545624140065"><ele>414.8</ele><time>2026-05-02T06:33:24.999Z</time></trkpt><trkpt lat="43.374317224787994" lon="5.551872918596768"><ele>415.0</ele><time>2026-05-02T06:33:26.999Z</time></trkpt><trkpt lat="43.37438120791377" lon="5.551873836317312"><ele>415.0</ele><time>2026-05-02T06:33:27.999Z</time></trkpt><trkpt lat="43.37444940967458" lon="5.551866481260222"><ele>415.0</ele><time>2026-05-02T06:33:28.999Z</time></trkpt><trkpt lat="43.37457143893236" lon="5.551862641454756"><ele>415.0</ele><time>2026-05-02T06:33:30.999Z</time></trkpt><trkpt lat="43.37469342456639" lon="5.5518213582335125"><ele>415.0</ele><time>2026-05-02T06:33:32.999Z</time></trkpt><trkpt lat="43.374814249507004" lon="5.551803631501767"><ele>415.0</ele><time>2026-05-02T06:33:34.999Z</time></trkpt><trkpt lat="43.37493185920452" lon="5.551807067991584"><ele>414.6</ele><time>2026-05-02T06:33:36.999Z</time></trkpt><trkpt lat="43.37504284618677" lon="5.551816645366046"><ele>414.2</ele><time>2026-05-02T06:33:38.999Z</time></trkpt><trkpt lat="43.37515328044983" lon="5.551815369164221"><ele>413.79999999999995</ele><time>2026-05-02T06:33:40.999Z</time></trkpt><trkpt lat="43.37526147624779" lon="5.5518175173422275"><ele>413.4</ele><time>2026-05-02T06:33:42.999Z</time></trkpt><trkpt lat="43.37537636063066" lon="5.551813755788862"><ele>413.0</ele><time>2026-05-02T06:33:44.999Z</time></trkpt><trkpt lat="43.37549090498162" lon="5.551804809114036"><ele>412.79999999999995</ele><time>2026-05-02T06:33:46.999Z</time></trkpt><trkpt lat="43.37559439584201" lon="5.551783863510508"><ele>412.6</ele><time>2026-05-02T06:33:48.999Z</time></trkpt><trkpt lat="43.37569320509582" lon="5.551748099414392"><ele>412.4</ele><time>2026-05-02T06:33:50.999Z</time></trkpt><trkpt lat="43.37580077528199" lon="5.551697213813131"><ele>412.20000000000005</ele><time>2026-05-02T06:33:52.999Z</time></trkpt><trkpt lat="43.375912895227145" lon="5.551636811846146"><ele>412.0</ele><time>2026-05-02T06:33:54.999Z</time></trkpt><trkpt lat="43.37602868368809" lon="5.551574257147752"><ele>412.0</ele><time>2026-05-02T06:33:56.999Z</time></trkpt><trkpt lat="43.376135953621805" lon="5.55152420144153"><ele>412.0</ele><time>2026-05-02T06:33:58.999Z</time></trkpt><trkpt lat="43.376226360451405" lon="5.551462073437146"><ele>412.0</ele><time>2026-05-02T06:34:00.999Z</time></trkpt><trkpt lat="43.376318696596734" lon="5.551394058006831"><ele>412.0</ele><time>2026-05-02T06:34:02.999Z</time></trkpt><trkpt lat="43.37641473314227" lon="5.551331886165374"><ele>412.0</ele><time>2026-05-02T06:34:04.999Z</time></trkpt><trkpt lat="43.37641896450452" lon="5.55120582097816"><ele>412.0</ele><time>2026-05-02T06:34:05.999Z</time></trkpt><trkpt lat="43.37646800711277" lon="5.551078878652533"><ele>412.0</ele><time>2026-05-02T06:34:07.999Z</time></trkpt><trkpt lat="43.3765156510987" lon="5.550955681921674"><ele>412.0</ele><time>2026-05-02T06:34:09.999Z</time></trkpt><trkpt lat="43.376579817942115" lon="5.550811169985193"><ele>412.0</ele><time>2026-05-02T06:34:11.999Z</time></trkpt><trkpt lat="43.37662718256118" lon="5.550652817152144"><ele>412.0</ele><time>2026-05-02T06:34:13.998Z</time></trkpt><trkpt lat="43.37668133559285" lon="5.550538475808532"><ele>412.0</ele><time>2026-05-02T06:34:15.998Z</time></trkpt><trkpt lat="43.376754891689615" lon="5.550444643924727"><ele>412.0</ele><time>2026-05-02T06:34:17.998Z</time></trkpt><trkpt lat="43.37681648112197" lon="5.550334044409942"><ele>412.0</ele><time>2026-05-02T06:34:19.998Z</time></trkpt><trkpt lat="43.37681052629581" lon="5.55023912660582"><ele>412.0</ele><time>2026-05-02T06:34:20.998Z</time></trkpt><trkpt lat="43.37678818641055" lon="5.5501031600568265"><ele>411.50000000000006</ele><time>2026-05-02T06:34:22.998Z</time></trkpt><trkpt lat="43.376807912774" lon="5.550004313365943"><ele>411.0</ele><time>2026-05-02T06:34:24.998Z</time></trkpt><trkpt lat="43.37687055910291" lon="5.549893078889687"><ele>410.5</ele><time>2026-05-02T06:34:27Z</time></trkpt><trkpt lat="43.376926787201526" lon="5.549775951972426"><ele>410.0</ele><time>2026-05-02T06:34:29Z</time></trkpt><trkpt lat="43.37697627999931" lon="5.549687214963456"><ele>409.50000000000006</ele><time>2026-05-02T06:34:31Z</time></trkpt><trkpt lat="43.37702595322464" lon="5.549595270419491"><ele>409.0</ele><time>2026-05-02T06:34:34Z</time></trkpt><trkpt lat="43.37709562846708" lon="5.549502652008797"><ele>409.0</ele><time>2026-05-02T06:34:38Z</time></trkpt><trkpt lat="43.377147694224874" lon="5.549414243186176"><ele>409.0</ele><time>2026-05-02T06:34:40Z</time></trkpt><trkpt lat="43.37718662533684" lon="5.54931542629793"><ele>409.0</ele><time>2026-05-02T06:34:43Z</time></trkpt><trkpt lat="43.3770608019549" lon="5.549133033763259"><ele>409.0</ele><time>2026-05-02T06:34:44Z</time></trkpt><trkpt lat="43.37703946289739" lon="5.548974602884466"><ele>409.00000000000006</ele><time>2026-05-02T06:34:46Z</time></trkpt><trkpt lat="43.377028260821064" lon="5.548828252513839"><ele>409.0</ele><time>2026-05-02T06:34:48Z</time></trkpt><trkpt lat="43.37701578695064" lon="5.548711528103613"><ele>409.0</ele><time>2026-05-02T06:34:50Z</time></trkpt><trkpt lat="43.377059096922025" lon="5.548629827643499"><ele>409.0</ele><time>2026-05-02T06:34:55Z</time></trkpt><trkpt lat="43.377111020811576" lon="5.548692468023455"><ele>409.00000000000006</ele><time>2026-05-02T06:34:57Z</time></trkpt><trkpt lat="43.37714625000126" lon="5.548804606829808"><ele>409.0</ele><time>2026-05-02T06:34:59Z</time></trkpt><trkpt lat="43.37715703743632" lon="5.548910731064278"><ele>409.00000000000006</ele><time>2026-05-02T06:35:01Z</time></trkpt><trkpt lat="43.37716982795623" lon="5.54900526235548"><ele>409.0</ele><time>2026-05-02T06:35:03Z</time></trkpt><trkpt lat="43.37718213307905" lon="5.549100603198682"><ele>409.0</ele><time>2026-05-02T06:35:05Z</time></trkpt><trkpt lat="43.377237475398495" lon="5.549198691737969"><ele>409.0</ele><time>2026-05-02T06:35:07Z</time></trkpt><trkpt lat="43.37732465420825" lon="5.549266055471724"><ele>409.00000000000006</ele><time>2026-05-02T06:35:09Z</time></trkpt><trkpt lat="43.37734686105762" lon="5.5494199541702"><ele>409.0</ele><time>2026-05-02T06:35:10Z</time></trkpt><trkpt lat="43.37744825762455" lon="5.549465867101591"><ele>408.79999999999995</ele><time>2026-05-02T06:35:11.999Z</time></trkpt><trkpt lat="43.37753139123271" lon="5.549510815852233"><ele>408.59999999999997</ele><time>2026-05-02T06:35:13.999Z</time></trkpt><trkpt lat="43.37746784523876" lon="5.549476061231327"><ele>408.4</ele><time>2026-05-02T06:35:44.999Z</time></trkpt><trkpt lat="43.377380175436684" lon="5.549434482849752"><ele>408.2</ele><time>2026-05-02T06:35:47.999Z</time></trkpt><trkpt lat="43.37728898566003" lon="5.549231243820919"><ele>408.0</ele><time>2026-05-02T06:35:49.999Z</time></trkpt><trkpt lat="43.3772046779421" lon="5.549155883414207"><ele>408.2</ele><time>2026-05-02T06:35:51.999Z</time></trkpt><trkpt lat="43.37714475530172" lon="5.549050935065306"><ele>408.4</ele><time>2026-05-02T06:35:53.999Z</time></trkpt><trkpt lat="43.37708136563646" lon="5.548941862742329"><ele>408.59999999999997</ele><time>2026-05-02T06:35:55.999Z</time></trkpt><trkpt lat="43.37703383125253" lon="5.548809018126005"><ele>408.79999999999995</ele><time>2026-05-02T06:35:57.999Z</time></trkpt><trkpt lat="43.37702928025446" lon="5.548660386697229"><ele>409.0</ele><time>2026-05-02T06:35:59.999Z</time></trkpt><trkpt lat="43.377037388978884" lon="5.548521752096457"><ele>409.1666666666667</ele><time>2026-05-02T06:36:01.999Z</time></trkpt><trkpt lat="43.37706149635083" lon="5.548394395994633"><ele>409.33333333333337</ele><time>2026-05-02T06:36:03.999Z</time></trkpt><trkpt lat="43.3770812775523" lon="5.548275689120045"><ele>409.5</ele><time>2026-05-02T06:36:05.999Z</time></trkpt><trkpt lat="43.37709402119489" lon="5.548174891324532"><ele>409.66666666666663</ele><time>2026-05-02T06:36:07.999Z</time></trkpt><trkpt lat="43.377109955903045" lon="5.54806966197101"><ele>409.8333333333333</ele><time>2026-05-02T06:36:09.999Z</time></trkpt><trkpt lat="43.3771190186348" lon="5.54797612772833"><ele>410.0</ele><time>2026-05-02T06:36:11.999Z</time></trkpt><trkpt lat="43.377115586911316" lon="5.547873055050853"><ele>410.8333333333333</ele><time>2026-05-02T06:36:28.998Z</time></trkpt><trkpt lat="43.377114250369495" lon="5.547783590023418"><ele>411.66666666666663</ele><time>2026-05-02T06:36:31.998Z</time></trkpt><trkpt lat="43.377138917920576" lon="5.547679287436232"><ele>412.5</ele><time>2026-05-02T06:36:34Z</time></trkpt><trkpt lat="43.37712773460055" lon="5.547524835016282"><ele>413.33333333333337</ele><time>2026-05-02T06:36:36Z</time></trkpt><trkpt lat="43.37711499914493" lon="5.5474371830896265"><ele>414.1666666666667</ele><time>2026-05-02T06:36:37Z</time></trkpt><trkpt lat="43.377100553103446" lon="5.547285060004174"><ele>415.0</ele><time>2026-05-02T06:36:39Z</time></trkpt><trkpt lat="43.37709875289016" lon="5.547129309833979"><ele>414.6666666666667</ele><time>2026-05-02T06:36:41Z</time></trkpt><trkpt lat="43.37711458498418" lon="5.546975198340881"><ele>414.33333333333337</ele><time>2026-05-02T06:36:43Z</time></trkpt><trkpt lat="43.37714355535266" lon="5.546843429077913"><ele>414.0</ele><time>2026-05-02T06:36:45Z</time></trkpt><trkpt lat="43.37712472427708" lon="5.546727339303935"><ele>413.66666666666663</ele><time>2026-05-02T06:36:47Z</time></trkpt><trkpt lat="43.37711591888368" lon="5.54663294207715"><ele>413.3333333333333</ele><time>2026-05-02T06:36:49Z</time></trkpt><trkpt lat="43.37716428553616" lon="5.546559163801157"><ele>413.0</ele><time>2026-05-02T06:36:51Z</time></trkpt><trkpt lat="43.377246073976835" lon="5.5464860746843945"><ele>413.0</ele><time>2026-05-02T06:36:53Z</time></trkpt><trkpt lat="43.37729973814334" lon="5.546395378831034"><ele>413.0</ele><time>2026-05-02T06:36:55Z</time></trkpt><trkpt lat="43.37735242835166" lon="5.546296351191765"><ele>413.0</ele><time>2026-05-02T06:36:57Z</time></trkpt><trkpt lat="43.37739087614633" lon="5.546170953841672"><ele>413.0</ele><time>2026-05-02T06:36:59Z</time></trkpt><trkpt lat="43.37741420017052" lon="5.546056842739825"><ele>413.0</ele><time>2026-05-02T06:37:01Z</time></trkpt><trkpt lat="43.377476435531364" lon="5.545944860813413"><ele>412.79999999999995</ele><time>2026-05-02T06:37:03Z</time></trkpt><trkpt lat="43.37753234150207" lon="5.545826166515086"><ele>412.6</ele><time>2026-05-02T06:37:05Z</time></trkpt><trkpt lat="43.37756647728619" lon="5.545689099375687"><ele>412.4</ele><time>2026-05-02T06:37:07Z</time></trkpt><trkpt lat="43.37762101092878" lon="5.54556265754468"><ele>412.20000000000005</ele><time>2026-05-02T06:37:09Z</time></trkpt><trkpt lat="43.37763904710384" lon="5.545455123135661"><ele>412.0</ele><time>2026-05-02T06:37:11Z</time></trkpt><trkpt lat="43.37767593453317" lon="5.545332060640806"><ele>410.85714285714283</ele><time>2026-05-02T06:37:13Z</time></trkpt><trkpt lat="43.37771250410033" lon="5.545261222044975"><ele>409.7142857142857</ele><time>2026-05-02T06:37:14.999Z</time></trkpt><trkpt lat="43.37776237305526" lon="5.545160720009783"><ele>408.57142857142856</ele><time>2026-05-02T06:37:18.999Z</time></trkpt><trkpt lat="43.37783363303702" lon="5.545146860512619"><ele>407.42857142857144</ele><time>2026-05-02T06:37:20.999Z</time></trkpt><trkpt lat="43.37791120084429" lon="5.5450927950983395"><ele>406.2857142857143</ele><time>2026-05-02T06:37:22.999Z</time></trkpt><trkpt lat="43.377981783674926" lon="5.545084646872327"><ele>405.1428571428571</ele><time>2026-05-02T06:37:24.999Z</time></trkpt><trkpt lat="43.37804676555599" lon="5.54510427018353"><ele>404.0</ele><time>2026-05-02T06:37:26.999Z</time></trkpt><trkpt lat="43.37812161281935" lon="5.545124413568045"><ele>404.0</ele><time>2026-05-02T06:37:28.999Z</time></trkpt><trkpt lat="43.378182031858906" lon="5.545076734828598"><ele>404.0</ele><time>2026-05-02T06:37:31.999Z</time></trkpt><trkpt lat="43.37824899464733" lon="5.545022427109543"><ele>404.0</ele><time>2026-05-02T06:37:34.999Z</time></trkpt><trkpt lat="43.37820049419612" lon="5.545086093357997"><ele>404.0</ele><time>2026-05-02T06:37:58.999Z</time></trkpt><trkpt lat="43.37814662676368" lon="5.545141108540919"><ele>404.0</ele><time>2026-05-02T06:38:01.999Z</time></trkpt><trkpt lat="43.37810059200233" lon="5.545224711257362"><ele>404.0</ele><time>2026-05-02T06:38:05.999Z</time></trkpt><trkpt lat="43.378046806802885" lon="5.5453025231020865"><ele>404.0</ele><time>2026-05-02T06:38:09.999Z</time></trkpt><trkpt lat="43.37796885488015" lon="5.545339259652758"><ele>405.3333333333333</ele><time>2026-05-02T06:38:12.999Z</time></trkpt><trkpt lat="43.37792546144069" lon="5.545440050944981"><ele>406.66666666666663</ele><time>2026-05-02T06:38:15.999Z</time></trkpt><trkpt lat="43.37787715157672" lon="5.545503133784163"><ele>408.0</ele><time>2026-05-02T06:38:42Z</time></trkpt><trkpt lat="43.37782520018814" lon="5.545560959392184"><ele>409.33333333333337</ele><time>2026-05-02T06:38:45Z</time></trkpt><trkpt lat="43.37772529776199" lon="5.54561758712813"><ele>410.6666666666667</ele><time>2026-05-02T06:38:48Z</time></trkpt><trkpt lat="43.37763806895859" lon="5.5455995190237575"><ele>412.0</ele><time>2026-05-02T06:38:50Z</time></trkpt><trkpt lat="43.37756788904319" lon="5.545663380917923"><ele>411.99999999999994</ele><time>2026-05-02T06:38:53Z</time></trkpt><trkpt lat="43.37754549004812" lon="5.545767389176577"><ele>412.0</ele><time>2026-05-02T06:38:55Z</time></trkpt><trkpt lat="43.37750872728131" lon="5.545868853284887"><ele>412.0</ele><time>2026-05-02T06:38:57Z</time></trkpt><trkpt lat="43.377472609359806" lon="5.545962028298606"><ele>412.0</ele><time>2026-05-02T06:38:59Z</time></trkpt><trkpt lat="43.37743595127895" lon="5.546046751500241"><ele>412.0</ele><time>2026-05-02T06:39:02Z</time></trkpt><trkpt lat="43.37744272620155" lon="5.546134851520322"><ele>411.99999999999994</ele><time>2026-05-02T06:39:12Z</time></trkpt><trkpt lat="43.37749259327318" lon="5.546062171383834"><ele>412.0</ele><time>2026-05-02T06:39:16Z</time></trkpt><trkpt lat="43.37753343898864" lon="5.545995493341645"><ele>412.00000000000006</ele><time>2026-05-02T06:39:18Z</time></trkpt><trkpt lat="43.377582295766565" lon="5.545921626694122"><ele>412.0</ele><time>2026-05-02T06:39:19.999Z</time></trkpt><trkpt lat="43.377639439928" lon="5.545840605935935"><ele>412.0</ele><time>2026-05-02T06:39:21.999Z</time></trkpt><trkpt lat="43.377706324459105" lon="5.545757728709789"><ele>412.0</ele><time>2026-05-02T06:39:23.999Z</time></trkpt><trkpt lat="43.37779990170168" lon="5.545736740436441"><ele>412.00000000000006</ele><time>2026-05-02T06:39:25.999Z</time></trkpt><trkpt lat="43.37788288291519" lon="5.545711809398122"><ele>412.0</ele><time>2026-05-02T06:39:27.999Z</time></trkpt><trkpt lat="43.37796773880875" lon="5.5456605975638915"><ele>410.6666666666667</ele><time>2026-05-02T06:39:29.999Z</time></trkpt><trkpt lat="43.378057023164736" lon="5.545619940408399"><ele>409.33333333333337</ele><time>2026-05-02T06:39:31.999Z</time></trkpt><trkpt lat="43.37813275526411" lon="5.545625831108427"><ele>408.0</ele><time>2026-05-02T06:39:33.999Z</time></trkpt><trkpt lat="43.37821025604385" lon="5.545590121477791"><ele>406.66666666666663</ele><time>2026-05-02T06:39:35.999Z</time></trkpt><trkpt lat="43.37822661698399" lon="5.5454727466995495"><ele>405.3333333333333</ele><time>2026-05-02T06:39:37.999Z</time></trkpt><trkpt lat="43.378296651427775" lon="5.545408674617399"><ele>404.0</ele><time>2026-05-02T06:39:39.999Z</time></trkpt><trkpt lat="43.378377862544966" lon="5.545366303716542"><ele>403.99999999999994</ele><time>2026-05-02T06:39:41.999Z</time></trkpt><trkpt lat="43.378453824946014" lon="5.5453029092343"><ele>404.0</ele><time>2026-05-02T06:39:43.999Z</time></trkpt><trkpt lat="43.378521479864" lon="5.545276351611894"><ele>404.0</ele><time>2026-05-02T06:39:45.999Z</time></trkpt><trkpt lat="43.37857110282955" lon="5.545345389744699"><ele>404.0</ele><time>2026-05-02T06:39:47.999Z</time></trkpt><trkpt lat="43.37863308395731" lon="5.545410069094837"><ele>403.99999999999994</ele><time>2026-05-02T06:39:49.999Z</time></trkpt><trkpt lat="43.37869923520825" lon="5.545451564946847"><ele>404.0</ele><time>2026-05-02T06:39:51.999Z</time></trkpt><trkpt lat="43.378750736578425" lon="5.545533247538023"><ele>403.99999999999994</ele><time>2026-05-02T06:39:53.999Z</time></trkpt><trkpt lat="43.37874821639223" lon="5.545637611564948"><ele>404.0</ele><time>2026-05-02T06:39:55.999Z</time></trkpt><trkpt lat="43.37872567973297" lon="5.545756056225007"><ele>404.0</ele><time>2026-05-02T06:39:57.999Z</time></trkpt><trkpt lat="43.378688878560375" lon="5.545874224973801"><ele>404.0</ele><time>2026-05-02T06:39:59.999Z</time></trkpt><trkpt lat="43.37862275244181" lon="5.545970109219766"><ele>403.99999999999994</ele><time>2026-05-02T06:40:01.999Z</time></trkpt><trkpt lat="43.37858132952338" lon="5.5460610557036425"><ele>404.0</ele><time>2026-05-02T06:40:03.999Z</time></trkpt><trkpt lat="43.378604736340286" lon="5.546196697235428"><ele>403.3333333333333</ele><time>2026-05-02T06:40:06.999Z</time></trkpt><trkpt lat="43.378645528753985" lon="5.546337916704045"><ele>402.66666666666663</ele><time>2026-05-02T06:40:08.999Z</time></trkpt><trkpt lat="43.37868115214623" lon="5.546410183176541"><ele>402.0</ele><time>2026-05-02T06:40:10.999Z</time></trkpt><trkpt lat="43.378755205618184" lon="5.546406772531292"><ele>401.33333333333337</ele><time>2026-05-02T06:40:12.999Z</time></trkpt><trkpt lat="43.378829085492924" lon="5.546367370237792"><ele>400.6666666666667</ele><time>2026-05-02T06:40:14.999Z</time></trkpt><trkpt lat="43.37893987323295" lon="5.5463656334663325"><ele>400.0</ele><time>2026-05-02T06:40:16.999Z</time></trkpt><trkpt lat="43.379049911703774" lon="5.546365063932017"><ele>398.50000000000006</ele><time>2026-05-02T06:40:18.999Z</time></trkpt><trkpt lat="43.37913856682978" lon="5.546347772097501"><ele>397.0</ele><time>2026-05-02T06:40:20.999Z</time></trkpt><trkpt lat="43.37919785076058" lon="5.546314194637798"><ele>395.5</ele><time>2026-05-02T06:40:22.999Z</time></trkpt><trkpt lat="43.37926813883012" lon="5.546270882633177"><ele>394.0</ele><time>2026-05-02T06:40:24.998Z</time></trkpt><trkpt lat="43.37934722594761" lon="5.546187185647386"><ele>392.50000000000006</ele><time>2026-05-02T06:40:27.998Z</time></trkpt><trkpt lat="43.37943342258672" lon="5.54617277321474"><ele>391.0</ele><time>2026-05-02T06:40:29.998Z</time></trkpt><trkpt lat="43.37953063631298" lon="5.546210141684655"><ele>390.4</ele><time>2026-05-02T06:40:31.998Z</time></trkpt><trkpt lat="43.37963137428511" lon="5.546235458231102"><ele>389.8</ele><time>2026-05-02T06:40:33.998Z</time></trkpt><trkpt lat="43.379718999492546" lon="5.5462912904499015"><ele>389.2</ele><time>2026-05-02T06:40:35.998Z</time></trkpt><trkpt lat="43.379772745378695" lon="5.546387218121633"><ele>388.59999999999997</ele><time>2026-05-02T06:40:37.998Z</time></trkpt><trkpt lat="43.37981805433549" lon="5.546479339676519"><ele>388.0</ele><time>2026-05-02T06:40:39.998Z</time></trkpt><trkpt lat="43.37981283167804" lon="5.546616629770584"><ele>385.4</ele><time>2026-05-02T06:40:41.998Z</time></trkpt><trkpt lat="43.37979589136139" lon="5.546749411053523"><ele>382.79999999999995</ele><time>2026-05-02T06:40:43.998Z</time></trkpt><trkpt lat="43.37976992846147" lon="5.546900935691999"><ele>380.2</ele><time>2026-05-02T06:40:46Z</time></trkpt><trkpt lat="43.37976183173237" lon="5.5470244178712065"><ele>377.6</ele><time>2026-05-02T06:40:48Z</time></trkpt><trkpt lat="43.379767493847275" lon="5.547144531685547"><ele>375.0</ele><time>2026-05-02T06:40:50Z</time></trkpt><trkpt lat="43.379779382053805" lon="5.547246533035459"><ele>374.5</ele><time>2026-05-02T06:40:52Z</time></trkpt><trkpt lat="43.37985263789574" lon="5.547326467041609"><ele>374.0</ele><time>2026-05-02T06:40:57Z</time></trkpt><trkpt lat="43.37992026072812" lon="5.547346818357828"><ele>373.5</ele><time>2026-05-02T06:40:59Z</time></trkpt><trkpt lat="43.38000614563787" lon="5.54733339723542"><ele>373.0</ele><time>2026-05-02T06:41:01Z</time></trkpt><trkpt lat="43.38012693424816" lon="5.54737090988567"><ele>372.5</ele><time>2026-05-02T06:41:03Z</time></trkpt><trkpt lat="43.38018530609838" lon="5.547408766173223"><ele>372.0</ele><time>2026-05-02T06:41:04Z</time></trkpt><trkpt lat="43.380257837487044" lon="5.547432348828229"><ele>372.0</ele><time>2026-05-02T06:41:06Z</time></trkpt><trkpt lat="43.38029258964898" lon="5.5473321303238965"><ele>372.0</ele><time>2026-05-02T06:41:22Z</time></trkpt><trkpt lat="43.38031820190524" lon="5.5472460290582575"><ele>372.0</ele><time>2026-05-02T06:41:23.999Z</time></trkpt><trkpt lat="43.38035109579964" lon="5.547146700120424"><ele>372.0</ele><time>2026-05-02T06:41:25.999Z</time></trkpt><trkpt lat="43.38038455779417" lon="5.547024063841016"><ele>372.0</ele><time>2026-05-02T06:41:27.999Z</time></trkpt><trkpt lat="43.380409442265574" lon="5.546908861544755"><ele>372.0</ele><time>2026-05-02T06:41:29.999Z</time></trkpt><trkpt lat="43.38046938702579" lon="5.546771511903402"><ele>371.0</ele><time>2026-05-02T06:41:31.999Z</time></trkpt><trkpt lat="43.380526940088295" lon="5.546652512468725"><ele>370.0</ele><time>2026-05-02T06:41:33.999Z</time></trkpt><trkpt lat="43.38055472199264" lon="5.546506773709484"><ele>369.0</ele><time>2026-05-02T06:41:35.999Z</time></trkpt><trkpt lat="43.38060582011032" lon="5.54637670378409"><ele>368.0</ele><time>2026-05-02T06:41:37.999Z</time></trkpt><trkpt lat="43.380655267122954" lon="5.546263182214247"><ele>367.0</ele><time>2026-05-02T06:41:39.999Z</time></trkpt><trkpt lat="43.3806851708636" lon="5.546127758665227"><ele>365.8333333333333</ele><time>2026-05-02T06:41:41.999Z</time></trkpt><trkpt lat="43.380732408940084" lon="5.54598271591071"><ele>364.66666666666663</ele><time>2026-05-02T06:41:43.999Z</time></trkpt><trkpt lat="43.38079685666531" lon="5.545855513289293"><ele>363.5</ele><time>2026-05-02T06:41:45.999Z</time></trkpt><trkpt lat="43.3808408929866" lon="5.545772196752731"><ele>362.3333333333333</ele><time>2026-05-02T06:41:48.999Z</time></trkpt><trkpt lat="43.38083202092934" lon="5.545684595898021"><ele>361.1666666666667</ele><time>2026-05-02T06:41:53.999Z</time></trkpt><trkpt lat="43.38081247619911" lon="5.545597979223015"><ele>360.0</ele><time>2026-05-02T06:42:04.999Z</time></trkpt><trkpt lat="43.3807831543215" lon="5.545496061394012"><ele>360.0</ele><time>2026-05-02T06:42:06.999Z</time></trkpt><trkpt lat="43.380735578695436" lon="5.5454136984256595"><ele>360.0</ele><time>2026-05-02T06:42:08.999Z</time></trkpt><trkpt lat="43.38071399689147" lon="5.545323377883372"><ele>360.0</ele><time>2026-05-02T06:42:10.999Z</time></trkpt><trkpt lat="43.38068099824349" lon="5.545233418051825"><ele>360.0</ele><time>2026-05-02T06:42:13.999Z</time></trkpt><trkpt lat="43.38063245314214" lon="5.545132077131982"><ele>360.0</ele><time>2026-05-02T06:42:17.999Z</time></trkpt><trkpt lat="43.380597001653946" lon="5.545051713907781"><ele>360.0</ele><time>2026-05-02T06:42:20.999Z</time></trkpt><trkpt lat="43.380542784620694" lon="5.544978916022008"><ele>361.0</ele><time>2026-05-02T06:42:23.999Z</time></trkpt><trkpt lat="43.38049064455161" lon="5.544910597265005"><ele>362.0</ele><time>2026-05-02T06:42:26.999Z</time></trkpt><trkpt lat="43.38043219588875" lon="5.544817400666282"><ele>363.0</ele><time>2026-05-02T06:42:28.999Z</time></trkpt><trkpt lat="43.38038777225481" lon="5.544721510860885"><ele>364.0</ele><time>2026-05-02T06:42:30.998Z</time></trkpt><trkpt lat="43.38032547684983" lon="5.54463652358988"><ele>365.0</ele><time>2026-05-02T06:42:32.998Z</time></trkpt><trkpt lat="43.380262207927196" lon="5.544564927260722"><ele>366.0</ele><time>2026-05-02T06:42:34.998Z</time></trkpt><trkpt lat="43.38023327232147" lon="5.5444695375907465"><ele>363.6666666666667</ele><time>2026-05-02T06:42:36.998Z</time></trkpt><trkpt lat="43.38023896834357" lon="5.544375320279065"><ele>361.3333333333333</ele><time>2026-05-02T06:42:49.998Z</time></trkpt><trkpt lat="43.38021858285927" lon="5.544281388758372"><ele>359.0</ele><time>2026-05-02T06:42:56Z</time></trkpt><trkpt lat="43.38019565125236" lon="5.544178959850791"><ele>356.66666666666663</ele><time>2026-05-02T06:43:00Z</time></trkpt><trkpt lat="43.38016950389078" lon="5.544063714339835"><ele>354.3333333333333</ele><time>2026-05-02T06:43:23Z</time></trkpt><trkpt lat="43.38012137641124" lon="5.543967620954753"><ele>352.0</ele><time>2026-05-02T06:43:25.999Z</time></trkpt><trkpt lat="43.380060757435544" lon="5.543913613059206"><ele>352.0</ele><time>2026-05-02T06:43:27.999Z</time></trkpt><trkpt lat="43.37996814948084" lon="5.543851420882199"><ele>352.0</ele><time>2026-05-02T06:43:29.999Z</time></trkpt><trkpt lat="43.37989024144394" lon="5.543773872964231"><ele>352.0</ele><time>2026-05-02T06:43:31.999Z</time></trkpt><trkpt lat="43.37984521825668" lon="5.543675275682825"><ele>352.0</ele><time>2026-05-02T06:43:33.999Z</time></trkpt><trkpt lat="43.379789820986936" lon="5.543567612845817"><ele>352.0</ele><time>2026-05-02T06:43:35.999Z</time></trkpt><trkpt lat="43.37972109899369" lon="5.5434589187549355"><ele>352.66666666666663</ele><time>2026-05-02T06:43:37.999Z</time></trkpt><trkpt lat="43.379669908487685" lon="5.5433617431548665"><ele>353.3333333333333</ele><time>2026-05-02T06:43:39.999Z</time></trkpt><trkpt lat="43.37961282056231" lon="5.543274670857793"><ele>354.0</ele><time>2026-05-02T06:43:41.999Z</time></trkpt><trkpt lat="43.37959107011271" lon="5.5431645799410925"><ele>354.6666666666667</ele><time>2026-05-02T06:43:43.999Z</time></trkpt><trkpt lat="43.37954984641931" lon="5.543041758311979"><ele>355.33333333333337</ele><time>2026-05-02T06:43:45.999Z</time></trkpt><trkpt lat="43.379499720283086" lon="5.542933689608358"><ele>356.0</ele><time>2026-05-02T06:43:47.999Z</time></trkpt><trkpt lat="43.37944287215416" lon="5.5428355674826975"><ele>354.33333333333337</ele><time>2026-05-02T06:43:49.999Z</time></trkpt><trkpt lat="43.37938865873222" lon="5.542747541539005"><ele>352.6666666666667</ele><time>2026-05-02T06:43:51.999Z</time></trkpt><trkpt lat="43.37933520003792" lon="5.5426644093318735"><ele>351.0</ele><time>2026-05-02T06:43:53.999Z</time></trkpt><trkpt lat="43.379271093860105" lon="5.542579212377627"><ele>349.3333333333333</ele><time>2026-05-02T06:43:55.999Z</time></trkpt><trkpt lat="43.37919307505507" lon="5.542498285592233"><ele>347.66666666666663</ele><time>2026-05-02T06:43:57.999Z</time></trkpt><trkpt lat="43.379133454648745" lon="5.542439138177514"><ele>346.0</ele><time>2026-05-02T06:43:59.999Z</time></trkpt><trkpt lat="43.37908071834128" lon="5.5423803748469895"><ele>346.0</ele><time>2026-05-02T06:44:01.999Z</time></trkpt><trkpt lat="43.37901529012733" lon="5.542295175213954"><ele>346.0</ele><time>2026-05-02T06:44:03.999Z</time></trkpt><trkpt lat="43.378950381309025" lon="5.542188765092514"><ele>346.0</ele><time>2026-05-02T06:44:05.999Z</time></trkpt><trkpt lat="43.37886226833869" lon="5.54206618178523"><ele>346.0</ele><time>2026-05-02T06:44:07.999Z</time></trkpt><trkpt lat="43.37879377504673" lon="5.54195701203029"><ele>346.0</ele><time>2026-05-02T06:44:09.999Z</time></trkpt><trkpt lat="43.378745237315336" lon="5.541876650893015"><ele>345.66666666666663</ele><time>2026-05-02T06:44:10.999Z</time></trkpt><trkpt lat="43.3786903480162" lon="5.541815976439328"><ele>345.3333333333333</ele><time>2026-05-02T06:44:11.999Z</time></trkpt><trkpt lat="43.37863951722414" lon="5.541753439747183"><ele>345.0</ele><time>2026-05-02T06:44:12.999Z</time></trkpt><trkpt lat="43.37857508965653" lon="5.541663127739851"><ele>344.6666666666667</ele><time>2026-05-02T06:44:14.999Z</time></trkpt><trkpt lat="43.37851375062586" lon="5.541604595266373"><ele>344.33333333333337</ele><time>2026-05-02T06:44:16.999Z</time></trkpt><trkpt lat="43.37844678675761" lon="5.541531139184902"><ele>344.0</ele><time>2026-05-02T06:44:18.999Z</time></trkpt><trkpt lat="43.37839217331924" lon="5.541422233861607"><ele>344.0</ele><time>2026-05-02T06:44:20.999Z</time></trkpt><trkpt lat="43.378363954102745" lon="5.541285593082026"><ele>344.0</ele><time>2026-05-02T06:44:22.999Z</time></trkpt><trkpt lat="43.37834980204123" lon="5.541196305965032"><ele>344.0</ele><time>2026-05-02T06:44:24.999Z</time></trkpt><trkpt lat="43.37834123850056" lon="5.541096075410222"><ele>344.0</ele><time>2026-05-02T06:44:27.999Z</time></trkpt><trkpt lat="43.378536197083484" lon="5.540841444240897"><ele>343.6</ele><time>2026-05-02T06:44:30.999Z</time></trkpt><trkpt lat="43.3785021202092" lon="5.540767174336871"><ele>343.2</ele><time>2026-05-02T06:44:34.998Z</time></trkpt><trkpt lat="43.378396524095706" lon="5.54091540883003"><ele>342.8</ele><time>2026-05-02T06:44:39.998Z</time></trkpt><trkpt lat="43.378459252068694" lon="5.541012107102699"><ele>342.40000000000003</ele><time>2026-05-02T06:44:41.998Z</time></trkpt><trkpt lat="43.378487568518274" lon="5.541102898022629"><ele>342.0</ele><time>2026-05-02T06:44:43.998Z</time></trkpt><trkpt lat="43.37855896479864" lon="5.54119443724041"><ele>341.8333333333333</ele><time>2026-05-02T06:44:45.998Z</time></trkpt><trkpt lat="43.378625817817394" lon="5.541265005845869"><ele>341.6666666666667</ele><time>2026-05-02T06:44:47.998Z</time></trkpt><trkpt lat="43.378659722651754" lon="5.541369967126169"><ele>341.5</ele><time>2026-05-02T06:44:49.998Z</time></trkpt><trkpt lat="43.37871358146894" lon="5.541424597110206"><ele>341.33333333333337</ele><time>2026-05-02T06:44:51.998Z</time></trkpt><trkpt lat="43.37877928946305" lon="5.541476554981501"><ele>341.1666666666667</ele><time>2026-05-02T06:44:54.998Z</time></trkpt><trkpt lat="43.37884709435263" lon="5.541446262326112"><ele>341.0</ele><time>2026-05-02T06:44:58Z</time></trkpt><trkpt lat="43.37890390763821" lon="5.541287456801892"><ele>341.0</ele><time>2026-05-02T06:45:01Z</time></trkpt><trkpt lat="43.37899090434744" lon="5.541325393229777"><ele>341.0</ele><time>2026-05-02T06:45:20Z</time></trkpt><trkpt lat="43.37890469941236" lon="5.541321147551254"><ele>341.0</ele><time>2026-05-02T06:45:23Z</time></trkpt><trkpt lat="43.37883480384336" lon="5.541241393565615"><ele>341.0</ele><time>2026-05-02T06:45:25Z</time></trkpt><trkpt lat="43.3787648855242" lon="5.541153862745202"><ele>341.0</ele><time>2026-05-02T06:45:26.999Z</time></trkpt><trkpt lat="43.378692210907325" lon="5.541057123969555"><ele>341.20000000000005</ele><time>2026-05-02T06:45:28.999Z</time></trkpt><trkpt lat="43.378621183478465" lon="5.540957719817473"><ele>341.40000000000003</ele><time>2026-05-02T06:45:30.999Z</time></trkpt><trkpt lat="43.37855278344654" lon="5.540844322569397"><ele>341.6</ele><time>2026-05-02T06:45:32.999Z</time></trkpt><trkpt lat="43.37849357920855" lon="5.54071441453736"><ele>341.8</ele><time>2026-05-02T06:45:34.999Z</time></trkpt><trkpt lat="43.37845569131897" lon="5.540566117572404"><ele>342.0</ele><time>2026-05-02T06:45:36.999Z</time></trkpt><trkpt lat="43.37843419544518" lon="5.540408726968414"><ele>342.0</ele><time>2026-05-02T06:45:38.999Z</time></trkpt><trkpt lat="43.37841864911884" lon="5.540249529523098"><ele>342.0</ele><time>2026-05-02T06:45:40.999Z</time></trkpt><trkpt lat="43.3784155199496" lon="5.540082740072403"><ele>342.0</ele><time>2026-05-02T06:45:42.999Z</time></trkpt><trkpt lat="43.378416167675155" lon="5.539912815714396"><ele>342.0</ele><time>2026-05-02T06:45:44.999Z</time></trkpt><trkpt lat="43.378423865420984" lon="5.539741225264544"><ele>342.0</ele><time>2026-05-02T06:45:46.999Z</time></trkpt><trkpt lat="43.37844019497965" lon="5.539575078016771"><ele>342.0</ele><time>2026-05-02T06:45:48.999Z</time></trkpt><trkpt lat="43.378453244131364" lon="5.539414147420882"><ele>342.0</ele><time>2026-05-02T06:45:50.999Z</time></trkpt><trkpt lat="43.378467975045346" lon="5.539276522352998"><ele>342.0</ele><time>2026-05-02T06:45:52.999Z</time></trkpt><trkpt lat="43.37847676736173" lon="5.539137303724718"><ele>342.0</ele><time>2026-05-02T06:45:54.999Z</time></trkpt><trkpt lat="43.378462000745486" lon="5.53900653362996"><ele>342.20000000000005</ele><time>2026-05-02T06:45:56.999Z</time></trkpt><trkpt lat="43.37842991837264" lon="5.538883898341436"><ele>342.4</ele><time>2026-05-02T06:45:58.999Z</time></trkpt><trkpt lat="43.37836344748471" lon="5.538785286658185"><ele>342.6</ele><time>2026-05-02T06:46:00.999Z</time></trkpt><trkpt lat="43.37828579313106" lon="5.538701964004583"><ele>342.79999999999995</ele><time>2026-05-02T06:46:02.999Z</time></trkpt><trkpt lat="43.37819909187622" lon="5.5386400647834115"><ele>343.0</ele><time>2026-05-02T06:46:04.999Z</time></trkpt><trkpt lat="43.37810265336502" lon="5.538592627697514"><ele>342.59999999999997</ele><time>2026-05-02T06:46:06.999Z</time></trkpt><trkpt lat="43.37798360588924" lon="5.538556002396024"><ele>342.2</ele><time>2026-05-02T06:46:08.999Z</time></trkpt><trkpt lat="43.37785652046731" lon="5.538578013462714"><ele>341.8</ele><time>2026-05-02T06:46:10.999Z</time></trkpt><trkpt lat="43.37779380544179" lon="5.538611036101385"><ele>341.4</ele><time>2026-05-02T06:46:11.999Z</time></trkpt><trkpt lat="43.377735933622596" lon="5.53865687806937"><ele>341.0</ele><time>2026-05-02T06:46:12.999Z</time></trkpt><trkpt lat="43.37767472335817" lon="5.538710153880244"><ele>340.57142857142856</ele><time>2026-05-02T06:46:13.999Z</time></trkpt><trkpt lat="43.377619379551504" lon="5.538773753972687"><ele>340.14285714285717</ele><time>2026-05-02T06:46:14.999Z</time></trkpt><trkpt lat="43.37756212636851" lon="5.53883509217024"><ele>339.7142857142857</ele><time>2026-05-02T06:46:15.999Z</time></trkpt><trkpt lat="43.37749976222765" lon="5.538897098096711"><ele>339.2857142857143</ele><time>2026-05-02T06:46:16.999Z</time></trkpt><trkpt lat="43.37743830248144" lon="5.538959464404541"><ele>338.85714285714283</ele><time>2026-05-02T06:46:17.999Z</time></trkpt><trkpt lat="43.377374803760645" lon="5.539014279056163"><ele>338.42857142857144</ele><time>2026-05-02T06:46:18.999Z</time></trkpt><trkpt lat="43.37731103258196" lon="5.539062385371429"><ele>338.0</ele><time>2026-05-02T06:46:19.999Z</time></trkpt><trkpt lat="43.37724170344631" lon="5.539098736915974"><ele>337.42857142857144</ele><time>2026-05-02T06:46:20.999Z</time></trkpt><trkpt lat="43.37716664794178" lon="5.539105683974997"><ele>336.85714285714283</ele><time>2026-05-02T06:46:21.999Z</time></trkpt><trkpt lat="43.37709150696508" lon="5.539092916116383"><ele>336.2857142857143</ele><time>2026-05-02T06:46:22.999Z</time></trkpt><trkpt lat="43.37702474226639" lon="5.539068141969293"><ele>335.7142857142857</ele><time>2026-05-02T06:46:23.999Z</time></trkpt><trkpt lat="43.37695837845055" lon="5.539034951015629"><ele>335.14285714285717</ele><time>2026-05-02T06:46:24.999Z</time></trkpt><trkpt lat="43.3768965134053" lon="5.538999067667643"><ele>334.57142857142856</ele><time>2026-05-02T06:46:25.999Z</time></trkpt><trkpt lat="43.376834796048605" lon="5.538958162844082"><ele>334.0</ele><time>2026-05-02T06:46:26.999Z</time></trkpt><trkpt lat="43.376777223604286" lon="5.538916698631724"><ele>334.0</ele><time>2026-05-02T06:46:27.999Z</time></trkpt><trkpt lat="43.37671938798602" lon="5.538875522155676"><ele>334.0</ele><time>2026-05-02T06:46:28.999Z</time></trkpt><trkpt lat="43.37666297456771" lon="5.538833717951618"><ele>334.0</ele><time>2026-05-02T06:46:29.999Z</time></trkpt><trkpt lat="43.37660228778984" lon="5.538787041100208"><ele>334.0</ele><time>2026-05-02T06:46:30.999Z</time></trkpt><trkpt lat="43.37654146596304" lon="5.538746316143476"><ele>334.0</ele><time>2026-05-02T06:46:31.999Z</time></trkpt><trkpt lat="43.376481457800104" lon="5.538701930688723"><ele>334.0</ele><time>2026-05-02T06:46:32.999Z</time></trkpt><trkpt lat="43.37641960075516" lon="5.538657833883062"><ele>334.0</ele><time>2026-05-02T06:46:33.999Z</time></trkpt><trkpt lat="43.376360811785666" lon="5.538617209689354"><ele>334.0</ele><time>2026-05-02T06:46:34.998Z</time></trkpt><trkpt lat="43.3762988908348" lon="5.538574103661263"><ele>334.0</ele><time>2026-05-02T06:46:35.998Z</time></trkpt><trkpt lat="43.376236573680174" lon="5.538529971547989"><ele>334.0</ele><time>2026-05-02T06:46:36.998Z</time></trkpt><trkpt lat="43.37617770411765" lon="5.538485796665965"><ele>334.0</ele><time>2026-05-02T06:46:37.998Z</time></trkpt><trkpt lat="43.376118751110795" lon="5.538438575443645"><ele>334.0</ele><time>2026-05-02T06:46:38.998Z</time></trkpt><trkpt lat="43.37606036106303" lon="5.5383877656444715"><ele>334.0</ele><time>2026-05-02T06:46:39.998Z</time></trkpt><trkpt lat="43.37600297871173" lon="5.538336346089379"><ele>334.0</ele><time>2026-05-02T06:46:40.998Z</time></trkpt><trkpt lat="43.37594837031238" lon="5.538289852833068"><ele>334.0</ele><time>2026-05-02T06:46:41.998Z</time></trkpt><trkpt lat="43.37589630892818" lon="5.538235002300233"><ele>334.0</ele><time>2026-05-02T06:46:42.998Z</time></trkpt><trkpt lat="43.37584755327367" lon="5.538180036053322"><ele>334.0</ele><time>2026-05-02T06:46:43.998Z</time></trkpt><trkpt lat="43.375750371529676" lon="5.5380756604451795"><ele>334.0</ele><time>2026-05-02T06:46:45.998Z</time></trkpt><trkpt lat="43.375655401326895" lon="5.537977684270446"><ele>334.0</ele><time>2026-05-02T06:46:47.998Z</time></trkpt><trkpt lat="43.37556584201155" lon="5.537882581372989"><ele>333.0</ele><time>2026-05-02T06:46:49.998Z</time></trkpt><trkpt lat="43.37548146790825" lon="5.537796262773723"><ele>332.0</ele><time>2026-05-02T06:46:51.998Z</time></trkpt><trkpt lat="43.37540086187981" lon="5.537720451277971"><ele>331.0</ele><time>2026-05-02T06:46:53.998Z</time></trkpt><trkpt lat="43.37532133241454" lon="5.537654060850008"><ele>330.0</ele><time>2026-05-02T06:46:55.998Z</time></trkpt><trkpt lat="43.37524932617927" lon="5.537585774555021"><ele>329.0</ele><time>2026-05-02T06:46:57.998Z</time></trkpt><trkpt lat="43.37518207134618" lon="5.537501457102671"><ele>329.0</ele><time>2026-05-02T06:46:59.998Z</time></trkpt><trkpt lat="43.37512463874518" lon="5.537436572969479"><ele>329.0</ele><time>2026-05-02T06:47:02Z</time></trkpt><trkpt lat="43.375050891564406" lon="5.537424607102376"><ele>329.0</ele><time>2026-05-02T06:47:07Z</time></trkpt><trkpt lat="43.375054128439935" lon="5.5372347646981925"><ele>329.0</ele><time>2026-05-02T06:47:09Z</time></trkpt><trkpt lat="43.37502359317358" lon="5.53715717481496"><ele>329.0</ele><time>2026-05-02T06:47:11Z</time></trkpt><trkpt lat="43.37499610194451" lon="5.537069498573581"><ele>329.0</ele><time>2026-05-02T06:47:13Z</time></trkpt><trkpt lat="43.374963501170136" lon="5.536983518336873"><ele>329.85714285714283</ele><time>2026-05-02T06:47:15Z</time></trkpt><trkpt lat="43.374913655845035" lon="5.5369041980924285"><ele>330.7142857142857</ele><time>2026-05-02T06:47:17Z</time></trkpt><trkpt lat="43.37484650394958" lon="5.536838908076136"><ele>331.57142857142856</ele><time>2026-05-02T06:47:19Z</time></trkpt><trkpt lat="43.374777713069975" lon="5.536782993813814"><ele>332.42857142857144</ele><time>2026-05-02T06:47:21Z</time></trkpt><trkpt lat="43.37470966538511" lon="5.536732599161866"><ele>333.2857142857143</ele><time>2026-05-02T06:47:23Z</time></trkpt><trkpt lat="43.37465023906646" lon="5.536682291412425"><ele>334.1428571428571</ele><time>2026-05-02T06:47:25Z</time></trkpt><trkpt lat="43.37459754676852" lon="5.53663458670891"><ele>335.0</ele><time>2026-05-02T06:47:28Z</time></trkpt><trkpt lat="43.37453103510573" lon="5.5365770991034955"><ele>335.0</ele><time>2026-05-02T06:47:31Z</time></trkpt><trkpt lat="43.37446307144732" lon="5.536519810816335"><ele>335.0</ele><time>2026-05-02T06:47:32.999Z</time></trkpt><trkpt lat="43.37438895912356" lon="5.536472214628232"><ele>335.0</ele><time>2026-05-02T06:47:34.999Z</time></trkpt><trkpt lat="43.374307539345736" lon="5.536462595948378"><ele>335.0</ele><time>2026-05-02T06:47:36.999Z</time></trkpt><trkpt lat="43.3742092602118" lon="5.536509253316125"><ele>335.0</ele><time>2026-05-02T06:47:38.999Z</time></trkpt><trkpt lat="43.37415398775758" lon="5.536578898545169"><ele>335.0</ele><time>2026-05-02T06:47:40.999Z</time></trkpt><trkpt lat="43.374111182936375" lon="5.536653531711197"><ele>335.0</ele><time>2026-05-02T06:47:42.999Z</time></trkpt><trkpt lat="43.37403334375831" lon="5.536712652072652"><ele>335.0</ele><time>2026-05-02T06:47:45.999Z</time></trkpt><trkpt lat="43.373950516942216" lon="5.536713025815838"><ele>335.0</ele><time>2026-05-02T06:47:48.999Z</time></trkpt><trkpt lat="43.37386506578407" lon="5.536687839608067"><ele>335.0</ele><time>2026-05-02T06:47:51.999Z</time></trkpt><trkpt lat="43.3738017946745" lon="5.536613034946722"><ele>335.0</ele><time>2026-05-02T06:47:54.999Z</time></trkpt><trkpt lat="43.37374963505764" lon="5.536507918093367"><ele>335.0</ele><time>2026-05-02T06:47:57.999Z</time></trkpt><trkpt lat="43.373744159431176" lon="5.536372500833866"><ele>334.85714285714283</ele><time>2026-05-02T06:48:00.999Z</time></trkpt><trkpt lat="43.37375259781951" lon="5.53628284922321"><ele>334.7142857142857</ele><time>2026-05-02T06:48:02.999Z</time></trkpt><trkpt lat="43.37376983531484" lon="5.536196055560689"><ele>334.57142857142856</ele><time>2026-05-02T06:48:04.999Z</time></trkpt><trkpt lat="43.373811023878766" lon="5.5361167955305195"><ele>334.42857142857144</ele><time>2026-05-02T06:48:06.999Z</time></trkpt><trkpt lat="43.37381523780427" lon="5.536008998863479"><ele>334.2857142857143</ele><time>2026-05-02T06:48:08.999Z</time></trkpt><trkpt lat="43.37382257200172" lon="5.535902810118888"><ele>334.1428571428571</ele><time>2026-05-02T06:48:10.999Z</time></trkpt><trkpt lat="43.37381645567306" lon="5.535799529487692"><ele>334.0</ele><time>2026-05-02T06:48:12.999Z</time></trkpt><trkpt lat="43.37379971268922" lon="5.5356923693944875"><ele>334.0</ele><time>2026-05-02T06:48:14.999Z</time></trkpt><trkpt lat="43.373782815939954" lon="5.535590405590589"><ele>334.0</ele><time>2026-05-02T06:48:16.999Z</time></trkpt><trkpt lat="43.373770628674514" lon="5.535487904532505"><ele>334.0</ele><time>2026-05-02T06:48:18.999Z</time></trkpt><trkpt lat="43.373750455390095" lon="5.535381991092099"><ele>334.0</ele><time>2026-05-02T06:48:20.999Z</time></trkpt><trkpt lat="43.3737236850438" lon="5.535283602748668"><ele>334.0</ele><time>2026-05-02T06:48:22.999Z</time></trkpt><trkpt lat="43.37369095305153" lon="5.535202183841669"><ele>334.0</ele><time>2026-05-02T06:48:24.999Z</time></trkpt><trkpt lat="43.37365170685826" lon="5.535120800820989"><ele>334.0</ele><time>2026-05-02T06:48:26.999Z</time></trkpt><trkpt lat="43.37361740661042" lon="5.535042333905205"><ele>336.5</ele><time>2026-05-02T06:48:28.999Z</time></trkpt><trkpt lat="43.373562322920314" lon="5.534944758968393"><ele>339.0</ele><time>2026-05-02T06:48:31.999Z</time></trkpt><trkpt lat="43.37352749293641" lon="5.534838213338477"><ele>341.5</ele><time>2026-05-02T06:48:34.999Z</time></trkpt><trkpt lat="43.37347375497614" lon="5.534757561828574"><ele>344.0</ele><time>2026-05-02T06:48:37.999Z</time></trkpt><trkpt lat="43.37343365742711" lon="5.534653917315887"><ele>346.5</ele><time>2026-05-02T06:48:40.999Z</time></trkpt><trkpt lat="43.37337287958676" lon="5.534570346220173"><ele>349.0</ele><time>2026-05-02T06:48:43.998Z</time></trkpt><trkpt lat="43.3733185263426" lon="5.534472841086343"><ele>348.3333333333333</ele><time>2026-05-02T06:48:46.998Z</time></trkpt><trkpt lat="43.373266601118885" lon="5.534372131598194"><ele>347.66666666666663</ele><time>2026-05-02T06:48:49.998Z</time></trkpt><trkpt lat="43.373223057316956" lon="5.534267186312149"><ele>347.0</ele><time>2026-05-02T06:48:52.998Z</time></trkpt><trkpt lat="43.37317857574956" lon="5.53419694503522"><ele>346.3333333333333</ele><time>2026-05-02T06:48:54.998Z</time></trkpt><trkpt lat="43.37313367169402" lon="5.5341311503371635"><ele>345.6666666666667</ele><time>2026-05-02T06:48:56.998Z</time></trkpt><trkpt lat="43.37307318328765" lon="5.5340445974730885"><ele>345.0</ele><time>2026-05-02T06:48:59.998Z</time></trkpt><trkpt lat="43.37300465335729" lon="5.533963359733267"><ele>345.0</ele><time>2026-05-02T06:49:02.998Z</time></trkpt><trkpt lat="43.372958129233425" lon="5.533870964046127"><ele>345.0</ele><time>2026-05-02T06:49:05.998Z</time></trkpt><trkpt lat="43.372902949943" lon="5.533775353995714"><ele>345.0</ele><time>2026-05-02T06:49:09Z</time></trkpt><trkpt lat="43.37285546553609" lon="5.533667893386059"><ele>345.0</ele><time>2026-05-02T06:49:12Z</time></trkpt><trkpt lat="43.37280139664734" lon="5.533607302746025"><ele>345.0</ele><time>2026-05-02T06:49:14Z</time></trkpt><trkpt lat="43.3727730480841" lon="5.533525213433022"><ele>345.0</ele><time>2026-05-02T06:49:16Z</time></trkpt><trkpt lat="43.37272071377657" lon="5.533421877015109"><ele>347.8333333333333</ele><time>2026-05-02T06:49:19Z</time></trkpt><trkpt lat="43.3726732498201" lon="5.53335183451173"><ele>350.6666666666667</ele><time>2026-05-02T06:49:21Z</time></trkpt><trkpt lat="43.37265919115318" lon="5.53326551403133"><ele>353.5</ele><time>2026-05-02T06:49:23Z</time></trkpt><trkpt lat="43.37260697386397" lon="5.533151982249063"><ele>356.33333333333337</ele><time>2026-05-02T06:49:26Z</time></trkpt><trkpt lat="43.37259206558225" lon="5.53305153493811"><ele>359.1666666666667</ele><time>2026-05-02T06:49:28Z</time></trkpt><trkpt lat="43.37258949984943" lon="5.532934402344901"><ele>362.0</ele><time>2026-05-02T06:49:30Z</time></trkpt><trkpt lat="43.37258133874627" lon="5.532811142175456"><ele>363.1428571428571</ele><time>2026-05-02T06:49:32Z</time></trkpt><trkpt lat="43.3725878393911" lon="5.5326946853939"><ele>364.2857142857143</ele><time>2026-05-02T06:49:34Z</time></trkpt><trkpt lat="43.37259183677876" lon="5.532588325201867"><ele>365.42857142857144</ele><time>2026-05-02T06:49:36Z</time></trkpt><trkpt lat="43.3725930275632" lon="5.532488215986494"><ele>366.57142857142856</ele><time>2026-05-02T06:49:38Z</time></trkpt><trkpt lat="43.37258121521113" lon="5.5323856365989394"><ele>367.7142857142857</ele><time>2026-05-02T06:49:40Z</time></trkpt><trkpt lat="43.372590003229746" lon="5.532294364680313"><ele>368.85714285714283</ele><time>2026-05-02T06:49:41.999Z</time></trkpt><trkpt lat="43.372584378234365" lon="5.532204362003004"><ele>370.0</ele><time>2026-05-02T06:49:43.999Z</time></trkpt><trkpt lat="43.37253747398335" lon="5.53212273170949"><ele>370.3333333333333</ele><time>2026-05-02T06:49:46.999Z</time></trkpt><trkpt lat="43.372487905230194" lon="5.532044496047404"><ele>370.66666666666663</ele><time>2026-05-02T06:49:49.999Z</time></trkpt><trkpt lat="43.37244812368802" lon="5.531965895501496"><ele>371.0</ele><time>2026-05-02T06:49:51.999Z</time></trkpt><trkpt lat="43.372396417043674" lon="5.531887911685922"><ele>371.3333333333333</ele><time>2026-05-02T06:49:53.999Z</time></trkpt><trkpt lat="43.37238816889906" lon="5.531782044116727"><ele>371.6666666666667</ele><time>2026-05-02T06:49:55.999Z</time></trkpt><trkpt lat="43.372368931393076" lon="5.53167520785456"><ele>372.0</ele><time>2026-05-02T06:49:57.999Z</time></trkpt><trkpt lat="43.37234985756116" lon="5.531573568891699"><ele>372.0</ele><time>2026-05-02T06:49:59.999Z</time></trkpt><trkpt lat="43.372316903529374" lon="5.531492696485508"><ele>372.0</ele><time>2026-05-02T06:50:01.999Z</time></trkpt><trkpt lat="43.37229515445438" lon="5.5314103563244394"><ele>372.0</ele><time>2026-05-02T06:50:03.999Z</time></trkpt><trkpt lat="43.37226397353541" lon="5.531298921268429"><ele>372.0</ele><time>2026-05-02T06:50:06.999Z</time></trkpt><trkpt lat="43.372231546491804" lon="5.531187045675004"><ele>372.0</ele><time>2026-05-02T06:50:09.999Z</time></trkpt><trkpt lat="43.37220088964354" lon="5.531098080952071"><ele>372.0</ele><time>2026-05-02T06:50:12.999Z</time></trkpt><trkpt lat="43.37216793710671" lon="5.5309879690180574"><ele>371.5</ele><time>2026-05-02T06:50:15.999Z</time></trkpt><trkpt lat="43.37215387639592" lon="5.53087549966359"><ele>371.0</ele><time>2026-05-02T06:50:17.999Z</time></trkpt><trkpt lat="43.37211389325207" lon="5.530741872138692"><ele>370.5</ele><time>2026-05-02T06:50:19.999Z</time></trkpt><trkpt lat="43.372059951503715" lon="5.530612155925072"><ele>370.0</ele><time>2026-05-02T06:50:21.999Z</time></trkpt><trkpt lat="43.372027409298376" lon="5.530537335133656"><ele>369.5</ele><time>2026-05-02T06:50:22.999Z</time></trkpt><trkpt lat="43.37198812778478" lon="5.5304654944161875"><ele>369.0</ele><time>2026-05-02T06:50:23.999Z</time></trkpt><trkpt lat="43.371932041396796" lon="5.530425367125017"><ele>368.25</ele><time>2026-05-02T06:50:24.999Z</time></trkpt><trkpt lat="43.371855401881675" lon="5.530295051694219"><ele>367.5</ele><time>2026-05-02T06:50:26.999Z</time></trkpt><trkpt lat="43.37177388810177" lon="5.530167731459863"><ele>366.75</ele><time>2026-05-02T06:50:28.999Z</time></trkpt><trkpt lat="43.3717114624404" lon="5.53004244071192"><ele>366.0</ele><time>2026-05-02T06:50:30.999Z</time></trkpt><trkpt lat="43.37165667941674" lon="5.529905268430791"><ele>366.0</ele><time>2026-05-02T06:50:32.999Z</time></trkpt><trkpt lat="43.37162762900117" lon="5.529827844195646"><ele>366.0</ele><time>2026-05-02T06:50:33.999Z</time></trkpt><trkpt lat="43.37157866567796" lon="5.529674051995485"><ele>366.0</ele><time>2026-05-02T06:50:35.999Z</time></trkpt><trkpt lat="43.3715405220984" lon="5.5295187250115"><ele>366.0</ele><time>2026-05-02T06:50:37.999Z</time></trkpt><trkpt lat="43.37152210141768" lon="5.5294355406144655"><ele>366.0</ele><time>2026-05-02T06:50:38.999Z</time></trkpt><trkpt lat="43.37148243752385" lon="5.529271773729671"><ele>365.8</ele><time>2026-05-02T06:50:40.999Z</time></trkpt><trkpt lat="43.37148535126372" lon="5.529104145880762"><ele>365.6</ele><time>2026-05-02T06:50:42.999Z</time></trkpt><trkpt lat="43.37148617146285" lon="5.529016340831949"><ele>365.4</ele><time>2026-05-02T06:50:43.999Z</time></trkpt><trkpt lat="43.37148790078566" lon="5.52892920913495"><ele>365.2</ele><time>2026-05-02T06:50:44.999Z</time></trkpt><trkpt lat="43.37148133731387" lon="5.528766267960911"><ele>365.0</ele><time>2026-05-02T06:50:46.999Z</time></trkpt><trkpt lat="43.37148330032759" lon="5.528600253421387"><ele>365.0</ele><time>2026-05-02T06:50:48.999Z</time></trkpt><trkpt lat="43.37147774289385" lon="5.528437550297075"><ele>365.0</ele><time>2026-05-02T06:50:50.998Z</time></trkpt><trkpt lat="43.37145334488897" lon="5.528278401411263"><ele>365.0</ele><time>2026-05-02T06:50:52.998Z</time></trkpt><trkpt lat="43.37140778285193" lon="5.528142288096597"><ele>365.0</ele><time>2026-05-02T06:50:54.998Z</time></trkpt><trkpt lat="43.371354681674795" lon="5.528017269760833"><ele>364.4</ele><time>2026-05-02T06:50:56.998Z</time></trkpt><trkpt lat="43.37130890027143" lon="5.527904498890196"><ele>363.8</ele><time>2026-05-02T06:50:58.998Z</time></trkpt><trkpt lat="43.37125568534929" lon="5.527791989035556"><ele>363.20000000000005</ele><time>2026-05-02T06:51:00.998Z</time></trkpt><trkpt lat="43.371206658849175" lon="5.527676226776638"><ele>362.6</ele><time>2026-05-02T06:51:02.998Z</time></trkpt><trkpt lat="43.37117059075235" lon="5.527531375119597"><ele>362.0</ele><time>2026-05-02T06:51:04.998Z</time></trkpt><trkpt lat="43.371129351771" lon="5.527388233704876"><ele>362.0</ele><time>2026-05-02T06:51:06.998Z</time></trkpt><trkpt lat="43.37108871416427" lon="5.52724683318211"><ele>362.0</ele><time>2026-05-02T06:51:08.998Z</time></trkpt><trkpt lat="43.37104590532543" lon="5.527097086074659"><ele>362.0</ele><time>2026-05-02T06:51:10.998Z</time></trkpt><trkpt lat="43.37099914317555" lon="5.526947374649593"><ele>362.0</ele><time>2026-05-02T06:51:12.998Z</time></trkpt><trkpt lat="43.37096168155018" lon="5.526869221094033"><ele>362.0</ele><time>2026-05-02T06:51:14Z</time></trkpt><trkpt lat="43.37094277723655" lon="5.526777508009429"><ele>362.1666666666667</ele><time>2026-05-02T06:51:15Z</time></trkpt><trkpt lat="43.37090998610021" lon="5.526694449821467"><ele>362.33333333333337</ele><time>2026-05-02T06:51:16Z</time></trkpt><trkpt lat="43.370873050690356" lon="5.526607385609296"><ele>362.5</ele><time>2026-05-02T06:51:17Z</time></trkpt><trkpt lat="43.37083029534515" lon="5.526532064882491"><ele>362.6666666666667</ele><time>2026-05-02T06:51:18Z</time></trkpt><trkpt lat="43.37080362740696" lon="5.526443741010148"><ele>362.8333333333333</ele><time>2026-05-02T06:51:19Z</time></trkpt><trkpt lat="43.3707574946171" lon="5.526366350666339"><ele>363.0</ele><time>2026-05-02T06:51:20Z</time></trkpt><trkpt lat="43.370700732897575" lon="5.526227795104097"><ele>362.0</ele><time>2026-05-02T06:51:22Z</time></trkpt><trkpt lat="43.37066148502788" lon="5.526134597450371"><ele>361.0</ele><time>2026-05-02T06:51:23Z</time></trkpt><trkpt lat="43.37064262647451" lon="5.526036936343196"><ele>360.0</ele><time>2026-05-02T06:51:24Z</time></trkpt><trkpt lat="43.370635737359045" lon="5.525915054717966"><ele>359.0</ele><time>2026-05-02T06:51:25Z</time></trkpt><trkpt lat="43.37060919856636" lon="5.525814687508263"><ele>358.0</ele><time>2026-05-02T06:51:26Z</time></trkpt><trkpt lat="43.37058479641933" lon="5.5257021873531915"><ele>357.0</ele><time>2026-05-02T06:51:27Z</time></trkpt><trkpt lat="43.37056028311822" lon="5.525582005527153"><ele>355.5</ele><time>2026-05-02T06:51:28Z</time></trkpt><trkpt lat="43.370514123867586" lon="5.525467242816219"><ele>354.0</ele><time>2026-05-02T06:51:29Z</time></trkpt><trkpt lat="43.37047692033624" lon="5.525369121799845"><ele>352.5</ele><time>2026-05-02T06:51:30Z</time></trkpt><trkpt lat="43.37042696764247" lon="5.525273801122198"><ele>351.0</ele><time>2026-05-02T06:51:31Z</time></trkpt><trkpt lat="43.37037047360197" lon="5.525173753202862"><ele>349.5</ele><time>2026-05-02T06:51:32Z</time></trkpt><trkpt lat="43.37032675628624" lon="5.5250709965196"><ele>348.0</ele><time>2026-05-02T06:51:33Z</time></trkpt><trkpt lat="43.37029303983035" lon="5.5249634963913925"><ele>348.0</ele><time>2026-05-02T06:51:34Z</time></trkpt><trkpt lat="43.37026557794553" lon="5.5248516588267815"><ele>348.0</ele><time>2026-05-02T06:51:35Z</time></trkpt><trkpt lat="43.3702543236469" lon="5.524742078618752"><ele>348.0</ele><time>2026-05-02T06:51:36Z</time></trkpt><trkpt lat="43.37022152796886" lon="5.5246236866342295"><ele>348.0</ele><time>2026-05-02T06:51:37Z</time></trkpt><trkpt lat="43.37019062584866" lon="5.524520233951953"><ele>348.0</ele><time>2026-05-02T06:51:38Z</time></trkpt><trkpt lat="43.370166669553235" lon="5.524420416960252"><ele>348.0</ele><time>2026-05-02T06:51:39Z</time></trkpt><trkpt lat="43.37015158269271" lon="5.524304175491713"><ele>348.3333333333333</ele><time>2026-05-02T06:51:40Z</time></trkpt><trkpt lat="43.37014141310316" lon="5.524202493914536"><ele>348.6666666666667</ele><time>2026-05-02T06:51:41Z</time></trkpt><trkpt lat="43.370140412523384" lon="5.524086676846411"><ele>349.0</ele><time>2026-05-02T06:51:41.999Z</time></trkpt><trkpt lat="43.370129955622886" lon="5.523982771190105"><ele>349.33333333333337</ele><time>2026-05-02T06:51:42.999Z</time></trkpt><trkpt lat="43.37012771279315" lon="5.52387887196891"><ele>349.6666666666667</ele><time>2026-05-02T06:51:43.999Z</time></trkpt><trkpt lat="43.370127035582385" lon="5.523771694648439"><ele>350.0</ele><time>2026-05-02T06:51:44.999Z</time></trkpt><trkpt lat="43.370117530444205" lon="5.52367584516931"><ele>349.1666666666667</ele><time>2026-05-02T06:51:45.999Z</time></trkpt><trkpt lat="43.37011164669563" lon="5.523564559976738"><ele>348.33333333333337</ele><time>2026-05-02T06:51:46.999Z</time></trkpt><trkpt lat="43.37011525153517" lon="5.5234566917239425"><ele>347.5</ele><time>2026-05-02T06:51:47.999Z</time></trkpt><trkpt lat="43.37013327961592" lon="5.523348144146442"><ele>346.6666666666667</ele><time>2026-05-02T06:51:48.999Z</time></trkpt><trkpt lat="43.37014652990468" lon="5.523240282636549"><ele>345.8333333333333</ele><time>2026-05-02T06:51:49.999Z</time></trkpt><trkpt lat="43.37017223920029" lon="5.5231324721772665"><ele>345.0</ele><time>2026-05-02T06:51:50.999Z</time></trkpt><trkpt lat="43.370197610903084" lon="5.523020454434603"><ele>345.0</ele><time>2026-05-02T06:51:51.999Z</time></trkpt><trkpt lat="43.370220885303134" lon="5.522913578505394"><ele>345.0</ele><time>2026-05-02T06:51:52.999Z</time></trkpt><trkpt lat="43.37023814179458" lon="5.52280375494299"><ele>345.0</ele><time>2026-05-02T06:51:53.999Z</time></trkpt><trkpt lat="43.37027079824725" lon="5.522693562805578"><ele>345.0</ele><time>2026-05-02T06:51:54.999Z</time></trkpt><trkpt lat="43.37028436923003" lon="5.522585631528554"><ele>345.0</ele><time>2026-05-02T06:51:55.999Z</time></trkpt><trkpt lat="43.37030050315335" lon="5.522495441316402"><ele>345.0</ele><time>2026-05-02T06:51:56.999Z</time></trkpt><trkpt lat="43.370319688537755" lon="5.52239956291916"><ele>343.42857142857144</ele><time>2026-05-02T06:51:57.999Z</time></trkpt><trkpt lat="43.37033826074121" lon="5.522311766740837"><ele>341.85714285714283</ele><time>2026-05-02T06:51:58.999Z</time></trkpt><trkpt lat="43.37037034126176" lon="5.5222287047045135"><ele>340.2857142857143</ele><time>2026-05-02T06:51:59.999Z</time></trkpt><trkpt lat="43.370386046979995" lon="5.522138195490404"><ele>338.7142857142857</ele><time>2026-05-02T06:52:00.999Z</time></trkpt><trkpt lat="43.37040172794475" lon="5.522038053570814"><ele>337.14285714285717</ele><time>2026-05-02T06:52:01.999Z</time></trkpt><trkpt lat="43.370412422252784" lon="5.521935656019614"><ele>335.57142857142856</ele><time>2026-05-02T06:52:02.999Z</time></trkpt><trkpt lat="43.37040683018547" lon="5.521840705885131"><ele>334.0</ele><time>2026-05-02T06:52:03.999Z</time></trkpt><trkpt lat="43.37038626306362" lon="5.5217192388667"><ele>332.2</ele><time>2026-05-02T06:52:04.999Z</time></trkpt><trkpt lat="43.37033693859298" lon="5.521585384993832"><ele>330.4</ele><time>2026-05-02T06:52:05.999Z</time></trkpt><trkpt lat="43.3702729712911" lon="5.521470704273605"><ele>328.6</ele><time>2026-05-02T06:52:06.999Z</time></trkpt><trkpt lat="43.37021636115405" lon="5.521366737687633"><ele>326.8</ele><time>2026-05-02T06:52:07.999Z</time></trkpt><trkpt lat="43.37015963217669" lon="5.521264427328176"><ele>325.0</ele><time>2026-05-02T06:52:08.999Z</time></trkpt><trkpt lat="43.37010519429317" lon="5.5211519926394335"><ele>324.0</ele><time>2026-05-02T06:52:09.999Z</time></trkpt><trkpt lat="43.37006175372539" lon="5.521025871324061"><ele>323.0</ele><time>2026-05-02T06:52:10.999Z</time></trkpt><trkpt lat="43.37003289283767" lon="5.520889557160679"><ele>322.0</ele><time>2026-05-02T06:52:11.999Z</time></trkpt><trkpt lat="43.37002071460703" lon="5.520750497209217"><ele>321.0</ele><time>2026-05-02T06:52:12.999Z</time></trkpt><trkpt lat="43.37001475081534" lon="5.5206179809138805"><ele>320.0</ele><time>2026-05-02T06:52:13.999Z</time></trkpt><trkpt lat="43.37001475081585" lon="5.5204867669263775"><ele>320.0</ele><time>2026-05-02T06:52:14.999Z</time></trkpt><trkpt lat="43.37000009672303" lon="5.52035990496093"><ele>320.0</ele><time>2026-05-02T06:52:15.999Z</time></trkpt><trkpt lat="43.370009616241866" lon="5.520227249745558"><ele>320.0</ele><time>2026-05-02T06:52:16.999Z</time></trkpt><trkpt lat="43.37000562536344" lon="5.5201177788694995"><ele>320.0</ele><time>2026-05-02T06:52:17.999Z</time></trkpt><trkpt lat="43.37000872490199" lon="5.520001812548306"><ele>320.0</ele><time>2026-05-02T06:52:18.999Z</time></trkpt><trkpt lat="43.370012396895596" lon="5.519903675422402"><ele>320.0</ele><time>2026-05-02T06:52:19.999Z</time></trkpt><trkpt lat="43.370017572658114" lon="5.5197452248186245"><ele>320.0</ele><time>2026-05-02T06:52:21.999Z</time></trkpt><trkpt lat="43.37005622325764" lon="5.519605637365484"><ele>320.0</ele><time>2026-05-02T06:52:23.999Z</time></trkpt><trkpt lat="43.37008833315777" lon="5.519447390127072"><ele>320.0</ele><time>2026-05-02T06:52:25.999Z</time></trkpt><trkpt lat="43.370107851490566" lon="5.519355158909611"><ele>320.0</ele><time>2026-05-02T06:52:26.999Z</time></trkpt><trkpt lat="43.37013180995635" lon="5.519267962359673"><ele>320.0</ele><time>2026-05-02T06:52:27.999Z</time></trkpt><trkpt lat="43.3701576929477" lon="5.519179541434221"><ele>320.0</ele><time>2026-05-02T06:52:28.999Z</time></trkpt><trkpt lat="43.370184740805925" lon="5.519087552678609"><ele>319.7142857142857</ele><time>2026-05-02T06:52:29.999Z</time></trkpt><trkpt lat="43.37021953431951" lon="5.518995624374077"><ele>319.42857142857144</ele><time>2026-05-02T06:52:30.999Z</time></trkpt><trkpt lat="43.37025813912995" lon="5.51890775319293"><ele>319.1428571428571</ele><time>2026-05-02T06:52:31.999Z</time></trkpt><trkpt lat="43.37029175869408" lon="5.518819494654994"><ele>318.8571428571429</ele><time>2026-05-02T06:52:32.999Z</time></trkpt><trkpt lat="43.370322714122125" lon="5.518729491539205"><ele>318.5714285714286</ele><time>2026-05-02T06:52:33.999Z</time></trkpt><trkpt lat="43.370349181491356" lon="5.5186356660599145"><ele>318.2857142857143</ele><time>2026-05-02T06:52:34.999Z</time></trkpt><trkpt lat="43.370367310409385" lon="5.518541183449202"><ele>318.0</ele><time>2026-05-02T06:52:35.999Z</time></trkpt><trkpt lat="43.370365435785374" lon="5.518432410620001"><ele>316.1666666666667</ele><time>2026-05-02T06:52:36.999Z</time></trkpt><trkpt lat="43.3703974772726" lon="5.518329597849008"><ele>314.3333333333333</ele><time>2026-05-02T06:52:37.999Z</time></trkpt><trkpt lat="43.370442609532944" lon="5.5182456430037385"><ele>312.5</ele><time>2026-05-02T06:52:38.999Z</time></trkpt><trkpt lat="43.370498847619345" lon="5.518153190130673"><ele>310.66666666666663</ele><time>2026-05-02T06:52:39.999Z</time></trkpt><trkpt lat="43.370527601019774" lon="5.518048399885633"><ele>308.8333333333333</ele><time>2026-05-02T06:52:40.999Z</time></trkpt><trkpt lat="43.370553024374956" lon="5.517943280736712"><ele>307.0</ele><time>2026-05-02T06:52:41.999Z</time></trkpt><trkpt lat="43.3705928177259" lon="5.517842383551764"><ele>305.5</ele><time>2026-05-02T06:52:42.999Z</time></trkpt><trkpt lat="43.370618768049994" lon="5.517711073792227"><ele>304.0</ele><time>2026-05-02T06:52:43.999Z</time></trkpt><trkpt lat="43.370638520292175" lon="5.517590935478653"><ele>302.5</ele><time>2026-05-02T06:52:44.999Z</time></trkpt><trkpt lat="43.37065092286615" lon="5.517479900757797"><ele>301.0</ele><time>2026-05-02T06:52:45.999Z</time></trkpt><trkpt lat="43.37065277266244" lon="5.517381875652682"><ele>299.5</ele><time>2026-05-02T06:52:46.999Z</time></trkpt><trkpt lat="43.37063569031507" lon="5.517286173953702"><ele>298.0</ele><time>2026-05-02T06:52:47.999Z</time></trkpt><trkpt lat="43.370600606626866" lon="5.517197346868303"><ele>298.0</ele><time>2026-05-02T06:52:48.999Z</time></trkpt><trkpt lat="43.370555164203545" lon="5.517107146314894"><ele>298.0</ele><time>2026-05-02T06:52:49.999Z</time></trkpt><trkpt lat="43.37049441657147" lon="5.517020227966696"><ele>298.0</ele><time>2026-05-02T06:52:50.998Z</time></trkpt><trkpt lat="43.37041781981913" lon="5.516944122092085"><ele>298.0</ele><time>2026-05-02T06:52:51.998Z</time></trkpt><trkpt lat="43.3703194899224" lon="5.516894061631692"><ele>298.0</ele><time>2026-05-02T06:52:52.998Z</time></trkpt><trkpt lat="43.37024041555735" lon="5.516796385351271"><ele>298.0</ele><time>2026-05-02T06:52:53.998Z</time></trkpt><trkpt lat="43.37018246733544" lon="5.516686906855581"><ele>298.0</ele><time>2026-05-02T06:52:54.998Z</time></trkpt><trkpt lat="43.37013635197127" lon="5.5165661813644205"><ele>298.0</ele><time>2026-05-02T06:52:55.998Z</time></trkpt><trkpt lat="43.37008419011738" lon="5.5164545193978975"><ele>298.0</ele><time>2026-05-02T06:52:56.998Z</time></trkpt><trkpt lat="43.37005893182875" lon="5.516338636239925"><ele>298.0</ele><time>2026-05-02T06:52:57.998Z</time></trkpt><trkpt lat="43.37004507759774" lon="5.516219155060447"><ele>298.0</ele><time>2026-05-02T06:52:58.998Z</time></trkpt><trkpt lat="43.37003841088485" lon="5.516108913986029"><ele>298.0</ele><time>2026-05-02T06:52:59.998Z</time></trkpt><trkpt lat="43.370035844490715" lon="5.516008168745105"><ele>298.0</ele><time>2026-05-02T06:53:00.998Z</time></trkpt><trkpt lat="43.37003184206066" lon="5.515911511547"><ele>298.0</ele><time>2026-05-02T06:53:01.998Z</time></trkpt><trkpt lat="43.37001534494665" lon="5.515768887980267"><ele>298.0</ele><time>2026-05-02T06:53:03.998Z</time></trkpt><trkpt lat="43.37000586978686" lon="5.515630128009347"><ele>298.0</ele><time>2026-05-02T06:53:05.998Z</time></trkpt><trkpt lat="43.37000490276211" lon="5.515480648020331"><ele>297.66666666666663</ele><time>2026-05-02T06:53:07.998Z</time></trkpt><trkpt lat="43.370022006491205" lon="5.515354233870643"><ele>297.3333333333333</ele><time>2026-05-02T06:53:09.998Z</time></trkpt><trkpt lat="43.37002589903985" lon="5.5152669823261755"><ele>297.0</ele><time>2026-05-02T06:53:11.998Z</time></trkpt><trkpt lat="43.370096975683126" lon="5.5151724513227105"><ele>296.6666666666667</ele><time>2026-05-02T06:53:14.998Z</time></trkpt><trkpt lat="43.37018001585345" lon="5.5151548449046235"><ele>296.33333333333337</ele><time>2026-05-02T06:53:16.998Z</time></trkpt><trkpt lat="43.37026833960618" lon="5.515110776946415"><ele>296.0</ele><time>2026-05-02T06:53:18.998Z</time></trkpt><trkpt lat="43.370340895083395" lon="5.515064142857263"><ele>296.0</ele><time>2026-05-02T06:53:21Z</time></trkpt><trkpt lat="43.370396168078486" lon="5.515009773301511"><ele>296.0</ele><time>2026-05-02T06:53:24Z</time></trkpt><trkpt lat="43.37045401460838" lon="5.514919427199675"><ele>296.0</ele><time>2026-05-02T06:53:44Z</time></trkpt><trkpt lat="43.37041262503181" lon="5.514820303799345"><ele>296.0</ele><time>2026-05-02T06:53:46Z</time></trkpt><trkpt lat="43.37042013527819" lon="5.514719565805925"><ele>296.0</ele><time>2026-05-02T06:53:47.999Z</time></trkpt><trkpt lat="43.37042992262401" lon="5.514588283979831"><ele>296.0</ele><time>2026-05-02T06:53:50.999Z</time></trkpt><trkpt lat="43.37057167282468" lon="5.514570819191683"><ele>296.0</ele><time>2026-05-02T06:53:51.999Z</time></trkpt><trkpt lat="43.37053861890154" lon="5.5146705733137145"><ele>296.0</ele><time>2026-05-02T06:54:17.999Z</time></trkpt><trkpt lat="43.37049777889043" lon="5.5147632595411284"><ele>296.0</ele><time>2026-05-02T06:54:19.999Z</time></trkpt><trkpt lat="43.37045433322556" lon="5.514889738650562"><ele>296.0</ele><time>2026-05-02T06:54:21.999Z</time></trkpt><trkpt lat="43.370381564314194" lon="5.514954399765898"><ele>296.0</ele><time>2026-05-02T06:54:23.999Z</time></trkpt><trkpt lat="43.37031005735356" lon="5.514907420934822"><ele>296.0</ele><time>2026-05-02T06:54:25.999Z</time></trkpt><trkpt lat="43.37020307797596" lon="5.514904487938018"><ele>296.0</ele><time>2026-05-02T06:54:27.999Z</time></trkpt><trkpt lat="43.37013443487949" lon="5.514896797252771"><ele>296.0</ele><time>2026-05-02T06:54:28.999Z</time></trkpt><trkpt lat="43.370071974363086" lon="5.514885374125462"><ele>296.0</ele><time>2026-05-02T06:54:29.999Z</time></trkpt><trkpt lat="43.36994631511316" lon="5.514856259512119"><ele>296.0</ele><time>2026-05-02T06:54:31.999Z</time></trkpt><trkpt lat="43.36988194075362" lon="5.514827659865254"><ele>296.0</ele><time>2026-05-02T06:54:32.999Z</time></trkpt><trkpt lat="43.36983363654948" lon="5.51475968948525"><ele>296.0</ele><time>2026-05-02T06:54:33.999Z</time></trkpt><trkpt lat="43.36972552184813" lon="5.514733969228773"><ele>293.5</ele><time>2026-05-02T06:54:35.999Z</time></trkpt><trkpt lat="43.369621645609286" lon="5.514673217890844"><ele>291.0</ele><time>2026-05-02T06:54:37.999Z</time></trkpt><trkpt lat="43.36950948831551" lon="5.51462793706468"><ele>288.5</ele><time>2026-05-02T06:54:39.999Z</time></trkpt><trkpt lat="43.36944615686621" lon="5.514613215350861"><ele>286.0</ele><time>2026-05-02T06:54:40.999Z</time></trkpt><trkpt lat="43.36940859753548" lon="5.514527703083427"><ele>283.5</ele><time>2026-05-02T06:54:41.999Z</time></trkpt><trkpt lat="43.369374873777396" lon="5.514444033490397"><ele>281.0</ele><time>2026-05-02T06:54:42.999Z</time></trkpt><trkpt lat="43.369332428873655" lon="5.514367826300087"><ele>280.1666666666667</ele><time>2026-05-02T06:54:43.999Z</time></trkpt><trkpt lat="43.36929289693504" lon="5.514294247987493"><ele>279.33333333333337</ele><time>2026-05-02T06:54:44.999Z</time></trkpt><trkpt lat="43.3692481743692" lon="5.514213451194717"><ele>278.5</ele><time>2026-05-02T06:54:45.999Z</time></trkpt><trkpt lat="43.36921669703404" lon="5.51410931211196"><ele>277.6666666666667</ele><time>2026-05-02T06:54:47.999Z</time></trkpt><trkpt lat="43.36927758110275" lon="5.514048921654141"><ele>276.8333333333333</ele><time>2026-05-02T06:54:49.999Z</time></trkpt><trkpt lat="43.36935152140957" lon="5.514035859499071"><ele>276.0</ele><time>2026-05-02T06:54:51.999Z</time></trkpt><trkpt lat="43.369449434759844" lon="5.514190330388873"><ele>276.0</ele><time>2026-05-02T06:54:53.999Z</time></trkpt><trkpt lat="43.36950942130984" lon="5.514241956032416"><ele>276.0</ele><time>2026-05-02T06:54:54.999Z</time></trkpt><trkpt lat="43.369590336520595" lon="5.51425445425517"><ele>276.0</ele><time>2026-05-02T06:54:55.999Z</time></trkpt><trkpt lat="43.36967282464845" lon="5.514248168311628"><ele>276.0</ele><time>2026-05-02T06:54:56.998Z</time></trkpt><trkpt lat="43.36974246117235" lon="5.514237445738419"><ele>276.0</ele><time>2026-05-02T06:54:57.998Z</time></trkpt><trkpt lat="43.36981175205958" lon="5.5142290614259695"><ele>276.0</ele><time>2026-05-02T06:54:58.998Z</time></trkpt><trkpt lat="43.369876694868296" lon="5.514235284130658"><ele>276.0</ele><time>2026-05-02T06:54:59.998Z</time></trkpt><trkpt lat="43.36999471098172" lon="5.514225408236402"><ele>276.0</ele><time>2026-05-02T06:55:01.998Z</time></trkpt><trkpt lat="43.37004861364156" lon="5.514162899190753"><ele>276.0</ele><time>2026-05-02T06:55:02.998Z</time></trkpt><trkpt lat="43.370077124108036" lon="5.514041572507175"><ele>276.0</ele><time>2026-05-02T06:55:03.998Z</time></trkpt><trkpt lat="43.37005303789255" lon="5.513940286048883"><ele>276.0</ele><time>2026-05-02T06:55:04.998Z</time></trkpt><trkpt lat="43.37006630538032" lon="5.513803996867477"><ele>276.0</ele><time>2026-05-02T06:55:06.998Z</time></trkpt><trkpt lat="43.370069293951026" lon="5.513652504106322"><ele>276.0</ele><time>2026-05-02T06:55:08.998Z</time></trkpt><trkpt lat="43.37008243573472" lon="5.513497454654375"><ele>276.0</ele><time>2026-05-02T06:55:10.998Z</time></trkpt><trkpt lat="43.3701014894316" lon="5.5133686228567464"><ele>276.0</ele><time>2026-05-02T06:55:12.998Z</time></trkpt><trkpt lat="43.37019114830354" lon="5.513317253446721"><ele>276.0</ele><time>2026-05-02T06:55:14.998Z</time></trkpt><trkpt lat="43.3702633865314" lon="5.513300344508238"><ele>276.0</ele><time>2026-05-02T06:55:15.998Z</time></trkpt><trkpt lat="43.3703758937807" lon="5.513189611369396"><ele>276.0</ele><time>2026-05-02T06:55:17.998Z</time></trkpt><trkpt lat="43.37040763271746" lon="5.513100940852446"><ele>276.0</ele><time>2026-05-02T06:55:18.998Z</time></trkpt><trkpt lat="43.37041820773217" lon="5.513006758795499"><ele>276.0</ele><time>2026-05-02T06:55:19.998Z</time></trkpt><trkpt lat="43.370419369366886" lon="5.512834738396741"><ele>276.0</ele><time>2026-05-02T06:55:21.998Z</time></trkpt><trkpt lat="43.37043495351993" lon="5.512673352463585"><ele>276.0</ele><time>2026-05-02T06:55:23.998Z</time></trkpt><trkpt lat="43.37044189003527" lon="5.512541323305614"><ele>272.8</ele><time>2026-05-02T06:55:26Z</time></trkpt><trkpt lat="43.37052013276306" lon="5.512540293717277"><ele>269.6</ele><time>2026-05-02T06:55:29Z</time></trkpt><trkpt lat="43.37057597892245" lon="5.512604307017879"><ele>266.4</ele><time>2026-05-02T06:55:31Z</time></trkpt><trkpt lat="43.370657017519406" lon="5.512665639350093"><ele>263.2</ele><time>2026-05-02T06:55:33Z</time></trkpt><trkpt lat="43.37075114302173" lon="5.5127615834990165"><ele>260.0</ele><time>2026-05-02T06:55:35Z</time></trkpt><trkpt lat="43.37083023395903" lon="5.512889740533567"><ele>262.1666666666667</ele><time>2026-05-02T06:55:37Z</time></trkpt><trkpt lat="43.37087404321259" lon="5.512983314041033"><ele>264.33333333333337</ele><time>2026-05-02T06:55:38Z</time></trkpt><trkpt lat="43.37091660158143" lon="5.513077686683998"><ele>266.5</ele><time>2026-05-02T06:55:39Z</time></trkpt><trkpt lat="43.370960794390776" lon="5.513171962587337"><ele>268.6666666666667</ele><time>2026-05-02T06:55:40Z</time></trkpt><trkpt lat="43.37103567506201" lon="5.5132337651997325"><ele>270.8333333333333</ele><time>2026-05-02T06:55:41Z</time></trkpt><trkpt lat="43.37109891101256" lon="5.513295009376253"><ele>273.0</ele><time>2026-05-02T06:55:42Z</time></trkpt><trkpt lat="43.371158265784004" lon="5.513327349543119"><ele>273.0</ele><time>2026-05-02T06:55:43Z</time></trkpt><trkpt lat="43.37125828596128" lon="5.513354815466977"><ele>273.0</ele><time>2026-05-02T06:55:45Z</time></trkpt><trkpt lat="43.37134162004407" lon="5.513364596011099"><ele>273.0</ele><time>2026-05-02T06:55:47.999Z</time></trkpt><trkpt lat="43.37142490544164" lon="5.513358345996582"><ele>273.0</ele><time>2026-05-02T06:56:11.999Z</time></trkpt><trkpt lat="43.37150948184757" lon="5.513369513956209"><ele>273.0</ele><time>2026-05-02T06:56:14.999Z</time></trkpt><trkpt lat="43.3715923163521" lon="5.513383192045161"><ele>273.0</ele><time>2026-05-02T06:56:16.999Z</time></trkpt><trkpt lat="43.37165284320558" lon="5.5133501125846855"><ele>273.0</ele><time>2026-05-02T06:56:18.999Z</time></trkpt><trkpt lat="43.37169614213889" lon="5.513258014129566"><ele>273.0</ele><time>2026-05-02T06:56:22.999Z</time></trkpt><trkpt lat="43.37162937985649" lon="5.513159324669354"><ele>273.0</ele><time>2026-05-02T06:56:25.999Z</time></trkpt><trkpt lat="43.37154609609021" lon="5.513105915356471"><ele>273.0</ele><time>2026-05-02T06:56:27.999Z</time></trkpt><trkpt lat="43.37142435598639" lon="5.5130583667580275"><ele>273.0</ele><time>2026-05-02T06:56:29.999Z</time></trkpt><trkpt lat="43.37130243170199" lon="5.512991298810072"><ele>273.0</ele><time>2026-05-02T06:56:31.999Z</time></trkpt><trkpt lat="43.371239880052705" lon="5.512945356828706"><ele>273.0</ele><time>2026-05-02T06:56:32.999Z</time></trkpt><trkpt lat="43.37118511876333" lon="5.512891781852636"><ele>273.0</ele><time>2026-05-02T06:56:33.999Z</time></trkpt><trkpt lat="43.37116824493609" lon="5.512766726068629"><ele>273.0</ele><time>2026-05-02T06:56:35.999Z</time></trkpt><trkpt lat="43.37116551070821" lon="5.512675691303038"><ele>273.0</ele><time>2026-05-02T06:56:36.999Z</time></trkpt><trkpt lat="43.37119807817151" lon="5.512584019952235"><ele>273.0</ele><time>2026-05-02T06:56:37.999Z</time></trkpt><trkpt lat="43.371228027785314" lon="5.512501064058728"><ele>273.0</ele><time>2026-05-02T06:56:38.999Z</time></trkpt><trkpt lat="43.37128622251009" lon="5.512363070604493"><ele>270.0</ele><time>2026-05-02T06:56:40.999Z</time></trkpt><trkpt lat="43.37130934203645" lon="5.512253818598244"><ele>267.0</ele><time>2026-05-02T06:56:42.999Z</time></trkpt><trkpt lat="43.37134829831349" lon="5.512368829825438"><ele>264.0</ele><time>2026-05-02T06:56:46.999Z</time></trkpt><trkpt lat="43.371347713939365" lon="5.512478004377493"><ele>261.0</ele><time>2026-05-02T06:56:48.999Z</time></trkpt><trkpt lat="43.371353025519504" lon="5.512592636818841"><ele>258.0</ele><time>2026-05-02T06:56:50.999Z</time></trkpt><trkpt lat="43.37143238392226" lon="5.512674755926892"><ele>255.0</ele><time>2026-05-02T06:56:52.999Z</time></trkpt><trkpt lat="43.371474828512376" lon="5.512757886966921"><ele>253.71428571428572</ele><time>2026-05-02T06:56:54.999Z</time></trkpt><trkpt lat="43.37155190879448" lon="5.512703095759045"><ele>252.42857142857144</ele><time>2026-05-02T06:56:55.999Z</time></trkpt><trkpt lat="43.3716181442734" lon="5.512704810806343"><ele>251.14285714285717</ele><time>2026-05-02T06:56:57.999Z</time></trkpt><trkpt lat="43.371695218032826" lon="5.512700212001811"><ele>249.8571428571429</ele><time>2026-05-02T06:56:59.998Z</time></trkpt><trkpt lat="43.37176133032047" lon="5.512672299393211"><ele>248.57142857142858</ele><time>2026-05-02T06:57:01.998Z</time></trkpt><trkpt lat="43.37182248676376" lon="5.512631168855981"><ele>247.28571428571433</ele><time>2026-05-02T06:57:03.998Z</time></trkpt><trkpt lat="43.37188602714448" lon="5.512609956827961"><ele>246.00000000000003</ele><time>2026-05-02T06:57:05.998Z</time></trkpt><trkpt lat="43.371945314698365" lon="5.512536784597487"><ele>246.0</ele><time>2026-05-02T06:57:08.998Z</time></trkpt><trkpt lat="43.37196175104038" lon="5.5124507444229245"><ele>246.0</ele><time>2026-05-02T06:57:10.998Z</time></trkpt><trkpt lat="43.37186928809057" lon="5.512375126196654"><ele>246.0</ele><time>2026-05-02T06:57:12.998Z</time></trkpt><trkpt lat="43.37177755150298" lon="5.5124138786158845"><ele>246.0</ele><time>2026-05-02T06:57:14.998Z</time></trkpt><trkpt lat="43.371690134124776" lon="5.51241727176648"><ele>246.0</ele><time>2026-05-02T06:57:17.998Z</time></trkpt><trkpt lat="43.371630510371496" lon="5.512384918799298"><ele>246.0</ele><time>2026-05-02T06:57:19.998Z</time></trkpt><trkpt lat="43.3716120158017" lon="5.5122855579505945"><ele>246.00000000000003</ele><time>2026-05-02T06:57:21.998Z</time></trkpt><trkpt lat="43.37164215879552" lon="5.512198779370007"><ele>246.0</ele><time>2026-05-02T06:57:23.998Z</time></trkpt><trkpt lat="43.37164957255378" lon="5.512110944045012"><ele>246.00000000000003</ele><time>2026-05-02T06:57:26.998Z</time></trkpt><trkpt lat="43.371632839412676" lon="5.511984976244826"><ele>246.00000000000003</ele><time>2026-05-02T06:57:54.999Z</time></trkpt><trkpt lat="43.371605092628855" lon="5.511896911013329"><ele>246.0</ele><time>2026-05-02T06:57:56.999Z</time></trkpt><trkpt lat="43.371562021677846" lon="5.511813170504757"><ele>246.00000000000003</ele><time>2026-05-02T06:57:58.999Z</time></trkpt><trkpt lat="43.371505556741496" lon="5.51174309404009"><ele>246.00000000000003</ele><time>2026-05-02T06:58:00.999Z</time></trkpt><trkpt lat="43.37144669423979" lon="5.511664028455553"><ele>245.33333333333334</ele><time>2026-05-02T06:58:02.999Z</time></trkpt><trkpt lat="43.371388978792815" lon="5.511592712036369"><ele>244.66666666666669</ele><time>2026-05-02T06:58:04.999Z</time></trkpt><trkpt lat="43.37135449773481" lon="5.511494933342306"><ele>244.0</ele><time>2026-05-02T06:58:06.999Z</time></trkpt><trkpt lat="43.37137089152711" lon="5.511385266034234"><ele>243.33333333333334</ele><time>2026-05-02T06:58:08.999Z</time></trkpt><trkpt lat="43.37141955312178" lon="5.511280122304968"><ele>242.66666666666669</ele><time>2026-05-02T06:58:10.999Z</time></trkpt><trkpt lat="43.37148408076314" lon="5.511192916441622"><ele>242.0</ele><time>2026-05-02T06:58:12.999Z</time></trkpt><trkpt lat="43.37154378966025" lon="5.511091388016564"><ele>241.50000000000003</ele><time>2026-05-02T06:58:14.999Z</time></trkpt><trkpt lat="43.3716002167413" lon="5.51100329101422"><ele>241.0</ele><time>2026-05-02T06:58:16.999Z</time></trkpt><trkpt lat="43.37160736573397" lon="5.510888867678486"><ele>240.5</ele><time>2026-05-02T06:58:18.999Z</time></trkpt><trkpt lat="43.37156000199916" lon="5.5107945532077665"><ele>240.0</ele><time>2026-05-02T06:58:20.999Z</time></trkpt><trkpt lat="43.371505126661056" lon="5.510724452493858"><ele>239.50000000000003</ele><time>2026-05-02T06:58:22.999Z</time></trkpt><trkpt lat="43.37142638652148" lon="5.510649405211708"><ele>239.0</ele><time>2026-05-02T06:58:24.999Z</time></trkpt><trkpt lat="43.37135490588456" lon="5.510572731595962"><ele>239.00000000000003</ele><time>2026-05-02T06:58:26.999Z</time></trkpt><trkpt lat="43.37128719072378" lon="5.510486631452597"><ele>239.0</ele><time>2026-05-02T06:58:28.999Z</time></trkpt><trkpt lat="43.37122969173376" lon="5.510410786941158"><ele>239.0</ele><time>2026-05-02T06:58:30.999Z</time></trkpt><trkpt lat="43.37122527644018" lon="5.510291792490914"><ele>239.0</ele><time>2026-05-02T06:58:32.999Z</time></trkpt><trkpt lat="43.371264192874364" lon="5.5101819009101805"><ele>239.00000000000003</ele><time>2026-05-02T06:58:34.999Z</time></trkpt><trkpt lat="43.37131105129326" lon="5.510067754146537"><ele>239.0</ele><time>2026-05-02T06:58:36.999Z</time></trkpt><trkpt lat="43.37136670478138" lon="5.509963936124946"><ele>243.16666666666669</ele><time>2026-05-02T06:58:38.999Z</time></trkpt><trkpt lat="43.37143595547723" lon="5.50988966790107"><ele>247.33333333333334</ele><time>2026-05-02T06:58:40.999Z</time></trkpt><trkpt lat="43.37151316000331" lon="5.509827021549468"><ele>251.5</ele><time>2026-05-02T06:58:42.999Z</time></trkpt><trkpt lat="43.371577022998515" lon="5.509752893483078"><ele>255.66666666666669</ele><time>2026-05-02T06:58:44.999Z</time></trkpt><trkpt lat="43.371655375478056" lon="5.509692531012384"><ele>259.8333333333333</ele><time>2026-05-02T06:58:46.999Z</time></trkpt><trkpt lat="43.371722005346136" lon="5.509633709933811"><ele>264.0</ele><time>2026-05-02T06:58:48.999Z</time></trkpt><trkpt lat="43.371785418275614" lon="5.509592670125585"><ele>264.0</ele><time>2026-05-02T06:58:50.999Z</time></trkpt><trkpt lat="43.371858596425724" lon="5.5095304377315815"><ele>264.0</ele><time>2026-05-02T06:58:52.999Z</time></trkpt><trkpt lat="43.371927268399475" lon="5.509449091507532"><ele>264.0</ele><time>2026-05-02T06:58:54.999Z</time></trkpt><trkpt lat="43.37196841316125" lon="5.5093400997193305"><ele>264.0</ele><time>2026-05-02T06:58:56.999Z</time></trkpt><trkpt lat="43.3720216430368" lon="5.509244919118671"><ele>264.0</ele><time>2026-05-02T06:58:58.999Z</time></trkpt><trkpt lat="43.372106374571835" lon="5.509210319568609"><ele>264.0</ele><time>2026-05-02T06:59:00.999Z</time></trkpt><trkpt lat="43.37219199180869" lon="5.5092653632530615"><ele>264.0</ele><time>2026-05-02T06:59:02.999Z</time></trkpt><trkpt lat="43.37225854265682" lon="5.509331947877265"><ele>264.0</ele><time>2026-05-02T06:59:04.998Z</time></trkpt><trkpt lat="43.37231386588755" lon="5.509400234244739"><ele>264.0</ele><time>2026-05-02T06:59:06.998Z</time></trkpt><trkpt lat="43.3723741591763" lon="5.509464821335345"><ele>264.0</ele><time>2026-05-02T06:59:08.998Z</time></trkpt><trkpt lat="43.372433068613" lon="5.509531500214374"><ele>264.0</ele><time>2026-05-02T06:59:10.998Z</time></trkpt><trkpt lat="43.37248747467036" lon="5.509616417962145"><ele>264.0</ele><time>2026-05-02T06:59:12.998Z</time></trkpt><trkpt lat="43.37254372688442" lon="5.509684767009224"><ele>266.3333333333333</ele><time>2026-05-02T06:59:14.998Z</time></trkpt><trkpt lat="43.37261405104975" lon="5.509730494832594"><ele>268.6666666666667</ele><time>2026-05-02T06:59:16.998Z</time></trkpt><trkpt lat="43.372701324656546" lon="5.509789059456833"><ele>271.0</ele><time>2026-05-02T06:59:19.998Z</time></trkpt><trkpt lat="43.37278161492429" lon="5.5098212141053855"><ele>273.33333333333337</ele><time>2026-05-02T06:59:21.998Z</time></trkpt><trkpt lat="43.37285008421975" lon="5.5098623569979175"><ele>275.6666666666667</ele><time>2026-05-02T06:59:23.998Z</time></trkpt><trkpt lat="43.372909077381564" lon="5.509918120501281"><ele>278.0</ele><time>2026-05-02T06:59:25.998Z</time></trkpt><trkpt lat="43.372956503214844" lon="5.5099964466730755"><ele>278.0</ele><time>2026-05-02T06:59:27.998Z</time></trkpt><trkpt lat="43.37299137545132" lon="5.51007191297126"><ele>278.0</ele><time>2026-05-02T06:59:29.998Z</time></trkpt><trkpt lat="43.37301697471266" lon="5.510170020110235"><ele>278.0</ele><time>2026-05-02T06:59:31.998Z</time></trkpt><trkpt lat="43.373050638656444" lon="5.510251542416689"><ele>278.0</ele><time>2026-05-02T06:59:33.998Z</time></trkpt><trkpt lat="43.373136613294115" lon="5.5103267794264195"><ele>278.0</ele><time>2026-05-02T06:59:37Z</time></trkpt><trkpt lat="43.37321263134206" lon="5.510397302301538"><ele>278.0</ele><time>2026-05-02T06:59:40Z</time></trkpt><trkpt lat="43.373272016613015" lon="5.510450602077268"><ele>280.6666666666667</ele><time>2026-05-02T06:59:42Z</time></trkpt><trkpt lat="43.37332835965914" lon="5.510499557308158"><ele>283.33333333333337</ele><time>2026-05-02T06:59:44Z</time></trkpt><trkpt lat="43.37337608323834" lon="5.510571182031322"><ele>286.0</ele><time>2026-05-02T06:59:46Z</time></trkpt><trkpt lat="43.37342103333577" lon="5.5106699225285185"><ele>288.6666666666667</ele><time>2026-05-02T06:59:49Z</time></trkpt><trkpt lat="43.37346347735262" lon="5.51078382170898"><ele>291.3333333333333</ele><time>2026-05-02T06:59:52Z</time></trkpt><trkpt lat="43.37350419914973" lon="5.510855789371807"><ele>294.0</ele><time>2026-05-02T06:59:53.999Z</time></trkpt><trkpt lat="43.373562539351234" lon="5.510949047209186"><ele>294.0</ele><time>2026-05-02T06:59:56.999Z</time></trkpt><trkpt lat="43.37362531952489" lon="5.511018557738626"><ele>294.0</ele><time>2026-05-02T06:59:59.999Z</time></trkpt><trkpt lat="43.37371650713326" lon="5.511040629450102"><ele>294.0</ele><time>2026-05-02T07:00:02.999Z</time></trkpt><trkpt lat="43.37378605778573" lon="5.5110052758482135"><ele>294.0</ele><time>2026-05-02T07:00:04.999Z</time></trkpt><trkpt lat="43.37383423561774" lon="5.5109026058257475"><ele>294.0</ele><time>2026-05-02T07:00:07.999Z</time></trkpt><trkpt lat="43.37389951668944" lon="5.510816868799305"><ele>294.0</ele><time>2026-05-02T07:00:10.999Z</time></trkpt><trkpt lat="43.373962789152415" lon="5.5107694484741705"><ele>295.0</ele><time>2026-05-02T07:00:12.999Z</time></trkpt><trkpt lat="43.37405159420981" lon="5.510714669463575"><ele>296.0</ele><time>2026-05-02T07:00:15.999Z</time></trkpt><trkpt lat="43.374145276453255" lon="5.510687305524425"><ele>297.0</ele><time>2026-05-02T07:00:18.999Z</time></trkpt><trkpt lat="43.37423739342377" lon="5.510672735310078"><ele>298.0</ele><time>2026-05-02T07:00:21.999Z</time></trkpt><trkpt lat="43.37431497840993" lon="5.510639574484407"><ele>299.0</ele><time>2026-05-02T07:00:23.999Z</time></trkpt><trkpt lat="43.374389742348484" lon="5.510630251544866"><ele>300.0</ele><time>2026-05-02T07:00:25.999Z</time></trkpt><trkpt lat="43.37445818696" lon="5.51060597432175"><ele>300.0</ele><time>2026-05-02T07:00:27.999Z</time></trkpt><trkpt lat="43.37454145995542" lon="5.510629167757375"><ele>300.0</ele><time>2026-05-02T07:00:30.999Z</time></trkpt><trkpt lat="43.37455732861777" lon="5.510730220049204"><ele>300.0</ele><time>2026-05-02T07:00:33.999Z</time></trkpt><trkpt lat="43.374466101734846" lon="5.510706147868433"><ele>300.0</ele><time>2026-05-02T07:00:36.999Z</time></trkpt><trkpt lat="43.37438378209607" lon="5.510724796002922"><ele>300.0</ele><time>2026-05-02T07:00:38.999Z</time></trkpt><trkpt lat="43.3743148425714" lon="5.510742554779046"><ele>300.0</ele><time>2026-05-02T07:00:40.999Z</time></trkpt><trkpt lat="43.37424653280957" lon="5.510766368985981"><ele>299.99999999999994</ele><time>2026-05-02T07:00:42.999Z</time></trkpt><trkpt lat="43.37417327059864" lon="5.510811635124022"><ele>300.0</ele><time>2026-05-02T07:00:44.999Z</time></trkpt><trkpt lat="43.37411295927717" lon="5.510872588863758"><ele>300.0</ele><time>2026-05-02T07:00:46.999Z</time></trkpt><trkpt lat="43.37406580375415" lon="5.51094257192123"><ele>300.0</ele><time>2026-05-02T07:00:48.999Z</time></trkpt><trkpt lat="43.37403089221561" lon="5.511023293744605"><ele>300.0</ele><time>2026-05-02T07:00:50.999Z</time></trkpt><trkpt lat="43.374007330978955" lon="5.511107087485825"><ele>299.99999999999994</ele><time>2026-05-02T07:00:52.999Z</time></trkpt><trkpt lat="43.374034970918494" lon="5.511208503171895"><ele>300.0</ele><time>2026-05-02T07:00:54.999Z</time></trkpt><trkpt lat="43.374120775761185" lon="5.511204362949497"><ele>299.99999999999994</ele><time>2026-05-02T07:00:56.999Z</time></trkpt><trkpt lat="43.37418792904414" lon="5.51114365366471"><ele>300.0</ele><time>2026-05-02T07:00:58.999Z</time></trkpt><trkpt lat="43.3742377791294" lon="5.511078140677274"><ele>300.0</ele><time>2026-05-02T07:01:00.999Z</time></trkpt><trkpt lat="43.37429775468463" lon="5.511037253093529"><ele>300.0</ele><time>2026-05-02T07:01:02.999Z</time></trkpt><trkpt lat="43.37436872935013" lon="5.511015383952547"><ele>300.0</ele><time>2026-05-02T07:01:04.999Z</time></trkpt><trkpt lat="43.37444178388988" lon="5.511004153039336"><ele>299.99999999999994</ele><time>2026-05-02T07:01:06.999Z</time></trkpt><trkpt lat="43.37451698063515" lon="5.511014992189115"><ele>300.0</ele><time>2026-05-02T07:01:08.998Z</time></trkpt><trkpt lat="43.37458706975397" lon="5.511027634594053"><ele>299.99999999999994</ele><time>2026-05-02T07:01:10.998Z</time></trkpt><trkpt lat="43.374651104601654" lon="5.511010727014737"><ele>300.0</ele><time>2026-05-02T07:01:12.998Z</time></trkpt><trkpt lat="43.37472367886837" lon="5.511005096537004"><ele>300.0</ele><time>2026-05-02T07:01:14.998Z</time></trkpt><trkpt lat="43.374792215643694" lon="5.511006256351563"><ele>300.0</ele><time>2026-05-02T07:01:16.998Z</time></trkpt><trkpt lat="43.374863359819976" lon="5.511009817414128"><ele>300.0</ele><time>2026-05-02T07:01:18.998Z</time></trkpt><trkpt lat="43.374933023514224" lon="5.511025148907947"><ele>299.99999999999994</ele><time>2026-05-02T07:01:20.998Z</time></trkpt><trkpt lat="43.375013097995016" lon="5.511054561823137"><ele>300.0</ele><time>2026-05-02T07:01:22.998Z</time></trkpt><trkpt lat="43.375084065735486" lon="5.511091948490547"><ele>300.6666666666667</ele><time>2026-05-02T07:01:24.998Z</time></trkpt><trkpt lat="43.37515321088629" lon="5.51113330358909"><ele>301.3333333333333</ele><time>2026-05-02T07:01:26.998Z</time></trkpt><trkpt lat="43.37521897675944" lon="5.511189842891476"><ele>302.0</ele><time>2026-05-02T07:01:28.998Z</time></trkpt><trkpt lat="43.375285857242986" lon="5.51124524007269"><ele>302.66666666666663</ele><time>2026-05-02T07:01:30.998Z</time></trkpt><trkpt lat="43.37535822695229" lon="5.51129722964482"><ele>303.3333333333333</ele><time>2026-05-02T07:01:32.998Z</time></trkpt><trkpt lat="43.37543374287688" lon="5.511324110737959"><ele>304.0</ele><time>2026-05-02T07:01:34.998Z</time></trkpt><trkpt lat="43.375500620968914" lon="5.511348270180809"><ele>306.7142857142857</ele><time>2026-05-02T07:01:36.998Z</time></trkpt><trkpt lat="43.37556654466748" lon="5.5113785037608025"><ele>309.42857142857144</ele><time>2026-05-02T07:01:38.998Z</time></trkpt><trkpt lat="43.375626445307454" lon="5.511433829521371"><ele>312.14285714285717</ele><time>2026-05-02T07:01:40.998Z</time></trkpt><trkpt lat="43.375676943919736" lon="5.511499976114563"><ele>314.8571428571429</ele><time>2026-05-02T07:01:43Z</time></trkpt><trkpt lat="43.37571914015166" lon="5.511567722576184"><ele>317.57142857142856</ele><time>2026-05-02T07:01:45Z</time></trkpt><trkpt lat="43.3757370005408" lon="5.511658039480802"><ele>320.28571428571433</ele><time>2026-05-02T07:01:47Z</time></trkpt><trkpt lat="43.375771300277286" lon="5.511743199241839"><ele>323.0</ele><time>2026-05-02T07:01:49Z</time></trkpt><trkpt lat="43.375832238812905" lon="5.511796567956823"><ele>323.00000000000006</ele><time>2026-05-02T07:01:51Z</time></trkpt><trkpt lat="43.375897781702704" lon="5.511850930469161"><ele>323.0</ele><time>2026-05-02T07:01:53Z</time></trkpt><trkpt lat="43.375963315382464" lon="5.511856533184784"><ele>323.0</ele><time>2026-05-02T07:01:55Z</time></trkpt><trkpt lat="43.376053165414234" lon="5.511884496804762"><ele>323.0</ele><time>2026-05-02T07:01:58Z</time></trkpt><trkpt lat="43.37612088591274" lon="5.511899455160702"><ele>323.0</ele><time>2026-05-02T07:02:00Z</time></trkpt><trkpt lat="43.37619489764195" lon="5.511901755307348"><ele>323.00000000000006</ele><time>2026-05-02T07:02:02Z</time></trkpt><trkpt lat="43.37625634155498" lon="5.511923032817229"><ele>323.0</ele><time>2026-05-02T07:02:03.999Z</time></trkpt><trkpt lat="43.376322768554736" lon="5.51195315917324"><ele>322.42857142857144</ele><time>2026-05-02T07:02:05.999Z</time></trkpt><trkpt lat="43.37637941694457" lon="5.5120063063366445"><ele>321.8571428571429</ele><time>2026-05-02T07:02:07.999Z</time></trkpt><trkpt lat="43.37641796250098" lon="5.512085273563209"><ele>321.28571428571433</ele><time>2026-05-02T07:02:09.999Z</time></trkpt><trkpt lat="43.37645696871571" lon="5.512169421559274"><ele>320.7142857142857</ele><time>2026-05-02T07:02:11.999Z</time></trkpt><trkpt lat="43.37649416303247" lon="5.512260792951023"><ele>320.1428571428571</ele><time>2026-05-02T07:02:13.999Z</time></trkpt><trkpt lat="43.37653375507808" lon="5.512341371920368"><ele>319.5714285714286</ele><time>2026-05-02T07:02:15.999Z</time></trkpt><trkpt lat="43.376565488611604" lon="5.512437941766187"><ele>319.0</ele><time>2026-05-02T07:02:17.999Z</time></trkpt><trkpt lat="43.37658473525413" lon="5.512538112149499"><ele>320.42857142857144</ele><time>2026-05-02T07:02:19.999Z</time></trkpt><trkpt lat="43.37662914810075" lon="5.512617973660408"><ele>321.85714285714283</ele><time>2026-05-02T07:02:21.999Z</time></trkpt><trkpt lat="43.37664882459884" lon="5.512708548752965"><ele>323.2857142857143</ele><time>2026-05-02T07:02:23.999Z</time></trkpt><trkpt lat="43.37668260872911" lon="5.512795067505976"><ele>324.7142857142857</ele><time>2026-05-02T07:02:25.999Z</time></trkpt><trkpt lat="43.376720685868186" lon="5.512890176495415"><ele>326.1428571428571</ele><time>2026-05-02T07:02:27.999Z</time></trkpt><trkpt lat="43.37674149930157" lon="5.5129832179069425"><ele>327.57142857142856</ele><time>2026-05-02T07:02:29.999Z</time></trkpt><trkpt lat="43.376784530335215" lon="5.513057426139226"><ele>329.0</ele><time>2026-05-02T07:02:31.999Z</time></trkpt><trkpt lat="43.37679015983159" lon="5.513154061659193"><ele>330.42857142857144</ele><time>2026-05-02T07:02:33.999Z</time></trkpt><trkpt lat="43.37680495867344" lon="5.513245050647913"><ele>331.8571428571429</ele><time>2026-05-02T07:02:35.999Z</time></trkpt><trkpt lat="43.37681720985899" lon="5.513338156453862"><ele>333.2857142857143</ele><time>2026-05-02T07:02:37.999Z</time></trkpt><trkpt lat="43.37682665557856" lon="5.513441242445964"><ele>334.7142857142857</ele><time>2026-05-02T07:02:39.999Z</time></trkpt><trkpt lat="43.37683385532966" lon="5.513535825482823"><ele>336.14285714285717</ele><time>2026-05-02T07:02:41.999Z</time></trkpt><trkpt lat="43.37684300819429" lon="5.513632324339938"><ele>337.57142857142856</ele><time>2026-05-02T07:02:43.999Z</time></trkpt><trkpt lat="43.37687037216509" lon="5.513723021118776"><ele>339.0</ele><time>2026-05-02T07:02:45.999Z</time></trkpt><trkpt lat="43.37687712527974" lon="5.513824897023559"><ele>339.1666666666667</ele><time>2026-05-02T07:02:47.999Z</time></trkpt><trkpt lat="43.37693380369235" lon="5.5139180295549926"><ele>339.3333333333333</ele><time>2026-05-02T07:02:49.999Z</time></trkpt><trkpt lat="43.376977232026576" lon="5.514008761303668"><ele>339.5</ele><time>2026-05-02T07:02:51.999Z</time></trkpt><trkpt lat="43.377030729967736" lon="5.5140761379083"><ele>339.66666666666663</ele><time>2026-05-02T07:02:53.999Z</time></trkpt><trkpt lat="43.377087966344504" lon="5.514128721103924"><ele>339.8333333333333</ele><time>2026-05-02T07:02:55.999Z</time></trkpt><trkpt lat="43.37714594717148" lon="5.514189677021119"><ele>340.0</ele><time>2026-05-02T07:02:57.999Z</time></trkpt><trkpt lat="43.37719970790471" lon="5.514253211494313"><ele>340.0</ele><time>2026-05-02T07:02:59.999Z</time></trkpt><trkpt lat="43.37725853507438" lon="5.514317563685464"><ele>340.0</ele><time>2026-05-02T07:03:01.999Z</time></trkpt><trkpt lat="43.37731020722286" lon="5.514390073716893"><ele>340.0</ele><time>2026-05-02T07:03:03.999Z</time></trkpt><trkpt lat="43.37736804458632" lon="5.5144445336123615"><ele>340.0</ele><time>2026-05-02T07:03:05.999Z</time></trkpt><trkpt lat="43.377412654203106" lon="5.5145219580998805"><ele>340.0</ele><time>2026-05-02T07:03:07.999Z</time></trkpt><trkpt lat="43.377448934573685" lon="5.514612567034458"><ele>340.0</ele><time>2026-05-02T07:03:09.999Z</time></trkpt><trkpt lat="43.37747988015833" lon="5.514702962313197"><ele>340.0</ele><time>2026-05-02T07:03:11.999Z</time></trkpt><trkpt lat="43.37751092060313" lon="5.514786662262852"><ele>341.5714285714286</ele><time>2026-05-02T07:03:13.999Z</time></trkpt><trkpt lat="43.3775567322108" lon="5.514869035571602"><ele>343.1428571428571</ele><time>2026-05-02T07:03:15.998Z</time></trkpt><trkpt lat="43.377604939758264" lon="5.51492735358063"><ele>344.7142857142857</ele><time>2026-05-02T07:03:17.998Z</time></trkpt><trkpt lat="43.377664634959025" lon="5.514984319877727"><ele>346.28571428571433</ele><time>2026-05-02T07:03:19.998Z</time></trkpt><trkpt lat="43.37773431700306" lon="5.515012807960835"><ele>347.8571428571429</ele><time>2026-05-02T07:03:21.998Z</time></trkpt><trkpt lat="43.37780525475145" lon="5.515029419363167"><ele>349.42857142857144</ele><time>2026-05-02T07:03:23.998Z</time></trkpt><trkpt lat="43.37786804336119" lon="5.5150664665813345"><ele>351.0</ele><time>2026-05-02T07:03:25.998Z</time></trkpt><trkpt lat="43.377934610965966" lon="5.515092012752512"><ele>351.0</ele><time>2026-05-02T07:03:27.998Z</time></trkpt><trkpt lat="43.378012361328345" lon="5.515137347774876"><ele>351.0</ele><time>2026-05-02T07:03:29.998Z</time></trkpt><trkpt lat="43.37808316957458" lon="5.515182869036152"><ele>351.0</ele><time>2026-05-02T07:03:31.998Z</time></trkpt><trkpt lat="43.37815905509758" lon="5.515215067266542"><ele>351.0</ele><time>2026-05-02T07:03:33.998Z</time></trkpt><trkpt lat="43.37823123936674" lon="5.5152524723825085"><ele>351.0</ele><time>2026-05-02T07:03:35.998Z</time></trkpt><trkpt lat="43.37830256403231" lon="5.515277647952422"><ele>351.0</ele><time>2026-05-02T07:03:37.998Z</time></trkpt><trkpt lat="43.37837932283954" lon="5.51527286402221"><ele>351.6666666666667</ele><time>2026-05-02T07:03:39.998Z</time></trkpt><trkpt lat="43.378465943973396" lon="5.515224135412653"><ele>352.3333333333333</ele><time>2026-05-02T07:03:41.998Z</time></trkpt><trkpt lat="43.37851923034578" lon="5.515138838162359"><ele>353.0</ele><time>2026-05-02T07:03:43.998Z</time></trkpt><trkpt lat="43.378518693016744" lon="5.51502763244959"><ele>353.66666666666663</ele><time>2026-05-02T07:03:45.998Z</time></trkpt><trkpt lat="43.37849387662536" lon="5.514936853296454"><ele>354.3333333333333</ele><time>2026-05-02T07:03:47.998Z</time></trkpt><trkpt lat="43.37847442932449" lon="5.514836203016198"><ele>355.0</ele><time>2026-05-02T07:03:50Z</time></trkpt><trkpt lat="43.378461733951426" lon="5.5147482292640255"><ele>355.0</ele><time>2026-05-02T07:03:52Z</time></trkpt><trkpt lat="43.378445716645295" lon="5.5146517681410225"><ele>355.0</ele><time>2026-05-02T07:03:54Z</time></trkpt><trkpt lat="43.37844035498972" lon="5.5145537083634295"><ele>355.0</ele><time>2026-05-02T07:03:56Z</time></trkpt><trkpt lat="43.378425662011" lon="5.514467722469595"><ele>355.0</ele><time>2026-05-02T07:03:58Z</time></trkpt><trkpt lat="43.37841945194526" lon="5.514371574806965"><ele>355.0</ele><time>2026-05-02T07:04:00Z</time></trkpt><trkpt lat="43.378421393700094" lon="5.514276308372034"><ele>355.0</ele><time>2026-05-02T07:04:02Z</time></trkpt><trkpt lat="43.37842779150485" lon="5.5141721028383754"><ele>355.0</ele><time>2026-05-02T07:04:04Z</time></trkpt><trkpt lat="43.37844493875012" lon="5.514059306605366"><ele>355.0</ele><time>2026-05-02T07:04:06Z</time></trkpt><trkpt lat="43.37846730217738" lon="5.513945948556675"><ele>355.0</ele><time>2026-05-02T07:04:08Z</time></trkpt><trkpt lat="43.37849087885664" lon="5.513849693721246"><ele>355.0</ele><time>2026-05-02T07:04:09.999Z</time></trkpt><trkpt lat="43.37855489263078" lon="5.513781028838681"><ele>355.0</ele><time>2026-05-02T07:04:12.999Z</time></trkpt><trkpt lat="43.37862352814365" lon="5.513787843205103"><ele>355.0</ele><time>2026-05-02T07:04:14.999Z</time></trkpt><trkpt lat="43.37868135269423" lon="5.513831877390483"><ele>355.0</ele><time>2026-05-02T07:04:16.999Z</time></trkpt><trkpt lat="43.37877328883543" lon="5.513894709828507"><ele>355.0</ele><time>2026-05-02T07:04:19.999Z</time></trkpt><trkpt lat="43.37884912661811" lon="5.513921304585896"><ele>355.0</ele><time>2026-05-02T07:04:21.999Z</time></trkpt><trkpt lat="43.37891409207372" lon="5.5139713567069775"><ele>355.0</ele><time>2026-05-02T07:04:23.999Z</time></trkpt><trkpt lat="43.37898107674395" lon="5.514014133146647"><ele>355.0</ele><time>2026-05-02T07:04:25.999Z</time></trkpt><trkpt lat="43.379050231881536" lon="5.51406237945893"><ele>355.0</ele><time>2026-05-02T07:04:27.999Z</time></trkpt><trkpt lat="43.379119393983935" lon="5.514110740627971"><ele>355.0</ele><time>2026-05-02T07:04:29.999Z</time></trkpt><trkpt lat="43.379186976122675" lon="5.514160518625763"><ele>356.0</ele><time>2026-05-02T07:04:31.999Z</time></trkpt><trkpt lat="43.3792645127129" lon="5.514229734269342"><ele>357.0</ele><time>2026-05-02T07:04:33.999Z</time></trkpt><trkpt lat="43.37934329306556" lon="5.514274836978418"><ele>358.0</ele><time>2026-05-02T07:04:35.999Z</time></trkpt><trkpt lat="43.37942070912368" lon="5.51431053473133"><ele>359.0</ele><time>2026-05-02T07:04:37.999Z</time></trkpt><trkpt lat="43.379504840651286" lon="5.514335383144604"><ele>360.0</ele><time>2026-05-02T07:04:39.999Z</time></trkpt><trkpt lat="43.37958722726866" lon="5.514325796429568"><ele>361.0</ele><time>2026-05-02T07:04:41.999Z</time></trkpt><trkpt lat="43.37966717170346" lon="5.514307994102473"><ele>362.3333333333333</ele><time>2026-05-02T07:04:43.999Z</time></trkpt><trkpt lat="43.3797462374924" lon="5.51427013236779"><ele>363.66666666666663</ele><time>2026-05-02T07:04:45.999Z</time></trkpt><trkpt lat="43.37983181586047" lon="5.514251171281383"><ele>365.0</ele><time>2026-05-02T07:04:47.999Z</time></trkpt><trkpt lat="43.37991933471239" lon="5.5142300606610695"><ele>366.3333333333333</ele><time>2026-05-02T07:04:49.999Z</time></trkpt><trkpt lat="43.38000485215788" lon="5.514218471959376"><ele>367.6666666666667</ele><time>2026-05-02T07:04:51.999Z</time></trkpt><trkpt lat="43.380089341732976" lon="5.514202171175794"><ele>369.0</ele><time>2026-05-02T07:04:53.999Z</time></trkpt><trkpt lat="43.38017420004889" lon="5.514186231937703"><ele>369.0</ele><time>2026-05-02T07:04:55.999Z</time></trkpt><trkpt lat="43.38024906252914" lon="5.514176781308574"><ele>369.0</ele><time>2026-05-02T07:04:57.999Z</time></trkpt><trkpt lat="43.38032298497556" lon="5.514142964715336"><ele>369.0</ele><time>2026-05-02T07:04:59.999Z</time></trkpt><trkpt lat="43.38038130433196" lon="5.5140612361663"><ele>369.0</ele><time>2026-05-02T07:05:01.999Z</time></trkpt><trkpt lat="43.38035883496849" lon="5.5139772056480085"><ele>369.0</ele><time>2026-05-02T07:05:02.999Z</time></trkpt><trkpt lat="43.380283619068535" lon="5.513894551577165"><ele>369.0</ele><time>2026-05-02T07:05:04.999Z</time></trkpt><trkpt lat="43.38020744348162" lon="5.513828812426002"><ele>369.0</ele><time>2026-05-02T07:05:06.999Z</time></trkpt><trkpt lat="43.380131475772835" lon="5.513762693412004"><ele>369.0</ele><time>2026-05-02T07:05:08.999Z</time></trkpt><trkpt lat="43.380061117231996" lon="5.513693605197764"><ele>369.0</ele><time>2026-05-02T07:05:10.999Z</time></trkpt><trkpt lat="43.37999756604677" lon="5.513616842675443"><ele>369.0</ele><time>2026-05-02T07:05:12.999Z</time></trkpt><trkpt lat="43.37993111243412" lon="5.513545589800761"><ele>369.0</ele><time>2026-05-02T07:05:14.999Z</time></trkpt><trkpt lat="43.37987329436718" lon="5.513458663280604"><ele>369.0</ele><time>2026-05-02T07:05:16.999Z</time></trkpt><trkpt lat="43.37982230580588" lon="5.513363574231221"><ele>370.0</ele><time>2026-05-02T07:05:18.998Z</time></trkpt><trkpt lat="43.379791098214575" lon="5.513255935736895"><ele>371.0</ele><time>2026-05-02T07:05:20.998Z</time></trkpt><trkpt lat="43.37977673380104" lon="5.51315694673623"><ele>372.0</ele><time>2026-05-02T07:05:22.998Z</time></trkpt><trkpt lat="43.379806950685044" lon="5.513075794187696"><ele>373.0</ele><time>2026-05-02T07:05:24.998Z</time></trkpt><trkpt lat="43.37980695068454" lon="5.512980389754076"><ele>374.0</ele><time>2026-05-02T07:05:27.998Z</time></trkpt><trkpt lat="43.379797539490966" lon="5.512885779953709"><ele>375.0</ele><time>2026-05-02T07:06:42.999Z</time></trkpt><trkpt lat="43.37973736503923" lon="5.512776439895447"><ele>376.0</ele><time>2026-05-02T07:06:44.999Z</time></trkpt><trkpt lat="43.379723433625486" lon="5.5126235177813365"><ele>377.0</ele><time>2026-05-02T07:06:46.999Z</time></trkpt><trkpt lat="43.379702640705055" lon="5.512538406238725"><ele>378.0</ele><time>2026-05-02T07:06:47.999Z</time></trkpt><trkpt lat="43.37967857258219" lon="5.512454642231568"><ele>379.0</ele><time>2026-05-02T07:06:48.999Z</time></trkpt><trkpt lat="43.37963004042748" lon="5.512303693701279"><ele>380.0</ele><time>2026-05-02T07:06:50.999Z</time></trkpt><trkpt lat="43.379591178221524" lon="5.512175301896672"><ele>374.8</ele><time>2026-05-02T07:06:52.999Z</time></trkpt><trkpt lat="43.37952984410745" lon="5.5120353592560045"><ele>369.6</ele><time>2026-05-02T07:06:54.999Z</time></trkpt><trkpt lat="43.37946867482266" lon="5.5118785997523485"><ele>364.4</ele><time>2026-05-02T07:06:56.999Z</time></trkpt><trkpt lat="43.37941833501427" lon="5.5118175163240055"><ele>359.2</ele><time>2026-05-02T07:06:57.999Z</time></trkpt><trkpt lat="43.379387619409606" lon="5.511653083110244"><ele>354.0</ele><time>2026-05-02T07:06:59.999Z</time></trkpt><trkpt lat="43.37938842060699" lon="5.511556970862203"><ele>354.0</ele><time>2026-05-02T07:07:00.999Z</time></trkpt><trkpt lat="43.379387286221416" lon="5.5114525485307215"><ele>354.0</ele><time>2026-05-02T07:07:01.999Z</time></trkpt><trkpt lat="43.37938384796387" lon="5.511354557099457"><ele>354.0</ele><time>2026-05-02T07:07:02.999Z</time></trkpt><trkpt lat="43.3793731299469" lon="5.511237140368229"><ele>354.0</ele><time>2026-05-02T07:07:03.999Z</time></trkpt><trkpt lat="43.37934527952342" lon="5.511124607842257"><ele>354.0</ele><time>2026-05-02T07:07:04.999Z</time></trkpt><trkpt lat="43.379315474506164" lon="5.511011177842322"><ele>354.0</ele><time>2026-05-02T07:07:05.999Z</time></trkpt><trkpt lat="43.37928663717822" lon="5.510897711481853"><ele>353.5</ele><time>2026-05-02T07:07:06.999Z</time></trkpt><trkpt lat="43.37924524527396" lon="5.510793691667545"><ele>353.0</ele><time>2026-05-02T07:07:07.999Z</time></trkpt><trkpt lat="43.379225113283916" lon="5.510676708021226"><ele>352.5</ele><time>2026-05-02T07:07:08.999Z</time></trkpt><trkpt lat="43.37918414214166" lon="5.510573583754652"><ele>352.0</ele><time>2026-05-02T07:07:09.999Z</time></trkpt><trkpt lat="43.37915535481949" lon="5.5104672971912345"><ele>351.5</ele><time>2026-05-02T07:07:10.999Z</time></trkpt><trkpt lat="43.379121211304124" lon="5.510367420488042"><ele>351.0</ele><time>2026-05-02T07:07:11.999Z</time></trkpt><trkpt lat="43.379091006587714" lon="5.510268904246186"><ele>349.3333333333333</ele><time>2026-05-02T07:07:12.999Z</time></trkpt><trkpt lat="43.3790584645363" lon="5.5101738442994765"><ele>347.6666666666667</ele><time>2026-05-02T07:07:13.999Z</time></trkpt><trkpt lat="43.379028779194144" lon="5.510077486255484"><ele>346.0</ele><time>2026-05-02T07:07:14.999Z</time></trkpt><trkpt lat="43.37901557466186" lon="5.509971905801837"><ele>344.33333333333337</ele><time>2026-05-02T07:07:15.999Z</time></trkpt><trkpt lat="43.37897921696715" lon="5.509827283298051"><ele>342.6666666666667</ele><time>2026-05-02T07:07:17.999Z</time></trkpt><trkpt lat="43.3789615983238" lon="5.509733269528032"><ele>341.0</ele><time>2026-05-02T07:07:19.999Z</time></trkpt><trkpt lat="43.37894479131503" lon="5.509539131678763"><ele>340.25</ele><time>2026-05-02T07:07:43.998Z</time></trkpt><trkpt lat="43.37889865936044" lon="5.509419372365301"><ele>339.5</ele><time>2026-05-02T07:07:45.998Z</time></trkpt><trkpt lat="43.378683841705474" lon="5.509441542920061"><ele>338.75</ele><time>2026-05-02T07:07:46.998Z</time></trkpt><trkpt lat="43.37857110026046" lon="5.50934514575049"><ele>338.0</ele><time>2026-05-02T07:07:48.998Z</time></trkpt><trkpt lat="43.378508041477915" lon="5.509291004502772"><ele>338.0</ele><time>2026-05-02T07:07:49.998Z</time></trkpt><trkpt lat="43.37843973715835" lon="5.5092402733470776"><ele>338.0</ele><time>2026-05-02T07:07:50.998Z</time></trkpt><trkpt lat="43.37836217321533" lon="5.509195159874726"><ele>338.0</ele><time>2026-05-02T07:07:51.998Z</time></trkpt><trkpt lat="43.37828684689268" lon="5.509142829347416"><ele>338.0</ele><time>2026-05-02T07:07:52.998Z</time></trkpt><trkpt lat="43.37821402157978" lon="5.5090992205095315"><ele>338.0</ele><time>2026-05-02T07:07:53.998Z</time></trkpt><trkpt lat="43.37815518973406" lon="5.509053152062347"><ele>338.0</ele><time>2026-05-02T07:07:54.998Z</time></trkpt><trkpt lat="43.37807071434734" lon="5.508992074932213"><ele>337.1666666666667</ele><time>2026-05-02T07:07:56.998Z</time></trkpt><trkpt lat="43.378000421427465" lon="5.508936167620315"><ele>336.33333333333337</ele><time>2026-05-02T07:07:58.998Z</time></trkpt><trkpt lat="43.37793218378992" lon="5.508887515316057"><ele>335.5</ele><time>2026-05-02T07:08:01Z</time></trkpt><trkpt lat="43.37786034613792" lon="5.508837921836842"><ele>334.6666666666667</ele><time>2026-05-02T07:08:03Z</time></trkpt><trkpt lat="43.377780383923906" lon="5.508783500824058"><ele>333.8333333333333</ele><time>2026-05-02T07:08:05Z</time></trkpt><trkpt lat="43.377709845689296" lon="5.508721362655606"><ele>333.0</ele><time>2026-05-02T07:08:07Z</time></trkpt><trkpt lat="43.37763722504149" lon="5.5086530305258306"><ele>335.0</ele><time>2026-05-02T07:08:09Z</time></trkpt><trkpt lat="43.377569268315575" lon="5.508570753014744"><ele>337.0</ele><time>2026-05-02T07:08:11Z</time></trkpt><trkpt lat="43.37750492533043" lon="5.508469229201704"><ele>339.0</ele><time>2026-05-02T07:08:13Z</time></trkpt><trkpt lat="43.377437813044445" lon="5.50835617754011"><ele>341.0</ele><time>2026-05-02T07:08:14.999Z</time></trkpt><trkpt lat="43.37736225858051" lon="5.508235006787341"><ele>343.0</ele><time>2026-05-02T07:08:16.999Z</time></trkpt><trkpt lat="43.3772779440079" lon="5.508110169460897"><ele>343.0</ele><time>2026-05-02T07:08:18.999Z</time></trkpt><trkpt lat="43.37723501044599" lon="5.508039609151562"><ele>343.0</ele><time>2026-05-02T07:08:19.999Z</time></trkpt><trkpt lat="43.37715010925519" lon="5.507903438644638"><ele>343.0</ele><time>2026-05-02T07:08:21.999Z</time></trkpt><trkpt lat="43.377109208707346" lon="5.507835386834404"><ele>343.0</ele><time>2026-05-02T07:08:22.999Z</time></trkpt><trkpt lat="43.3770175054925" lon="5.507731945401665"><ele>343.0</ele><time>2026-05-02T07:08:24.999Z</time></trkpt><trkpt lat="43.37691708971535" lon="5.507660938918301"><ele>343.79999999999995</ele><time>2026-05-02T07:08:26.999Z</time></trkpt><trkpt lat="43.3768350443584" lon="5.507597880486232"><ele>344.6</ele><time>2026-05-02T07:08:28.999Z</time></trkpt><trkpt lat="43.37674869834752" lon="5.5075393625263915"><ele>345.4</ele><time>2026-05-02T07:08:30.999Z</time></trkpt><trkpt lat="43.3766603616885" lon="5.507463303868114"><ele>346.20000000000005</ele><time>2026-05-02T07:08:32.999Z</time></trkpt><trkpt lat="43.37657765295671" lon="5.5073884893925085"><ele>347.0</ele><time>2026-05-02T07:08:34.999Z</time></trkpt><trkpt lat="43.37648317427975" lon="5.507331065053223"><ele>347.0</ele><time>2026-05-02T07:08:36.999Z</time></trkpt><trkpt lat="43.3763842333779" lon="5.507288265017525"><ele>347.0</ele><time>2026-05-02T07:08:38.999Z</time></trkpt><trkpt lat="43.376281828735515" lon="5.507276048417761"><ele>347.0</ele><time>2026-05-02T07:08:40.999Z</time></trkpt><trkpt lat="43.37618106659308" lon="5.507280002434832"><ele>347.0</ele><time>2026-05-02T07:08:42.999Z</time></trkpt><trkpt lat="43.3760687577898" lon="5.507301966948448"><ele>347.0</ele><time>2026-05-02T07:08:44.999Z</time></trkpt><trkpt lat="43.376005255644955" lon="5.507308453449959"><ele>346.5</ele><time>2026-05-02T07:08:45.999Z</time></trkpt><trkpt lat="43.375941613200695" lon="5.507299662657636"><ele>346.0</ele><time>2026-05-02T07:08:46.999Z</time></trkpt><trkpt lat="43.37587074938698" lon="5.507297855223554"><ele>345.5</ele><time>2026-05-02T07:08:47.999Z</time></trkpt><trkpt lat="43.37576168545769" lon="5.507279347294143"><ele>345.0</ele><time>2026-05-02T07:08:49.999Z</time></trkpt><trkpt lat="43.37564210980355" lon="5.507252642092684"><ele>344.5</ele><time>2026-05-02T07:08:51.999Z</time></trkpt><trkpt lat="43.37557959577768" lon="5.507236022980907"><ele>344.0</ele><time>2026-05-02T07:08:52.999Z</time></trkpt><trkpt lat="43.37551190849142" lon="5.507217903555212"><ele>342.5</ele><time>2026-05-02T07:08:53.999Z</time></trkpt><trkpt lat="43.37544679395718" lon="5.507192953903782"><ele>341.0</ele><time>2026-05-02T07:08:54.999Z</time></trkpt><trkpt lat="43.37533139460478" lon="5.507197820574483"><ele>339.5</ele><time>2026-05-02T07:08:56.999Z</time></trkpt><trkpt lat="43.375215492022306" lon="5.507233909043959"><ele>338.0</ele><time>2026-05-02T07:08:58.999Z</time></trkpt><trkpt lat="43.37514623352447" lon="5.507213200753577"><ele>336.5</ele><time>2026-05-02T07:08:59.999Z</time></trkpt><trkpt lat="43.37508136456895" lon="5.507174740966652"><ele>335.0</ele><time>2026-05-02T07:09:00.999Z</time></trkpt><trkpt lat="43.37502508622105" lon="5.507114870681608"><ele>334.0</ele><time>2026-05-02T07:09:01.999Z</time></trkpt><trkpt lat="43.37496765911887" lon="5.50705585668058"><ele>333.0</ele><time>2026-05-02T07:09:02.999Z</time></trkpt><trkpt lat="43.37489319222658" lon="5.507015475274268"><ele>332.0</ele><time>2026-05-02T07:09:03.999Z</time></trkpt><trkpt lat="43.37481660905965" lon="5.506988356523724"><ele>331.0</ele><time>2026-05-02T07:09:04.999Z</time></trkpt><trkpt lat="43.374733768697645" lon="5.506988474672403"><ele>330.0</ele><time>2026-05-02T07:09:05.999Z</time></trkpt><trkpt lat="43.37465425801126" lon="5.506986104007556"><ele>329.0</ele><time>2026-05-02T07:09:06.999Z</time></trkpt><trkpt lat="43.37458201650204" lon="5.506967660505309"><ele>328.0</ele><time>2026-05-02T07:09:07.999Z</time></trkpt><trkpt lat="43.374517524073916" lon="5.506932890582062"><ele>327.0</ele><time>2026-05-02T07:09:08.999Z</time></trkpt><trkpt lat="43.37445286456585" lon="5.50689770674102"><ele>326.0</ele><time>2026-05-02T07:09:09.999Z</time></trkpt><trkpt lat="43.374392680537156" lon="5.506862921807687"><ele>325.0</ele><time>2026-05-02T07:09:10.999Z</time></trkpt><trkpt lat="43.37431264882489" lon="5.506834200955912"><ele>324.0</ele><time>2026-05-02T07:09:11.999Z</time></trkpt><trkpt lat="43.374228052393974" lon="5.506817125407305"><ele>323.0</ele><time>2026-05-02T07:09:12.999Z</time></trkpt><trkpt lat="43.37414526042897" lon="5.50680363882559"><ele>323.0</ele><time>2026-05-02T07:09:13.999Z</time></trkpt><trkpt lat="43.374064930484536" lon="5.506798226319226"><ele>323.0</ele><time>2026-05-02T07:09:14.999Z</time></trkpt><trkpt lat="43.373978513693864" lon="5.506781225545406"><ele>323.0</ele><time>2026-05-02T07:09:15.999Z</time></trkpt><trkpt lat="43.373888465498226" lon="5.506748022688026"><ele>323.0</ele><time>2026-05-02T07:09:16.999Z</time></trkpt><trkpt lat="43.37380264781716" lon="5.506714335693391"><ele>323.0</ele><time>2026-05-02T07:09:17.999Z</time></trkpt><trkpt lat="43.373721588962994" lon="5.506670635606458"><ele>323.0</ele><time>2026-05-02T07:09:18.999Z</time></trkpt><trkpt lat="43.37363695950329" lon="5.5066383593838495"><ele>322.0</ele><time>2026-05-02T07:09:19.999Z</time></trkpt><trkpt lat="43.37353758486277" lon="5.506604591813459"><ele>321.0</ele><time>2026-05-02T07:09:20.999Z</time></trkpt><trkpt lat="43.373454941555956" lon="5.506588233982747"><ele>320.0</ele><time>2026-05-02T07:09:21.999Z</time></trkpt><trkpt lat="43.37337605251931" lon="5.506570279330617"><ele>319.0</ele><time>2026-05-02T07:09:22.999Z</time></trkpt><trkpt lat="43.37329879227183" lon="5.506535454440302"><ele>318.0</ele><time>2026-05-02T07:09:23.999Z</time></trkpt><trkpt lat="43.373226412599045" lon="5.506489069643865"><ele>317.0</ele><time>2026-05-02T07:09:24.999Z</time></trkpt><trkpt lat="43.37315614072362" lon="5.50644414292726"><ele>317.0</ele><time>2026-05-02T07:09:25.998Z</time></trkpt><trkpt lat="43.37308854277851" lon="5.506398060539437"><ele>317.0</ele><time>2026-05-02T07:09:26.998Z</time></trkpt><trkpt lat="43.37300835825687" lon="5.506365539940762"><ele>317.0</ele><time>2026-05-02T07:09:27.998Z</time></trkpt><trkpt lat="43.37292980830909" lon="5.506338807377358"><ele>317.0</ele><time>2026-05-02T07:09:28.998Z</time></trkpt><trkpt lat="43.37286615982469" lon="5.506328414858006"><ele>317.0</ele><time>2026-05-02T07:09:29.998Z</time></trkpt><trkpt lat="43.37280259335848" lon="5.506319981207299"><ele>317.0</ele><time>2026-05-02T07:09:30.998Z</time></trkpt><trkpt lat="43.3727285631914" lon="5.506307444607679"><ele>317.0</ele><time>2026-05-02T07:09:32.998Z</time></trkpt><trkpt lat="43.37266559031289" lon="5.506289806745937"><ele>313.83333333333337</ele><time>2026-05-02T07:10:08Z</time></trkpt><trkpt lat="43.37259657938454" lon="5.5062409760410755"><ele>310.6666666666667</ele><time>2026-05-02T07:10:11Z</time></trkpt><trkpt lat="43.37255316501783" lon="5.506137445322474"><ele>307.5</ele><time>2026-05-02T07:10:15Z</time></trkpt><trkpt lat="43.37251013303734" lon="5.5060717963289605"><ele>304.3333333333333</ele><time>2026-05-02T07:10:17Z</time></trkpt><trkpt lat="43.372434123587155" lon="5.506011398728353"><ele>301.16666666666663</ele><time>2026-05-02T07:10:20Z</time></trkpt><trkpt lat="43.37238273224386" lon="5.505952495803778"><ele>298.0</ele><time>2026-05-02T07:10:23Z</time></trkpt><trkpt lat="43.37235937549632" lon="5.505866202916322"><ele>298.0</ele><time>2026-05-02T07:10:25Z</time></trkpt><trkpt lat="43.37230434233053" lon="5.505780616152936"><ele>298.0</ele><time>2026-05-02T07:10:28Z</time></trkpt><trkpt lat="43.37225054821175" lon="5.505731337243458"><ele>298.0</ele><time>2026-05-02T07:10:31Z</time></trkpt><trkpt lat="43.372210683478556" lon="5.50563572358811"><ele>298.0</ele><time>2026-05-02T07:10:34Z</time></trkpt><trkpt lat="43.37220212191914" lon="5.505547137093249"><ele>298.0</ele><time>2026-05-02T07:10:38Z</time></trkpt><trkpt lat="43.3721459847283" lon="5.505461672082235"><ele>298.0</ele><time>2026-05-02T07:10:41Z</time></trkpt><trkpt lat="43.37208684959248" lon="5.505423814348852"><ele>298.0</ele><time>2026-05-02T07:10:43Z</time></trkpt><trkpt lat="43.3720051052317" lon="5.505413788314218"><ele>294.66666666666663</ele><time>2026-05-02T07:10:46Z</time></trkpt><trkpt lat="43.37196103681564" lon="5.5053174316951345"><ele>291.3333333333333</ele><time>2026-05-02T07:10:49Z</time></trkpt><trkpt lat="43.371910318514594" lon="5.505219444578295"><ele>288.0</ele><time>2026-05-02T07:10:52Z</time></trkpt><trkpt lat="43.37184270121747" lon="5.505160625257785"><ele>284.6666666666667</ele><time>2026-05-02T07:10:54Z</time></trkpt><trkpt lat="43.371772178130996" lon="5.505100201291174"><ele>281.33333333333337</ele><time>2026-05-02T07:10:57Z</time></trkpt><trkpt lat="43.371720443037226" lon="5.505022273608456"><ele>278.0</ele><time>2026-05-02T07:11:00Z</time></trkpt><trkpt lat="43.37167802197407" lon="5.504926904086554"><ele>278.0</ele><time>2026-05-02T07:11:03Z</time></trkpt><trkpt lat="43.371645081401354" lon="5.504836041293242"><ele>278.0</ele><time>2026-05-02T07:12:00.999Z</time></trkpt><trkpt lat="43.37160461836307" lon="5.504761161310947"><ele>278.0</ele><time>2026-05-02T07:12:03.999Z</time></trkpt><trkpt lat="43.37160970269239" lon="5.50467004100518"><ele>278.0</ele><time>2026-05-02T07:12:06.999Z</time></trkpt><trkpt lat="43.37157084273278" lon="5.504600272203364"><ele>278.0</ele><time>2026-05-02T07:12:10.999Z</time></trkpt><trkpt lat="43.371552637794615" lon="5.504510792314372"><ele>278.0</ele><time>2026-05-02T07:12:28Z</time></trkpt><trkpt lat="43.371497171910626" lon="5.504444309839497"><ele>278.0</ele><time>2026-05-02T07:12:35Z</time></trkpt><trkpt lat="43.371453866075385" lon="5.504351898167708"><ele>276.7142857142857</ele><time>2026-05-02T07:12:57Z</time></trkpt><trkpt lat="43.37140143217027" lon="5.504269608684563"><ele>275.42857142857144</ele><time>2026-05-02T07:13:00Z</time></trkpt><trkpt lat="43.3713648963195" lon="5.504170554868235"><ele>274.14285714285717</ele><time>2026-05-02T07:13:14Z</time></trkpt><trkpt lat="43.37131712220527" lon="5.504108392988243"><ele>272.8571428571429</ele><time>2026-05-02T07:13:27Z</time></trkpt><trkpt lat="43.371269196084064" lon="5.504046427282302"><ele>271.5714285714286</ele><time>2026-05-02T07:13:31Z</time></trkpt><trkpt lat="43.371263391491006" lon="5.503951381662521"><ele>270.2857142857143</ele><time>2026-05-02T07:13:35.999Z</time></trkpt><trkpt lat="43.37122283250495" lon="5.5038454197733815"><ele>269.0</ele><time>2026-05-02T07:13:37.999Z</time></trkpt><trkpt lat="43.371182585509445" lon="5.503768311498911"><ele>269.14285714285717</ele><time>2026-05-02T07:13:44.999Z</time></trkpt><trkpt lat="43.371163414150764" lon="5.503669539612678"><ele>269.28571428571433</ele><time>2026-05-02T07:13:48.999Z</time></trkpt><trkpt lat="43.37114611424792" lon="5.503583213873743"><ele>269.42857142857144</ele><time>2026-05-02T07:13:50.999Z</time></trkpt><trkpt lat="43.37112073233344" lon="5.503499502197784"><ele>269.57142857142856</ele><time>2026-05-02T07:13:53.999Z</time></trkpt><trkpt lat="43.371108857271146" lon="5.503399742932356"><ele>269.71428571428567</ele><time>2026-05-02T07:13:56.999Z</time></trkpt><trkpt lat="43.371080365722115" lon="5.503281992369136"><ele>269.85714285714283</ele><time>2026-05-02T07:14:12.999Z</time></trkpt><trkpt lat="43.37112455532203" lon="5.503216010465575"><ele>270.0</ele><time>2026-05-02T07:14:15.999Z</time></trkpt><trkpt lat="43.37116575660828" lon="5.5031438989537715"><ele>270.0</ele><time>2026-05-02T07:14:18Z</time></trkpt><trkpt lat="43.37122726772676" lon="5.503046547064546"><ele>270.0</ele><time>2026-05-02T07:14:21Z</time></trkpt><trkpt lat="43.37126885179253" lon="5.502947272554733"><ele>270.0</ele><time>2026-05-02T07:14:23Z</time></trkpt><trkpt lat="43.37132947670044" lon="5.502878453074246"><ele>270.0</ele><time>2026-05-02T07:14:26Z</time></trkpt><trkpt lat="43.371400269681494" lon="5.502824553231296"><ele>270.0</ele><time>2026-05-02T07:14:29Z</time></trkpt><trkpt lat="43.37143013204506" lon="5.502741260812148"><ele>270.0</ele><time>2026-05-02T07:14:34Z</time></trkpt><trkpt lat="43.37147689025766" lon="5.502678238207472"><ele>268.0</ele><time>2026-05-02T07:14:41Z</time></trkpt><trkpt lat="43.37153026037553" lon="5.502620415806951"><ele>266.0</ele><time>2026-05-02T07:14:51Z</time></trkpt><trkpt lat="43.37155768594776" lon="5.50253771062329"><ele>264.0</ele><time>2026-05-02T07:15:05Z</time></trkpt><trkpt lat="43.371554711114904" lon="5.502448111984762"><ele>262.0</ele><time>2026-05-02T07:15:16Z</time></trkpt><trkpt lat="43.37161145837396" lon="5.502395255959038"><ele>260.0</ele><time>2026-05-02T07:15:37.999Z</time></trkpt><trkpt lat="43.37166497553603" lon="5.502338014405347"><ele>258.0</ele><time>2026-05-02T07:15:54.999Z</time></trkpt><trkpt lat="43.37171788963522" lon="5.502278184776947"><ele>256.0</ele><time>2026-05-02T07:16:03.999Z</time></trkpt><trkpt lat="43.37177980229499" lon="5.502260314157904"><ele>255.99999999999997</ele><time>2026-05-02T07:16:11.999Z</time></trkpt><trkpt lat="43.37184248967992" lon="5.502274717610547"><ele>256.0</ele><time>2026-05-02T07:16:22.999Z</time></trkpt><trkpt lat="43.371904183202965" lon="5.502232372462983"><ele>256.0</ele><time>2026-05-02T07:16:30Z</time></trkpt><trkpt lat="43.37196872308691" lon="5.502222503659109"><ele>256.0</ele><time>2026-05-02T07:16:37Z</time></trkpt><trkpt lat="43.37201979378875" lon="5.502167473101814"><ele>255.99999999999997</ele><time>2026-05-02T07:16:46Z</time></trkpt><trkpt lat="43.37212407923209" lon="5.502081367991215"><ele>256.0</ele><time>2026-05-02T07:17:15Z</time></trkpt><trkpt lat="43.372180546615894" lon="5.502032704437854"><ele>253.85714285714283</ele><time>2026-05-02T07:17:21Z</time></trkpt><trkpt lat="43.37220856065683" lon="5.501946826128496"><ele>251.7142857142857</ele><time>2026-05-02T07:17:28Z</time></trkpt><trkpt lat="43.3722307192246" lon="5.501862365197297"><ele>249.57142857142856</ele><time>2026-05-02T07:17:34Z</time></trkpt><trkpt lat="43.37225633744034" lon="5.501775788610685"><ele>247.42857142857144</ele><time>2026-05-02T07:17:41.999Z</time></trkpt><trkpt lat="43.37225343846217" lon="5.50164411099518"><ele>245.2857142857143</ele><time>2026-05-02T07:18:10.999Z</time></trkpt><trkpt lat="43.37219159019216" lon="5.501626133208727"><ele>243.14285714285717</ele><time>2026-05-02T07:19:01Z</time></trkpt><trkpt lat="43.37220881053254" lon="5.50153729122719"><ele>241.0</ele><time>2026-05-02T07:19:19Z</time></trkpt><trkpt lat="43.37224593512014" lon="5.501457900836158"><ele>241.0</ele><time>2026-05-02T07:19:27Z</time></trkpt><trkpt lat="43.37222993441311" lon="5.501367594903296"><ele>241.00000000000003</ele><time>2026-05-02T07:19:39.999Z</time></trkpt><trkpt lat="43.37229399612248" lon="5.501339097769919"><ele>241.0</ele><time>2026-05-02T07:21:57.999Z</time></trkpt><trkpt lat="43.37227192942235" lon="5.50125335521272"><ele>241.0</ele><time>2026-05-02T07:21:59.999Z</time></trkpt><trkpt lat="43.37219440981241" lon="5.5012134060736715"><ele>241.00000000000003</ele><time>2026-05-02T07:22:04.999Z</time></trkpt><trkpt lat="43.372123132341926" lon="5.501205351397056"><ele>241.0</ele><time>2026-05-02T07:22:08.999Z</time></trkpt><trkpt lat="43.37204370783306" lon="5.501180887606922"><ele>241.0</ele><time>2026-05-02T07:22:30.999Z</time></trkpt><trkpt lat="43.371982575572105" lon="5.501146283190602"><ele>242.66666666666666</ele><time>2026-05-02T07:22:34.999Z</time></trkpt><trkpt lat="43.37191604579179" lon="5.501116797506308"><ele>244.33333333333331</ele><time>2026-05-02T07:22:37.999Z</time></trkpt><trkpt lat="43.37187050643023" lon="5.501054691787473"><ele>246.0</ele><time>2026-05-02T07:22:41Z</time></trkpt><trkpt lat="43.37181923028859" lon="5.500998457468172"><ele>247.66666666666669</ele><time>2026-05-02T07:24:26.999Z</time></trkpt><trkpt lat="43.37175941012981" lon="5.500928859186174"><ele>249.33333333333334</ele><time>2026-05-02T07:24:30.999Z</time></trkpt><trkpt lat="43.37170780805282" lon="5.500836171016383"><ele>251.0</ele><time>2026-05-02T07:24:33.999Z</time></trkpt><trkpt lat="43.37163454011415" lon="5.50075650517468"><ele>251.00000000000003</ele><time>2026-05-02T07:24:36.999Z</time></trkpt><trkpt lat="43.37156025926051" lon="5.500687579993131"><ele>251.0</ele><time>2026-05-02T07:24:39.999Z</time></trkpt><trkpt lat="43.37148572187281" lon="5.500634036776633"><ele>251.0</ele><time>2026-05-02T07:24:41.999Z</time></trkpt><trkpt lat="43.37140598218298" lon="5.500604003712291"><ele>251.0</ele><time>2026-05-02T07:24:43.999Z</time></trkpt><trkpt lat="43.37132325855224" lon="5.500586559398542"><ele>251.00000000000003</ele><time>2026-05-02T07:24:45.999Z</time></trkpt><trkpt lat="43.37124553014187" lon="5.500590719723726"><ele>251.0</ele><time>2026-05-02T07:24:47.999Z</time></trkpt><trkpt lat="43.37117165965627" lon="5.500608008873519"><ele>251.00000000000003</ele><time>2026-05-02T07:24:49.999Z</time></trkpt><trkpt lat="43.371083498127874" lon="5.500632984167434"><ele>251.0</ele><time>2026-05-02T07:24:51.999Z</time></trkpt><trkpt lat="43.371005236601775" lon="5.500678915570807"><ele>251.0</ele><time>2026-05-02T07:24:53.999Z</time></trkpt><trkpt lat="43.370942216073544" lon="5.50073158449535"><ele>251.0</ele><time>2026-05-02T07:24:55.999Z</time></trkpt><trkpt lat="43.370885898920704" lon="5.500779371636389"><ele>251.00000000000003</ele><time>2026-05-02T07:24:57.999Z</time></trkpt><trkpt lat="43.370824163825326" lon="5.5008380718693735"><ele>251.0</ele><time>2026-05-02T07:24:59.999Z</time></trkpt><trkpt lat="43.370758078020046" lon="5.500882137497152"><ele>251.00000000000003</ele><time>2026-05-02T07:25:01.999Z</time></trkpt><trkpt lat="43.37068472695412" lon="5.500913947647137"><ele>251.0</ele><time>2026-05-02T07:25:03.999Z</time></trkpt><trkpt lat="43.370608832031635" lon="5.500919146333505"><ele>251.0</ele><time>2026-05-02T07:25:05.999Z</time></trkpt><trkpt lat="43.37053099319652" lon="5.500904751987625"><ele>251.0</ele><time>2026-05-02T07:25:07.999Z</time></trkpt><trkpt lat="43.37047015932485" lon="5.500836376284835"><ele>251.00000000000003</ele><time>2026-05-02T07:25:10Z</time></trkpt><trkpt lat="43.37046740052982" lon="5.500715379519456"><ele>251.0</ele><time>2026-05-02T07:25:12Z</time></trkpt><trkpt lat="43.37046176413545" lon="5.500604422898849"><ele>251.16666666666669</ele><time>2026-05-02T07:25:14Z</time></trkpt><trkpt lat="43.37043069473888" lon="5.500499307092625"><ele>251.33333333333334</ele><time>2026-05-02T07:25:16Z</time></trkpt><trkpt lat="43.37036764043726" lon="5.500430066662581"><ele>251.5</ele><time>2026-05-02T07:25:18Z</time></trkpt><trkpt lat="43.37029425665166" lon="5.500431653893389"><ele>251.66666666666669</ele><time>2026-05-02T07:25:20Z</time></trkpt><trkpt lat="43.37021991103974" lon="5.500418167852765"><ele>251.83333333333334</ele><time>2026-05-02T07:25:22Z</time></trkpt><trkpt lat="43.370097385657516" lon="5.500398096297831"><ele>252.0</ele><time>2026-05-02T07:25:25Z</time></trkpt><trkpt lat="43.370025804894986" lon="5.500379418670344"><ele>255.33333333333334</ele><time>2026-05-02T07:25:27Z</time></trkpt><trkpt lat="43.36994763962335" lon="5.50036307864344"><ele>258.6666666666667</ele><time>2026-05-02T07:25:29Z</time></trkpt><trkpt lat="43.36988158803953" lon="5.500353021704242"><ele>262.0</ele><time>2026-05-02T07:25:31Z</time></trkpt><trkpt lat="43.36979898826122" lon="5.500337377595833"><ele>265.33333333333337</ele><time>2026-05-02T07:25:34Z</time></trkpt><trkpt lat="43.369719124069526" lon="5.500297218160252"><ele>268.6666666666667</ele><time>2026-05-02T07:25:37Z</time></trkpt><trkpt lat="43.369638103279904" lon="5.500296492694141"><ele>272.0</ele><time>2026-05-02T07:25:39.999Z</time></trkpt><trkpt lat="43.3695495838877" lon="5.500280871734931"><ele>272.0</ele><time>2026-05-02T07:25:42.999Z</time></trkpt><trkpt lat="43.3694645565542" lon="5.500282751589433"><ele>272.0</ele><time>2026-05-02T07:25:45.999Z</time></trkpt><trkpt lat="43.36937368475146" lon="5.500294795618378"><ele>272.0</ele><time>2026-05-02T07:25:48.999Z</time></trkpt><trkpt lat="43.3692854178264" lon="5.500297245385267"><ele>272.0</ele><time>2026-05-02T07:25:51.999Z</time></trkpt><trkpt lat="43.36919602419996" lon="5.500309996283278"><ele>272.0</ele><time>2026-05-02T07:25:54.999Z</time></trkpt><trkpt lat="43.36910833823911" lon="5.500269085260383"><ele>272.0</ele><time>2026-05-02T07:25:57.999Z</time></trkpt><trkpt lat="43.36905065784874" lon="5.500175559709863"><ele>272.0</ele><time>2026-05-02T07:26:00.999Z</time></trkpt><trkpt lat="43.3690223214925" lon="5.500087320142038"><ele>272.0</ele><time>2026-05-02T07:26:02.999Z</time></trkpt><trkpt lat="43.369000452629976" lon="5.499996312803641"><ele>272.0</ele><time>2026-05-02T07:26:04.999Z</time></trkpt><trkpt lat="43.36895939232126" lon="5.499885384859072"><ele>272.0</ele><time>2026-05-02T07:26:07.999Z</time></trkpt><trkpt lat="43.368916040281555" lon="5.499759973374442"><ele>272.0</ele><time>2026-05-02T07:26:10.999Z</time></trkpt><trkpt lat="43.368912929537494" lon="5.499656843998711"><ele>272.0</ele><time>2026-05-02T07:26:12.999Z</time></trkpt><trkpt lat="43.368921816517876" lon="5.4995530713310625"><ele>273.1428571428571</ele><time>2026-05-02T07:26:14.999Z</time></trkpt><trkpt lat="43.36893576392684" lon="5.499456609192799"><ele>274.2857142857143</ele><time>2026-05-02T07:26:16.999Z</time></trkpt><trkpt lat="43.36893209492259" lon="5.49936703497902"><ele>275.42857142857144</ele><time>2026-05-02T07:26:18.999Z</time></trkpt><trkpt lat="43.3688915826455" lon="5.499266747368885"><ele>276.57142857142856</ele><time>2026-05-02T07:26:20.999Z</time></trkpt><trkpt lat="43.36882176655781" lon="5.4992358305464215"><ele>277.7142857142857</ele><time>2026-05-02T07:26:22.999Z</time></trkpt><trkpt lat="43.36874618513811" lon="5.499246838692585"><ele>278.85714285714283</ele><time>2026-05-02T07:26:24.999Z</time></trkpt><trkpt lat="43.36866992846009" lon="5.499265573204956"><ele>280.0</ele><time>2026-05-02T07:26:26.999Z</time></trkpt><trkpt lat="43.3685907502014" lon="5.499287719318384"><ele>280.0</ele><time>2026-05-02T07:26:28.999Z</time></trkpt><trkpt lat="43.368512119804656" lon="5.499312350389014"><ele>280.0</ele><time>2026-05-02T07:26:30.999Z</time></trkpt><trkpt lat="43.36843931352132" lon="5.499358901085495"><ele>280.0</ele><time>2026-05-02T07:26:32.999Z</time></trkpt><trkpt lat="43.36836314881858" lon="5.499402806891633"><ele>280.0</ele><time>2026-05-02T07:26:34.999Z</time></trkpt><trkpt lat="43.36830060474127" lon="5.499471894580215"><ele>280.0</ele><time>2026-05-02T07:26:36.999Z</time></trkpt><trkpt lat="43.368243726670094" lon="5.499545213234486"><ele>280.0</ele><time>2026-05-02T07:26:38.999Z</time></trkpt><trkpt lat="43.36818816028331" lon="5.499619528552278"><ele>278.66666666666663</ele><time>2026-05-02T07:26:40.999Z</time></trkpt><trkpt lat="43.36812002304011" lon="5.49969602324621"><ele>277.3333333333333</ele><time>2026-05-02T07:26:42.999Z</time></trkpt><trkpt lat="43.36804933429216" lon="5.49974554657616"><ele>276.0</ele><time>2026-05-02T07:26:44.999Z</time></trkpt><trkpt lat="43.36796756084862" lon="5.499739442521449"><ele>274.6666666666667</ele><time>2026-05-02T07:26:46.999Z</time></trkpt><trkpt lat="43.36789891459479" lon="5.499680844660815"><ele>273.33333333333337</ele><time>2026-05-02T07:26:48.999Z</time></trkpt><trkpt lat="43.36787105777783" lon="5.499599618317933"><ele>272.0</ele><time>2026-05-02T07:26:50.999Z</time></trkpt><trkpt lat="43.36789267918377" lon="5.499471450063461"><ele>271.99999999999994</ele><time>2026-05-02T07:26:53.999Z</time></trkpt><trkpt lat="43.36794158494876" lon="5.499401026001768"><ele>272.0</ele><time>2026-05-02T07:26:55.999Z</time></trkpt><trkpt lat="43.36800012382891" lon="5.499344259365637"><ele>272.0</ele><time>2026-05-02T07:26:58Z</time></trkpt><trkpt lat="43.36805308797815" lon="5.499287785578089"><ele>272.0</ele><time>2026-05-02T07:27:00Z</time></trkpt><trkpt lat="43.36810557813526" lon="5.499222833851043"><ele>272.0</ele><time>2026-05-02T07:27:02Z</time></trkpt><trkpt lat="43.3681582230719" lon="5.499153188072945"><ele>271.99999999999994</ele><time>2026-05-02T07:27:04Z</time></trkpt><trkpt lat="43.36821235454844" lon="5.499086822400219"><ele>272.0</ele><time>2026-05-02T07:27:06Z</time></trkpt><trkpt lat="43.368279107328185" lon="5.499020672658671"><ele>273.1428571428571</ele><time>2026-05-02T07:27:08Z</time></trkpt><trkpt lat="43.36833749503559" lon="5.498946155053117"><ele>274.2857142857143</ele><time>2026-05-02T07:27:10Z</time></trkpt><trkpt lat="43.36839152648424" lon="5.498875505381643"><ele>275.42857142857144</ele><time>2026-05-02T07:27:12Z</time></trkpt><trkpt lat="43.3684481152073" lon="5.498795075167348"><ele>276.57142857142856</ele><time>2026-05-02T07:27:14Z</time></trkpt><trkpt lat="43.36850170680679" lon="5.498727143666867"><ele>277.7142857142857</ele><time>2026-05-02T07:27:16Z</time></trkpt><trkpt lat="43.36855121594658" lon="5.498671664263751"><ele>278.85714285714283</ele><time>2026-05-02T07:27:18Z</time></trkpt><trkpt lat="43.368608913645765" lon="5.498623736234137"><ele>280.0</ele><time>2026-05-02T07:27:21Z</time></trkpt><trkpt lat="43.36868103826148" lon="5.498578633856826"><ele>280.2857142857143</ele><time>2026-05-02T07:27:23Z</time></trkpt><trkpt lat="43.36875427753274" lon="5.498561449002861"><ele>280.57142857142856</ele><time>2026-05-02T07:27:25Z</time></trkpt><trkpt lat="43.36882417716453" lon="5.498562627420502"><ele>280.8571428571429</ele><time>2026-05-02T07:27:27Z</time></trkpt><trkpt lat="43.36889900980374" lon="5.498557613465276"><ele>281.1428571428571</ele><time>2026-05-02T07:27:29Z</time></trkpt><trkpt lat="43.36897122346662" lon="5.498548825419999"><ele>281.42857142857144</ele><time>2026-05-02T07:27:31Z</time></trkpt><trkpt lat="43.36904561780305" lon="5.498534065341586"><ele>281.7142857142857</ele><time>2026-05-02T07:27:33Z</time></trkpt><trkpt lat="43.3691190983344" lon="5.498516592801528"><ele>282.0</ele><time>2026-05-02T07:27:35Z</time></trkpt><trkpt lat="43.369197118194656" lon="5.498494318175489"><ele>284.6666666666667</ele><time>2026-05-02T07:27:37Z</time></trkpt><trkpt lat="43.369270387816236" lon="5.4984758508135965"><ele>287.3333333333333</ele><time>2026-05-02T07:27:39Z</time></trkpt><trkpt lat="43.36935380295703" lon="5.4984578132756114"><ele>290.0</ele><time>2026-05-02T07:27:41Z</time></trkpt><trkpt lat="43.369422445667496" lon="5.498440176239516"><ele>292.66666666666663</ele><time>2026-05-02T07:27:43Z</time></trkpt><trkpt lat="43.369499681098546" lon="5.498423952943932"><ele>295.3333333333333</ele><time>2026-05-02T07:27:45Z</time></trkpt><trkpt lat="43.369574845503415" lon="5.498438315447826"><ele>298.0</ele><time>2026-05-02T07:27:47Z</time></trkpt><trkpt lat="43.369646467319704" lon="5.498515394760662"><ele>298.0</ele><time>2026-05-02T07:27:49Z</time></trkpt><trkpt lat="43.36968998614289" lon="5.498591971764649"><ele>298.0</ele><time>2026-05-02T07:27:51Z</time></trkpt><trkpt lat="43.369725908877285" lon="5.4986734460094535"><ele>298.0</ele><time>2026-05-02T07:27:53Z</time></trkpt><trkpt lat="43.36977509636863" lon="5.49874504221819"><ele>298.0</ele><time>2026-05-02T07:27:55Z</time></trkpt><trkpt lat="43.369834976488804" lon="5.498791099616661"><ele>298.0</ele><time>2026-05-02T07:27:57Z</time></trkpt><trkpt lat="43.36989926930872" lon="5.498820622785456"><ele>298.0</ele><time>2026-05-02T07:27:59Z</time></trkpt><trkpt lat="43.36996527201571" lon="5.49881033463755"><ele>298.0</ele><time>2026-05-02T07:28:01Z</time></trkpt><trkpt lat="43.37003750304029" lon="5.498795700346885"><ele>297.2857142857143</ele><time>2026-05-02T07:28:03Z</time></trkpt><trkpt lat="43.37010641747882" lon="5.4987635979203695"><ele>296.57142857142856</ele><time>2026-05-02T07:28:05Z</time></trkpt><trkpt lat="43.37017240243135" lon="5.498718984578634"><ele>295.85714285714283</ele><time>2026-05-02T07:28:07Z</time></trkpt><trkpt lat="43.37024106084731" lon="5.4986630512092916"><ele>295.1428571428571</ele><time>2026-05-02T07:28:09Z</time></trkpt><trkpt lat="43.37030194573324" lon="5.49860478275947"><ele>294.42857142857144</ele><time>2026-05-02T07:28:11Z</time></trkpt><trkpt lat="43.37035717396545" lon="5.49854074971333"><ele>293.71428571428567</ele><time>2026-05-02T07:28:13Z</time></trkpt><trkpt lat="43.37041251325406" lon="5.498474175860525"><ele>293.0</ele><time>2026-05-02T07:28:14.999Z</time></trkpt><trkpt lat="43.37048318015099" lon="5.49838564474289"><ele>295.83333333333337</ele><time>2026-05-02T07:28:17.999Z</time></trkpt><trkpt lat="43.37054110291834" lon="5.498323020108406"><ele>298.6666666666667</ele><time>2026-05-02T07:28:19.999Z</time></trkpt><trkpt lat="43.370597491100014" lon="5.498265026431921"><ele>301.5</ele><time>2026-05-02T07:28:21.999Z</time></trkpt><trkpt lat="43.37064791259367" lon="5.498201516933793"><ele>304.3333333333333</ele><time>2026-05-02T07:28:23.999Z</time></trkpt><trkpt lat="43.37070618588284" lon="5.498132535701488"><ele>307.16666666666663</ele><time>2026-05-02T07:28:25.999Z</time></trkpt><trkpt lat="43.37076894670306" lon="5.498073296110425"><ele>310.0</ele><time>2026-05-02T07:28:27.999Z</time></trkpt><trkpt lat="43.370852422397114" lon="5.498028124185043"><ele>310.0</ele><time>2026-05-02T07:28:30.999Z</time></trkpt><trkpt lat="43.37092273058637" lon="5.498035559630555"><ele>310.0</ele><time>2026-05-02T07:28:32.999Z</time></trkpt><trkpt lat="43.37098481133042" lon="5.498053476648977"><ele>310.0</ele><time>2026-05-02T07:28:34.999Z</time></trkpt><trkpt lat="43.37104449940447" lon="5.498100416773213"><ele>310.0</ele><time>2026-05-02T07:28:36.999Z</time></trkpt><trkpt lat="43.37110063684817" lon="5.498154284263799"><ele>310.0</ele><time>2026-05-02T07:28:38.999Z</time></trkpt><trkpt lat="43.371159741779174" lon="5.4982006911322765"><ele>310.0</ele><time>2026-05-02T07:28:40.999Z</time></trkpt><trkpt lat="43.371221654735535" lon="5.498245698296842"><ele>310.0</ele><time>2026-05-02T07:28:42.999Z</time></trkpt><trkpt lat="43.37128275625266" lon="5.498295173363103"><ele>310.0</ele><time>2026-05-02T07:28:44.999Z</time></trkpt><trkpt lat="43.37133786998462" lon="5.498345260229719"><ele>310.0</ele><time>2026-05-02T07:28:46.999Z</time></trkpt><trkpt lat="43.37139652118513" lon="5.49839454857404"><ele>310.0</ele><time>2026-05-02T07:28:48.999Z</time></trkpt><trkpt lat="43.37145064261783" lon="5.4984483392839"><ele>310.0</ele><time>2026-05-02T07:28:50.999Z</time></trkpt><trkpt lat="43.371507749707575" lon="5.498500254518858"><ele>310.0</ele><time>2026-05-02T07:28:52.999Z</time></trkpt><trkpt lat="43.371572313647874" lon="5.498538563866613"><ele>310.0</ele><time>2026-05-02T07:28:54.999Z</time></trkpt><trkpt lat="43.37163427737687" lon="5.498569015153247"><ele>310.0</ele><time>2026-05-02T07:28:56.999Z</time></trkpt><trkpt lat="43.371701196010406" lon="5.498591318540788"><ele>310.8333333333333</ele><time>2026-05-02T07:28:59Z</time></trkpt><trkpt lat="43.37176969080406" lon="5.498587078475133"><ele>311.66666666666663</ele><time>2026-05-02T07:29:01Z</time></trkpt><trkpt lat="43.37185858196978" lon="5.498555607054177"><ele>312.5</ele><time>2026-05-02T07:29:04Z</time></trkpt><trkpt lat="43.37193944911817" lon="5.4985112644156064"><ele>313.3333333333333</ele><time>2026-05-02T07:29:07Z</time></trkpt><trkpt lat="43.372018608142916" lon="5.4984561139573405"><ele>314.1666666666667</ele><time>2026-05-02T07:29:10Z</time></trkpt><trkpt lat="43.37210875047902" lon="5.498399538942108"><ele>315.0</ele><time>2026-05-02T07:29:13Z</time></trkpt><trkpt lat="43.37219197719408" lon="5.498371033409394"><ele>315.1666666666667</ele><time>2026-05-02T07:29:15Z</time></trkpt><trkpt lat="43.37227349381259" lon="5.498333897718943"><ele>315.3333333333333</ele><time>2026-05-02T07:29:17Z</time></trkpt><trkpt lat="43.37235939112126" lon="5.498306771526075"><ele>315.5</ele><time>2026-05-02T07:29:19Z</time></trkpt><trkpt lat="43.37243753169741" lon="5.4982845617763685"><ele>315.66666666666663</ele><time>2026-05-02T07:29:21Z</time></trkpt><trkpt lat="43.37251365496557" lon="5.498253680684889"><ele>315.8333333333333</ele><time>2026-05-02T07:29:23Z</time></trkpt><trkpt lat="43.372586941768986" lon="5.498225272435091"><ele>316.0</ele><time>2026-05-02T07:29:25Z</time></trkpt><trkpt lat="43.37266436756635" lon="5.498210058362578"><ele>316.0</ele><time>2026-05-02T07:29:27Z</time></trkpt><trkpt lat="43.37274408810206" lon="5.49819770867964"><ele>316.0</ele><time>2026-05-02T07:29:29Z</time></trkpt><trkpt lat="43.372822449421555" lon="5.498185040743925"><ele>316.0</ele><time>2026-05-02T07:29:31Z</time></trkpt><trkpt lat="43.372899735219484" lon="5.498174292426273"><ele>316.0</ele><time>2026-05-02T07:29:33Z</time></trkpt><trkpt lat="43.37297964347091" lon="5.498161439142647"><ele>316.0</ele><time>2026-05-02T07:29:35Z</time></trkpt><trkpt lat="43.373054125574264" lon="5.498144465681652"><ele>316.0</ele><time>2026-05-02T07:29:37Z</time></trkpt><trkpt lat="43.37313242076541" lon="5.49814080857965"><ele>317.0</ele><time>2026-05-02T07:29:39Z</time></trkpt><trkpt lat="43.37321041826402" lon="5.498136471152803"><ele>318.0</ele><time>2026-05-02T07:29:41Z</time></trkpt><trkpt lat="43.37327679315398" lon="5.498135277987221"><ele>319.0</ele><time>2026-05-02T07:29:43Z</time></trkpt><trkpt lat="43.3733440292331" lon="5.498128837328388"><ele>320.0</ele><time>2026-05-02T07:29:45Z</time></trkpt><trkpt lat="43.37341686754987" lon="5.498110867981261"><ele>321.0</ele><time>2026-05-02T07:29:47Z</time></trkpt><trkpt lat="43.37349918120237" lon="5.498079835008753"><ele>322.0</ele><time>2026-05-02T07:29:49Z</time></trkpt><trkpt lat="43.373575796961205" lon="5.498056716514628"><ele>322.0</ele><time>2026-05-02T07:29:51Z</time></trkpt><trkpt lat="43.37365058262694" lon="5.498034691707003"><ele>322.0</ele><time>2026-05-02T07:29:53Z</time></trkpt><trkpt lat="43.37372266663017" lon="5.498038905179156"><ele>322.0</ele><time>2026-05-02T07:29:55Z</time></trkpt><trkpt lat="43.37379867237727" lon="5.498043999094357"><ele>322.0</ele><time>2026-05-02T07:29:57Z</time></trkpt><trkpt lat="43.37387471698393" lon="5.498043918270808"><ele>322.0</ele><time>2026-05-02T07:29:59Z</time></trkpt><trkpt lat="43.37395241512101" lon="5.498043644882641"><ele>322.0</ele><time>2026-05-02T07:30:01Z</time></trkpt><trkpt lat="43.37402569837974" lon="5.498050916140283"><ele>323.2857142857143</ele><time>2026-05-02T07:30:03Z</time></trkpt><trkpt lat="43.37410857492519" lon="5.498053482856195"><ele>324.57142857142856</ele><time>2026-05-02T07:30:05Z</time></trkpt><trkpt lat="43.37418438631642" lon="5.498048290987548"><ele>325.8571428571429</ele><time>2026-05-02T07:30:07Z</time></trkpt><trkpt lat="43.37425557862829" lon="5.498054178363874"><ele>327.1428571428571</ele><time>2026-05-02T07:30:09Z</time></trkpt><trkpt lat="43.37432984927209" lon="5.49805919300971"><ele>328.42857142857144</ele><time>2026-05-02T07:30:11Z</time></trkpt><trkpt lat="43.374400908517075" lon="5.498063355959631"><ele>329.7142857142857</ele><time>2026-05-02T07:30:13Z</time></trkpt><trkpt lat="43.3744720125608" lon="5.498075028642603"><ele>331.0</ele><time>2026-05-02T07:30:15Z</time></trkpt><trkpt lat="43.374540047756604" lon="5.498088296073831"><ele>331.0</ele><time>2026-05-02T07:30:17Z</time></trkpt><trkpt lat="43.37460800742174" lon="5.498114005640735"><ele>331.0</ele><time>2026-05-02T07:30:19Z</time></trkpt><trkpt lat="43.374670101401065" lon="5.4981543486163105"><ele>331.0</ele><time>2026-05-02T07:30:21Z</time></trkpt><trkpt lat="43.374752820436804" lon="5.498213682123139"><ele>331.0</ele><time>2026-05-02T07:30:24Z</time></trkpt><trkpt lat="43.37481192541616" lon="5.49827002319313"><ele>331.0</ele><time>2026-05-02T07:30:26Z</time></trkpt><trkpt lat="43.374869931863735" lon="5.498338453475891"><ele>331.0</ele><time>2026-05-02T07:30:28Z</time></trkpt><trkpt lat="43.37492002507451" lon="5.49839819411223"><ele>331.0</ele><time>2026-05-02T07:30:30Z</time></trkpt><trkpt lat="43.3749666608346" lon="5.498467125591785"><ele>331.5</ele><time>2026-05-02T07:30:32Z</time></trkpt><trkpt lat="43.37500965661222" lon="5.498538162575287"><ele>332.0</ele><time>2026-05-02T07:30:34Z</time></trkpt><trkpt lat="43.37508537022148" lon="5.49862111831826"><ele>332.5</ele><time>2026-05-02T07:30:37Z</time></trkpt><trkpt lat="43.37513911507233" lon="5.49868643585766"><ele>333.0</ele><time>2026-05-02T07:30:39Z</time></trkpt><trkpt lat="43.37518773819658" lon="5.498759444528028"><ele>333.5</ele><time>2026-05-02T07:30:41Z</time></trkpt><trkpt lat="43.3752433788586" lon="5.498820866023844"><ele>334.0</ele><time>2026-05-02T07:30:43Z</time></trkpt><trkpt lat="43.37529882653705" lon="5.49889606261202"><ele>334.0</ele><time>2026-05-02T07:30:45Z</time></trkpt><trkpt lat="43.3753465916309" lon="5.498981147372004"><ele>334.0</ele><time>2026-05-02T07:30:47Z</time></trkpt><trkpt lat="43.375388332711076" lon="5.499066451246291"><ele>334.0</ele><time>2026-05-02T07:30:49Z</time></trkpt><trkpt lat="43.37543789535482" lon="5.499151759781808"><ele>334.0</ele><time>2026-05-02T07:30:51Z</time></trkpt><trkpt lat="43.37547872611205" lon="5.499246785592516"><ele>334.0</ele><time>2026-05-02T07:30:53Z</time></trkpt><trkpt lat="43.37552319188467" lon="5.499334938778183"><ele>334.0</ele><time>2026-05-02T07:30:55Z</time></trkpt><trkpt lat="43.375554241168295" lon="5.499418836768008"><ele>333.5</ele><time>2026-05-02T07:30:57Z</time></trkpt><trkpt lat="43.37559193787333" lon="5.499514623420652"><ele>333.0</ele><time>2026-05-02T07:30:59Z</time></trkpt><trkpt lat="43.37562569212201" lon="5.499602623208141"><ele>332.5</ele><time>2026-05-02T07:31:01Z</time></trkpt><trkpt lat="43.37566547214687" lon="5.4996921733362925"><ele>332.0</ele><time>2026-05-02T07:31:03Z</time></trkpt><trkpt lat="43.3757017118275" lon="5.49978250378686"><ele>331.5</ele><time>2026-05-02T07:31:05.001Z</time></trkpt><trkpt lat="43.37574243201955" lon="5.499872376627165"><ele>331.0</ele><time>2026-05-02T07:31:07.001Z</time></trkpt><trkpt lat="43.37578060119909" lon="5.499962190479036"><ele>332.0</ele><time>2026-05-02T07:31:09.001Z</time></trkpt><trkpt lat="43.37582602582229" lon="5.50004360777286"><ele>333.0</ele><time>2026-05-02T07:31:11.001Z</time></trkpt><trkpt lat="43.37587261016297" lon="5.500119685706773"><ele>334.0</ele><time>2026-05-02T07:31:13.001Z</time></trkpt><trkpt lat="43.37592908247458" lon="5.500199629986776"><ele>335.0</ele><time>2026-05-02T07:31:15.001Z</time></trkpt><trkpt lat="43.375996852345004" lon="5.500264044121545"><ele>336.0</ele><time>2026-05-02T07:31:17.001Z</time></trkpt><trkpt lat="43.376078070288436" lon="5.500309044527863"><ele>337.0</ele><time>2026-05-02T07:31:19.001Z</time></trkpt><trkpt lat="43.37616672115611" lon="5.5003424759315624"><ele>337.0</ele><time>2026-05-02T07:31:21.001Z</time></trkpt><trkpt lat="43.376255911312306" lon="5.500375939179224"><ele>337.0</ele><time>2026-05-02T07:31:23.001Z</time></trkpt><trkpt lat="43.3763520597515" lon="5.50040412971807"><ele>337.0</ele><time>2026-05-02T07:31:25.001Z</time></trkpt><trkpt lat="43.37644056539789" lon="5.500445704342691"><ele>337.0</ele><time>2026-05-02T07:31:27.001Z</time></trkpt><trkpt lat="43.37653093207153" lon="5.50048456762096"><ele>337.0</ele><time>2026-05-02T07:31:29.001Z</time></trkpt><trkpt lat="43.37661847103065" lon="5.500528543408915"><ele>336.66666666666663</ele><time>2026-05-02T07:31:31.001Z</time></trkpt><trkpt lat="43.37669147057839" lon="5.500570097906892"><ele>336.3333333333333</ele><time>2026-05-02T07:31:33.001Z</time></trkpt><trkpt lat="43.376757409851415" lon="5.500614256830282"><ele>336.0</ele><time>2026-05-02T07:31:36.001Z</time></trkpt><trkpt lat="43.37669092456271" lon="5.5005573439726145"><ele>335.6666666666667</ele><time>2026-05-02T07:31:54Z</time></trkpt><trkpt lat="43.376626445486856" lon="5.500507474610704"><ele>335.33333333333337</ele><time>2026-05-02T07:31:57Z</time></trkpt><trkpt lat="43.37666066408635" lon="5.5003716236357025"><ele>335.0</ele><time>2026-05-02T07:32:00Z</time></trkpt><trkpt lat="43.37672622502265" lon="5.500326334036913"><ele>335.0</ele><time>2026-05-02T07:32:02Z</time></trkpt><trkpt lat="43.37678400715756" lon="5.50028248289753"><ele>335.0</ele><time>2026-05-02T07:32:04Z</time></trkpt><trkpt lat="43.376825250263366" lon="5.500195677956841"><ele>335.0</ele><time>2026-05-02T07:32:06Z</time></trkpt><trkpt lat="43.37688760301811" lon="5.50012322703153"><ele>335.0</ele><time>2026-05-02T07:32:08Z</time></trkpt><trkpt lat="43.37694220237454" lon="5.500028323156341"><ele>335.0</ele><time>2026-05-02T07:32:10Z</time></trkpt><trkpt lat="43.377014439276" lon="5.499932531718211"><ele>335.0</ele><time>2026-05-02T07:32:12Z</time></trkpt><trkpt lat="43.37710036469076" lon="5.499870486467985"><ele>335.83333333333337</ele><time>2026-05-02T07:32:14Z</time></trkpt><trkpt lat="43.37718769161105" lon="5.499849248246741"><ele>336.6666666666667</ele><time>2026-05-02T07:32:16Z</time></trkpt><trkpt lat="43.37726607039676" lon="5.4998233412352615"><ele>337.5</ele><time>2026-05-02T07:32:18Z</time></trkpt><trkpt lat="43.37734458661873" lon="5.499798882346075"><ele>338.3333333333333</ele><time>2026-05-02T07:32:20Z</time></trkpt><trkpt lat="43.37741343007723" lon="5.499739577920694"><ele>339.16666666666663</ele><time>2026-05-02T07:32:22Z</time></trkpt><trkpt lat="43.37746532280436" lon="5.49968608717667"><ele>340.0</ele><time>2026-05-02T07:32:24Z</time></trkpt><trkpt lat="43.377519001426364" lon="5.499624724840155"><ele>338.5</ele><time>2026-05-02T07:32:26Z</time></trkpt><trkpt lat="43.37758280365613" lon="5.499566989018304"><ele>337.0</ele><time>2026-05-02T07:32:28Z</time></trkpt><trkpt lat="43.37765412190151" lon="5.499505673791619"><ele>335.5</ele><time>2026-05-02T07:32:30Z</time></trkpt><trkpt lat="43.377658204888085" lon="5.499390162661579"><ele>334.0</ele><time>2026-05-02T07:32:33Z</time></trkpt><trkpt lat="43.37759805107942" lon="5.499339490172958"><ele>332.5</ele><time>2026-05-02T07:32:35Z</time></trkpt><trkpt lat="43.377545431714815" lon="5.499278378820914"><ele>331.0</ele><time>2026-05-02T07:32:37Z</time></trkpt><trkpt lat="43.37750590800276" lon="5.499166231969708"><ele>331.0</ele><time>2026-05-02T07:32:39Z</time></trkpt><trkpt lat="43.37746088999472" lon="5.49903968312878"><ele>331.0</ele><time>2026-05-02T07:32:41Z</time></trkpt><trkpt lat="43.37742771138951" lon="5.498912592848426"><ele>331.0</ele><time>2026-05-02T07:32:43Z</time></trkpt><trkpt lat="43.37739367234092" lon="5.498786472001674"><ele>331.0</ele><time>2026-05-02T07:32:45Z</time></trkpt><trkpt lat="43.377360912401855" lon="5.498672188288303"><ele>331.0</ele><time>2026-05-02T07:32:47Z</time></trkpt><trkpt lat="43.377333938659554" lon="5.4985679487500505"><ele>329.66666666666663</ele><time>2026-05-02T07:32:49Z</time></trkpt><trkpt lat="43.37732990823573" lon="5.498473418771255"><ele>328.3333333333333</ele><time>2026-05-02T07:32:51Z</time></trkpt><trkpt lat="43.37735110723016" lon="5.498372865416596"><ele>327.0</ele><time>2026-05-02T07:32:53Z</time></trkpt><trkpt lat="43.37738374291659" lon="5.498261793447289"><ele>325.6666666666667</ele><time>2026-05-02T07:32:55Z</time></trkpt><trkpt lat="43.377395357577285" lon="5.498137274874464"><ele>324.33333333333337</ele><time>2026-05-02T07:32:57Z</time></trkpt><trkpt lat="43.37739022357332" lon="5.49802656413978"><ele>323.0</ele><time>2026-05-02T07:32:59Z</time></trkpt><trkpt lat="43.37737769182386" lon="5.497900445110636"><ele>321.4</ele><time>2026-05-02T07:33:01Z</time></trkpt><trkpt lat="43.377376710182695" lon="5.497770492469199"><ele>319.79999999999995</ele><time>2026-05-02T07:33:03Z</time></trkpt><trkpt lat="43.37736553679485" lon="5.4976562775194235"><ele>318.2</ele><time>2026-05-02T07:33:05Z</time></trkpt><trkpt lat="43.377323178839696" lon="5.497542327703147"><ele>316.6</ele><time>2026-05-02T07:33:07Z</time></trkpt><trkpt lat="43.37727913612489" lon="5.497419658170671"><ele>315.0</ele><time>2026-05-02T07:33:09Z</time></trkpt><trkpt lat="43.37722585271595" lon="5.497315017043541"><ele>314.1666666666667</ele><time>2026-05-02T07:33:11.001Z</time></trkpt><trkpt lat="43.377176407163304" lon="5.497242831697287"><ele>313.3333333333333</ele><time>2026-05-02T07:33:13.001Z</time></trkpt><trkpt lat="43.37713051491588" lon="5.49716193727537"><ele>312.5</ele><time>2026-05-02T07:33:15.001Z</time></trkpt><trkpt lat="43.37709447313854" lon="5.497048723660637"><ele>311.66666666666663</ele><time>2026-05-02T07:33:17.001Z</time></trkpt><trkpt lat="43.377060808005176" lon="5.496961765239679"><ele>310.8333333333333</ele><time>2026-05-02T07:33:19.001Z</time></trkpt><trkpt lat="43.37702857923773" lon="5.496884713748729"><ele>310.0</ele><time>2026-05-02T07:33:21.001Z</time></trkpt><trkpt lat="43.37695724655668" lon="5.496812502235965"><ele>309.5</ele><time>2026-05-02T07:33:24.001Z</time></trkpt><trkpt lat="43.37699435006442" lon="5.496704437411265"><ele>309.0</ele><time>2026-05-02T07:33:27.001Z</time></trkpt><trkpt lat="43.37704901013663" lon="5.496624871558522"><ele>308.5</ele><time>2026-05-02T07:33:29.001Z</time></trkpt><trkpt lat="43.3770945352741" lon="5.4965311973276405"><ele>308.0</ele><time>2026-05-02T07:33:31.001Z</time></trkpt><trkpt lat="43.37715931430716" lon="5.4964834543903045"><ele>307.5</ele><time>2026-05-02T07:33:33.001Z</time></trkpt><trkpt lat="43.37723790657834" lon="5.496508747500186"><ele>307.0</ele><time>2026-05-02T07:33:35.001Z</time></trkpt><trkpt lat="43.37731539695194" lon="5.496536736343833"><ele>307.0</ele><time>2026-05-02T07:33:38.001Z</time></trkpt><trkpt lat="43.377372874246966" lon="5.496422685997585"><ele>307.0</ele><time>2026-05-02T07:33:41.001Z</time></trkpt><trkpt lat="43.37741016527221" lon="5.496339388922327"><ele>307.0</ele><time>2026-05-02T07:33:43.001Z</time></trkpt><trkpt lat="43.377467743845806" lon="5.4962706689848195"><ele>307.0</ele><time>2026-05-02T07:33:45.001Z</time></trkpt><trkpt lat="43.37751402946013" lon="5.496193048910506"><ele>307.0</ele><time>2026-05-02T07:33:47Z</time></trkpt><trkpt lat="43.37756179482485" lon="5.496117707781866"><ele>307.0</ele><time>2026-05-02T07:33:49Z</time></trkpt><trkpt lat="43.37761193874368" lon="5.496029681839615"><ele>307.99999999999994</ele><time>2026-05-02T07:33:51Z</time></trkpt><trkpt lat="43.377645498823206" lon="5.495939152234922"><ele>309.0</ele><time>2026-05-02T07:33:53Z</time></trkpt><trkpt lat="43.377657288010006" lon="5.49584437189279"><ele>310.0</ele><time>2026-05-02T07:33:55Z</time></trkpt><trkpt lat="43.37767074594818" lon="5.4957376629521715"><ele>311.0</ele><time>2026-05-02T07:33:57Z</time></trkpt><trkpt lat="43.37768665710491" lon="5.495638089463655"><ele>312.0</ele><time>2026-05-02T07:33:59Z</time></trkpt><trkpt lat="43.37770291044591" lon="5.4955463905295225"><ele>312.99999999999994</ele><time>2026-05-02T07:34:01Z</time></trkpt><trkpt lat="43.37772810915849" lon="5.495446161084568"><ele>314.0</ele><time>2026-05-02T07:34:03Z</time></trkpt><trkpt lat="43.377761930371115" lon="5.4953500741508"><ele>315.5</ele><time>2026-05-02T07:34:05Z</time></trkpt><trkpt lat="43.37779593553876" lon="5.495246873979833"><ele>317.0</ele><time>2026-05-02T07:34:07Z</time></trkpt><trkpt lat="43.377817187933935" lon="5.495141917224197"><ele>318.5</ele><time>2026-05-02T07:34:09Z</time></trkpt><trkpt lat="43.377831124077844" lon="5.495039020769655"><ele>320.0</ele><time>2026-05-02T07:34:11Z</time></trkpt><trkpt lat="43.377841257504436" lon="5.494936497562914"><ele>321.5</ele><time>2026-05-02T07:34:13Z</time></trkpt><trkpt lat="43.377856343619925" lon="5.494837598237365"><ele>323.0</ele><time>2026-05-02T07:34:15Z</time></trkpt><trkpt lat="43.37787344373886" lon="5.494739424200501"><ele>323.0</ele><time>2026-05-02T07:34:17Z</time></trkpt><trkpt lat="43.37790004752421" lon="5.49460767336271"><ele>323.0</ele><time>2026-05-02T07:34:20Z</time></trkpt><trkpt lat="43.37792382208182" lon="5.494510694707229"><ele>323.0</ele><time>2026-05-02T07:34:22Z</time></trkpt><trkpt lat="43.37795806636555" lon="5.4944332458692395"><ele>323.0</ele><time>2026-05-02T07:34:24Z</time></trkpt><trkpt lat="43.378002629274405" lon="5.494349135945405"><ele>323.0</ele><time>2026-05-02T07:34:26Z</time></trkpt><trkpt lat="43.378048322799344" lon="5.494263102734683"><ele>323.0</ele><time>2026-05-02T07:34:28Z</time></trkpt><trkpt lat="43.37808198373754" lon="5.494171929118436"><ele>324.6666666666667</ele><time>2026-05-02T07:34:30Z</time></trkpt><trkpt lat="43.37813340004559" lon="5.494060001833836"><ele>326.33333333333337</ele><time>2026-05-02T07:34:33Z</time></trkpt><trkpt lat="43.37816422954791" lon="5.4939548796556075"><ele>328.0</ele><time>2026-05-02T07:34:36Z</time></trkpt><trkpt lat="43.378175498101484" lon="5.4938693165620025"><ele>329.6666666666667</ele><time>2026-05-02T07:34:38Z</time></trkpt><trkpt lat="43.37819552059921" lon="5.493754441160276"><ele>331.3333333333333</ele><time>2026-05-02T07:34:41Z</time></trkpt><trkpt lat="43.37819694293204" lon="5.493660816569893"><ele>333.0</ele><time>2026-05-02T07:34:44Z</time></trkpt><trkpt lat="43.37825094706598" lon="5.493589878381821"><ele>333.8333333333333</ele><time>2026-05-02T07:36:20Z</time></trkpt><trkpt lat="43.37829952520455" lon="5.493493502296453"><ele>334.6666666666667</ele><time>2026-05-02T07:36:24Z</time></trkpt><trkpt lat="43.37835340305332" lon="5.493392231999093"><ele>335.5</ele><time>2026-05-02T07:36:27Z</time></trkpt><trkpt lat="43.37840773531153" lon="5.493297289682069"><ele>336.33333333333337</ele><time>2026-05-02T07:36:30Z</time></trkpt><trkpt lat="43.378454650314424" lon="5.493202654918217"><ele>337.1666666666667</ele><time>2026-05-02T07:36:33Z</time></trkpt><trkpt lat="43.3785023713658" lon="5.493092825788608"><ele>338.0</ele><time>2026-05-02T07:36:36Z</time></trkpt><trkpt lat="43.37856813647935" lon="5.4930177299649"><ele>338.0</ele><time>2026-05-02T07:36:39Z</time></trkpt><trkpt lat="43.37865666907233" lon="5.493000745976073"><ele>338.0</ele><time>2026-05-02T07:36:42Z</time></trkpt><trkpt lat="43.378722490703005" lon="5.492977689682729"><ele>338.0</ele><time>2026-05-02T07:36:44Z</time></trkpt><trkpt lat="43.37878747333518" lon="5.492935650951221"><ele>338.0</ele><time>2026-05-02T07:36:46Z</time></trkpt><trkpt lat="43.3788472098996" lon="5.492876945624231"><ele>338.0</ele><time>2026-05-02T07:36:49Z</time></trkpt><trkpt lat="43.37892575099538" lon="5.492835319895401"><ele>338.0</ele><time>2026-05-02T07:36:52Z</time></trkpt><trkpt lat="43.3789997857834" lon="5.4927802653635895"><ele>338.1666666666667</ele><time>2026-05-02T07:36:55Z</time></trkpt><trkpt lat="43.379046828079865" lon="5.492711402040588"><ele>338.33333333333337</ele><time>2026-05-02T07:36:57Z</time></trkpt><trkpt lat="43.37906801985449" lon="5.4926192789272505"><ele>338.5</ele><time>2026-05-02T07:36:59Z</time></trkpt><trkpt lat="43.3790890102597" lon="5.492526555151287"><ele>338.6666666666667</ele><time>2026-05-02T07:37:01Z</time></trkpt><trkpt lat="43.379130548725556" lon="5.4924133981190435"><ele>338.8333333333333</ele><time>2026-05-02T07:37:03Z</time></trkpt><trkpt lat="43.37918970059958" lon="5.492328002055464"><ele>339.0</ele><time>2026-05-02T07:37:05Z</time></trkpt><trkpt lat="43.37924430607108" lon="5.4922349051911326"><ele>339.0</ele><time>2026-05-02T07:37:07Z</time></trkpt><trkpt lat="43.37929495831443" lon="5.49213810662874"><ele>339.0</ele><time>2026-05-02T07:37:10Z</time></trkpt><trkpt lat="43.37933948039585" lon="5.4920362362726385"><ele>339.0</ele><time>2026-05-02T07:37:13Z</time></trkpt><trkpt lat="43.37938662638564" lon="5.4919440429515"><ele>339.0</ele><time>2026-05-02T07:37:15Z</time></trkpt><trkpt lat="43.379431907289955" lon="5.49180876909159"><ele>339.0</ele><time>2026-05-02T07:37:16.999Z</time></trkpt><trkpt lat="43.37948782956751" lon="5.491678418135362"><ele>337.2</ele><time>2026-05-02T07:37:18.999Z</time></trkpt><trkpt lat="43.37955654785583" lon="5.491567116710319"><ele>335.4</ele><time>2026-05-02T07:37:20.999Z</time></trkpt><trkpt lat="43.37964139393964" lon="5.4914773052684955"><ele>333.6</ele><time>2026-05-02T07:37:23.001Z</time></trkpt><trkpt lat="43.37972889385842" lon="5.4913850848616645"><ele>331.8</ele><time>2026-05-02T07:37:25.001Z</time></trkpt><trkpt lat="43.379775902817485" lon="5.491260815802939"><ele>330.0</ele><time>2026-05-02T07:37:27.001Z</time></trkpt><trkpt lat="43.37979186828791" lon="5.491097985939603"><ele>326.8</ele><time>2026-05-02T07:37:29.001Z</time></trkpt><trkpt lat="43.379810501607245" lon="5.4909419544289"><ele>323.6</ele><time>2026-05-02T07:37:31.001Z</time></trkpt><trkpt lat="43.37984520245541" lon="5.490777455454643"><ele>320.4</ele><time>2026-05-02T07:37:33.001Z</time></trkpt><trkpt lat="43.37983963321487" lon="5.4906827151243895"><ele>317.2</ele><time>2026-05-02T07:37:34.001Z</time></trkpt><trkpt lat="43.37985558887024" lon="5.490590785601226"><ele>314.0</ele><time>2026-05-02T07:37:35.001Z</time></trkpt><trkpt lat="43.37989222538586" lon="5.49049341959256"><ele>312.59999999999997</ele><time>2026-05-02T07:37:36.001Z</time></trkpt><trkpt lat="43.379901411287335" lon="5.490394939327887"><ele>311.2</ele><time>2026-05-02T07:37:37.001Z</time></trkpt><trkpt lat="43.37995620941782" lon="5.490231055807406"><ele>309.79999999999995</ele><time>2026-05-02T07:37:39.001Z</time></trkpt><trkpt lat="43.379986499483245" lon="5.490076220911552"><ele>308.4</ele><time>2026-05-02T07:37:41.001Z</time></trkpt><trkpt lat="43.380039122504904" lon="5.489944930567209"><ele>307.0</ele><time>2026-05-02T07:37:43.001Z</time></trkpt><trkpt lat="43.38014577640886" lon="5.489892603591146"><ele>307.0</ele><time>2026-05-02T07:37:45Z</time></trkpt><trkpt lat="43.380211580228945" lon="5.489863406329189"><ele>307.0</ele><time>2026-05-02T07:37:46Z</time></trkpt><trkpt lat="43.38028101286969" lon="5.489878148658052"><ele>307.0</ele><time>2026-05-02T07:37:47Z</time></trkpt><trkpt lat="43.38040458837778" lon="5.489886269213129"><ele>307.0</ele><time>2026-05-02T07:37:49Z</time></trkpt><trkpt lat="43.38047340577302" lon="5.489855551378"><ele>307.0</ele><time>2026-05-02T07:37:50Z</time></trkpt><trkpt lat="43.3805377990326" lon="5.489810413415485"><ele>307.0</ele><time>2026-05-02T07:37:51Z</time></trkpt><trkpt lat="43.380596416262655" lon="5.489765106569984"><ele>306.71428571428567</ele><time>2026-05-02T07:37:52Z</time></trkpt><trkpt lat="43.380655410703866" lon="5.48971255808301"><ele>306.42857142857144</ele><time>2026-05-02T07:37:53Z</time></trkpt><trkpt lat="43.38071087655929" lon="5.489647614538742"><ele>306.1428571428571</ele><time>2026-05-02T07:37:54Z</time></trkpt><trkpt lat="43.380766850014254" lon="5.489578703173594"><ele>305.85714285714283</ele><time>2026-05-02T07:37:55Z</time></trkpt><trkpt lat="43.380820736486875" lon="5.489499957976471"><ele>305.57142857142856</ele><time>2026-05-02T07:37:56Z</time></trkpt><trkpt lat="43.38086251644621" lon="5.489398404093697"><ele>305.2857142857143</ele><time>2026-05-02T07:37:57Z</time></trkpt><trkpt lat="43.38088805113826" lon="5.489312069307169"><ele>305.0</ele><time>2026-05-02T07:37:58Z</time></trkpt><trkpt lat="43.38090846569142" lon="5.489222014404706"><ele>302.5</ele><time>2026-05-02T07:37:59Z</time></trkpt><trkpt lat="43.380893825372695" lon="5.489123457856567"><ele>300.0</ele><time>2026-05-02T07:38:00Z</time></trkpt><trkpt lat="43.38088119031494" lon="5.489037613977844"><ele>297.5</ele><time>2026-05-02T07:38:01Z</time></trkpt><trkpt lat="43.38085335974938" lon="5.48890067842312"><ele>295.0</ele><time>2026-05-02T07:38:03Z</time></trkpt><trkpt lat="43.38078790736836" lon="5.4887981749226"><ele>292.5</ele><time>2026-05-02T07:38:05Z</time></trkpt><trkpt lat="43.380741540472734" lon="5.488733788057494"><ele>290.0</ele><time>2026-05-02T07:38:06Z</time></trkpt><trkpt lat="43.38066599551484" lon="5.488630238120922"><ele>289.33333333333337</ele><time>2026-05-02T07:38:08Z</time></trkpt><trkpt lat="43.38063159715858" lon="5.488554921188472"><ele>288.6666666666667</ele><time>2026-05-02T07:38:16Z</time></trkpt><trkpt lat="43.380740896937176" lon="5.488477702231501"><ele>288.0</ele><time>2026-05-02T07:38:17Z</time></trkpt><trkpt lat="43.3807845715789" lon="5.488414949962337"><ele>287.3333333333333</ele><time>2026-05-02T07:38:19Z</time></trkpt><trkpt lat="43.38084422688817" lon="5.488369109041706"><ele>286.66666666666663</ele><time>2026-05-02T07:38:21Z</time></trkpt><trkpt lat="43.380908079067524" lon="5.488346796067748"><ele>286.0</ele><time>2026-05-02T07:38:23Z</time></trkpt><trkpt lat="43.381001881450786" lon="5.488339534570218"><ele>286.0</ele><time>2026-05-02T07:38:26Z</time></trkpt><trkpt lat="43.38107178130389" lon="5.488346443412163"><ele>286.0</ele><time>2026-05-02T07:38:28Z</time></trkpt><trkpt lat="43.38114672874854" lon="5.488340679785255"><ele>286.0</ele><time>2026-05-02T07:38:30Z</time></trkpt><trkpt lat="43.381218607902326" lon="5.488321092450606"><ele>286.0</ele><time>2026-05-02T07:38:32Z</time></trkpt><trkpt lat="43.381306930718004" lon="5.488306578715446"><ele>286.0</ele><time>2026-05-02T07:38:35Z</time></trkpt><trkpt lat="43.38136693732288" lon="5.488340214970176"><ele>286.0</ele><time>2026-05-02T07:38:37Z</time></trkpt><trkpt lat="43.381429461761535" lon="5.488421322959917"><ele>286.2857142857143</ele><time>2026-05-02T07:38:39Z</time></trkpt><trkpt lat="43.381489953800134" lon="5.488479064420815"><ele>286.57142857142856</ele><time>2026-05-02T07:38:41Z</time></trkpt><trkpt lat="43.38155713230797" lon="5.488519657669286"><ele>286.8571428571429</ele><time>2026-05-02T07:38:43Z</time></trkpt><trkpt lat="43.38161536710013" lon="5.488562624669468"><ele>287.1428571428571</ele><time>2026-05-02T07:38:45Z</time></trkpt><trkpt lat="43.38167244716843" lon="5.488599173680767"><ele>287.42857142857144</ele><time>2026-05-02T07:38:47Z</time></trkpt><trkpt lat="43.38173610256436" lon="5.488635219840656"><ele>287.7142857142857</ele><time>2026-05-02T07:38:49Z</time></trkpt><trkpt lat="43.381807757746685" lon="5.488712339435671"><ele>288.0</ele><time>2026-05-02T07:38:51Z</time></trkpt><trkpt lat="43.38186657722482" lon="5.4887764225650235"><ele>289.8333333333333</ele><time>2026-05-02T07:38:53Z</time></trkpt><trkpt lat="43.38193418528282" lon="5.488849022393097"><ele>291.6666666666667</ele><time>2026-05-02T07:38:56Z</time></trkpt><trkpt lat="43.38200498274519" lon="5.488934598245884"><ele>293.5</ele><time>2026-05-02T07:38:59Z</time></trkpt><trkpt lat="43.38207274525769" lon="5.488990469660694"><ele>295.33333333333337</ele><time>2026-05-02T07:39:01Z</time></trkpt><trkpt lat="43.382132713392046" lon="5.489035625268575"><ele>297.1666666666667</ele><time>2026-05-02T07:39:03Z</time></trkpt><trkpt lat="43.3822093386452" lon="5.488966966044682"><ele>299.0</ele><time>2026-05-02T07:39:04.999Z</time></trkpt><trkpt lat="43.38227147142698" lon="5.488912883291431"><ele>299.1428571428571</ele><time>2026-05-02T07:39:06.999Z</time></trkpt><trkpt lat="43.38233903691474" lon="5.488846740526025"><ele>299.2857142857143</ele><time>2026-05-02T07:39:09.999Z</time></trkpt><trkpt lat="43.382394859812756" lon="5.488928086673145"><ele>299.42857142857144</ele><time>2026-05-02T07:39:12.999Z</time></trkpt><trkpt lat="43.38244526618866" lon="5.488999781687449"><ele>299.57142857142856</ele><time>2026-05-02T07:39:15.999Z</time></trkpt><trkpt lat="43.3823941021593" lon="5.488934631764143"><ele>299.7142857142857</ele><time>2026-05-02T07:39:31.001Z</time></trkpt><trkpt lat="43.3823369156654" lon="5.4888680938759435"><ele>299.85714285714283</ele><time>2026-05-02T07:39:34.001Z</time></trkpt><trkpt lat="43.382274610982336" lon="5.488841038846714"><ele>300.0</ele><time>2026-05-02T07:39:36.001Z</time></trkpt><trkpt lat="43.38234837842014" lon="5.4888554962636125"><ele>300.0</ele><time>2026-05-02T07:39:37.001Z</time></trkpt><trkpt lat="43.38219594792608" lon="5.4889982526475665"><ele>300.0</ele><time>2026-05-02T07:39:38.001Z</time></trkpt><trkpt lat="43.382125471036375" lon="5.489022640421917"><ele>300.0</ele><time>2026-05-02T07:39:40.001Z</time></trkpt><trkpt lat="43.3820548143716" lon="5.488979992422674"><ele>300.0</ele><time>2026-05-02T07:39:42.001Z</time></trkpt><trkpt lat="43.38198689245894" lon="5.488900345941315"><ele>300.0</ele><time>2026-05-02T07:39:44Z</time></trkpt><trkpt lat="43.381921669759336" lon="5.488826206676537"><ele>298.0</ele><time>2026-05-02T07:39:46Z</time></trkpt><trkpt lat="43.38185215429894" lon="5.488749812568409"><ele>296.0</ele><time>2026-05-02T07:39:48Z</time></trkpt><trkpt lat="43.3817774390397" lon="5.488682107483851"><ele>294.0</ele><time>2026-05-02T07:39:50Z</time></trkpt><trkpt lat="43.38169864933799" lon="5.488622966745555"><ele>292.0</ele><time>2026-05-02T07:39:52Z</time></trkpt><trkpt lat="43.381622444416855" lon="5.488567993187559"><ele>290.0</ele><time>2026-05-02T07:39:54Z</time></trkpt><trkpt lat="43.381545491140315" lon="5.488528747551288"><ele>288.0</ele><time>2026-05-02T07:39:56Z</time></trkpt><trkpt lat="43.3814727139083" lon="5.48846529842486"><ele>288.0</ele><time>2026-05-02T07:39:58Z</time></trkpt><trkpt lat="43.3813959902839" lon="5.488387641417171"><ele>288.0</ele><time>2026-05-02T07:40:00Z</time></trkpt><trkpt lat="43.38132598117" lon="5.488307339043827"><ele>288.0</ele><time>2026-05-02T07:40:02Z</time></trkpt><trkpt lat="43.381227434457266" lon="5.488309481181989"><ele>288.0</ele><time>2026-05-02T07:40:04Z</time></trkpt><trkpt lat="43.381104069156734" lon="5.488352546122355"><ele>288.0</ele><time>2026-05-02T07:40:06Z</time></trkpt><trkpt lat="43.38102975296924" lon="5.4883505147220735"><ele>287.6666666666667</ele><time>2026-05-02T07:40:07Z</time></trkpt><trkpt lat="43.380958146777175" lon="5.488339638894321"><ele>287.3333333333333</ele><time>2026-05-02T07:40:08Z</time></trkpt><trkpt lat="43.38082655247435" lon="5.4883189779094"><ele>287.0</ele><time>2026-05-02T07:40:10Z</time></trkpt><trkpt lat="43.380778635811374" lon="5.488376846428305"><ele>286.66666666666663</ele><time>2026-05-02T07:40:11Z</time></trkpt><trkpt lat="43.38072967023639" lon="5.4884343546135925"><ele>286.3333333333333</ele><time>2026-05-02T07:40:12Z</time></trkpt><trkpt lat="43.38069021264152" lon="5.488509875576402"><ele>286.0</ele><time>2026-05-02T07:40:13Z</time></trkpt><trkpt lat="43.38061446580941" lon="5.488628993828917"><ele>286.0</ele><time>2026-05-02T07:40:15Z</time></trkpt><trkpt lat="43.3805264165048" lon="5.488679763362339"><ele>286.0</ele><time>2026-05-02T07:40:17Z</time></trkpt><trkpt lat="43.380426655741594" lon="5.488691293593454"><ele>286.0</ele><time>2026-05-02T07:40:19Z</time></trkpt><trkpt lat="43.3803559572399" lon="5.488695457094915"><ele>286.0</ele><time>2026-05-02T07:40:20Z</time></trkpt><trkpt lat="43.380276816906566" lon="5.488694746165432"><ele>286.0</ele><time>2026-05-02T07:40:21Z</time></trkpt><trkpt lat="43.38019839092377" lon="5.488681063445667"><ele>286.0</ele><time>2026-05-02T07:40:22Z</time></trkpt><trkpt lat="43.380136334436834" lon="5.488648186936948"><ele>286.2857142857143</ele><time>2026-05-02T07:40:23Z</time></trkpt><trkpt lat="43.380069377591106" lon="5.488607586382351"><ele>286.57142857142856</ele><time>2026-05-02T07:40:24Z</time></trkpt><trkpt lat="43.38000501406151" lon="5.488557320169984"><ele>286.8571428571429</ele><time>2026-05-02T07:40:25Z</time></trkpt><trkpt lat="43.379939693715585" lon="5.488530458778304"><ele>287.1428571428571</ele><time>2026-05-02T07:40:26Z</time></trkpt><trkpt lat="43.37987918400486" lon="5.488481339288534"><ele>287.42857142857144</ele><time>2026-05-02T07:40:27Z</time></trkpt><trkpt lat="43.37981067174828" lon="5.488430362031026"><ele>287.7142857142857</ele><time>2026-05-02T07:40:28Z</time></trkpt><trkpt lat="43.379731745447685" lon="5.488385956714142"><ele>288.0</ele><time>2026-05-02T07:40:29Z</time></trkpt><trkpt lat="43.379659014855044" lon="5.48835552891107"><ele>287.2</ele><time>2026-05-02T07:40:30Z</time></trkpt><trkpt lat="43.37959374396852" lon="5.488341413189221"><ele>286.4</ele><time>2026-05-02T07:40:31Z</time></trkpt><trkpt lat="43.37948534041769" lon="5.488401287009024"><ele>285.59999999999997</ele><time>2026-05-02T07:40:33Z</time></trkpt><trkpt lat="43.37941668192386" lon="5.4884847019909575"><ele>284.8</ele><time>2026-05-02T07:40:35Z</time></trkpt><trkpt lat="43.37930616853019" lon="5.48852785004484"><ele>284.0</ele><time>2026-05-02T07:40:37Z</time></trkpt><trkpt lat="43.37924205722713" lon="5.488528936160745"><ele>284.0</ele><time>2026-05-02T07:40:38Z</time></trkpt><trkpt lat="43.37912414023458" lon="5.488560784398313"><ele>284.0</ele><time>2026-05-02T07:40:40Z</time></trkpt><trkpt lat="43.37903035817253" lon="5.4886135291791875"><ele>284.0</ele><time>2026-05-02T07:40:42Z</time></trkpt><trkpt lat="43.378923647914505" lon="5.488595008361935"><ele>284.0</ele><time>2026-05-02T07:40:44Z</time></trkpt><trkpt lat="43.37881895630653" lon="5.488561342072433"><ele>284.0</ele><time>2026-05-02T07:40:46Z</time></trkpt><trkpt lat="43.37869665785964" lon="5.488599434704225"><ele>282.4</ele><time>2026-05-02T07:40:48Z</time></trkpt><trkpt lat="43.37858479683941" lon="5.488617582429982"><ele>280.79999999999995</ele><time>2026-05-02T07:40:50Z</time></trkpt><trkpt lat="43.378471828826086" lon="5.488606186603634"><ele>279.20000000000005</ele><time>2026-05-02T07:40:52Z</time></trkpt><trkpt lat="43.37842014248607" lon="5.48853620538886"><ele>277.6</ele><time>2026-05-02T07:40:53Z</time></trkpt><trkpt lat="43.37834824937896" lon="5.488473232090006"><ele>276.0</ele><time>2026-05-02T07:40:55Z</time></trkpt><trkpt lat="43.37831888266448" lon="5.488375135501192"><ele>276.0</ele><time>2026-05-02T07:40:57.999Z</time></trkpt><trkpt lat="43.37830107960496" lon="5.488266091925494"><ele>276.0</ele><time>2026-05-02T07:40:59.999Z</time></trkpt><trkpt lat="43.37826186242522" lon="5.488153888655854"><ele>276.0</ele><time>2026-05-02T07:41:01.999Z</time></trkpt><trkpt lat="43.378166035627835" lon="5.488094248501297"><ele>276.0</ele><time>2026-05-02T07:41:03.999Z</time></trkpt><trkpt lat="43.37805782084462" lon="5.48810251468717"><ele>276.0</ele><time>2026-05-02T07:41:05.999Z</time></trkpt><trkpt lat="43.37796222637828" lon="5.488161241160129"><ele>277.0</ele><time>2026-05-02T07:41:07.999Z</time></trkpt><trkpt lat="43.37786859917844" lon="5.488211334410259"><ele>278.0</ele><time>2026-05-02T07:41:09.999Z</time></trkpt><trkpt lat="43.37778745315148" lon="5.4881779357151235"><ele>279.0</ele><time>2026-05-02T07:41:11.999Z</time></trkpt><trkpt lat="43.37773494947805" lon="5.48808418582656"><ele>280.0</ele><time>2026-05-02T07:41:13.999Z</time></trkpt><trkpt lat="43.37768828584834" lon="5.487976971329574"><ele>281.0</ele><time>2026-05-02T07:41:15.999Z</time></trkpt><trkpt lat="43.37763818108483" lon="5.487869635386742"><ele>277.8</ele><time>2026-05-02T07:41:17.999Z</time></trkpt><trkpt lat="43.3776505509577" lon="5.487741779894527"><ele>274.6</ele><time>2026-05-02T07:41:19.999Z</time></trkpt><trkpt lat="43.377674745872106" lon="5.487641059282363"><ele>271.4</ele><time>2026-05-02T07:41:21.999Z</time></trkpt><trkpt lat="43.37770268593914" lon="5.48750806166524"><ele>268.2</ele><time>2026-05-02T07:41:23.999Z</time></trkpt><trkpt lat="43.377698696449436" lon="5.487351086304098"><ele>265.0</ele><time>2026-05-02T07:41:25.999Z</time></trkpt><trkpt lat="43.37765620571468" lon="5.487280839441737"><ele>265.0</ele><time>2026-05-02T07:41:26.999Z</time></trkpt><trkpt lat="43.377601527361904" lon="5.4871324203056755"><ele>265.0</ele><time>2026-05-02T07:41:28.999Z</time></trkpt><trkpt lat="43.37754901676936" lon="5.487078748793521"><ele>265.0</ele><time>2026-05-02T07:41:29.999Z</time></trkpt><trkpt lat="43.37744565563238" lon="5.486982502957264"><ele>265.0</ele><time>2026-05-02T07:41:31.999Z</time></trkpt><trkpt lat="43.37731531782735" lon="5.486939737361332"><ele>265.0</ele><time>2026-05-02T07:41:34.001Z</time></trkpt><trkpt lat="43.3772515617365" lon="5.486945998478984"><ele>264.2</ele><time>2026-05-02T07:41:35.001Z</time></trkpt><trkpt lat="43.37713839732487" lon="5.487021282605852"><ele>263.4</ele><time>2026-05-02T07:41:37.001Z</time></trkpt><trkpt lat="43.37703196663422" lon="5.487108399435382"><ele>262.6</ele><time>2026-05-02T07:41:39.001Z</time></trkpt><trkpt lat="43.37697921708911" lon="5.487162855519074"><ele>261.8</ele><time>2026-05-02T07:41:40.001Z</time></trkpt><trkpt lat="43.3768758070456" lon="5.487260527116349"><ele>261.0</ele><time>2026-05-02T07:41:42.001Z</time></trkpt><trkpt lat="43.376814445503435" lon="5.487292570382453"><ele>261.0</ele><time>2026-05-02T07:41:43.001Z</time></trkpt><trkpt lat="43.37670739885021" lon="5.487397853212133"><ele>261.0</ele><time>2026-05-02T07:41:45.001Z</time></trkpt><trkpt lat="43.37665628545165" lon="5.487456113522255"><ele>261.0</ele><time>2026-05-02T07:41:46.001Z</time></trkpt><trkpt lat="43.37655545538339" lon="5.487553025851358"><ele>261.0</ele><time>2026-05-02T07:41:48.001Z</time></trkpt><trkpt lat="43.37644491927735" lon="5.4875749896104224"><ele>261.0</ele><time>2026-05-02T07:41:50Z</time></trkpt><trkpt lat="43.37634678016982" lon="5.48748467862762"><ele>259.8571428571429</ele><time>2026-05-02T07:41:52Z</time></trkpt><trkpt lat="43.37628289605679" lon="5.487445849924889"><ele>258.7142857142857</ele><time>2026-05-02T07:41:53Z</time></trkpt><trkpt lat="43.3762260490169" lon="5.487386351092084"><ele>257.57142857142856</ele><time>2026-05-02T07:41:54Z</time></trkpt><trkpt lat="43.376168639513786" lon="5.487331948865994"><ele>256.42857142857144</ele><time>2026-05-02T07:41:55Z</time></trkpt><trkpt lat="43.37610599785397" lon="5.48728708833249"><ele>255.28571428571428</ele><time>2026-05-02T07:41:56Z</time></trkpt><trkpt lat="43.37603673091784" lon="5.4872636930940235"><ele>254.14285714285717</ele><time>2026-05-02T07:41:57Z</time></trkpt><trkpt lat="43.37597349965175" lon="5.487263849492082"><ele>253.00000000000003</ele><time>2026-05-02T07:41:58Z</time></trkpt><trkpt lat="43.3758982634473" lon="5.487258599094751"><ele>253.00000000000003</ele><time>2026-05-02T07:41:59Z</time></trkpt><trkpt lat="43.37583106403297" lon="5.487253609808943"><ele>253.0</ele><time>2026-05-02T07:42:00Z</time></trkpt><trkpt lat="43.375764622015254" lon="5.487268540546192"><ele>253.00000000000003</ele><time>2026-05-02T07:42:01Z</time></trkpt><trkpt lat="43.37569314131246" lon="5.48725831918228"><ele>253.00000000000003</ele><time>2026-05-02T07:42:02Z</time></trkpt><trkpt lat="43.37563381010969" lon="5.487223598157278"><ele>253.0</ele><time>2026-05-02T07:42:03Z</time></trkpt><trkpt lat="43.37556847516138" lon="5.487210926373655"><ele>253.00000000000003</ele><time>2026-05-02T07:42:04Z</time></trkpt><trkpt lat="43.375499082191496" lon="5.487222105094246"><ele>253.00000000000003</ele><time>2026-05-02T07:42:05Z</time></trkpt><trkpt lat="43.37537971213517" lon="5.48719390793786"><ele>253.0</ele><time>2026-05-02T07:42:07Z</time></trkpt><trkpt lat="43.375308781989034" lon="5.4871930670322975"><ele>253.0</ele><time>2026-05-02T07:42:08Z</time></trkpt><trkpt lat="43.375239856162565" lon="5.48719224988933"><ele>253.0</ele><time>2026-05-02T07:42:09Z</time></trkpt><trkpt lat="43.3751219118422" lon="5.487190851616461"><ele>253.0</ele><time>2026-05-02T07:42:11Z</time></trkpt><trkpt lat="43.37499426903306" lon="5.487207117331113"><ele>253.0</ele><time>2026-05-02T07:42:13Z</time></trkpt><trkpt lat="43.374882500089164" lon="5.487166558009049"><ele>252.8</ele><time>2026-05-02T07:42:15Z</time></trkpt><trkpt lat="43.37478459394206" lon="5.487084417513692"><ele>252.60000000000002</ele><time>2026-05-02T07:42:17Z</time></trkpt><trkpt lat="43.37469340312966" lon="5.486976334735366"><ele>252.39999999999998</ele><time>2026-05-02T07:42:19Z</time></trkpt><trkpt lat="43.37464240599076" lon="5.4869254074195055"><ele>252.2</ele><time>2026-05-02T07:42:20Z</time></trkpt><trkpt lat="43.374533701194146" lon="5.48685718893747"><ele>252.0</ele><time>2026-05-02T07:42:22Z</time></trkpt><trkpt lat="43.37446930582051" lon="5.48684928216701"><ele>252.33333333333334</ele><time>2026-05-02T07:42:23Z</time></trkpt><trkpt lat="43.374405140555105" lon="5.486851744204539"><ele>252.66666666666669</ele><time>2026-05-02T07:42:24Z</time></trkpt><trkpt lat="43.37428253376871" lon="5.486876118016427"><ele>253.0</ele><time>2026-05-02T07:42:26Z</time></trkpt><trkpt lat="43.37422015482314" lon="5.486863256920254"><ele>253.33333333333334</ele><time>2026-05-02T07:42:27Z</time></trkpt><trkpt lat="43.37416240710439" lon="5.486910181773815"><ele>253.66666666666669</ele><time>2026-05-02T07:42:28Z</time></trkpt><trkpt lat="43.37409881082944" lon="5.486918107800009"><ele>254.0</ele><time>2026-05-02T07:42:29Z</time></trkpt><trkpt lat="43.37398867823446" lon="5.486988468337045"><ele>254.00000000000003</ele><time>2026-05-02T07:42:31Z</time></trkpt><trkpt lat="43.37392464826175" lon="5.487022252835547"><ele>254.0</ele><time>2026-05-02T07:42:32Z</time></trkpt><trkpt lat="43.373853151888056" lon="5.487058843260133"><ele>254.0</ele><time>2026-05-02T07:42:33Z</time></trkpt><trkpt lat="43.373787479118825" lon="5.487091536377626"><ele>254.0</ele><time>2026-05-02T07:42:34Z</time></trkpt><trkpt lat="43.373710630126816" lon="5.487119126076337"><ele>254.00000000000003</ele><time>2026-05-02T07:42:35Z</time></trkpt><trkpt lat="43.37363872445245" lon="5.48713346821715"><ele>254.0</ele><time>2026-05-02T07:42:36Z</time></trkpt><trkpt lat="43.37355679885013" lon="5.487171150124395"><ele>253.16666666666669</ele><time>2026-05-02T07:42:37Z</time></trkpt><trkpt lat="43.37347369346709" lon="5.487186850611855"><ele>252.33333333333334</ele><time>2026-05-02T07:42:38Z</time></trkpt><trkpt lat="43.37339692131669" lon="5.487194510545769"><ele>251.5</ele><time>2026-05-02T07:42:39Z</time></trkpt><trkpt lat="43.373318431772255" lon="5.487207282504234"><ele>250.66666666666669</ele><time>2026-05-02T07:42:40Z</time></trkpt><trkpt lat="43.373240412019385" lon="5.4872056275226315"><ele>249.83333333333334</ele><time>2026-05-02T07:42:41Z</time></trkpt><trkpt lat="43.37317273260442" lon="5.487202073402298"><ele>249.0</ele><time>2026-05-02T07:42:42Z</time></trkpt><trkpt lat="43.37309879974118" lon="5.487202073398353"><ele>249.0</ele><time>2026-05-02T07:42:43Z</time></trkpt><trkpt lat="43.37302518482698" lon="5.487224791745102"><ele>248.99999999999997</ele><time>2026-05-02T07:42:44Z</time></trkpt><trkpt lat="43.37295159753553" lon="5.487219454349887"><ele>249.0</ele><time>2026-05-02T07:42:45Z</time></trkpt><trkpt lat="43.3728824743472" lon="5.487223277871235"><ele>249.0</ele><time>2026-05-02T07:42:46Z</time></trkpt><trkpt lat="43.37280878808543" lon="5.487230202048119"><ele>248.99999999999997</ele><time>2026-05-02T07:42:47Z</time></trkpt><trkpt lat="43.37273655031134" lon="5.487227899021949"><ele>249.0</ele><time>2026-05-02T07:42:48Z</time></trkpt><trkpt lat="43.372675905281106" lon="5.487297454892442"><ele>249.0</ele><time>2026-05-02T07:42:49Z</time></trkpt><trkpt lat="43.37262314096709" lon="5.487366968069595"><ele>248.0</ele><time>2026-05-02T07:42:50Z</time></trkpt><trkpt lat="43.37258362425471" lon="5.4874453608485"><ele>246.99999999999997</ele><time>2026-05-02T07:42:51Z</time></trkpt><trkpt lat="43.3725479374422" lon="5.487526451983725"><ele>246.0</ele><time>2026-05-02T07:42:52Z</time></trkpt><trkpt lat="43.372509251099174" lon="5.487612607381471"><ele>245.0</ele><time>2026-05-02T07:42:53Z</time></trkpt><trkpt lat="43.372464216716224" lon="5.48769249048739"><ele>243.99999999999997</ele><time>2026-05-02T07:42:54Z</time></trkpt><trkpt lat="43.37240656109231" lon="5.487769797634703"><ele>243.0</ele><time>2026-05-02T07:42:55Z</time></trkpt><trkpt lat="43.37233367339956" lon="5.487820160907966"><ele>242.0</ele><time>2026-05-02T07:42:56Z</time></trkpt><trkpt lat="43.372251853939744" lon="5.4878400918672305"><ele>241.66666666666669</ele><time>2026-05-02T07:42:56.999Z</time></trkpt><trkpt lat="43.37216981270162" lon="5.487859086589772"><ele>241.33333333333334</ele><time>2026-05-02T07:42:57.999Z</time></trkpt><trkpt lat="43.37209088465878" lon="5.487880651816662"><ele>241.0</ele><time>2026-05-02T07:42:58.999Z</time></trkpt><trkpt lat="43.37201648632851" lon="5.487909972005812"><ele>240.66666666666669</ele><time>2026-05-02T07:42:59.999Z</time></trkpt><trkpt lat="43.371944620418745" lon="5.48794700191939"><ele>240.33333333333334</ele><time>2026-05-02T07:43:00.999Z</time></trkpt><trkpt lat="43.37187441359475" lon="5.487974832430698"><ele>240.0</ele><time>2026-05-02T07:43:01.999Z</time></trkpt><trkpt lat="43.37180496041565" lon="5.488010871173927"><ele>240.0</ele><time>2026-05-02T07:43:02.999Z</time></trkpt><trkpt lat="43.37173644956307" lon="5.488039129694764"><ele>240.0</ele><time>2026-05-02T07:43:03.999Z</time></trkpt><trkpt lat="43.37166397088297" lon="5.488064759095831"><ele>240.0</ele><time>2026-05-02T07:43:04.999Z</time></trkpt><trkpt lat="43.371592951131156" lon="5.488075978928597"><ele>240.0</ele><time>2026-05-02T07:43:05.999Z</time></trkpt><trkpt lat="43.37152164790472" lon="5.488061022118256"><ele>240.0</ele><time>2026-05-02T07:43:06.999Z</time></trkpt><trkpt lat="43.37145452505513" lon="5.488016329796533"><ele>240.0</ele><time>2026-05-02T07:43:07.999Z</time></trkpt><trkpt lat="43.37140026508264" lon="5.487949034236783"><ele>240.0</ele><time>2026-05-02T07:43:08.999Z</time></trkpt><trkpt lat="43.371361685935035" lon="5.487867235871811"><ele>239.14285714285717</ele><time>2026-05-02T07:43:09.999Z</time></trkpt><trkpt lat="43.37132689213418" lon="5.487782074215957"><ele>238.28571428571428</ele><time>2026-05-02T07:43:10.999Z</time></trkpt><trkpt lat="43.37130086979813" lon="5.487697767000367"><ele>237.42857142857144</ele><time>2026-05-02T07:43:11.999Z</time></trkpt><trkpt lat="43.371274336965854" lon="5.487609312531205"><ele>236.57142857142858</ele><time>2026-05-02T07:43:12.999Z</time></trkpt><trkpt lat="43.37125087790356" lon="5.487526956635652"><ele>235.71428571428572</ele><time>2026-05-02T07:43:13.999Z</time></trkpt><trkpt lat="43.37121315144143" lon="5.487444819934031"><ele>234.85714285714286</ele><time>2026-05-02T07:43:14.999Z</time></trkpt><trkpt lat="43.371160712981066" lon="5.487379831787035"><ele>234.0</ele><time>2026-05-02T07:43:15.999Z</time></trkpt><trkpt lat="43.3711049823217" lon="5.487330788488928"><ele>234.0</ele><time>2026-05-02T07:43:16.999Z</time></trkpt><trkpt lat="43.371042162083796" lon="5.487292260474333"><ele>234.0</ele><time>2026-05-02T07:43:17.999Z</time></trkpt><trkpt lat="43.3709781989535" lon="5.487277899153306"><ele>234.0</ele><time>2026-05-02T07:43:18.999Z</time></trkpt><trkpt lat="43.37086027584361" lon="5.487346059507338"><ele>234.0</ele><time>2026-05-02T07:43:20.999Z</time></trkpt><trkpt lat="43.370803595395124" lon="5.4873952569939535"><ele>234.0</ele><time>2026-05-02T07:43:21.999Z</time></trkpt><trkpt lat="43.370741188335685" lon="5.487439298005824"><ele>234.0</ele><time>2026-05-02T07:43:22.999Z</time></trkpt><trkpt lat="43.37067432043912" lon="5.487481537960541"><ele>234.0</ele><time>2026-05-02T07:43:23.999Z</time></trkpt><trkpt lat="43.37060357425038" lon="5.487520002343171"><ele>234.00000000000003</ele><time>2026-05-02T07:43:24.999Z</time></trkpt><trkpt lat="43.37053234787644" lon="5.4875464063965"><ele>234.0</ele><time>2026-05-02T07:43:25.999Z</time></trkpt><trkpt lat="43.37046380739421" lon="5.487553744498921"><ele>234.0</ele><time>2026-05-02T07:43:26.999Z</time></trkpt><trkpt lat="43.370392522916504" lon="5.4875295719672845"><ele>234.00000000000003</ele><time>2026-05-02T07:43:27.999Z</time></trkpt><trkpt lat="43.37033130205693" lon="5.487474735223178"><ele>234.0</ele><time>2026-05-02T07:43:28.999Z</time></trkpt><trkpt lat="43.37028385183532" lon="5.487393481394936"><ele>234.0</ele><time>2026-05-02T07:43:29.999Z</time></trkpt><trkpt lat="43.37024061366042" lon="5.487309677641996"><ele>233.42857142857144</ele><time>2026-05-02T07:43:30.999Z</time></trkpt><trkpt lat="43.37019272274281" lon="5.487250395851256"><ele>232.8571428571429</ele><time>2026-05-02T07:43:31.999Z</time></trkpt><trkpt lat="43.37012932460422" lon="5.487210013357344"><ele>232.28571428571428</ele><time>2026-05-02T07:43:32.999Z</time></trkpt><trkpt lat="43.370061237371004" lon="5.48721406258338"><ele>231.71428571428572</ele><time>2026-05-02T07:43:33.999Z</time></trkpt><trkpt lat="43.369993543838234" lon="5.487240487980984"><ele>231.14285714285714</ele><time>2026-05-02T07:43:34.999Z</time></trkpt><trkpt lat="43.36992965598289" lon="5.487290518249931"><ele>230.57142857142856</ele><time>2026-05-02T07:43:35.999Z</time></trkpt><trkpt lat="43.36987047437912" lon="5.487341427891121"><ele>229.99999999999997</ele><time>2026-05-02T07:43:36.999Z</time></trkpt><trkpt lat="43.36981908296626" lon="5.487396926316003"><ele>230.00000000000003</ele><time>2026-05-02T07:43:37.999Z</time></trkpt><trkpt lat="43.36976037144415" lon="5.487432928192287"><ele>230.0</ele><time>2026-05-02T07:43:39Z</time></trkpt><trkpt lat="43.369688082538865" lon="5.487452263801319"><ele>230.0</ele><time>2026-05-02T07:43:40Z</time></trkpt><trkpt lat="43.36960749917137" lon="5.487448242707049"><ele>230.0</ele><time>2026-05-02T07:43:41Z</time></trkpt><trkpt lat="43.36953024670184" lon="5.487430124838728"><ele>230.00000000000003</ele><time>2026-05-02T07:43:42Z</time></trkpt><trkpt lat="43.369461840700765" lon="5.487390850793358"><ele>230.0</ele><time>2026-05-02T07:43:44Z</time></trkpt><trkpt lat="43.369382914333166" lon="5.487293982215745"><ele>230.2</ele><time>2026-05-02T07:43:48Z</time></trkpt><trkpt lat="43.36931292607253" lon="5.48719438896947"><ele>230.4</ele><time>2026-05-02T07:43:50Z</time></trkpt><trkpt lat="43.36924491109066" lon="5.487081227408867"><ele>230.60000000000002</ele><time>2026-05-02T07:43:52Z</time></trkpt><trkpt lat="43.36922320320168" lon="5.486920600739449"><ele>230.8</ele><time>2026-05-02T07:43:54Z</time></trkpt><trkpt lat="43.36923412939121" lon="5.486825387152912"><ele>231.0</ele><time>2026-05-02T07:43:55Z</time></trkpt><trkpt lat="43.369244101831136" lon="5.486738323798128"><ele>231.33333333333334</ele><time>2026-05-02T07:43:56Z</time></trkpt><trkpt lat="43.36923881360438" lon="5.486651387823282"><ele>231.66666666666669</ele><time>2026-05-02T07:43:57Z</time></trkpt><trkpt lat="43.3692325362486" lon="5.486550447661906"><ele>232.0</ele><time>2026-05-02T07:43:58Z</time></trkpt><trkpt lat="43.36921577567264" lon="5.486459112204808"><ele>232.33333333333334</ele><time>2026-05-02T07:43:59Z</time></trkpt><trkpt lat="43.369190048432316" lon="5.486367762227982"><ele>232.66666666666669</ele><time>2026-05-02T07:44:00Z</time></trkpt><trkpt lat="43.36916424893991" lon="5.4862802645459725"><ele>233.0</ele><time>2026-05-02T07:44:01Z</time></trkpt><trkpt lat="43.36910189177017" lon="5.48612325186798"><ele>233.0</ele><time>2026-05-02T07:44:03Z</time></trkpt><trkpt lat="43.36900011704575" lon="5.486052800216725"><ele>233.0</ele><time>2026-05-02T07:44:05Z</time></trkpt><trkpt lat="43.36893344741016" lon="5.486057069513419"><ele>233.0</ele><time>2026-05-02T07:44:06Z</time></trkpt><trkpt lat="43.368864631532716" lon="5.486101353232677"><ele>233.0</ele><time>2026-05-02T07:44:07Z</time></trkpt><trkpt lat="43.368801411074024" lon="5.486146487741625"><ele>233.0</ele><time>2026-05-02T07:44:08Z</time></trkpt><trkpt lat="43.36867612913056" lon="5.486173750576712"><ele>230.33333333333334</ele><time>2026-05-02T07:44:10Z</time></trkpt><trkpt lat="43.36855375299035" lon="5.486109748994607"><ele>227.66666666666669</ele><time>2026-05-02T07:44:12Z</time></trkpt><trkpt lat="43.3684916574161" lon="5.486076919464661"><ele>225.0</ele><time>2026-05-02T07:44:13Z</time></trkpt><trkpt lat="43.36842678348938" lon="5.486049723575798"><ele>222.33333333333331</ele><time>2026-05-02T07:44:14Z</time></trkpt><trkpt lat="43.36831732435747" lon="5.485997195436293"><ele>219.66666666666666</ele><time>2026-05-02T07:44:16Z</time></trkpt><trkpt lat="43.36825599103545" lon="5.4859607972240525"><ele>217.0</ele><time>2026-05-02T07:44:17Z</time></trkpt><trkpt lat="43.368202314908224" lon="5.485915013072845"><ele>217.0</ele><time>2026-05-02T07:44:18Z</time></trkpt><trkpt lat="43.368108452486645" lon="5.485844625594177"><ele>217.0</ele><time>2026-05-02T07:44:20Z</time></trkpt><trkpt lat="43.368029810153025" lon="5.485792166796027"><ele>217.0</ele><time>2026-05-02T07:44:22Z</time></trkpt><trkpt lat="43.36795987492966" lon="5.485778430818522"><ele>217.0</ele><time>2026-05-02T07:44:25Z</time></trkpt><trkpt lat="43.36787091363956" lon="5.485790756313656"><ele>217.0</ele><time>2026-05-02T07:44:28Z</time></trkpt><trkpt lat="43.367776570894186" lon="5.48586718163372"><ele>216.33333333333331</ele><time>2026-05-02T07:44:30Z</time></trkpt><trkpt lat="43.36771324468665" lon="5.485926654865"><ele>215.66666666666666</ele><time>2026-05-02T07:44:31Z</time></trkpt><trkpt lat="43.367637585144024" lon="5.485979518919525"><ele>215.0</ele><time>2026-05-02T07:44:32Z</time></trkpt><trkpt lat="43.367563298342105" lon="5.486030215647697"><ele>214.33333333333331</ele><time>2026-05-02T07:44:33Z</time></trkpt><trkpt lat="43.36749707106521" lon="5.486070299208674"><ele>213.66666666666666</ele><time>2026-05-02T07:44:34Z</time></trkpt><trkpt lat="43.36742599680335" lon="5.486112775694985"><ele>213.0</ele><time>2026-05-02T07:44:35Z</time></trkpt><trkpt lat="43.36736818200829" lon="5.486172445041678"><ele>212.7142857142857</ele><time>2026-05-02T07:44:36Z</time></trkpt><trkpt lat="43.36732823482051" lon="5.486266625470446"><ele>212.42857142857142</ele><time>2026-05-02T07:44:37Z</time></trkpt><trkpt lat="43.36729431352894" lon="5.486342187844817"><ele>212.14285714285714</ele><time>2026-05-02T07:44:38Z</time></trkpt><trkpt lat="43.367278821605154" lon="5.4864293320898385"><ele>211.85714285714283</ele><time>2026-05-02T07:44:39Z</time></trkpt><trkpt lat="43.36726020872754" lon="5.48652834789313"><ele>211.57142857142858</ele><time>2026-05-02T07:44:40Z</time></trkpt><trkpt lat="43.367240697013166" lon="5.486636543457044"><ele>211.28571428571428</ele><time>2026-05-02T07:44:41Z</time></trkpt><trkpt lat="43.36720785024253" lon="5.486725613825367"><ele>211.0</ele><time>2026-05-02T07:44:42Z</time></trkpt><trkpt lat="43.36717654095746" lon="5.486816078566956"><ele>211.85714285714286</ele><time>2026-05-02T07:44:43Z</time></trkpt><trkpt lat="43.367153729117234" lon="5.486902923131014"><ele>212.71428571428572</ele><time>2026-05-02T07:44:44Z</time></trkpt><trkpt lat="43.367116919560644" lon="5.487003236164844"><ele>213.57142857142856</ele><time>2026-05-02T07:44:45Z</time></trkpt><trkpt lat="43.36708109331047" lon="5.487081214632773"><ele>214.42857142857144</ele><time>2026-05-02T07:44:46Z</time></trkpt><trkpt lat="43.367026373295694" lon="5.487156836811812"><ele>215.28571428571428</ele><time>2026-05-02T07:44:47Z</time></trkpt><trkpt lat="43.366980436827966" lon="5.487219541497242"><ele>216.14285714285714</ele><time>2026-05-02T07:44:48Z</time></trkpt><trkpt lat="43.3669151732768" lon="5.487281610793258"><ele>217.0</ele><time>2026-05-02T07:44:48.999Z</time></trkpt><trkpt lat="43.36686519966159" lon="5.4873474951958325"><ele>215.14285714285714</ele><time>2026-05-02T07:44:49.999Z</time></trkpt><trkpt lat="43.36682077124528" lon="5.4874154351135775"><ele>213.28571428571428</ele><time>2026-05-02T07:44:50.999Z</time></trkpt><trkpt lat="43.36678431354377" lon="5.487488284088902"><ele>211.42857142857144</ele><time>2026-05-02T07:44:51.999Z</time></trkpt><trkpt lat="43.36674315590775" lon="5.487566312178049"><ele>209.57142857142856</ele><time>2026-05-02T07:44:52.999Z</time></trkpt><trkpt lat="43.36669891023911" lon="5.487641650322842"><ele>207.71428571428572</ele><time>2026-05-02T07:44:53.999Z</time></trkpt><trkpt lat="43.366647533283874" lon="5.487703798402183"><ele>205.85714285714286</ele><time>2026-05-02T07:44:54.999Z</time></trkpt><trkpt lat="43.366590904247175" lon="5.4877675579127745"><ele>204.0</ele><time>2026-05-02T07:44:55.999Z</time></trkpt><trkpt lat="43.36654128854731" lon="5.487825077725562"><ele>204.0</ele><time>2026-05-02T07:44:56.999Z</time></trkpt><trkpt lat="43.366493299025805" lon="5.487888740932728"><ele>204.0</ele><time>2026-05-02T07:44:57.999Z</time></trkpt><trkpt lat="43.36644677773184" lon="5.4879555695400954"><ele>204.0</ele><time>2026-05-02T07:44:58.999Z</time></trkpt><trkpt lat="43.366404662817146" lon="5.488026168227179"><ele>204.0</ele><time>2026-05-02T07:44:59.999Z</time></trkpt><trkpt lat="43.366361247789435" lon="5.488100449882314"><ele>204.0</ele><time>2026-05-02T07:45:00.999Z</time></trkpt><trkpt lat="43.3662860112602" lon="5.488196783746502"><ele>204.0</ele><time>2026-05-02T07:45:02.999Z</time></trkpt><trkpt lat="43.366223242675844" lon="5.48826411139991"><ele>203.83333333333334</ele><time>2026-05-02T07:45:05.999Z</time></trkpt><trkpt lat="43.366158463222995" lon="5.488346525391326"><ele>203.66666666666669</ele><time>2026-05-02T07:45:08.999Z</time></trkpt><trkpt lat="43.366055077127776" lon="5.488419403525568"><ele>203.5</ele><time>2026-05-02T07:45:10.999Z</time></trkpt><trkpt lat="43.36599006839135" lon="5.488458874079743"><ele>203.33333333333334</ele><time>2026-05-02T07:45:11.999Z</time></trkpt><trkpt lat="43.365913838211654" lon="5.488494056741312"><ele>203.16666666666669</ele><time>2026-05-02T07:45:12.999Z</time></trkpt><trkpt lat="43.36584538390997" lon="5.488516373492573"><ele>203.0</ele><time>2026-05-02T07:45:13.999Z</time></trkpt><trkpt lat="43.36572821642043" lon="5.488564477989937"><ele>203.0</ele><time>2026-05-02T07:45:15.999Z</time></trkpt><trkpt lat="43.36562670661675" lon="5.48864932866265"><ele>203.0</ele><time>2026-05-02T07:45:17.999Z</time></trkpt><trkpt lat="43.36552632251611" lon="5.488732059160333"><ele>203.0</ele><time>2026-05-02T07:45:19.999Z</time></trkpt><trkpt lat="43.365463280305626" lon="5.488765467117127"><ele>203.0</ele><time>2026-05-02T07:45:20.999Z</time></trkpt><trkpt lat="43.36540070646585" lon="5.48879724402475"><ele>203.0</ele><time>2026-05-02T07:45:21.999Z</time></trkpt><trkpt lat="43.36530227990842" lon="5.488857500075081"><ele>200.8</ele><time>2026-05-02T07:45:23.999Z</time></trkpt><trkpt lat="43.36520060493538" lon="5.48888312745118"><ele>198.60000000000002</ele><time>2026-05-02T07:45:25.999Z</time></trkpt><trkpt lat="43.36511934796998" lon="5.488928673171095"><ele>196.39999999999998</ele><time>2026-05-02T07:45:27.999Z</time></trkpt><trkpt lat="43.36502470170462" lon="5.488963584190432"><ele>194.2</ele><time>2026-05-02T07:45:29.999Z</time></trkpt><trkpt lat="43.364939384596326" lon="5.488997970978239"><ele>192.0</ele><time>2026-05-02T07:45:31.999Z</time></trkpt><trkpt lat="43.364853506086426" lon="5.489032477100732"><ele>192.0</ele><time>2026-05-02T07:45:33.999Z</time></trkpt><trkpt lat="43.364761740040585" lon="5.489051548402536"><ele>192.0</ele><time>2026-05-02T07:45:35.999Z</time></trkpt><trkpt lat="43.364678573710016" lon="5.489057592261005"><ele>192.0</ele><time>2026-05-02T07:45:37.999Z</time></trkpt><trkpt lat="43.36459532450619" lon="5.489064675727366"><ele>192.0</ele><time>2026-05-02T07:45:39.999Z</time></trkpt><trkpt lat="43.36451260446124" lon="5.48907434977379"><ele>192.0</ele><time>2026-05-02T07:45:41.999Z</time></trkpt><trkpt lat="43.36442359344396" lon="5.489084834369072"><ele>192.0</ele><time>2026-05-02T07:45:43.999Z</time></trkpt><trkpt lat="43.36433433793615" lon="5.489082649985078"><ele>191.39999999999998</ele><time>2026-05-02T07:45:46Z</time></trkpt><trkpt lat="43.36424536082435" lon="5.489069146600406"><ele>190.79999999999998</ele><time>2026-05-02T07:45:48Z</time></trkpt><trkpt lat="43.36415369654919" lon="5.489077131401815"><ele>190.2</ele><time>2026-05-02T07:45:50Z</time></trkpt><trkpt lat="43.36406205546608" lon="5.489090016081424"><ele>189.6</ele><time>2026-05-02T07:45:52Z</time></trkpt><trkpt lat="43.36396805394733" lon="5.489089777107433"><ele>189.0</ele><time>2026-05-02T07:45:54Z</time></trkpt><trkpt lat="43.36387592010741" lon="5.489098737927002"><ele>188.66666666666666</ele><time>2026-05-02T07:45:56Z</time></trkpt><trkpt lat="43.36378448671162" lon="5.489100771629089"><ele>188.33333333333334</ele><time>2026-05-02T07:45:58Z</time></trkpt><trkpt lat="43.36369445311648" lon="5.489103313842701"><ele>188.0</ele><time>2026-05-02T07:46:00Z</time></trkpt><trkpt lat="43.363602051941136" lon="5.489095905774687"><ele>187.66666666666669</ele><time>2026-05-02T07:46:02Z</time></trkpt><trkpt lat="43.363516823679944" lon="5.489081530255152"><ele>187.33333333333334</ele><time>2026-05-02T07:46:04Z</time></trkpt><trkpt lat="43.36345028158227" lon="5.489049507021801"><ele>187.0</ele><time>2026-05-02T07:46:07Z</time></trkpt><trkpt lat="43.363378181129335" lon="5.4890451808197245"><ele>187.0</ele><time>2026-05-02T07:46:11Z</time></trkpt><trkpt lat="43.36329877969893" lon="5.489049614306042"><ele>187.0</ele><time>2026-05-02T07:46:14Z</time></trkpt><trkpt lat="43.36320828099179" lon="5.4890642659274915"><ele>187.0</ele><time>2026-05-02T07:46:17Z</time></trkpt><trkpt lat="43.36312750452347" lon="5.489070874813284"><ele>187.0</ele><time>2026-05-02T07:46:20Z</time></trkpt><trkpt lat="43.36305428016484" lon="5.489101204996506"><ele>187.0</ele><time>2026-05-02T07:54:11Z</time></trkpt><trkpt lat="43.36309885501174" lon="5.489199555267389"><ele>187.0</ele><time>2026-05-02T07:54:14Z</time></trkpt><trkpt lat="43.36315006623794" lon="5.489316580528952"><ele>187.0</ele><time>2026-05-02T07:54:16Z</time></trkpt><trkpt lat="43.36321362256653" lon="5.489456875029989"><ele>187.0</ele><time>2026-05-02T07:54:18Z</time></trkpt><trkpt lat="43.36325375191824" lon="5.489557981087289"><ele>187.0</ele><time>2026-05-02T07:54:19Z</time></trkpt><trkpt lat="43.36329427632393" lon="5.48965904832643"><ele>187.0</ele><time>2026-05-02T07:54:20Z</time></trkpt><trkpt lat="43.3633303283133" lon="5.48974880140657"><ele>187.0</ele><time>2026-05-02T07:54:21Z</time></trkpt><trkpt lat="43.36336431184446" lon="5.489831143110815"><ele>187.0</ele><time>2026-05-02T07:54:22Z</time></trkpt><trkpt lat="43.363394493514356" lon="5.489915771603251"><ele>186.8</ele><time>2026-05-02T07:54:23Z</time></trkpt><trkpt lat="43.363418515272514" lon="5.490000297384045"><ele>186.6</ele><time>2026-05-02T07:54:24Z</time></trkpt><trkpt lat="43.36345165324617" lon="5.490154679053276"><ele>186.4</ele><time>2026-05-02T07:54:26Z</time></trkpt><trkpt lat="43.36348934937457" lon="5.49027085652113"><ele>186.20000000000002</ele><time>2026-05-02T07:54:28Z</time></trkpt><trkpt lat="43.36351238884429" lon="5.490376474279328"><ele>186.0</ele><time>2026-05-02T07:54:31Z</time></trkpt><trkpt lat="43.363407650541625" lon="5.49040632584805"><ele>185.20000000000002</ele><time>2026-05-02T07:54:32Z</time></trkpt><trkpt lat="43.363329945588845" lon="5.490484449987984"><ele>184.4</ele><time>2026-05-02T07:54:34Z</time></trkpt><trkpt lat="43.363252109087625" lon="5.490569092541211"><ele>183.6</ele><time>2026-05-02T07:54:36Z</time></trkpt><trkpt lat="43.363172186564775" lon="5.490655183388092"><ele>182.8</ele><time>2026-05-02T07:54:38Z</time></trkpt><trkpt lat="43.363092863345614" lon="5.490739268531295"><ele>182.0</ele><time>2026-05-02T07:54:40Z</time></trkpt><trkpt lat="43.36300904149046" lon="5.490822158975962"><ele>182.0</ele><time>2026-05-02T07:54:42Z</time></trkpt><trkpt lat="43.362927659245656" lon="5.490888707984811"><ele>182.0</ele><time>2026-05-02T07:54:44Z</time></trkpt><trkpt lat="43.36286403160022" lon="5.490939539770619"><ele>182.0</ele><time>2026-05-02T07:54:47Z</time></trkpt><trkpt lat="43.36278296120112" lon="5.490990155972734"><ele>182.0</ele><time>2026-05-02T07:55:03.999Z</time></trkpt><trkpt lat="43.36271633601849" lon="5.491046935261636"><ele>182.0</ele><time>2026-05-02T07:55:05.999Z</time></trkpt><trkpt lat="43.362631183765416" lon="5.491124305075582"><ele>182.0</ele><time>2026-05-02T07:55:07.999Z</time></trkpt><trkpt lat="43.36254039223568" lon="5.491221069214146"><ele>183.8</ele><time>2026-05-02T07:55:09.999Z</time></trkpt><trkpt lat="43.36245904162503" lon="5.4913299484559674"><ele>185.6</ele><time>2026-05-02T07:55:11.999Z</time></trkpt><trkpt lat="43.362387877023856" lon="5.49144679812428"><ele>187.4</ele><time>2026-05-02T07:55:13.999Z</time></trkpt><trkpt lat="43.36232111229376" lon="5.491553127060366"><ele>189.20000000000002</ele><time>2026-05-02T07:55:15.999Z</time></trkpt><trkpt lat="43.36226643867831" lon="5.491681366982332"><ele>191.0</ele><time>2026-05-02T07:55:17.999Z</time></trkpt><trkpt lat="43.36222866288042" lon="5.4918246918280476"><ele>188.60000000000002</ele><time>2026-05-02T07:55:19.999Z</time></trkpt><trkpt lat="43.36219707033418" lon="5.49195889728652"><ele>186.2</ele><time>2026-05-02T07:55:21.999Z</time></trkpt><trkpt lat="43.36217202827264" lon="5.492097715815299"><ele>183.8</ele><time>2026-05-02T07:55:23.999Z</time></trkpt><trkpt lat="43.362159610155" lon="5.492242572865747"><ele>181.39999999999998</ele><time>2026-05-02T07:55:25.999Z</time></trkpt><trkpt lat="43.362148017047645" lon="5.492382687211113"><ele>179.0</ele><time>2026-05-02T07:55:27.999Z</time></trkpt><trkpt lat="43.36213788131623" lon="5.4925100622190755"><ele>179.0</ele><time>2026-05-02T07:55:29.999Z</time></trkpt><trkpt lat="43.3621280538684" lon="5.492633563205821"><ele>179.0</ele><time>2026-05-02T07:55:31.999Z</time></trkpt><trkpt lat="43.36212082104581" lon="5.492793924106581"><ele>179.0</ele><time>2026-05-02T07:55:33.999Z</time></trkpt><trkpt lat="43.36211164347978" lon="5.4928827134924765"><ele>179.0</ele><time>2026-05-02T07:55:34.999Z</time></trkpt><trkpt lat="43.36208146450083" lon="5.492974681376742"><ele>179.0</ele><time>2026-05-02T07:55:35.999Z</time></trkpt><trkpt lat="43.3620136843401" lon="5.49304503012332"><ele>179.0</ele><time>2026-05-02T07:55:36.999Z</time></trkpt><trkpt lat="43.361946580827635" lon="5.49312534526842"><ele>178.33333333333331</ele><time>2026-05-02T07:55:37.999Z</time></trkpt><trkpt lat="43.36187024908546" lon="5.493209880026466"><ele>177.66666666666666</ele><time>2026-05-02T07:55:38.999Z</time></trkpt><trkpt lat="43.361798775887614" lon="5.493287786971842"><ele>177.0</ele><time>2026-05-02T07:55:39.999Z</time></trkpt><trkpt lat="43.36173447046816" lon="5.493357880960922"><ele>176.33333333333334</ele><time>2026-05-02T07:55:40.999Z</time></trkpt><trkpt lat="43.36167897520773" lon="5.493437022946778"><ele>175.66666666666669</ele><time>2026-05-02T07:55:41.999Z</time></trkpt><trkpt lat="43.361648607371635" lon="5.493533720954574"><ele>175.0</ele><time>2026-05-02T07:55:42.999Z</time></trkpt><trkpt lat="43.36161738131014" lon="5.493624583632279"><ele>175.0</ele><time>2026-05-02T07:55:43.999Z</time></trkpt><trkpt lat="43.36160518458131" lon="5.493715507851442"><ele>175.0</ele><time>2026-05-02T07:55:44.999Z</time></trkpt><trkpt lat="43.36157240665205" lon="5.493809259479178"><ele>175.0</ele><time>2026-05-02T07:55:46.999Z</time></trkpt><trkpt lat="43.36145903143623" lon="5.493811147676867"><ele>175.0</ele><time>2026-05-02T07:55:49.999Z</time></trkpt><trkpt lat="43.361353407513505" lon="5.493793205636443"><ele>175.0</ele><time>2026-05-02T07:55:51.999Z</time></trkpt><trkpt lat="43.361243280640835" lon="5.493822256862167"><ele>174.33333333333334</ele><time>2026-05-02T07:55:53.999Z</time></trkpt><trkpt lat="43.36118270084108" lon="5.4938459566895395"><ele>173.66666666666669</ele><time>2026-05-02T07:55:54.999Z</time></trkpt><trkpt lat="43.36106541511832" lon="5.49389184944737"><ele>173.0</ele><time>2026-05-02T07:55:56.999Z</time></trkpt><trkpt lat="43.360950689529545" lon="5.493930515737818"><ele>172.33333333333334</ele><time>2026-05-02T07:55:58.999Z</time></trkpt><trkpt lat="43.360889864413224" lon="5.49395620631236"><ele>171.66666666666666</ele><time>2026-05-02T07:55:59.999Z</time></trkpt><trkpt lat="43.36082805380009" lon="5.493984263296733"><ele>171.0</ele><time>2026-05-02T07:56:00.999Z</time></trkpt><trkpt lat="43.36076303973391" lon="5.494005162842474"><ele>170.99999999999997</ele><time>2026-05-02T07:56:01.999Z</time></trkpt><trkpt lat="43.36069617546545" lon="5.494025136031715"><ele>171.0</ele><time>2026-05-02T07:56:02.999Z</time></trkpt><trkpt lat="43.36063290116199" lon="5.4940498921408985"><ele>171.0</ele><time>2026-05-02T07:56:03.999Z</time></trkpt><trkpt lat="43.3605686607404" lon="5.49407269089317"><ele>171.0</ele><time>2026-05-02T07:56:04.999Z</time></trkpt><trkpt lat="43.36050322289701" lon="5.494089609922828"><ele>171.0</ele><time>2026-05-02T07:56:05.999Z</time></trkpt><trkpt lat="43.360437373192546" lon="5.49409413636504"><ele>170.99999999999997</ele><time>2026-05-02T07:56:06.999Z</time></trkpt><trkpt lat="43.3603708681492" lon="5.494096572100982"><ele>171.0</ele><time>2026-05-02T07:56:07.999Z</time></trkpt><trkpt lat="43.36030311789214" lon="5.49409222135266"><ele>171.0</ele><time>2026-05-02T07:56:08.999Z</time></trkpt><trkpt lat="43.360174134141104" lon="5.4940733154329"><ele>171.0</ele><time>2026-05-02T07:56:10.999Z</time></trkpt><trkpt lat="43.36011059672534" lon="5.494063186133545"><ele>171.0</ele><time>2026-05-02T07:56:11.999Z</time></trkpt><trkpt lat="43.36004577588659" lon="5.494056161235401"><ele>171.0</ele><time>2026-05-02T07:56:13Z</time></trkpt><trkpt lat="43.35998059122504" lon="5.494049085795533"><ele>171.0</ele><time>2026-05-02T07:56:14Z</time></trkpt><trkpt lat="43.35991530607962" lon="5.494037733978784"><ele>171.0</ele><time>2026-05-02T07:56:15Z</time></trkpt><trkpt lat="43.35984854506659" lon="5.494022789932563"><ele>171.0</ele><time>2026-05-02T07:56:16Z</time></trkpt><trkpt lat="43.35978174754222" lon="5.494008835580225"><ele>171.0</ele><time>2026-05-02T07:56:17Z</time></trkpt><trkpt lat="43.35971672326084" lon="5.493996263703531"><ele>171.0</ele><time>2026-05-02T07:56:18Z</time></trkpt><trkpt lat="43.35965268133266" lon="5.493981766972668"><ele>171.0</ele><time>2026-05-02T07:56:19Z</time></trkpt><trkpt lat="43.35952807828481" lon="5.4939380356489895"><ele>171.0</ele><time>2026-05-02T07:56:21Z</time></trkpt><trkpt lat="43.35946622917573" lon="5.49390773921664"><ele>171.0</ele><time>2026-05-02T07:56:22Z</time></trkpt><trkpt lat="43.35940767861181" lon="5.493874815068481"><ele>170.85714285714283</ele><time>2026-05-02T07:56:23Z</time></trkpt><trkpt lat="43.359348512949914" lon="5.493830347570919"><ele>170.71428571428572</ele><time>2026-05-02T07:56:24Z</time></trkpt><trkpt lat="43.35929086305015" lon="5.493784742873535"><ele>170.57142857142856</ele><time>2026-05-02T07:56:25Z</time></trkpt><trkpt lat="43.35923584829446" lon="5.493735407010173"><ele>170.42857142857142</ele><time>2026-05-02T07:56:26Z</time></trkpt><trkpt lat="43.359181949955996" lon="5.4936837531014024"><ele>170.28571428571428</ele><time>2026-05-02T07:56:27Z</time></trkpt><trkpt lat="43.359129514157836" lon="5.493627513607048"><ele>170.14285714285714</ele><time>2026-05-02T07:56:28Z</time></trkpt><trkpt lat="43.35908004682435" lon="5.4935662083866745"><ele>170.0</ele><time>2026-05-02T07:56:29Z</time></trkpt><trkpt lat="43.35903070520801" lon="5.493505073020264"><ele>170.0</ele><time>2026-05-02T07:56:30Z</time></trkpt><trkpt lat="43.35898159506676" lon="5.493438802773013"><ele>170.0</ele><time>2026-05-02T07:56:31Z</time></trkpt><trkpt lat="43.35893653793993" lon="5.4933702680655125"><ele>170.0</ele><time>2026-05-02T07:56:32Z</time></trkpt><trkpt lat="43.35889209166367" lon="5.493300472929602"><ele>170.0</ele><time>2026-05-02T07:56:33Z</time></trkpt><trkpt lat="43.35885069875109" lon="5.49322954890831"><ele>170.0</ele><time>2026-05-02T07:56:34Z</time></trkpt><trkpt lat="43.35880960120094" lon="5.493158685985358"><ele>170.0</ele><time>2026-05-02T07:56:35Z</time></trkpt><trkpt lat="43.35877074952695" lon="5.493089122714319"><ele>170.0</ele><time>2026-05-02T07:56:36Z</time></trkpt><trkpt lat="43.35873586333458" lon="5.4930155888735515"><ele>169.71428571428572</ele><time>2026-05-02T07:56:37Z</time></trkpt><trkpt lat="43.35869813764885" lon="5.4929421953912225"><ele>169.42857142857142</ele><time>2026-05-02T07:56:38Z</time></trkpt><trkpt lat="43.3586624810286" lon="5.492867277007892"><ele>169.14285714285714</ele><time>2026-05-02T07:56:39Z</time></trkpt><trkpt lat="43.35862578520067" lon="5.4927906129749084"><ele>168.85714285714286</ele><time>2026-05-02T07:56:40Z</time></trkpt><trkpt lat="43.35859225095278" lon="5.49271490634607"><ele>168.57142857142856</ele><time>2026-05-02T07:56:41Z</time></trkpt><trkpt lat="43.35855508757577" lon="5.492639951887594"><ele>168.28571428571428</ele><time>2026-05-02T07:56:42Z</time></trkpt><trkpt lat="43.35852048856765" lon="5.49256698302392"><ele>168.0</ele><time>2026-05-02T07:56:43Z</time></trkpt><trkpt lat="43.35848371579261" lon="5.4924886795946595"><ele>168.0</ele><time>2026-05-02T07:56:44Z</time></trkpt><trkpt lat="43.35841244685356" lon="5.49233883456769"><ele>168.0</ele><time>2026-05-02T07:56:46Z</time></trkpt><trkpt lat="43.35837714284573" lon="5.492264149772261"><ele>168.0</ele><time>2026-05-02T07:56:47Z</time></trkpt><trkpt lat="43.35834211000655" lon="5.49218601425565"><ele>168.0</ele><time>2026-05-02T07:56:48Z</time></trkpt><trkpt lat="43.35830575863673" lon="5.4921037866134155"><ele>168.0</ele><time>2026-05-02T07:56:49Z</time></trkpt><trkpt lat="43.358236824453755" lon="5.491950111317579"><ele>167.71428571428572</ele><time>2026-05-02T07:56:51Z</time></trkpt><trkpt lat="43.358202358519975" lon="5.491872234720816"><ele>167.42857142857144</ele><time>2026-05-02T07:56:52Z</time></trkpt><trkpt lat="43.358165890555995" lon="5.491796208121342"><ele>167.14285714285714</ele><time>2026-05-02T07:56:53Z</time></trkpt><trkpt lat="43.35812804880835" lon="5.491719560763381"><ele>166.85714285714286</ele><time>2026-05-02T07:56:54Z</time></trkpt><trkpt lat="43.35808960801452" lon="5.491642509456985"><ele>166.57142857142858</ele><time>2026-05-02T07:56:55Z</time></trkpt><trkpt lat="43.35805378104524" lon="5.491566826513217"><ele>166.28571428571428</ele><time>2026-05-02T07:56:56Z</time></trkpt><trkpt lat="43.35802074924016" lon="5.491483061836557"><ele>166.0</ele><time>2026-05-02T07:56:57Z</time></trkpt><trkpt lat="43.35798477741899" lon="5.491403280674786"><ele>166.14285714285714</ele><time>2026-05-02T07:56:58Z</time></trkpt><trkpt lat="43.357946641543805" lon="5.491326569689209"><ele>166.2857142857143</ele><time>2026-05-02T07:56:59Z</time></trkpt><trkpt lat="43.35790817426027" lon="5.491246364170102"><ele>166.42857142857144</ele><time>2026-05-02T07:57:00Z</time></trkpt><trkpt lat="43.357871411493086" lon="5.4911646418432305"><ele>166.57142857142856</ele><time>2026-05-02T07:57:01Z</time></trkpt><trkpt lat="43.35783398584641" lon="5.491086017895026"><ele>166.71428571428572</ele><time>2026-05-02T07:57:02Z</time></trkpt><trkpt lat="43.35779956804725" lon="5.4910047473140455"><ele>166.85714285714286</ele><time>2026-05-02T07:57:03Z</time></trkpt><trkpt lat="43.35776629828845" lon="5.490923786248425"><ele>167.0</ele><time>2026-05-02T07:57:04Z</time></trkpt><trkpt lat="43.35773346261216" lon="5.4908425448911204"><ele>167.0</ele><time>2026-05-02T07:57:05Z</time></trkpt><trkpt lat="43.357699923386996" lon="5.49076179379018"><ele>167.0</ele><time>2026-05-02T07:57:06Z</time></trkpt><trkpt lat="43.35766644079401" lon="5.4906761953868175"><ele>167.0</ele><time>2026-05-02T07:57:07Z</time></trkpt><trkpt lat="43.35763560476432" lon="5.4905899046325635"><ele>167.0</ele><time>2026-05-02T07:57:08Z</time></trkpt><trkpt lat="43.35761492037386" lon="5.490503991762264"><ele>167.0</ele><time>2026-05-02T07:57:09Z</time></trkpt><trkpt lat="43.35759211090829" lon="5.490415454571252"><ele>167.0</ele><time>2026-05-02T07:57:10Z</time></trkpt><trkpt lat="43.35757365995905" lon="5.4903265019864795"><ele>167.0</ele><time>2026-05-02T07:57:10.999Z</time></trkpt><trkpt lat="43.35753805973369" lon="5.490150115544753"><ele>166.33333333333331</ele><time>2026-05-02T07:57:12.999Z</time></trkpt><trkpt lat="43.357519407331814" lon="5.4900657006012565"><ele>165.66666666666666</ele><time>2026-05-02T07:57:13.999Z</time></trkpt><trkpt lat="43.35748141565243" lon="5.489892470193524"><ele>165.0</ele><time>2026-05-02T07:57:15.999Z</time></trkpt><trkpt lat="43.357463439706464" lon="5.489807044835987"><ele>164.33333333333334</ele><time>2026-05-02T07:57:16.999Z</time></trkpt><trkpt lat="43.35744574212554" lon="5.4897219922122735"><ele>163.66666666666669</ele><time>2026-05-02T07:57:17.999Z</time></trkpt><trkpt lat="43.357424786322035" lon="5.489637017817093"><ele>163.0</ele><time>2026-05-02T07:57:18.999Z</time></trkpt><trkpt lat="43.35740926610074" lon="5.489551687955136"><ele>162.71428571428572</ele><time>2026-05-02T07:57:19.999Z</time></trkpt><trkpt lat="43.357391701472345" lon="5.489466230580545"><ele>162.42857142857142</ele><time>2026-05-02T07:57:20.999Z</time></trkpt><trkpt lat="43.357373583789624" lon="5.489377094806081"><ele>162.14285714285714</ele><time>2026-05-02T07:57:21.999Z</time></trkpt><trkpt lat="43.357354825646695" lon="5.489290395156869"><ele>161.85714285714286</ele><time>2026-05-02T07:57:22.999Z</time></trkpt><trkpt lat="43.35733764398873" lon="5.489205035049707"><ele>161.57142857142856</ele><time>2026-05-02T07:57:23.999Z</time></trkpt><trkpt lat="43.35731990922184" lon="5.489118468525902"><ele>161.28571428571428</ele><time>2026-05-02T07:57:24.999Z</time></trkpt><trkpt lat="43.357299909043384" lon="5.489034129459095"><ele>161.0</ele><time>2026-05-02T07:57:25.999Z</time></trkpt><trkpt lat="43.35728138193892" lon="5.488948385617777"><ele>161.0</ele><time>2026-05-02T07:57:26.999Z</time></trkpt><trkpt lat="43.35726348755376" lon="5.488861057872567"><ele>161.0</ele><time>2026-05-02T07:57:27.999Z</time></trkpt><trkpt lat="43.35724428448857" lon="5.488776971236564"><ele>161.0</ele><time>2026-05-02T07:57:28.999Z</time></trkpt><trkpt lat="43.357225963763035" lon="5.48869254193198"><ele>161.0</ele><time>2026-05-02T07:57:29.999Z</time></trkpt><trkpt lat="43.35720284215724" lon="5.488526695086612"><ele>161.0</ele><time>2026-05-02T07:57:31.999Z</time></trkpt><trkpt lat="43.3572279521793" lon="5.488437166028727"><ele>161.0</ele><time>2026-05-02T07:57:32.999Z</time></trkpt><trkpt lat="43.3572689484691" lon="5.488363960873024"><ele>161.0</ele><time>2026-05-02T07:57:33.999Z</time></trkpt><trkpt lat="43.357292887293795" lon="5.488206319133899"><ele>161.0</ele><time>2026-05-02T07:57:35.999Z</time></trkpt><trkpt lat="43.357227529134306" lon="5.488138757264825"><ele>161.0</ele><time>2026-05-02T07:57:36.999Z</time></trkpt><trkpt lat="43.357119343105225" lon="5.488051292940543"><ele>161.0</ele><time>2026-05-02T07:57:38.999Z</time></trkpt><trkpt lat="43.357075200010264" lon="5.487988691877411"><ele>161.0</ele><time>2026-05-02T07:57:39.999Z</time></trkpt><trkpt lat="43.3570562531636" lon="5.487904968996376"><ele>160.4</ele><time>2026-05-02T07:57:40.999Z</time></trkpt><trkpt lat="43.35704626440921" lon="5.487818973894308"><ele>159.8</ele><time>2026-05-02T07:57:41.999Z</time></trkpt><trkpt lat="43.357012560355614" lon="5.487660388534523"><ele>159.20000000000002</ele><time>2026-05-02T07:57:43.999Z</time></trkpt><trkpt lat="43.35697347828417" lon="5.487502328992139"><ele>158.60000000000002</ele><time>2026-05-02T07:57:45.999Z</time></trkpt><trkpt lat="43.35694499401791" lon="5.487338648539339"><ele>158.0</ele><time>2026-05-02T07:57:47.999Z</time></trkpt><trkpt lat="43.35691205792363" lon="5.4871731642293975"><ele>158.0</ele><time>2026-05-02T07:57:49.999Z</time></trkpt><trkpt lat="43.356873235684205" lon="5.487015183817892"><ele>158.0</ele><time>2026-05-02T07:57:51.999Z</time></trkpt><trkpt lat="43.35684251014576" lon="5.486857606552715"><ele>158.0</ele><time>2026-05-02T07:57:53.999Z</time></trkpt><trkpt lat="43.35680858805241" lon="5.4866994515555945"><ele>158.0</ele><time>2026-05-02T07:57:55.999Z</time></trkpt><trkpt lat="43.356773080338385" lon="5.4865572516641405"><ele>158.0</ele><time>2026-05-02T07:57:57.999Z</time></trkpt><trkpt lat="43.356739102528174" lon="5.486397662266374"><ele>158.0</ele><time>2026-05-02T07:57:59.999Z</time></trkpt><trkpt lat="43.35668885938156" lon="5.48625175500293"><ele>158.0</ele><time>2026-05-02T07:58:01.999Z</time></trkpt><trkpt lat="43.356646373892005" lon="5.486102901091181"><ele>158.0</ele><time>2026-05-02T07:58:03.999Z</time></trkpt><trkpt lat="43.356586270150196" lon="5.485973611180906"><ele>158.0</ele><time>2026-05-02T07:58:05.999Z</time></trkpt><trkpt lat="43.35650868548992" lon="5.485843452734526"><ele>158.0</ele><time>2026-05-02T07:58:07.999Z</time></trkpt><trkpt lat="43.35644062050115" lon="5.4857774322132045"><ele>158.0</ele><time>2026-05-02T07:58:09.999Z</time></trkpt><trkpt lat="43.35638409560689" lon="5.48571189505462"><ele>158.0</ele><time>2026-05-02T07:58:12.999Z</time></trkpt><trkpt lat="43.356338764554096" lon="5.485640639353913"><ele>158.0</ele><time>2026-05-02T07:58:14.999Z</time></trkpt><trkpt lat="43.356266581886615" lon="5.485572783303687"><ele>158.0</ele><time>2026-05-02T07:58:16.999Z</time></trkpt><trkpt lat="43.35617941257725" lon="5.485500988161109"><ele>158.0</ele><time>2026-05-02T07:58:19Z</time></trkpt><trkpt lat="43.35608832791281" lon="5.485445343410217"><ele>158.0</ele><time>2026-05-02T07:58:21Z</time></trkpt><trkpt lat="43.35599269040144" lon="5.485393191719464"><ele>158.0</ele><time>2026-05-02T07:58:23Z</time></trkpt><trkpt lat="43.355894800046606" lon="5.485351934100496"><ele>158.0</ele><time>2026-05-02T07:58:25Z</time></trkpt><trkpt lat="43.35578914833533" lon="5.485316566865458"><ele>158.0</ele><time>2026-05-02T07:58:27Z</time></trkpt><trkpt lat="43.355684432535945" lon="5.485279465581517"><ele>158.5</ele><time>2026-05-02T07:58:29Z</time></trkpt><trkpt lat="43.355567276446926" lon="5.4852333210469695"><ele>159.0</ele><time>2026-05-02T07:58:31Z</time></trkpt><trkpt lat="43.35542242081143" lon="5.485188803921881"><ele>159.5</ele><time>2026-05-02T07:58:33Z</time></trkpt><trkpt lat="43.35535998596463" lon="5.485166600368003"><ele>160.0</ele><time>2026-05-02T07:58:34Z</time></trkpt><trkpt lat="43.35523978764901" lon="5.485123854531752"><ele>159.42857142857142</ele><time>2026-05-02T07:58:36Z</time></trkpt><trkpt lat="43.35513150280879" lon="5.485084775770643"><ele>158.85714285714286</ele><time>2026-05-02T07:58:38Z</time></trkpt><trkpt lat="43.355065529367636" lon="5.485060638267789"><ele>158.28571428571428</ele><time>2026-05-02T07:58:39Z</time></trkpt><trkpt lat="43.35499964268182" lon="5.485036303272472"><ele>157.71428571428572</ele><time>2026-05-02T07:58:40Z</time></trkpt><trkpt lat="43.35493655632108" lon="5.485009959516605"><ele>157.14285714285714</ele><time>2026-05-02T07:58:41Z</time></trkpt><trkpt lat="43.354872026883974" lon="5.484982208794994"><ele>156.57142857142858</ele><time>2026-05-02T07:58:42Z</time></trkpt><trkpt lat="43.35480983259641" lon="5.484953563899606"><ele>156.0</ele><time>2026-05-02T07:58:43Z</time></trkpt><trkpt lat="43.35474267836582" lon="5.484918860041381"><ele>155.8</ele><time>2026-05-02T07:58:44Z</time></trkpt><trkpt lat="43.354627783008034" lon="5.484855661833288"><ele>155.6</ele><time>2026-05-02T07:58:46Z</time></trkpt><trkpt lat="43.35451266783988" lon="5.48479518817851"><ele>155.4</ele><time>2026-05-02T07:58:48Z</time></trkpt><trkpt lat="43.354447129843244" lon="5.484771995325474"><ele>155.2</ele><time>2026-05-02T07:58:49Z</time></trkpt><trkpt lat="43.35439861730385" lon="5.484666615530262"><ele>155.0</ele><time>2026-05-02T07:58:51Z</time></trkpt><trkpt lat="43.354338035064195" lon="5.48460821992159"><ele>155.0</ele><time>2026-05-02T07:58:52Z</time></trkpt><trkpt lat="43.354261896226944" lon="5.484614841301109"><ele>155.0</ele><time>2026-05-02T07:58:53Z</time></trkpt><trkpt lat="43.35419999522934" lon="5.484667901110242"><ele>155.0</ele><time>2026-05-02T07:58:54Z</time></trkpt><trkpt lat="43.35413479064651" lon="5.484671502762015"><ele>155.0</ele><time>2026-05-02T07:58:55Z</time></trkpt><trkpt lat="43.35402915469799" lon="5.484616310802784"><ele>155.0</ele><time>2026-05-02T07:58:57Z</time></trkpt><trkpt lat="43.35397190688404" lon="5.484578696576157"><ele>155.0</ele><time>2026-05-02T07:58:58Z</time></trkpt><trkpt lat="43.35393979488864" lon="5.484455043689966"><ele>154.8</ele><time>2026-05-02T07:58:59Z</time></trkpt><trkpt lat="43.35382099669511" lon="5.484384980272421"><ele>154.6</ele><time>2026-05-02T07:59:01Z</time></trkpt><trkpt lat="43.353760053281164" lon="5.484349001985145"><ele>154.4</ele><time>2026-05-02T07:59:02Z</time></trkpt><trkpt lat="43.35369929352886" lon="5.484312438404998"><ele>154.2</ele><time>2026-05-02T07:59:03Z</time></trkpt><trkpt lat="43.353593228981424" lon="5.484240154697992"><ele>154.0</ele><time>2026-05-02T07:59:05Z</time></trkpt><trkpt lat="43.35350035468223" lon="5.484156004891141"><ele>154.0</ele><time>2026-05-02T07:59:07Z</time></trkpt><trkpt lat="43.35341038232734" lon="5.48404765799685"><ele>154.0</ele><time>2026-05-02T07:59:09Z</time></trkpt><trkpt lat="43.353368455710694" lon="5.483982281619665"><ele>154.0</ele><time>2026-05-02T07:59:10Z</time></trkpt><trkpt lat="43.35332563362727" lon="5.483917913329284"><ele>154.0</ele><time>2026-05-02T07:59:11Z</time></trkpt><trkpt lat="43.35328154033736" lon="5.483846350036584"><ele>154.0</ele><time>2026-05-02T07:59:12Z</time></trkpt><trkpt lat="43.353239965248484" lon="5.483779097679094"><ele>154.0</ele><time>2026-05-02T07:59:13Z</time></trkpt><trkpt lat="43.35316215068113" lon="5.483653223925717"><ele>154.4</ele><time>2026-05-02T07:59:15Z</time></trkpt><trkpt lat="43.35308512923385" lon="5.483520977904077"><ele>154.8</ele><time>2026-05-02T07:59:17Z</time></trkpt><trkpt lat="43.35304551751195" lon="5.483450082722285"><ele>155.2</ele><time>2026-05-02T07:59:18Z</time></trkpt><trkpt lat="43.352969653525996" lon="5.483421775616252"><ele>155.6</ele><time>2026-05-02T07:59:19Z</time></trkpt><trkpt lat="43.352940418289094" lon="5.483342364758495"><ele>156.0</ele><time>2026-05-02T07:59:20Z</time></trkpt><trkpt lat="43.35288594865632" lon="5.483187348486638"><ele>155.14285714285714</ele><time>2026-05-02T07:59:22Z</time></trkpt><trkpt lat="43.35286415365153" lon="5.483104372624354"><ele>154.28571428571428</ele><time>2026-05-02T07:59:23Z</time></trkpt><trkpt lat="43.35284532146796" lon="5.483020969696268"><ele>153.42857142857142</ele><time>2026-05-02T07:59:24Z</time></trkpt><trkpt lat="43.352869579192436" lon="5.482920806373809"><ele>152.57142857142856</ele><time>2026-05-02T07:59:24.999Z</time></trkpt><trkpt lat="43.35284935126467" lon="5.482836017615399"><ele>151.71428571428572</ele><time>2026-05-02T07:59:25.999Z</time></trkpt><trkpt lat="43.352829217585224" lon="5.482751623945306"><ele>150.85714285714283</ele><time>2026-05-02T07:59:26.999Z</time></trkpt><trkpt lat="43.352808542260924" lon="5.482664959859257"><ele>150.0</ele><time>2026-05-02T07:59:27.999Z</time></trkpt><trkpt lat="43.352788528213736" lon="5.482581067680246"><ele>149.83333333333334</ele><time>2026-05-02T07:59:28.999Z</time></trkpt><trkpt lat="43.352747455711715" lon="5.482408721257685"><ele>149.66666666666666</ele><time>2026-05-02T07:59:30.999Z</time></trkpt><trkpt lat="43.35272590394449" lon="5.482317455696405"><ele>149.5</ele><time>2026-05-02T07:59:31.999Z</time></trkpt><trkpt lat="43.352705256247404" lon="5.482230018690576"><ele>149.33333333333331</ele><time>2026-05-02T07:59:32.999Z</time></trkpt><trkpt lat="43.35268597366493" lon="5.482146952959574"><ele>149.16666666666666</ele><time>2026-05-02T07:59:33.999Z</time></trkpt><trkpt lat="43.35266550205832" lon="5.482054830361668"><ele>149.0</ele><time>2026-05-02T07:59:34.999Z</time></trkpt><trkpt lat="43.35262995688496" lon="5.481892439155258"><ele>149.0</ele><time>2026-05-02T07:59:36.999Z</time></trkpt><trkpt lat="43.35260973426689" lon="5.481806675750397"><ele>149.0</ele><time>2026-05-02T07:59:37.999Z</time></trkpt><trkpt lat="43.35258969115843" lon="5.481722883881346"><ele>149.0</ele><time>2026-05-02T07:59:38.999Z</time></trkpt><trkpt lat="43.35256930705534" lon="5.48163800297245"><ele>149.0</ele><time>2026-05-02T07:59:39.999Z</time></trkpt><trkpt lat="43.352548752442985" lon="5.481552412056284"><ele>149.0</ele><time>2026-05-02T07:59:40.999Z</time></trkpt><trkpt lat="43.352527401039005" lon="5.481463503239416"><ele>149.0</ele><time>2026-05-02T07:59:41.999Z</time></trkpt><trkpt lat="43.35250720978714" lon="5.481379425383395"><ele>149.0</ele><time>2026-05-02T07:59:42.999Z</time></trkpt><trkpt lat="43.35248631074068" lon="5.48129240020492"><ele>148.85714285714286</ele><time>2026-05-02T07:59:43.999Z</time></trkpt><trkpt lat="43.3524658616113" lon="5.481207248493166"><ele>148.7142857142857</ele><time>2026-05-02T07:59:44.999Z</time></trkpt><trkpt lat="43.35244435293697" lon="5.481117595898994"><ele>148.57142857142856</ele><time>2026-05-02T07:59:45.999Z</time></trkpt><trkpt lat="43.35242385158631" lon="5.481032134075265"><ele>148.42857142857142</ele><time>2026-05-02T07:59:46.999Z</time></trkpt><trkpt lat="43.3524037066918" lon="5.48094819177844"><ele>148.28571428571428</ele><time>2026-05-02T07:59:47.999Z</time></trkpt><trkpt lat="43.352384294828596" lon="5.480862869858253"><ele>148.14285714285714</ele><time>2026-05-02T07:59:48.999Z</time></trkpt><trkpt lat="43.352365010867224" lon="5.480778110117809"><ele>148.0</ele><time>2026-05-02T07:59:49.999Z</time></trkpt><trkpt lat="43.352345709193145" lon="5.480693272526115"><ele>148.0</ele><time>2026-05-02T07:59:50.999Z</time></trkpt><trkpt lat="43.35232529850307" lon="5.480603560407292"><ele>148.0</ele><time>2026-05-02T07:59:51.999Z</time></trkpt><trkpt lat="43.35230596064884" lon="5.480519902522117"><ele>148.0</ele><time>2026-05-02T07:59:52.999Z</time></trkpt><trkpt lat="43.352285204836456" lon="5.480438073621842"><ele>148.0</ele><time>2026-05-02T07:59:53.999Z</time></trkpt><trkpt lat="43.35226343133154" lon="5.480352232496125"><ele>148.0</ele><time>2026-05-02T07:59:54.999Z</time></trkpt><trkpt lat="43.35224195951617" lon="5.480266963655216"><ele>148.0</ele><time>2026-05-02T07:59:55.999Z</time></trkpt><trkpt lat="43.35220199197926" lon="5.480099968157793"><ele>147.5</ele><time>2026-05-02T07:59:57.999Z</time></trkpt><trkpt lat="43.3521658561065" lon="5.479942013435177"><ele>147.0</ele><time>2026-05-02T07:59:59.999Z</time></trkpt><trkpt lat="43.35213100459089" lon="5.4797754941889325"><ele>146.5</ele><time>2026-05-02T08:00:01.999Z</time></trkpt><trkpt lat="43.35210282543103" lon="5.4796080626941785"><ele>146.0</ele><time>2026-05-02T08:00:03.999Z</time></trkpt><trkpt lat="43.35208172013376" lon="5.479438336275053"><ele>146.0</ele><time>2026-05-02T08:00:05.999Z</time></trkpt><trkpt lat="43.352070363557104" lon="5.479273519585077"><ele>146.0</ele><time>2026-05-02T08:00:07.999Z</time></trkpt><trkpt lat="43.352066156414374" lon="5.479184288249511"><ele>146.0</ele><time>2026-05-02T08:00:08.999Z</time></trkpt><trkpt lat="43.35205808567587" lon="5.479013112001169"><ele>146.0</ele><time>2026-05-02T08:00:10.999Z</time></trkpt><trkpt lat="43.35205390667913" lon="5.478924477631346"><ele>146.0</ele><time>2026-05-02T08:00:11.999Z</time></trkpt><trkpt lat="43.352049789264385" lon="5.478837149372083"><ele>146.0</ele><time>2026-05-02T08:00:12.999Z</time></trkpt><trkpt lat="43.352045482124794" lon="5.478747648465362"><ele>145.71428571428572</ele><time>2026-05-02T08:00:13.999Z</time></trkpt><trkpt lat="43.352041129480554" lon="5.478659500018289"><ele>145.42857142857144</ele><time>2026-05-02T08:00:14.999Z</time></trkpt><trkpt lat="43.352036506799124" lon="5.4785658828212895"><ele>145.14285714285717</ele><time>2026-05-02T08:00:15.999Z</time></trkpt><trkpt lat="43.35203214568431" lon="5.478477562759765"><ele>144.85714285714286</ele><time>2026-05-02T08:00:16.999Z</time></trkpt><trkpt lat="43.352027898409375" lon="5.478387903045753"><ele>144.57142857142858</ele><time>2026-05-02T08:00:17.999Z</time></trkpt><trkpt lat="43.35202348443363" lon="5.4782951718178685"><ele>144.2857142857143</ele><time>2026-05-02T08:00:18.999Z</time></trkpt><trkpt lat="43.35201927483178" lon="5.478206734186907"><ele>144.0</ele><time>2026-05-02T08:00:19.999Z</time></trkpt><trkpt lat="43.35201483072833" lon="5.478113370013246"><ele>144.00000000000003</ele><time>2026-05-02T08:00:20.999Z</time></trkpt><trkpt lat="43.352010432309356" lon="5.47802096561437"><ele>144.0</ele><time>2026-05-02T08:00:21.999Z</time></trkpt><trkpt lat="43.35200611714049" lon="5.477930310171577"><ele>144.0</ele><time>2026-05-02T08:00:22.999Z</time></trkpt><trkpt lat="43.35200162694734" lon="5.47783597773278"><ele>144.0</ele><time>2026-05-02T08:00:24Z</time></trkpt><trkpt lat="43.351997188411644" lon="5.477742730536384"><ele>144.0</ele><time>2026-05-02T08:00:25Z</time></trkpt><trkpt lat="43.35199272195609" lon="5.477648896800663"><ele>144.00000000000003</ele><time>2026-05-02T08:00:26Z</time></trkpt><trkpt lat="43.35198827274729" lon="5.477555425392963"><ele>144.0</ele><time>2026-05-02T08:00:27Z</time></trkpt><trkpt lat="43.3519837900101" lon="5.4774612492545955"><ele>144.00000000000003</ele><time>2026-05-02T08:00:28Z</time></trkpt><trkpt lat="43.35197927453833" lon="5.477368883532536"><ele>144.0</ele><time>2026-05-02T08:00:29Z</time></trkpt><trkpt lat="43.351974895328276" lon="5.477278529582277"><ele>144.0</ele><time>2026-05-02T08:00:30Z</time></trkpt><trkpt lat="43.35197079894658" lon="5.477188038514582"><ele>144.0</ele><time>2026-05-02T08:00:31Z</time></trkpt><trkpt lat="43.35196682357029" lon="5.477099071497214"><ele>144.0</ele><time>2026-05-02T08:00:32Z</time></trkpt><trkpt lat="43.35192549004945" lon="5.4770135881780915"><ele>144.00000000000003</ele><time>2026-05-02T08:00:33Z</time></trkpt><trkpt lat="43.35191756106668" lon="5.4769246749153515"><ele>144.0</ele><time>2026-05-02T08:00:34Z</time></trkpt><trkpt lat="43.351909435457756" lon="5.47683735172578"><ele>144.0</ele><time>2026-05-02T08:00:35Z</time></trkpt><trkpt lat="43.35190456338473" lon="5.476750718159409"><ele>144.0</ele><time>2026-05-02T08:00:36Z</time></trkpt><trkpt lat="43.35189168734234" lon="5.476588773630189"><ele>144.0</ele><time>2026-05-02T08:00:38Z</time></trkpt><trkpt lat="43.35188635836747" lon="5.476427372849125"><ele>144.0</ele><time>2026-05-02T08:00:40Z</time></trkpt><trkpt lat="43.35192879699904" lon="5.476271693374995"><ele>144.0</ele><time>2026-05-02T08:00:42Z</time></trkpt><trkpt lat="43.35192284219571" lon="5.476139574655738"><ele>143.4</ele><time>2026-05-02T08:00:44Z</time></trkpt><trkpt lat="43.35191818621062" lon="5.476036272670629"><ele>142.8</ele><time>2026-05-02T08:00:47Z</time></trkpt><trkpt lat="43.351914280745255" lon="5.475949622439499"><ele>142.2</ele><time>2026-05-02T08:00:49Z</time></trkpt><trkpt lat="43.35190701715116" lon="5.475801715185283"><ele>141.6</ele><time>2026-05-02T08:00:51Z</time></trkpt><trkpt lat="43.351899258440504" lon="5.475644692076115"><ele>141.0</ele><time>2026-05-02T08:00:53Z</time></trkpt><trkpt lat="43.35189118969128" lon="5.475481394239529"><ele>141.2</ele><time>2026-05-02T08:00:55Z</time></trkpt><trkpt lat="43.35188295748108" lon="5.475314788272228"><ele>141.39999999999998</ele><time>2026-05-02T08:00:57Z</time></trkpt><trkpt lat="43.35187856526251" lon="5.4752258971707475"><ele>141.6</ele><time>2026-05-02T08:00:58Z</time></trkpt><trkpt lat="43.35187016136125" lon="5.475055816439258"><ele>141.79999999999998</ele><time>2026-05-02T08:01:00Z</time></trkpt><trkpt lat="43.351861746570755" lon="5.474885515343766"><ele>142.0</ele><time>2026-05-02T08:01:02Z</time></trkpt><trkpt lat="43.351857298103006" lon="5.474795485870803"><ele>142.0</ele><time>2026-05-02T08:01:03Z</time></trkpt><trkpt lat="43.35185299258118" lon="5.4747083494151685"><ele>142.0</ele><time>2026-05-02T08:01:04Z</time></trkpt><trkpt lat="43.35184850083041" lon="5.474617443971463"><ele>142.0</ele><time>2026-05-02T08:01:05Z</time></trkpt><trkpt lat="43.35184402008032" lon="5.474526761181669"><ele>142.0</ele><time>2026-05-02T08:01:06Z</time></trkpt><trkpt lat="43.35183968696189" lon="5.474439066197833"><ele>142.0</ele><time>2026-05-02T08:01:07Z</time></trkpt><trkpt lat="43.3518352782959" lon="5.4743498422663714"><ele>142.0</ele><time>2026-05-02T08:01:08Z</time></trkpt><trkpt lat="43.35183079556265" lon="5.47425911933176"><ele>142.0</ele><time>2026-05-02T08:01:09Z</time></trkpt><trkpt lat="43.35182625152421" lon="5.47416715568891"><ele>142.0</ele><time>2026-05-02T08:01:10Z</time></trkpt><trkpt lat="43.35182195228684" lon="5.4740801459723425"><ele>142.0</ele><time>2026-05-02T08:01:11Z</time></trkpt><trkpt lat="43.351817718042376" lon="5.473988871933602"><ele>142.0</ele><time>2026-05-02T08:01:12Z</time></trkpt><trkpt lat="43.35181359136108" lon="5.473901697710397"><ele>142.0</ele><time>2026-05-02T08:01:13Z</time></trkpt><trkpt lat="43.35180931866886" lon="5.473811439026791"><ele>142.0</ele><time>2026-05-02T08:01:14Z</time></trkpt><trkpt lat="43.351804932517815" lon="5.473718783603515"><ele>142.0</ele><time>2026-05-02T08:01:15Z</time></trkpt><trkpt lat="43.35180074157935" lon="5.473630251956315"><ele>142.0</ele><time>2026-05-02T08:01:16Z</time></trkpt><trkpt lat="43.351796546262236" lon="5.473541627751225"><ele>141.85714285714286</ele><time>2026-05-02T08:01:17Z</time></trkpt><trkpt lat="43.351790610694614" lon="5.473450590294423"><ele>141.7142857142857</ele><time>2026-05-02T08:01:18Z</time></trkpt><trkpt lat="43.35178734386955" lon="5.473358626103762"><ele>141.57142857142856</ele><time>2026-05-02T08:01:19Z</time></trkpt><trkpt lat="43.35178122406311" lon="5.473272315532338"><ele>141.42857142857142</ele><time>2026-05-02T08:01:20Z</time></trkpt><trkpt lat="43.35176846902309" lon="5.473179146455193"><ele>141.28571428571428</ele><time>2026-05-02T08:01:21Z</time></trkpt><trkpt lat="43.351755195836986" lon="5.473090843012312"><ele>141.14285714285714</ele><time>2026-05-02T08:01:22Z</time></trkpt><trkpt lat="43.35174137645865" lon="5.473005685516418"><ele>141.0</ele><time>2026-05-02T08:01:23Z</time></trkpt><trkpt lat="43.35171917374999" lon="5.472917941853475"><ele>141.0</ele><time>2026-05-02T08:01:24Z</time></trkpt><trkpt lat="43.351670505698394" lon="5.472753594016984"><ele>141.0</ele><time>2026-05-02T08:01:26Z</time></trkpt><trkpt lat="43.35164193426087" lon="5.472674552290842"><ele>141.0</ele><time>2026-05-02T08:01:27Z</time></trkpt><trkpt lat="43.35160965321868" lon="5.472592300492376"><ele>141.0</ele><time>2026-05-02T08:01:28Z</time></trkpt><trkpt lat="43.35153928946863" lon="5.472450304309928"><ele>141.0</ele><time>2026-05-02T08:01:30Z</time></trkpt><trkpt lat="43.351460814644184" lon="5.472319692629498"><ele>141.0</ele><time>2026-05-02T08:01:32Z</time></trkpt><trkpt lat="43.351379261614134" lon="5.472192970505326"><ele>141.0</ele><time>2026-05-02T08:01:33.999Z</time></trkpt><trkpt lat="43.35128531857064" lon="5.472086032837659"><ele>141.0</ele><time>2026-05-02T08:01:35.999Z</time></trkpt><trkpt lat="43.35120480703531" lon="5.471957661893154"><ele>141.0</ele><time>2026-05-02T08:01:37.999Z</time></trkpt><trkpt lat="43.35111957022171" lon="5.471836430087646"><ele>140.25</ele><time>2026-05-02T08:01:39.999Z</time></trkpt><trkpt lat="43.35103952389177" lon="5.471708856772972"><ele>139.5</ele><time>2026-05-02T08:01:41.999Z</time></trkpt><trkpt lat="43.35095684342939" lon="5.471584164966123"><ele>138.75</ele><time>2026-05-02T08:01:43.999Z</time></trkpt><trkpt lat="43.35087601321471" lon="5.471467561580883"><ele>138.0</ele><time>2026-05-02T08:01:45.999Z</time></trkpt><trkpt lat="43.350793965133334" lon="5.471346116231676"><ele>138.0</ele><time>2026-05-02T08:01:47.999Z</time></trkpt><trkpt lat="43.350702915527414" lon="5.47124024515347"><ele>138.0</ele><time>2026-05-02T08:01:49.999Z</time></trkpt><trkpt lat="43.350615071021814" lon="5.4711402042715624"><ele>138.0</ele><time>2026-05-02T08:01:51.999Z</time></trkpt><trkpt lat="43.35053094639009" lon="5.471039334427938"><ele>138.0</ele><time>2026-05-02T08:01:53.999Z</time></trkpt><trkpt lat="43.35044324696003" lon="5.470941225278302"><ele>138.0</ele><time>2026-05-02T08:01:55.999Z</time></trkpt><trkpt lat="43.35035637071514" lon="5.470844871764134"><ele>138.0</ele><time>2026-05-02T08:01:57.999Z</time></trkpt><trkpt lat="43.350273374785516" lon="5.470744947768389"><ele>138.0</ele><time>2026-05-02T08:01:59.999Z</time></trkpt><trkpt lat="43.35018582413468" lon="5.470640227040105"><ele>138.0</ele><time>2026-05-02T08:02:01.999Z</time></trkpt><trkpt lat="43.35009930372037" lon="5.47054326920559"><ele>138.75</ele><time>2026-05-02T08:02:03.999Z</time></trkpt><trkpt lat="43.35001287369384" lon="5.470436680237372"><ele>139.5</ele><time>2026-05-02T08:02:05.999Z</time></trkpt><trkpt lat="43.34993766048051" lon="5.470322942214752"><ele>140.25</ele><time>2026-05-02T08:02:07.999Z</time></trkpt><trkpt lat="43.349859113401436" lon="5.470211100104817"><ele>141.0</ele><time>2026-05-02T08:02:09.999Z</time></trkpt><trkpt lat="43.349774528225254" lon="5.470103710983315"><ele>141.0</ele><time>2026-05-02T08:02:11.999Z</time></trkpt><trkpt lat="43.34970976294064" lon="5.469976040925339"><ele>141.0</ele><time>2026-05-02T08:02:13.999Z</time></trkpt><trkpt lat="43.34964016722748" lon="5.469848938622094"><ele>141.0</ele><time>2026-05-02T08:02:15.999Z</time></trkpt><trkpt lat="43.349577540941794" lon="5.469716350577428"><ele>141.0</ele><time>2026-05-02T08:02:17.999Z</time></trkpt><trkpt lat="43.34951570131474" lon="5.469575253415523"><ele>140.0</ele><time>2026-05-02T08:02:19.999Z</time></trkpt><trkpt lat="43.349452202407015" lon="5.4694315842417245"><ele>139.0</ele><time>2026-05-02T08:02:21.999Z</time></trkpt><trkpt lat="43.34939051607221" lon="5.469293565958607"><ele>138.0</ele><time>2026-05-02T08:02:23.999Z</time></trkpt><trkpt lat="43.34933757345323" lon="5.4692060496994825"><ele>137.0</ele><time>2026-05-02T08:02:25.999Z</time></trkpt><trkpt lat="43.34929932137669" lon="5.469107335143688"><ele>136.0</ele><time>2026-05-02T08:02:30Z</time></trkpt><trkpt lat="43.349270176787094" lon="5.469003407859651"><ele>136.0</ele><time>2026-05-02T08:02:32Z</time></trkpt><trkpt lat="43.34927046357154" lon="5.468863534803525"><ele>136.0</ele><time>2026-05-02T08:02:34Z</time></trkpt><trkpt lat="43.34935991757109" lon="5.4687769604302385"><ele>136.0</ele><time>2026-05-02T08:02:36Z</time></trkpt><trkpt lat="43.34946373885804" lon="5.468741023787022"><ele>136.0</ele><time>2026-05-02T08:02:38Z</time></trkpt><trkpt lat="43.34956151222625" lon="5.468698238682823"><ele>136.0</ele><time>2026-05-02T08:02:40Z</time></trkpt><trkpt lat="43.34965911375832" lon="5.468655869225024"><ele>136.6</ele><time>2026-05-02T08:02:42Z</time></trkpt><trkpt lat="43.349762274126505" lon="5.468616678625921"><ele>137.2</ele><time>2026-05-02T08:02:44Z</time></trkpt><trkpt lat="43.34986505081011" lon="5.4685729507577685"><ele>137.8</ele><time>2026-05-02T08:02:46Z</time></trkpt><trkpt lat="43.349967240949205" lon="5.468534098859248"><ele>138.4</ele><time>2026-05-02T08:02:48Z</time></trkpt><trkpt lat="43.35006749577937" lon="5.4684862627540785"><ele>139.0</ele><time>2026-05-02T08:02:50Z</time></trkpt><trkpt lat="43.350168737055164" lon="5.46845325075722"><ele>139.0</ele><time>2026-05-02T08:02:52Z</time></trkpt><trkpt lat="43.350268136882086" lon="5.468443618220688"><ele>139.0</ele><time>2026-05-02T08:02:54Z</time></trkpt><trkpt lat="43.35035967982178" lon="5.468398824580822"><ele>139.0</ele><time>2026-05-02T08:02:56Z</time></trkpt><trkpt lat="43.35046197161451" lon="5.46837270029022"><ele>139.0</ele><time>2026-05-02T08:02:58Z</time></trkpt><trkpt lat="43.35056450786307" lon="5.468339031157902"><ele>139.0</ele><time>2026-05-02T08:03:00Z</time></trkpt><trkpt lat="43.35066920826106" lon="5.468316492638208"><ele>139.0</ele><time>2026-05-02T08:03:02Z</time></trkpt><trkpt lat="43.35077655809169" lon="5.468290877006424"><ele>139.0</ele><time>2026-05-02T08:03:04Z</time></trkpt><trkpt lat="43.3508854283487" lon="5.468275063444222"><ele>139.0</ele><time>2026-05-02T08:03:06Z</time></trkpt><trkpt lat="43.350993832853874" lon="5.468267247072011"><ele>139.0</ele><time>2026-05-02T08:03:08Z</time></trkpt><trkpt lat="43.35108548903526" lon="5.468264839737686"><ele>139.0</ele><time>2026-05-02T08:03:10Z</time></trkpt><trkpt lat="43.3511970164787" lon="5.46825816810763"><ele>139.0</ele><time>2026-05-02T08:03:12Z</time></trkpt><trkpt lat="43.351296704238905" lon="5.468235127402537"><ele>139.0</ele><time>2026-05-02T08:03:14Z</time></trkpt><trkpt lat="43.35140426463624" lon="5.46823678956024"><ele>139.0</ele><time>2026-05-02T08:03:16Z</time></trkpt><trkpt lat="43.35150392140037" lon="5.468233534747681"><ele>139.0</ele><time>2026-05-02T08:03:18Z</time></trkpt><trkpt lat="43.35158960631607" lon="5.468223640439612"><ele>139.0</ele><time>2026-05-02T08:03:20Z</time></trkpt><trkpt lat="43.351661206732814" lon="5.468185328429064"><ele>139.5</ele><time>2026-05-02T08:03:22Z</time></trkpt><trkpt lat="43.35172932091732" lon="5.46811908823894"><ele>140.0</ele><time>2026-05-02T08:03:24Z</time></trkpt><trkpt lat="43.35180781698552" lon="5.46806340735129"><ele>140.5</ele><time>2026-05-02T08:03:26Z</time></trkpt><trkpt lat="43.35189125503936" lon="5.46800893927186"><ele>141.0</ele><time>2026-05-02T08:03:28Z</time></trkpt><trkpt lat="43.351969364109024" lon="5.467941448648069"><ele>141.5</ele><time>2026-05-02T08:03:30Z</time></trkpt><trkpt lat="43.352043863746374" lon="5.467866017724033"><ele>142.0</ele><time>2026-05-02T08:03:32Z</time></trkpt><trkpt lat="43.35212507131564" lon="5.467786153340118"><ele>142.2</ele><time>2026-05-02T08:03:33.999Z</time></trkpt><trkpt lat="43.35220630107813" lon="5.46769406142836"><ele>142.39999999999998</ele><time>2026-05-02T08:03:35.999Z</time></trkpt><trkpt lat="43.35229017954031" lon="5.467608364406248"><ele>142.60000000000002</ele><time>2026-05-02T08:03:37.999Z</time></trkpt><trkpt lat="43.352379068407565" lon="5.467532469752975"><ele>142.8</ele><time>2026-05-02T08:03:39.999Z</time></trkpt><trkpt lat="43.35246971974559" lon="5.467458039502427"><ele>143.0</ele><time>2026-05-02T08:03:41.999Z</time></trkpt><trkpt lat="43.35256601809566" lon="5.467388449641518"><ele>143.8</ele><time>2026-05-02T08:03:43.999Z</time></trkpt><trkpt lat="43.35266153182182" lon="5.467323438242578"><ele>144.60000000000002</ele><time>2026-05-02T08:03:45.999Z</time></trkpt><trkpt lat="43.3527589980465" lon="5.46726227985568"><ele>145.39999999999998</ele><time>2026-05-02T08:03:47.999Z</time></trkpt><trkpt lat="43.352858954516854" lon="5.4671927608678"><ele>146.2</ele><time>2026-05-02T08:03:49.999Z</time></trkpt><trkpt lat="43.352957530064856" lon="5.467121830200919"><ele>147.0</ele><time>2026-05-02T08:03:51.999Z</time></trkpt><trkpt lat="43.3530550331582" lon="5.467045808470745"><ele>147.79999999999998</ele><time>2026-05-02T08:03:53.999Z</time></trkpt><trkpt lat="43.353164482525806" lon="5.467024603311251"><ele>148.6</ele><time>2026-05-02T08:03:55.999Z</time></trkpt><trkpt lat="43.35327375125895" lon="5.467053202115159"><ele>149.39999999999998</ele><time>2026-05-02T08:03:57.999Z</time></trkpt><trkpt lat="43.35337925256286" lon="5.4670097536743345"><ele>150.2</ele><time>2026-05-02T08:03:59.999Z</time></trkpt><trkpt lat="43.35344464479883" lon="5.466887409267022"><ele>151.0</ele><time>2026-05-02T08:04:01.999Z</time></trkpt><trkpt lat="43.35351076656009" lon="5.466768642645271"><ele>151.0</ele><time>2026-05-02T08:04:03.999Z</time></trkpt><trkpt lat="43.35360858715696" lon="5.4667062698589985"><ele>151.0</ele><time>2026-05-02T08:04:05.999Z</time></trkpt><trkpt lat="43.35370966860738" lon="5.466644107425245"><ele>151.0</ele><time>2026-05-02T08:04:07.999Z</time></trkpt><trkpt lat="43.353815122918235" lon="5.466587760055029"><ele>151.0</ele><time>2026-05-02T08:04:09.999Z</time></trkpt><trkpt lat="43.353920025283124" lon="5.466529021092677"><ele>151.0</ele><time>2026-05-02T08:04:11.999Z</time></trkpt><trkpt lat="43.3540329794296" lon="5.466489944920906"><ele>151.75</ele><time>2026-05-02T08:04:13.999Z</time></trkpt><trkpt lat="43.35414267253277" lon="5.4664417239633725"><ele>152.5</ele><time>2026-05-02T08:04:15.999Z</time></trkpt><trkpt lat="43.35425280348864" lon="5.466392613797016"><ele>153.25</ele><time>2026-05-02T08:04:17.999Z</time></trkpt><trkpt lat="43.35436042856825" lon="5.466348350455623"><ele>154.0</ele><time>2026-05-02T08:04:19.999Z</time></trkpt><trkpt lat="43.35447129685514" lon="5.466322538292837"><ele>154.0</ele><time>2026-05-02T08:04:21.999Z</time></trkpt><trkpt lat="43.354581032114446" lon="5.466314937894683"><ele>154.0</ele><time>2026-05-02T08:04:23.999Z</time></trkpt><trkpt lat="43.354681132518884" lon="5.466387190912568"><ele>154.0</ele><time>2026-05-02T08:04:25.999Z</time></trkpt><trkpt lat="43.3547840600323" lon="5.466433996061756"><ele>154.0</ele><time>2026-05-02T08:04:27.999Z</time></trkpt><trkpt lat="43.354890253745694" lon="5.466372564752097"><ele>154.0</ele><time>2026-05-02T08:04:29.999Z</time></trkpt><trkpt lat="43.35499178042147" lon="5.466318395900532"><ele>154.0</ele><time>2026-05-02T08:04:31.999Z</time></trkpt><trkpt lat="43.35510109025871" lon="5.4663616083749265"><ele>154.0</ele><time>2026-05-02T08:04:33.999Z</time></trkpt><trkpt lat="43.355206838492414" lon="5.466409275595404"><ele>154.0</ele><time>2026-05-02T08:04:36Z</time></trkpt><trkpt lat="43.35531978464293" lon="5.466436132754794"><ele>154.0</ele><time>2026-05-02T08:04:38Z</time></trkpt><trkpt lat="43.35543348247266" lon="5.466463446368213"><ele>155.0</ele><time>2026-05-02T08:04:40Z</time></trkpt><trkpt lat="43.355546670967655" lon="5.4664935219979744"><ele>156.0</ele><time>2026-05-02T08:04:42Z</time></trkpt><trkpt lat="43.35565987670003" lon="5.466531092979133"><ele>157.0</ele><time>2026-05-02T08:04:44Z</time></trkpt><trkpt lat="43.35577201592487" lon="5.466558785669293"><ele>158.0</ele><time>2026-05-02T08:04:46Z</time></trkpt><trkpt lat="43.355880871454374" lon="5.466583424953939"><ele>158.0</ele><time>2026-05-02T08:04:48Z</time></trkpt><trkpt lat="43.35599135730085" lon="5.466614058220529"><ele>158.0</ele><time>2026-05-02T08:04:50Z</time></trkpt><trkpt lat="43.35610043561909" lon="5.466638585725645"><ele>158.0</ele><time>2026-05-02T08:04:52Z</time></trkpt><trkpt lat="43.35621078630572" lon="5.466655060936839"><ele>158.0</ele><time>2026-05-02T08:04:54Z</time></trkpt><trkpt lat="43.356319987354986" lon="5.466663461948128"><ele>158.0</ele><time>2026-05-02T08:04:56Z</time></trkpt><trkpt lat="43.35642618089436" lon="5.466674740894182"><ele>159.0</ele><time>2026-05-02T08:04:58Z</time></trkpt><trkpt lat="43.356514565557625" lon="5.46664955075663"><ele>160.0</ele><time>2026-05-02T08:05:00Z</time></trkpt><trkpt lat="43.35652443079112" lon="5.466520000861189"><ele>161.0</ele><time>2026-05-02T08:05:01Z</time></trkpt><trkpt lat="43.35654460944059" lon="5.466367671940973"><ele>162.0</ele><time>2026-05-02T08:05:03Z</time></trkpt><trkpt lat="43.35657090275149" lon="5.466216788293104"><ele>163.0</ele><time>2026-05-02T08:05:05Z</time></trkpt><trkpt lat="43.35657625641384" lon="5.4660610850322815"><ele>163.0</ele><time>2026-05-02T08:05:07Z</time></trkpt><trkpt lat="43.35653362220219" lon="5.465930447612976"><ele>163.0</ele><time>2026-05-02T08:05:09Z</time></trkpt><trkpt lat="43.356478237275006" lon="5.465806829954492"><ele>163.0</ele><time>2026-05-02T08:05:11Z</time></trkpt><trkpt lat="43.35642641225301" lon="5.465685533433579"><ele>163.0</ele><time>2026-05-02T08:05:13Z</time></trkpt><trkpt lat="43.35637556545449" lon="5.465559031284759"><ele>163.0</ele><time>2026-05-02T08:05:15Z</time></trkpt><trkpt lat="43.35632092916393" lon="5.465425135168027"><ele>163.60000000000002</ele><time>2026-05-02T08:05:17Z</time></trkpt><trkpt lat="43.356264355623566" lon="5.465298434212108"><ele>164.20000000000002</ele><time>2026-05-02T08:05:19Z</time></trkpt><trkpt lat="43.35622632674995" lon="5.46516012506688"><ele>164.8</ele><time>2026-05-02T08:05:21Z</time></trkpt><trkpt lat="43.356270184733354" lon="5.465035237962736"><ele>165.4</ele><time>2026-05-02T08:05:23Z</time></trkpt><trkpt lat="43.356342966924466" lon="5.464947800592471"><ele>166.0</ele><time>2026-05-02T08:05:25Z</time></trkpt><trkpt lat="43.356408845640686" lon="5.464861922957474"><ele>166.66666666666669</ele><time>2026-05-02T08:05:27Z</time></trkpt><trkpt lat="43.35646563600081" lon="5.464775819574187"><ele>167.33333333333334</ele><time>2026-05-02T08:05:29Z</time></trkpt><trkpt lat="43.356514333302" lon="5.464688427515605"><ele>168.0</ele><time>2026-05-02T08:05:30.999Z</time></trkpt><trkpt lat="43.35652016774995" lon="5.464577657209552"><ele>168.66666666666666</ele><time>2026-05-02T08:05:32.999Z</time></trkpt><trkpt lat="43.35648046478359" lon="5.464487421020617"><ele>169.33333333333331</ele><time>2026-05-02T08:05:34.999Z</time></trkpt><trkpt lat="43.35642181352329" lon="5.464408526297578"><ele>170.0</ele><time>2026-05-02T08:05:36.999Z</time></trkpt><trkpt lat="43.35637388629931" lon="5.464316679997138"><ele>170.33333333333331</ele><time>2026-05-02T08:05:38.999Z</time></trkpt><trkpt lat="43.356325601932575" lon="5.4642315225280615"><ele>170.66666666666666</ele><time>2026-05-02T08:05:40.999Z</time></trkpt><trkpt lat="43.356273455228504" lon="5.464144864149254"><ele>171.0</ele><time>2026-05-02T08:05:42.999Z</time></trkpt><trkpt lat="43.35622417419219" lon="5.46405471899173"><ele>171.33333333333334</ele><time>2026-05-02T08:05:44.999Z</time></trkpt><trkpt lat="43.356192515931475" lon="5.463955869283986"><ele>171.66666666666669</ele><time>2026-05-02T08:05:46.999Z</time></trkpt><trkpt lat="43.35617215610816" lon="5.463871010493522"><ele>172.0</ele><time>2026-05-02T08:05:48.999Z</time></trkpt><trkpt lat="43.35616391967766" lon="5.463778331595682"><ele>173.14285714285717</ele><time>2026-05-02T08:05:50.999Z</time></trkpt><trkpt lat="43.35617280781044" lon="5.4636845752519685"><ele>174.28571428571428</ele><time>2026-05-02T08:05:52.999Z</time></trkpt><trkpt lat="43.35618866642664" lon="5.463591239509992"><ele>175.42857142857144</ele><time>2026-05-02T08:05:54.999Z</time></trkpt><trkpt lat="43.35621140293004" lon="5.463505629581841"><ele>176.57142857142858</ele><time>2026-05-02T08:05:56.999Z</time></trkpt><trkpt lat="43.356229561164795" lon="5.463416835203912"><ele>177.71428571428572</ele><time>2026-05-02T08:05:58.999Z</time></trkpt><trkpt lat="43.35624353563748" lon="5.463329473061631"><ele>178.85714285714286</ele><time>2026-05-02T08:06:00.999Z</time></trkpt><trkpt lat="43.35628168664933" lon="5.46321023016398"><ele>180.0</ele><time>2026-05-02T08:06:03.999Z</time></trkpt><trkpt lat="43.35632522927065" lon="5.463098765691972"><ele>180.0</ele><time>2026-05-02T08:06:06.999Z</time></trkpt><trkpt lat="43.35635891723523" lon="5.463025502384023"><ele>180.0</ele><time>2026-05-02T08:06:08.999Z</time></trkpt><trkpt lat="43.356418079294755" lon="5.462934995550529"><ele>180.0</ele><time>2026-05-02T08:06:11.999Z</time></trkpt><trkpt lat="43.35646580748437" lon="5.462875842950324"><ele>180.0</ele><time>2026-05-02T08:06:13.999Z</time></trkpt><trkpt lat="43.356540555824274" lon="5.462811808242007"><ele>180.0</ele><time>2026-05-02T08:06:16.999Z</time></trkpt><trkpt lat="43.35661482194061" lon="5.46279375615317"><ele>180.0</ele><time>2026-05-02T08:06:19.999Z</time></trkpt><trkpt lat="43.35669720194169" lon="5.462809226082826"><ele>196.0</ele><time>2026-05-02T08:06:22.999Z</time></trkpt><trkpt lat="43.356762250110506" lon="5.462801350835551"><ele>196.0</ele><time>2026-05-02T08:06:26.999Z</time></trkpt></trkseg></trk></gpx>